<?xml version="1.0" encoding="UTF-8" standalone="no" ?>
<gpx xmlns="http://www.topografix.com/GPX/1/1" xmlns:xsi="http://www.w3.org/2001/XMLSchema-instance" xsi:schemaLocation="http://www.topografix.com/GPX/1/1 http://www.topografix.com/GPX/1/1/gpx.xsd" version="1.1" creator="VisuGPX - https://www.visugpx.com">
  <metadata>
    <name>2011-05-08 1042 La Montagne De Charamel</name>
    <desc><![CDATA[Entrainement pour le gr20 (sac de 11.5kg).
Très sympa avec de nombreux points de vue et de jolis passages au dessus des rivières.]]></desc>
  </metadata>
  <trk>
    <name><![CDATA[2011-05-08 10:42]]></name>
    <trkseg>
      <trkpt lat="43.84356" lon="6.85974">
        <ele>945</ele>
        <time>2011-05-08T08:42:24Z</time>
      </trkpt>
      <trkpt lat="43.84356" lon="6.85974">
        <ele>945</ele>
        <time>2011-05-08T08:42:24Z</time>
      </trkpt>
      <trkpt lat="43.84356" lon="6.85974">
        <ele>947</ele>
        <time>2011-05-08T08:42:39Z</time>
      </trkpt>
      <trkpt lat="43.84359" lon="6.85969">
        <ele>951</ele>
        <time>2011-05-08T08:43:19Z</time>
      </trkpt>
      <trkpt lat="43.84356" lon="6.85963">
        <ele>950</ele>
        <time>2011-05-08T08:43:25Z</time>
      </trkpt>
      <trkpt lat="43.84357" lon="6.85957">
        <ele>951</ele>
        <time>2011-05-08T08:43:31Z</time>
      </trkpt>
      <trkpt lat="43.84355" lon="6.8595">
        <ele>951</ele>
        <time>2011-05-08T08:43:36Z</time>
      </trkpt>
      <trkpt lat="43.84353" lon="6.85943">
        <ele>951</ele>
        <time>2011-05-08T08:43:42Z</time>
      </trkpt>
      <trkpt lat="43.84349" lon="6.85938">
        <ele>954</ele>
        <time>2011-05-08T08:43:47Z</time>
      </trkpt>
      <trkpt lat="43.84345" lon="6.85934">
        <ele>954</ele>
        <time>2011-05-08T08:43:51Z</time>
      </trkpt>
      <trkpt lat="43.84342" lon="6.85928">
        <ele>955</ele>
        <time>2011-05-08T08:43:55Z</time>
      </trkpt>
      <trkpt lat="43.84338" lon="6.85925">
        <ele>955</ele>
        <time>2011-05-08T08:43:59Z</time>
      </trkpt>
      <trkpt lat="43.84334" lon="6.85921">
        <ele>954</ele>
        <time>2011-05-08T08:44:04Z</time>
      </trkpt>
      <trkpt lat="43.84331" lon="6.85915">
        <ele>954</ele>
        <time>2011-05-08T08:44:11Z</time>
      </trkpt>
      <trkpt lat="43.84326" lon="6.85911">
        <ele>955</ele>
        <time>2011-05-08T08:44:16Z</time>
      </trkpt>
      <trkpt lat="43.84323" lon="6.85906">
        <ele>953</ele>
        <time>2011-05-08T08:44:22Z</time>
      </trkpt>
      <trkpt lat="43.84322" lon="6.85898">
        <ele>955</ele>
        <time>2011-05-08T08:44:27Z</time>
      </trkpt>
      <trkpt lat="43.84319" lon="6.85893">
        <ele>956</ele>
        <time>2011-05-08T08:44:33Z</time>
      </trkpt>
      <trkpt lat="43.84315" lon="6.8589">
        <ele>957</ele>
        <time>2011-05-08T08:44:37Z</time>
      </trkpt>
      <trkpt lat="43.8431" lon="6.85887">
        <ele>958</ele>
        <time>2011-05-08T08:44:42Z</time>
      </trkpt>
      <trkpt lat="43.84308" lon="6.85879">
        <ele>957</ele>
        <time>2011-05-08T08:44:50Z</time>
      </trkpt>
      <trkpt lat="43.84298" lon="6.85881">
        <ele>957</ele>
        <time>2011-05-08T08:44:51Z</time>
      </trkpt>
      <trkpt lat="43.84293" lon="6.8588">
        <ele>958</ele>
        <time>2011-05-08T08:44:53Z</time>
      </trkpt>
      <trkpt lat="43.84292" lon="6.85874">
        <ele>959</ele>
        <time>2011-05-08T08:45:02Z</time>
      </trkpt>
      <trkpt lat="43.84292" lon="6.85874">
        <ele>959</ele>
        <time>2011-05-08T08:45:02Z</time>
      </trkpt>
      <trkpt lat="43.84292" lon="6.85874">
        <ele>960</ele>
        <time>2011-05-08T08:45:16Z</time>
      </trkpt>
      <trkpt lat="43.84296" lon="6.85868">
        <ele>962</ele>
        <time>2011-05-08T08:45:27Z</time>
      </trkpt>
      <trkpt lat="43.843" lon="6.85863">
        <ele>963</ele>
        <time>2011-05-08T08:45:32Z</time>
      </trkpt>
      <trkpt lat="43.84306" lon="6.85862">
        <ele>964</ele>
        <time>2011-05-08T08:45:36Z</time>
      </trkpt>
      <trkpt lat="43.84309" lon="6.85866">
        <ele>963</ele>
        <time>2011-05-08T08:45:42Z</time>
      </trkpt>
      <trkpt lat="43.84309" lon="6.85866">
        <ele>963</ele>
        <time>2011-05-08T08:45:42Z</time>
      </trkpt>
      <trkpt lat="43.84309" lon="6.85866">
        <ele>963</ele>
        <time>2011-05-08T08:45:43Z</time>
      </trkpt>
      <trkpt lat="43.84315" lon="6.85866">
        <ele>963</ele>
        <time>2011-05-08T08:45:47Z</time>
      </trkpt>
      <trkpt lat="43.8432" lon="6.85872">
        <ele>965</ele>
        <time>2011-05-08T08:45:51Z</time>
      </trkpt>
      <trkpt lat="43.84323" lon="6.85866">
        <ele>962</ele>
        <time>2011-05-08T08:45:54Z</time>
      </trkpt>
      <trkpt lat="43.84323" lon="6.85866">
        <ele>962</ele>
        <time>2011-05-08T08:45:54Z</time>
      </trkpt>
      <trkpt lat="43.84323" lon="6.85866">
        <ele>962</ele>
        <time>2011-05-08T08:45:55Z</time>
      </trkpt>
      <trkpt lat="43.84326" lon="6.85862">
        <ele>964</ele>
        <time>2011-05-08T08:46:01Z</time>
      </trkpt>
      <trkpt lat="43.84328" lon="6.85856">
        <ele>970</ele>
        <time>2011-05-08T08:46:19Z</time>
      </trkpt>
      <trkpt lat="43.84333" lon="6.85853">
        <ele>970</ele>
        <time>2011-05-08T08:46:29Z</time>
      </trkpt>
      <trkpt lat="43.84338" lon="6.85854">
        <ele>971</ele>
        <time>2011-05-08T08:46:35Z</time>
      </trkpt>
      <trkpt lat="43.84336" lon="6.85848">
        <ele>971</ele>
        <time>2011-05-08T08:46:52Z</time>
      </trkpt>
      <trkpt lat="43.84339" lon="6.85842">
        <ele>973</ele>
        <time>2011-05-08T08:47:01Z</time>
      </trkpt>
      <trkpt lat="43.84343" lon="6.85836">
        <ele>974</ele>
        <time>2011-05-08T08:47:09Z</time>
      </trkpt>
      <trkpt lat="43.84346" lon="6.8583">
        <ele>974</ele>
        <time>2011-05-08T08:47:15Z</time>
      </trkpt>
      <trkpt lat="43.84351" lon="6.85824">
        <ele>974</ele>
        <time>2011-05-08T08:47:20Z</time>
      </trkpt>
      <trkpt lat="43.84355" lon="6.85819">
        <ele>975</ele>
        <time>2011-05-08T08:47:26Z</time>
      </trkpt>
      <trkpt lat="43.8436" lon="6.8582">
        <ele>974</ele>
        <time>2011-05-08T08:47:30Z</time>
      </trkpt>
      <trkpt lat="43.84366" lon="6.85822">
        <ele>973</ele>
        <time>2011-05-08T08:47:35Z</time>
      </trkpt>
      <trkpt lat="43.8437" lon="6.85824">
        <ele>976</ele>
        <time>2011-05-08T08:47:41Z</time>
      </trkpt>
      <trkpt lat="43.84375" lon="6.8582">
        <ele>975</ele>
        <time>2011-05-08T08:47:45Z</time>
      </trkpt>
      <trkpt lat="43.84375" lon="6.8582">
        <ele>975</ele>
        <time>2011-05-08T08:47:45Z</time>
      </trkpt>
      <trkpt lat="43.84375" lon="6.8582">
        <ele>975</ele>
        <time>2011-05-08T08:47:46Z</time>
      </trkpt>
      <trkpt lat="43.84379" lon="6.85817">
        <ele>975</ele>
        <time>2011-05-08T08:47:52Z</time>
      </trkpt>
      <trkpt lat="43.84384" lon="6.85813">
        <ele>975</ele>
        <time>2011-05-08T08:47:59Z</time>
      </trkpt>
      <trkpt lat="43.84389" lon="6.85811">
        <ele>975</ele>
        <time>2011-05-08T08:48:04Z</time>
      </trkpt>
      <trkpt lat="43.84394" lon="6.85814">
        <ele>976</ele>
        <time>2011-05-08T08:48:07Z</time>
      </trkpt>
      <trkpt lat="43.84398" lon="6.85817">
        <ele>976</ele>
        <time>2011-05-08T08:48:10Z</time>
      </trkpt>
      <trkpt lat="43.84403" lon="6.85819">
        <ele>977</ele>
        <time>2011-05-08T08:48:13Z</time>
      </trkpt>
      <trkpt lat="43.84406" lon="6.85824">
        <ele>977</ele>
        <time>2011-05-08T08:48:18Z</time>
      </trkpt>
      <trkpt lat="43.84409" lon="6.8583">
        <ele>977</ele>
        <time>2011-05-08T08:48:22Z</time>
      </trkpt>
      <trkpt lat="43.84412" lon="6.85836">
        <ele>976</ele>
        <time>2011-05-08T08:48:26Z</time>
      </trkpt>
      <trkpt lat="43.84416" lon="6.8584">
        <ele>976</ele>
        <time>2011-05-08T08:48:39Z</time>
      </trkpt>
      <trkpt lat="43.84421" lon="6.85841">
        <ele>976</ele>
        <time>2011-05-08T08:48:49Z</time>
      </trkpt>
      <trkpt lat="43.84426" lon="6.85844">
        <ele>977</ele>
        <time>2011-05-08T08:48:52Z</time>
      </trkpt>
      <trkpt lat="43.84431" lon="6.85844">
        <ele>977</ele>
        <time>2011-05-08T08:48:58Z</time>
      </trkpt>
      <trkpt lat="43.84436" lon="6.8584">
        <ele>978</ele>
        <time>2011-05-08T08:49:04Z</time>
      </trkpt>
      <trkpt lat="43.8444" lon="6.85838">
        <ele>978</ele>
        <time>2011-05-08T08:49:09Z</time>
      </trkpt>
      <trkpt lat="43.84443" lon="6.85833">
        <ele>980</ele>
        <time>2011-05-08T08:49:14Z</time>
      </trkpt>
      <trkpt lat="43.84448" lon="6.8583">
        <ele>981</ele>
        <time>2011-05-08T08:49:19Z</time>
      </trkpt>
      <trkpt lat="43.84454" lon="6.85827">
        <ele>982</ele>
        <time>2011-05-08T08:49:25Z</time>
      </trkpt>
      <trkpt lat="43.84459" lon="6.85824">
        <ele>983</ele>
        <time>2011-05-08T08:49:30Z</time>
      </trkpt>
      <trkpt lat="43.84463" lon="6.85821">
        <ele>984</ele>
        <time>2011-05-08T08:49:34Z</time>
      </trkpt>
      <trkpt lat="43.84468" lon="6.85818">
        <ele>985</ele>
        <time>2011-05-08T08:49:39Z</time>
      </trkpt>
      <trkpt lat="43.84472" lon="6.85816">
        <ele>986</ele>
        <time>2011-05-08T08:49:44Z</time>
      </trkpt>
      <trkpt lat="43.84477" lon="6.85813">
        <ele>988</ele>
        <time>2011-05-08T08:49:50Z</time>
      </trkpt>
      <trkpt lat="43.84481" lon="6.85809">
        <ele>989</ele>
        <time>2011-05-08T08:49:57Z</time>
      </trkpt>
      <trkpt lat="43.84485" lon="6.85805">
        <ele>991</ele>
        <time>2011-05-08T08:50:05Z</time>
      </trkpt>
      <trkpt lat="43.8449" lon="6.85803">
        <ele>993</ele>
        <time>2011-05-08T08:50:12Z</time>
      </trkpt>
      <trkpt lat="43.84494" lon="6.85801">
        <ele>993</ele>
        <time>2011-05-08T08:50:19Z</time>
      </trkpt>
      <trkpt lat="43.84498" lon="6.85803">
        <ele>994</ele>
        <time>2011-05-08T08:50:26Z</time>
      </trkpt>
      <trkpt lat="43.84504" lon="6.85805">
        <ele>995</ele>
        <time>2011-05-08T08:50:32Z</time>
      </trkpt>
      <trkpt lat="43.84504" lon="6.85805">
        <ele>995</ele>
        <time>2011-05-08T08:50:32Z</time>
      </trkpt>
      <trkpt lat="43.84504" lon="6.85805">
        <ele>995</ele>
        <time>2011-05-08T08:50:33Z</time>
      </trkpt>
      <trkpt lat="43.84509" lon="6.85806">
        <ele>996</ele>
        <time>2011-05-08T08:50:39Z</time>
      </trkpt>
      <trkpt lat="43.84509" lon="6.85806">
        <ele>996</ele>
        <time>2011-05-08T08:50:39Z</time>
      </trkpt>
      <trkpt lat="43.84509" lon="6.85806">
        <ele>996</ele>
        <time>2011-05-08T08:50:46Z</time>
      </trkpt>
      <trkpt lat="43.84513" lon="6.85811">
        <ele>994</ele>
        <time>2011-05-08T08:52:17Z</time>
      </trkpt>
      <trkpt lat="43.84517" lon="6.85814">
        <ele>995</ele>
        <time>2011-05-08T08:52:21Z</time>
      </trkpt>
      <trkpt lat="43.84521" lon="6.85819">
        <ele>995</ele>
        <time>2011-05-08T08:52:26Z</time>
      </trkpt>
      <trkpt lat="43.84526" lon="6.85823">
        <ele>996</ele>
        <time>2011-05-08T08:52:30Z</time>
      </trkpt>
      <trkpt lat="43.8453" lon="6.85827">
        <ele>995</ele>
        <time>2011-05-08T08:52:35Z</time>
      </trkpt>
      <trkpt lat="43.84535" lon="6.85831">
        <ele>996</ele>
        <time>2011-05-08T08:52:40Z</time>
      </trkpt>
      <trkpt lat="43.84539" lon="6.85835">
        <ele>998</ele>
        <time>2011-05-08T08:52:46Z</time>
      </trkpt>
      <trkpt lat="43.84544" lon="6.8584">
        <ele>999</ele>
        <time>2011-05-08T08:52:51Z</time>
      </trkpt>
      <trkpt lat="43.84548" lon="6.85844">
        <ele>999</ele>
        <time>2011-05-08T08:52:54Z</time>
      </trkpt>
      <trkpt lat="43.84551" lon="6.85848">
        <ele>1000</ele>
        <time>2011-05-08T08:52:59Z</time>
      </trkpt>
      <trkpt lat="43.84554" lon="6.85852">
        <ele>1004</ele>
        <time>2011-05-08T08:53:09Z</time>
      </trkpt>
      <trkpt lat="43.84558" lon="6.85846">
        <ele>1004</ele>
        <time>2011-05-08T08:53:15Z</time>
      </trkpt>
      <trkpt lat="43.84562" lon="6.85843">
        <ele>1006</ele>
        <time>2011-05-08T08:53:19Z</time>
      </trkpt>
      <trkpt lat="43.84567" lon="6.85841">
        <ele>1006</ele>
        <time>2011-05-08T08:53:21Z</time>
      </trkpt>
      <trkpt lat="43.84566" lon="6.8585">
        <ele>1006</ele>
        <time>2011-05-08T08:53:25Z</time>
      </trkpt>
      <trkpt lat="43.84567" lon="6.85856">
        <ele>1008</ele>
        <time>2011-05-08T08:53:29Z</time>
      </trkpt>
      <trkpt lat="43.84567" lon="6.85863">
        <ele>1009</ele>
        <time>2011-05-08T08:53:34Z</time>
      </trkpt>
      <trkpt lat="43.8457" lon="6.85868">
        <ele>1009</ele>
        <time>2011-05-08T08:53:38Z</time>
      </trkpt>
      <trkpt lat="43.84573" lon="6.85874">
        <ele>1009</ele>
        <time>2011-05-08T08:53:41Z</time>
      </trkpt>
      <trkpt lat="43.84578" lon="6.85875">
        <ele>1009</ele>
        <time>2011-05-08T08:53:44Z</time>
      </trkpt>
      <trkpt lat="43.84582" lon="6.85879">
        <ele>1010</ele>
        <time>2011-05-08T08:53:48Z</time>
      </trkpt>
      <trkpt lat="43.84587" lon="6.85883">
        <ele>1011</ele>
        <time>2011-05-08T08:53:52Z</time>
      </trkpt>
      <trkpt lat="43.84592" lon="6.85885">
        <ele>1011</ele>
        <time>2011-05-08T08:53:56Z</time>
      </trkpt>
      <trkpt lat="43.84595" lon="6.85889">
        <ele>1010</ele>
        <time>2011-05-08T08:54:00Z</time>
      </trkpt>
      <trkpt lat="43.846" lon="6.85891">
        <ele>1010</ele>
        <time>2011-05-08T08:54:04Z</time>
      </trkpt>
      <trkpt lat="43.84603" lon="6.85896">
        <ele>1010</ele>
        <time>2011-05-08T08:54:08Z</time>
      </trkpt>
      <trkpt lat="43.84607" lon="6.859">
        <ele>1010</ele>
        <time>2011-05-08T08:54:12Z</time>
      </trkpt>
      <trkpt lat="43.84611" lon="6.85902">
        <ele>1010</ele>
        <time>2011-05-08T08:54:15Z</time>
      </trkpt>
      <trkpt lat="43.84614" lon="6.85907">
        <ele>1009</ele>
        <time>2011-05-08T08:54:19Z</time>
      </trkpt>
      <trkpt lat="43.84618" lon="6.8591">
        <ele>1009</ele>
        <time>2011-05-08T08:54:22Z</time>
      </trkpt>
      <trkpt lat="43.84623" lon="6.85913">
        <ele>1008</ele>
        <time>2011-05-08T08:54:26Z</time>
      </trkpt>
      <trkpt lat="43.84626" lon="6.85919">
        <ele>1010</ele>
        <time>2011-05-08T08:54:32Z</time>
      </trkpt>
      <trkpt lat="43.84631" lon="6.85921">
        <ele>1012</ele>
        <time>2011-05-08T08:54:37Z</time>
      </trkpt>
      <trkpt lat="43.84632" lon="6.85927">
        <ele>1012</ele>
        <time>2011-05-08T08:54:41Z</time>
      </trkpt>
      <trkpt lat="43.84636" lon="6.85933">
        <ele>1013</ele>
        <time>2011-05-08T08:54:46Z</time>
      </trkpt>
      <trkpt lat="43.84638" lon="6.85941">
        <ele>1015</ele>
        <time>2011-05-08T08:54:51Z</time>
      </trkpt>
      <trkpt lat="43.84641" lon="6.85946">
        <ele>1015</ele>
        <time>2011-05-08T08:54:56Z</time>
      </trkpt>
      <trkpt lat="43.84645" lon="6.8595">
        <ele>1014</ele>
        <time>2011-05-08T08:55:00Z</time>
      </trkpt>
      <trkpt lat="43.84648" lon="6.85956">
        <ele>1014</ele>
        <time>2011-05-08T08:55:05Z</time>
      </trkpt>
      <trkpt lat="43.84653" lon="6.8596">
        <ele>1015</ele>
        <time>2011-05-08T08:55:10Z</time>
      </trkpt>
      <trkpt lat="43.84656" lon="6.85965">
        <ele>1015</ele>
        <time>2011-05-08T08:55:16Z</time>
      </trkpt>
      <trkpt lat="43.84661" lon="6.85965">
        <ele>1021</ele>
        <time>2011-05-08T08:55:30Z</time>
      </trkpt>
      <trkpt lat="43.84666" lon="6.85966">
        <ele>1022</ele>
        <time>2011-05-08T08:55:36Z</time>
      </trkpt>
      <trkpt lat="43.8467" lon="6.85968">
        <ele>1022</ele>
        <time>2011-05-08T08:55:39Z</time>
      </trkpt>
      <trkpt lat="43.84675" lon="6.8597">
        <ele>1022</ele>
        <time>2011-05-08T08:55:43Z</time>
      </trkpt>
      <trkpt lat="43.8468" lon="6.85971">
        <ele>1020</ele>
        <time>2011-05-08T08:55:47Z</time>
      </trkpt>
      <trkpt lat="43.8468" lon="6.85978">
        <ele>1022</ele>
        <time>2011-05-08T08:55:54Z</time>
      </trkpt>
      <trkpt lat="43.84682" lon="6.85985">
        <ele>1022</ele>
        <time>2011-05-08T08:55:58Z</time>
      </trkpt>
      <trkpt lat="43.84684" lon="6.85992">
        <ele>1022</ele>
        <time>2011-05-08T08:56:01Z</time>
      </trkpt>
      <trkpt lat="43.84689" lon="6.85993">
        <ele>1020</ele>
        <time>2011-05-08T08:56:05Z</time>
      </trkpt>
      <trkpt lat="43.84693" lon="6.85996">
        <ele>1020</ele>
        <time>2011-05-08T08:56:08Z</time>
      </trkpt>
      <trkpt lat="43.84697" lon="6.85999">
        <ele>1019</ele>
        <time>2011-05-08T08:56:13Z</time>
      </trkpt>
      <trkpt lat="43.84702" lon="6.86">
        <ele>1019</ele>
        <time>2011-05-08T08:56:19Z</time>
      </trkpt>
      <trkpt lat="43.84707" lon="6.86002">
        <ele>1023</ele>
        <time>2011-05-08T08:56:31Z</time>
      </trkpt>
      <trkpt lat="43.84711" lon="6.86007">
        <ele>1023</ele>
        <time>2011-05-08T08:56:34Z</time>
      </trkpt>
      <trkpt lat="43.84714" lon="6.86012">
        <ele>1021</ele>
        <time>2011-05-08T08:56:39Z</time>
      </trkpt>
      <trkpt lat="43.84718" lon="6.86019">
        <ele>1020</ele>
        <time>2011-05-08T08:56:43Z</time>
      </trkpt>
      <trkpt lat="43.8472" lon="6.86025">
        <ele>1021</ele>
        <time>2011-05-08T08:56:48Z</time>
      </trkpt>
      <trkpt lat="43.84723" lon="6.8603">
        <ele>1021</ele>
        <time>2011-05-08T08:56:53Z</time>
      </trkpt>
      <trkpt lat="43.84719" lon="6.86031">
        <ele>1024</ele>
        <time>2011-05-08T08:57:16Z</time>
      </trkpt>
      <trkpt lat="43.84718" lon="6.86038">
        <ele>1025</ele>
        <time>2011-05-08T08:57:25Z</time>
      </trkpt>
      <trkpt lat="43.84716" lon="6.86045">
        <ele>1026</ele>
        <time>2011-05-08T08:57:29Z</time>
      </trkpt>
      <trkpt lat="43.84719" lon="6.86052">
        <ele>1025</ele>
        <time>2011-05-08T08:57:35Z</time>
      </trkpt>
      <trkpt lat="43.84721" lon="6.86058">
        <ele>1028</ele>
        <time>2011-05-08T08:57:41Z</time>
      </trkpt>
      <trkpt lat="43.84716" lon="6.86062">
        <ele>1030</ele>
        <time>2011-05-08T08:57:49Z</time>
      </trkpt>
      <trkpt lat="43.84716" lon="6.86062">
        <ele>1030</ele>
        <time>2011-05-08T08:57:49Z</time>
      </trkpt>
      <trkpt lat="43.84716" lon="6.86062">
        <ele>1027</ele>
        <time>2011-05-08T08:58:03Z</time>
      </trkpt>
      <trkpt lat="43.84715" lon="6.86071">
        <ele>1028</ele>
        <time>2011-05-08T08:58:08Z</time>
      </trkpt>
      <trkpt lat="43.84714" lon="6.86078">
        <ele>1027</ele>
        <time>2011-05-08T08:58:10Z</time>
      </trkpt>
      <trkpt lat="43.84716" lon="6.86085">
        <ele>1026</ele>
        <time>2011-05-08T08:58:14Z</time>
      </trkpt>
      <trkpt lat="43.84714" lon="6.86092">
        <ele>1028</ele>
        <time>2011-05-08T08:58:26Z</time>
      </trkpt>
      <trkpt lat="43.84713" lon="6.86099">
        <ele>1030</ele>
        <time>2011-05-08T08:58:30Z</time>
      </trkpt>
      <trkpt lat="43.84714" lon="6.86106">
        <ele>1034</ele>
        <time>2011-05-08T08:58:46Z</time>
      </trkpt>
      <trkpt lat="43.84714" lon="6.86106">
        <ele>1034</ele>
        <time>2011-05-08T08:58:46Z</time>
      </trkpt>
      <trkpt lat="43.84714" lon="6.86106">
        <ele>1034</ele>
        <time>2011-05-08T08:58:47Z</time>
      </trkpt>
      <trkpt lat="43.84714" lon="6.86114">
        <ele>1033</ele>
        <time>2011-05-08T08:58:52Z</time>
      </trkpt>
      <trkpt lat="43.84719" lon="6.86124">
        <ele>1033</ele>
        <time>2011-05-08T08:58:54Z</time>
      </trkpt>
      <trkpt lat="43.84718" lon="6.8613">
        <ele>1032</ele>
        <time>2011-05-08T08:58:58Z</time>
      </trkpt>
      <trkpt lat="43.84722" lon="6.86134">
        <ele>1031</ele>
        <time>2011-05-08T08:59:08Z</time>
      </trkpt>
      <trkpt lat="43.84727" lon="6.86137">
        <ele>1035</ele>
        <time>2011-05-08T08:59:14Z</time>
      </trkpt>
      <trkpt lat="43.84732" lon="6.86142">
        <ele>1037</ele>
        <time>2011-05-08T08:59:20Z</time>
      </trkpt>
      <trkpt lat="43.84737" lon="6.86142">
        <ele>1037</ele>
        <time>2011-05-08T08:59:27Z</time>
      </trkpt>
      <trkpt lat="43.8474" lon="6.86147">
        <ele>1038</ele>
        <time>2011-05-08T08:59:31Z</time>
      </trkpt>
      <trkpt lat="43.84744" lon="6.8615">
        <ele>1038</ele>
        <time>2011-05-08T08:59:35Z</time>
      </trkpt>
      <trkpt lat="43.84748" lon="6.86156">
        <ele>1039</ele>
        <time>2011-05-08T08:59:40Z</time>
      </trkpt>
      <trkpt lat="43.84751" lon="6.86159">
        <ele>1039</ele>
        <time>2011-05-08T08:59:43Z</time>
      </trkpt>
      <trkpt lat="43.84756" lon="6.86162">
        <ele>1042</ele>
        <time>2011-05-08T08:59:52Z</time>
      </trkpt>
      <trkpt lat="43.84759" lon="6.86167">
        <ele>1043</ele>
        <time>2011-05-08T08:59:56Z</time>
      </trkpt>
      <trkpt lat="43.84763" lon="6.8617">
        <ele>1043</ele>
        <time>2011-05-08T09:00:01Z</time>
      </trkpt>
      <trkpt lat="43.84766" lon="6.86176">
        <ele>1044</ele>
        <time>2011-05-08T09:00:04Z</time>
      </trkpt>
      <trkpt lat="43.8477" lon="6.8618">
        <ele>1043</ele>
        <time>2011-05-08T09:00:07Z</time>
      </trkpt>
      <trkpt lat="43.84775" lon="6.86181">
        <ele>1043</ele>
        <time>2011-05-08T09:00:11Z</time>
      </trkpt>
      <trkpt lat="43.84779" lon="6.86185">
        <ele>1043</ele>
        <time>2011-05-08T09:00:15Z</time>
      </trkpt>
      <trkpt lat="43.84783" lon="6.8619">
        <ele>1042</ele>
        <time>2011-05-08T09:00:18Z</time>
      </trkpt>
      <trkpt lat="43.84787" lon="6.86194">
        <ele>1041</ele>
        <time>2011-05-08T09:00:21Z</time>
      </trkpt>
      <trkpt lat="43.84789" lon="6.86204">
        <ele>1044</ele>
        <time>2011-05-08T09:00:25Z</time>
      </trkpt>
      <trkpt lat="43.84788" lon="6.86212">
        <ele>1047</ele>
        <time>2011-05-08T09:00:29Z</time>
      </trkpt>
      <trkpt lat="43.84788" lon="6.86219">
        <ele>1048</ele>
        <time>2011-05-08T09:00:32Z</time>
      </trkpt>
      <trkpt lat="43.84787" lon="6.86225">
        <ele>1049</ele>
        <time>2011-05-08T09:00:34Z</time>
      </trkpt>
      <trkpt lat="43.84786" lon="6.86231">
        <ele>1049</ele>
        <time>2011-05-08T09:00:38Z</time>
      </trkpt>
      <trkpt lat="43.84784" lon="6.86238">
        <ele>1046</ele>
        <time>2011-05-08T09:00:43Z</time>
      </trkpt>
      <trkpt lat="43.84784" lon="6.86246">
        <ele>1046</ele>
        <time>2011-05-08T09:00:47Z</time>
      </trkpt>
      <trkpt lat="43.84782" lon="6.86254">
        <ele>1045</ele>
        <time>2011-05-08T09:00:50Z</time>
      </trkpt>
      <trkpt lat="43.84782" lon="6.86261">
        <ele>1046</ele>
        <time>2011-05-08T09:00:53Z</time>
      </trkpt>
      <trkpt lat="43.84782" lon="6.86267">
        <ele>1046</ele>
        <time>2011-05-08T09:00:58Z</time>
      </trkpt>
      <trkpt lat="43.84782" lon="6.86275">
        <ele>1042</ele>
        <time>2011-05-08T09:01:03Z</time>
      </trkpt>
      <trkpt lat="43.84782" lon="6.86281">
        <ele>1041</ele>
        <time>2011-05-08T09:01:10Z</time>
      </trkpt>
      <trkpt lat="43.84784" lon="6.86287">
        <ele>1039</ele>
        <time>2011-05-08T09:01:14Z</time>
      </trkpt>
      <trkpt lat="43.84787" lon="6.86292">
        <ele>1039</ele>
        <time>2011-05-08T09:01:18Z</time>
      </trkpt>
      <trkpt lat="43.84789" lon="6.86297">
        <ele>1039</ele>
        <time>2011-05-08T09:01:22Z</time>
      </trkpt>
      <trkpt lat="43.84792" lon="6.86305">
        <ele>1042</ele>
        <time>2011-05-08T09:01:26Z</time>
      </trkpt>
      <trkpt lat="43.84789" lon="6.86312">
        <ele>1047</ele>
        <time>2011-05-08T09:01:31Z</time>
      </trkpt>
      <trkpt lat="43.84793" lon="6.86316">
        <ele>1048</ele>
        <time>2011-05-08T09:01:35Z</time>
      </trkpt>
      <trkpt lat="43.84794" lon="6.86322">
        <ele>1050</ele>
        <time>2011-05-08T09:01:38Z</time>
      </trkpt>
      <trkpt lat="43.84798" lon="6.86328">
        <ele>1051</ele>
        <time>2011-05-08T09:01:42Z</time>
      </trkpt>
      <trkpt lat="43.848" lon="6.86335">
        <ele>1051</ele>
        <time>2011-05-08T09:01:47Z</time>
      </trkpt>
      <trkpt lat="43.84802" lon="6.86341">
        <ele>1054</ele>
        <time>2011-05-08T09:01:54Z</time>
      </trkpt>
      <trkpt lat="43.84804" lon="6.86347">
        <ele>1057</ele>
        <time>2011-05-08T09:02:02Z</time>
      </trkpt>
      <trkpt lat="43.84807" lon="6.86353">
        <ele>1061</ele>
        <time>2011-05-08T09:02:07Z</time>
      </trkpt>
      <trkpt lat="43.84811" lon="6.86357">
        <ele>1062</ele>
        <time>2011-05-08T09:02:13Z</time>
      </trkpt>
      <trkpt lat="43.84815" lon="6.86361">
        <ele>1062</ele>
        <time>2011-05-08T09:02:17Z</time>
      </trkpt>
      <trkpt lat="43.8482" lon="6.86364">
        <ele>1061</ele>
        <time>2011-05-08T09:02:20Z</time>
      </trkpt>
      <trkpt lat="43.84824" lon="6.8637">
        <ele>1061</ele>
        <time>2011-05-08T09:02:23Z</time>
      </trkpt>
      <trkpt lat="43.84827" lon="6.86376">
        <ele>1062</ele>
        <time>2011-05-08T09:02:28Z</time>
      </trkpt>
      <trkpt lat="43.84831" lon="6.86378">
        <ele>1060</ele>
        <time>2011-05-08T09:02:32Z</time>
      </trkpt>
      <trkpt lat="43.84837" lon="6.86381">
        <ele>1060</ele>
        <time>2011-05-08T09:02:36Z</time>
      </trkpt>
      <trkpt lat="43.8484" lon="6.86386">
        <ele>1059</ele>
        <time>2011-05-08T09:02:41Z</time>
      </trkpt>
      <trkpt lat="43.84842" lon="6.86392">
        <ele>1065</ele>
        <time>2011-05-08T09:02:48Z</time>
      </trkpt>
      <trkpt lat="43.84847" lon="6.86396">
        <ele>1066</ele>
        <time>2011-05-08T09:02:54Z</time>
      </trkpt>
      <trkpt lat="43.8485" lon="6.86401">
        <ele>1064</ele>
        <time>2011-05-08T09:02:58Z</time>
      </trkpt>
      <trkpt lat="43.84853" lon="6.86407">
        <ele>1063</ele>
        <time>2011-05-08T09:03:02Z</time>
      </trkpt>
      <trkpt lat="43.84855" lon="6.86412">
        <ele>1062</ele>
        <time>2011-05-08T09:03:07Z</time>
      </trkpt>
      <trkpt lat="43.8486" lon="6.86416">
        <ele>1061</ele>
        <time>2011-05-08T09:03:12Z</time>
      </trkpt>
      <trkpt lat="43.84863" lon="6.86421">
        <ele>1066</ele>
        <time>2011-05-08T09:03:19Z</time>
      </trkpt>
      <trkpt lat="43.84868" lon="6.86423">
        <ele>1066</ele>
        <time>2011-05-08T09:03:25Z</time>
      </trkpt>
      <trkpt lat="43.84872" lon="6.86427">
        <ele>1067</ele>
        <time>2011-05-08T09:03:31Z</time>
      </trkpt>
      <trkpt lat="43.84874" lon="6.86432">
        <ele>1067</ele>
        <time>2011-05-08T09:03:34Z</time>
      </trkpt>
      <trkpt lat="43.84875" lon="6.8644">
        <ele>1066</ele>
        <time>2011-05-08T09:03:37Z</time>
      </trkpt>
      <trkpt lat="43.84875" lon="6.8644">
        <ele>1066</ele>
        <time>2011-05-08T09:03:37Z</time>
      </trkpt>
      <trkpt lat="43.84875" lon="6.8644">
        <ele>1068</ele>
        <time>2011-05-08T09:03:38Z</time>
      </trkpt>
      <trkpt lat="43.84877" lon="6.86446">
        <ele>1070</ele>
        <time>2011-05-08T09:03:44Z</time>
      </trkpt>
      <trkpt lat="43.8488" lon="6.86451">
        <ele>1069</ele>
        <time>2011-05-08T09:03:50Z</time>
      </trkpt>
      <trkpt lat="43.84882" lon="6.86458">
        <ele>1068</ele>
        <time>2011-05-08T09:03:56Z</time>
      </trkpt>
      <trkpt lat="43.84882" lon="6.86465">
        <ele>1067</ele>
        <time>2011-05-08T09:04:03Z</time>
      </trkpt>
      <trkpt lat="43.84885" lon="6.86471">
        <ele>1065</ele>
        <time>2011-05-08T09:04:06Z</time>
      </trkpt>
      <trkpt lat="43.84888" lon="6.86476">
        <ele>1065</ele>
        <time>2011-05-08T09:04:12Z</time>
      </trkpt>
      <trkpt lat="43.84892" lon="6.86482">
        <ele>1065</ele>
        <time>2011-05-08T09:04:18Z</time>
      </trkpt>
      <trkpt lat="43.84897" lon="6.86485">
        <ele>1066</ele>
        <time>2011-05-08T09:04:22Z</time>
      </trkpt>
      <trkpt lat="43.84899" lon="6.86491">
        <ele>1068</ele>
        <time>2011-05-08T09:04:30Z</time>
      </trkpt>
      <trkpt lat="43.84904" lon="6.86493">
        <ele>1069</ele>
        <time>2011-05-08T09:04:39Z</time>
      </trkpt>
      <trkpt lat="43.84908" lon="6.86492">
        <ele>1070</ele>
        <time>2011-05-08T09:04:44Z</time>
      </trkpt>
      <trkpt lat="43.84912" lon="6.86498">
        <ele>1069</ele>
        <time>2011-05-08T09:04:48Z</time>
      </trkpt>
      <trkpt lat="43.84917" lon="6.86502">
        <ele>1068</ele>
        <time>2011-05-08T09:04:52Z</time>
      </trkpt>
      <trkpt lat="43.84921" lon="6.86506">
        <ele>1068</ele>
        <time>2011-05-08T09:04:56Z</time>
      </trkpt>
      <trkpt lat="43.84925" lon="6.86511">
        <ele>1069</ele>
        <time>2011-05-08T09:05:01Z</time>
      </trkpt>
      <trkpt lat="43.84929" lon="6.86515">
        <ele>1069</ele>
        <time>2011-05-08T09:05:07Z</time>
      </trkpt>
      <trkpt lat="43.84933" lon="6.86517">
        <ele>1071</ele>
        <time>2011-05-08T09:05:15Z</time>
      </trkpt>
      <trkpt lat="43.84938" lon="6.86521">
        <ele>1069</ele>
        <time>2011-05-08T09:05:20Z</time>
      </trkpt>
      <trkpt lat="43.84939" lon="6.86527">
        <ele>1071</ele>
        <time>2011-05-08T09:05:26Z</time>
      </trkpt>
      <trkpt lat="43.84943" lon="6.86531">
        <ele>1074</ele>
        <time>2011-05-08T09:05:35Z</time>
      </trkpt>
      <trkpt lat="43.84944" lon="6.86537">
        <ele>1078</ele>
        <time>2011-05-08T09:05:46Z</time>
      </trkpt>
      <trkpt lat="43.84947" lon="6.86543">
        <ele>1080</ele>
        <time>2011-05-08T09:05:50Z</time>
      </trkpt>
      <trkpt lat="43.84949" lon="6.86549">
        <ele>1081</ele>
        <time>2011-05-08T09:05:53Z</time>
      </trkpt>
      <trkpt lat="43.84954" lon="6.86553">
        <ele>1082</ele>
        <time>2011-05-08T09:05:56Z</time>
      </trkpt>
      <trkpt lat="43.84954" lon="6.86559">
        <ele>1083</ele>
        <time>2011-05-08T09:06:03Z</time>
      </trkpt>
      <trkpt lat="43.84954" lon="6.86559">
        <ele>1083</ele>
        <time>2011-05-08T09:06:03Z</time>
      </trkpt>
      <trkpt lat="43.84954" lon="6.86559">
        <ele>1082</ele>
        <time>2011-05-08T09:06:05Z</time>
      </trkpt>
      <trkpt lat="43.8495" lon="6.86563">
        <ele>1084</ele>
        <time>2011-05-08T09:06:21Z</time>
      </trkpt>
      <trkpt lat="43.8495" lon="6.86563">
        <ele>1084</ele>
        <time>2011-05-08T09:06:21Z</time>
      </trkpt>
      <trkpt lat="43.8495" lon="6.86563">
        <ele>1082</ele>
        <time>2011-05-08T09:06:44Z</time>
      </trkpt>
      <trkpt lat="43.84949" lon="6.86571">
        <ele>1081</ele>
        <time>2011-05-08T09:06:53Z</time>
      </trkpt>
      <trkpt lat="43.84949" lon="6.86571">
        <ele>1081</ele>
        <time>2011-05-08T09:06:53Z</time>
      </trkpt>
      <trkpt lat="43.84949" lon="6.86571">
        <ele>1081</ele>
        <time>2011-05-08T09:06:54Z</time>
      </trkpt>
      <trkpt lat="43.84951" lon="6.86576">
        <ele>1082</ele>
        <time>2011-05-08T09:07:01Z</time>
      </trkpt>
      <trkpt lat="43.84952" lon="6.86583">
        <ele>1086</ele>
        <time>2011-05-08T09:07:05Z</time>
      </trkpt>
      <trkpt lat="43.84957" lon="6.86587">
        <ele>1089</ele>
        <time>2011-05-08T09:07:11Z</time>
      </trkpt>
      <trkpt lat="43.8496" lon="6.86594">
        <ele>1088</ele>
        <time>2011-05-08T09:07:16Z</time>
      </trkpt>
      <trkpt lat="43.84961" lon="6.86601">
        <ele>1091</ele>
        <time>2011-05-08T09:07:19Z</time>
      </trkpt>
      <trkpt lat="43.84963" lon="6.86607">
        <ele>1089</ele>
        <time>2011-05-08T09:07:22Z</time>
      </trkpt>
      <trkpt lat="43.84966" lon="6.86611">
        <ele>1089</ele>
        <time>2011-05-08T09:07:28Z</time>
      </trkpt>
      <trkpt lat="43.84969" lon="6.86616">
        <ele>1090</ele>
        <time>2011-05-08T09:07:33Z</time>
      </trkpt>
      <trkpt lat="43.84973" lon="6.86621">
        <ele>1090</ele>
        <time>2011-05-08T09:07:37Z</time>
      </trkpt>
      <trkpt lat="43.84978" lon="6.86624">
        <ele>1089</ele>
        <time>2011-05-08T09:07:44Z</time>
      </trkpt>
      <trkpt lat="43.84982" lon="6.86629">
        <ele>1090</ele>
        <time>2011-05-08T09:07:48Z</time>
      </trkpt>
      <trkpt lat="43.84986" lon="6.86631">
        <ele>1092</ele>
        <time>2011-05-08T09:07:53Z</time>
      </trkpt>
      <trkpt lat="43.84991" lon="6.86634">
        <ele>1092</ele>
        <time>2011-05-08T09:07:58Z</time>
      </trkpt>
      <trkpt lat="43.84995" lon="6.86637">
        <ele>1089</ele>
        <time>2011-05-08T09:08:01Z</time>
      </trkpt>
      <trkpt lat="43.84999" lon="6.86642">
        <ele>1088</ele>
        <time>2011-05-08T09:08:04Z</time>
      </trkpt>
      <trkpt lat="43.85003" lon="6.86646">
        <ele>1086</ele>
        <time>2011-05-08T09:08:07Z</time>
      </trkpt>
      <trkpt lat="43.85007" lon="6.86649">
        <ele>1085</ele>
        <time>2011-05-08T09:08:10Z</time>
      </trkpt>
      <trkpt lat="43.85012" lon="6.86653">
        <ele>1084</ele>
        <time>2011-05-08T09:08:13Z</time>
      </trkpt>
      <trkpt lat="43.85015" lon="6.8666">
        <ele>1084</ele>
        <time>2011-05-08T09:08:17Z</time>
      </trkpt>
      <trkpt lat="43.85018" lon="6.86664">
        <ele>1085</ele>
        <time>2011-05-08T09:08:20Z</time>
      </trkpt>
      <trkpt lat="43.85021" lon="6.86669">
        <ele>1085</ele>
        <time>2011-05-08T09:08:23Z</time>
      </trkpt>
      <trkpt lat="43.85024" lon="6.86674">
        <ele>1086</ele>
        <time>2011-05-08T09:08:28Z</time>
      </trkpt>
      <trkpt lat="43.85028" lon="6.86678">
        <ele>1087</ele>
        <time>2011-05-08T09:08:31Z</time>
      </trkpt>
      <trkpt lat="43.85028" lon="6.86686">
        <ele>1087</ele>
        <time>2011-05-08T09:08:35Z</time>
      </trkpt>
      <trkpt lat="43.85029" lon="6.86693">
        <ele>1088</ele>
        <time>2011-05-08T09:08:39Z</time>
      </trkpt>
      <trkpt lat="43.85029" lon="6.86702">
        <ele>1088</ele>
        <time>2011-05-08T09:08:43Z</time>
      </trkpt>
      <trkpt lat="43.85029" lon="6.86708">
        <ele>1086</ele>
        <time>2011-05-08T09:08:47Z</time>
      </trkpt>
      <trkpt lat="43.85029" lon="6.86716">
        <ele>1086</ele>
        <time>2011-05-08T09:08:52Z</time>
      </trkpt>
      <trkpt lat="43.85032" lon="6.8672">
        <ele>1081</ele>
        <time>2011-05-08T09:08:59Z</time>
      </trkpt>
      <trkpt lat="43.85034" lon="6.86726">
        <ele>1080</ele>
        <time>2011-05-08T09:09:04Z</time>
      </trkpt>
      <trkpt lat="43.85039" lon="6.86728">
        <ele>1077</ele>
        <time>2011-05-08T09:09:09Z</time>
      </trkpt>
      <trkpt lat="43.85042" lon="6.86734">
        <ele>1077</ele>
        <time>2011-05-08T09:09:14Z</time>
      </trkpt>
      <trkpt lat="43.85042" lon="6.86741">
        <ele>1077</ele>
        <time>2011-05-08T09:09:19Z</time>
      </trkpt>
      <trkpt lat="43.85044" lon="6.86748">
        <ele>1073</ele>
        <time>2011-05-08T09:09:25Z</time>
      </trkpt>
      <trkpt lat="43.85047" lon="6.86753">
        <ele>1077</ele>
        <time>2011-05-08T09:09:34Z</time>
      </trkpt>
      <trkpt lat="43.85048" lon="6.8676">
        <ele>1080</ele>
        <time>2011-05-08T09:09:41Z</time>
      </trkpt>
      <trkpt lat="43.8505" lon="6.86766">
        <ele>1080</ele>
        <time>2011-05-08T09:09:46Z</time>
      </trkpt>
      <trkpt lat="43.85051" lon="6.86774">
        <ele>1079</ele>
        <time>2011-05-08T09:09:50Z</time>
      </trkpt>
      <trkpt lat="43.85048" lon="6.86781">
        <ele>1081</ele>
        <time>2011-05-08T09:09:52Z</time>
      </trkpt>
      <trkpt lat="43.85048" lon="6.86787">
        <ele>1083</ele>
        <time>2011-05-08T09:09:55Z</time>
      </trkpt>
      <trkpt lat="43.85051" lon="6.86794">
        <ele>1084</ele>
        <time>2011-05-08T09:10:00Z</time>
      </trkpt>
      <trkpt lat="43.85052" lon="6.868">
        <ele>1084</ele>
        <time>2011-05-08T09:10:04Z</time>
      </trkpt>
      <trkpt lat="43.85053" lon="6.86806">
        <ele>1083</ele>
        <time>2011-05-08T09:10:08Z</time>
      </trkpt>
      <trkpt lat="43.85054" lon="6.86814">
        <ele>1083</ele>
        <time>2011-05-08T09:10:12Z</time>
      </trkpt>
      <trkpt lat="43.85052" lon="6.8682">
        <ele>1084</ele>
        <time>2011-05-08T09:10:15Z</time>
      </trkpt>
      <trkpt lat="43.8505" lon="6.86826">
        <ele>1087</ele>
        <time>2011-05-08T09:10:18Z</time>
      </trkpt>
      <trkpt lat="43.85052" lon="6.86832">
        <ele>1087</ele>
        <time>2011-05-08T09:10:22Z</time>
      </trkpt>
      <trkpt lat="43.85052" lon="6.8684">
        <ele>1090</ele>
        <time>2011-05-08T09:10:26Z</time>
      </trkpt>
      <trkpt lat="43.85053" lon="6.86846">
        <ele>1093</ele>
        <time>2011-05-08T09:10:30Z</time>
      </trkpt>
      <trkpt lat="43.85056" lon="6.86852">
        <ele>1095</ele>
        <time>2011-05-08T09:10:35Z</time>
      </trkpt>
      <trkpt lat="43.85058" lon="6.86858">
        <ele>1098</ele>
        <time>2011-05-08T09:10:40Z</time>
      </trkpt>
      <trkpt lat="43.85061" lon="6.86865">
        <ele>1099</ele>
        <time>2011-05-08T09:10:46Z</time>
      </trkpt>
      <trkpt lat="43.85065" lon="6.86869">
        <ele>1101</ele>
        <time>2011-05-08T09:10:55Z</time>
      </trkpt>
      <trkpt lat="43.85066" lon="6.86876">
        <ele>1101</ele>
        <time>2011-05-08T09:10:58Z</time>
      </trkpt>
      <trkpt lat="43.85068" lon="6.86882">
        <ele>1101</ele>
        <time>2011-05-08T09:11:03Z</time>
      </trkpt>
      <trkpt lat="43.8507" lon="6.86888">
        <ele>1103</ele>
        <time>2011-05-08T09:11:07Z</time>
      </trkpt>
      <trkpt lat="43.85072" lon="6.86895">
        <ele>1103</ele>
        <time>2011-05-08T09:11:11Z</time>
      </trkpt>
      <trkpt lat="43.85074" lon="6.86901">
        <ele>1102</ele>
        <time>2011-05-08T09:11:15Z</time>
      </trkpt>
      <trkpt lat="43.85076" lon="6.86907">
        <ele>1102</ele>
        <time>2011-05-08T09:11:19Z</time>
      </trkpt>
      <trkpt lat="43.85079" lon="6.86913">
        <ele>1101</ele>
        <time>2011-05-08T09:11:23Z</time>
      </trkpt>
      <trkpt lat="43.85082" lon="6.86919">
        <ele>1103</ele>
        <time>2011-05-08T09:11:28Z</time>
      </trkpt>
      <trkpt lat="43.85084" lon="6.86925">
        <ele>1103</ele>
        <time>2011-05-08T09:11:32Z</time>
      </trkpt>
      <trkpt lat="43.85087" lon="6.86931">
        <ele>1102</ele>
        <time>2011-05-08T09:11:36Z</time>
      </trkpt>
      <trkpt lat="43.85089" lon="6.86937">
        <ele>1103</ele>
        <time>2011-05-08T09:11:40Z</time>
      </trkpt>
      <trkpt lat="43.85092" lon="6.86942">
        <ele>1102</ele>
        <time>2011-05-08T09:11:45Z</time>
      </trkpt>
      <trkpt lat="43.85096" lon="6.86946">
        <ele>1102</ele>
        <time>2011-05-08T09:11:49Z</time>
      </trkpt>
      <trkpt lat="43.85099" lon="6.86951">
        <ele>1101</ele>
        <time>2011-05-08T09:11:55Z</time>
      </trkpt>
      <trkpt lat="43.85103" lon="6.86954">
        <ele>1101</ele>
        <time>2011-05-08T09:12:00Z</time>
      </trkpt>
      <trkpt lat="43.85106" lon="6.8696">
        <ele>1100</ele>
        <time>2011-05-08T09:12:05Z</time>
      </trkpt>
      <trkpt lat="43.85107" lon="6.86967">
        <ele>1099</ele>
        <time>2011-05-08T09:12:09Z</time>
      </trkpt>
      <trkpt lat="43.8511" lon="6.86973">
        <ele>1098</ele>
        <time>2011-05-08T09:12:14Z</time>
      </trkpt>
      <trkpt lat="43.85113" lon="6.86979">
        <ele>1099</ele>
        <time>2011-05-08T09:12:17Z</time>
      </trkpt>
      <trkpt lat="43.85114" lon="6.86987">
        <ele>1100</ele>
        <time>2011-05-08T09:12:21Z</time>
      </trkpt>
      <trkpt lat="43.85117" lon="6.86993">
        <ele>1102</ele>
        <time>2011-05-08T09:12:25Z</time>
      </trkpt>
      <trkpt lat="43.85121" lon="6.86997">
        <ele>1104</ele>
        <time>2011-05-08T09:12:29Z</time>
      </trkpt>
      <trkpt lat="43.85125" lon="6.87002">
        <ele>1104</ele>
        <time>2011-05-08T09:12:34Z</time>
      </trkpt>
      <trkpt lat="43.85128" lon="6.87008">
        <ele>1104</ele>
        <time>2011-05-08T09:12:39Z</time>
      </trkpt>
      <trkpt lat="43.85132" lon="6.87012">
        <ele>1105</ele>
        <time>2011-05-08T09:12:43Z</time>
      </trkpt>
      <trkpt lat="43.85136" lon="6.87017">
        <ele>1105</ele>
        <time>2011-05-08T09:12:48Z</time>
      </trkpt>
      <trkpt lat="43.8514" lon="6.8702">
        <ele>1104</ele>
        <time>2011-05-08T09:12:53Z</time>
      </trkpt>
      <trkpt lat="43.85142" lon="6.87026">
        <ele>1104</ele>
        <time>2011-05-08T09:12:56Z</time>
      </trkpt>
      <trkpt lat="43.85147" lon="6.8703">
        <ele>1104</ele>
        <time>2011-05-08T09:12:59Z</time>
      </trkpt>
      <trkpt lat="43.8515" lon="6.87033">
        <ele>1103</ele>
        <time>2011-05-08T09:13:03Z</time>
      </trkpt>
      <trkpt lat="43.85153" lon="6.87039">
        <ele>1102</ele>
        <time>2011-05-08T09:13:08Z</time>
      </trkpt>
      <trkpt lat="43.85156" lon="6.87045">
        <ele>1104</ele>
        <time>2011-05-08T09:13:33Z</time>
      </trkpt>
      <trkpt lat="43.85159" lon="6.8705">
        <ele>1107</ele>
        <time>2011-05-08T09:13:50Z</time>
      </trkpt>
      <trkpt lat="43.85163" lon="6.87054">
        <ele>1106</ele>
        <time>2011-05-08T09:13:55Z</time>
      </trkpt>
      <trkpt lat="43.85166" lon="6.87058">
        <ele>1108</ele>
        <time>2011-05-08T09:14:00Z</time>
      </trkpt>
      <trkpt lat="43.8517" lon="6.87062">
        <ele>1107</ele>
        <time>2011-05-08T09:14:05Z</time>
      </trkpt>
      <trkpt lat="43.85171" lon="6.87071">
        <ele>1109</ele>
        <time>2011-05-08T09:14:15Z</time>
      </trkpt>
      <trkpt lat="43.85171" lon="6.87078">
        <ele>1110</ele>
        <time>2011-05-08T09:14:19Z</time>
      </trkpt>
      <trkpt lat="43.85172" lon="6.87086">
        <ele>1112</ele>
        <time>2011-05-08T09:14:23Z</time>
      </trkpt>
      <trkpt lat="43.85174" lon="6.87092">
        <ele>1113</ele>
        <time>2011-05-08T09:14:27Z</time>
      </trkpt>
      <trkpt lat="43.85177" lon="6.87097">
        <ele>1114</ele>
        <time>2011-05-08T09:14:32Z</time>
      </trkpt>
      <trkpt lat="43.8518" lon="6.87102">
        <ele>1116</ele>
        <time>2011-05-08T09:14:38Z</time>
      </trkpt>
      <trkpt lat="43.85185" lon="6.87106">
        <ele>1117</ele>
        <time>2011-05-08T09:14:43Z</time>
      </trkpt>
      <trkpt lat="43.85188" lon="6.8711">
        <ele>1118</ele>
        <time>2011-05-08T09:14:47Z</time>
      </trkpt>
      <trkpt lat="43.85191" lon="6.87115">
        <ele>1119</ele>
        <time>2011-05-08T09:14:52Z</time>
      </trkpt>
      <trkpt lat="43.85195" lon="6.87119">
        <ele>1119</ele>
        <time>2011-05-08T09:14:58Z</time>
      </trkpt>
      <trkpt lat="43.85199" lon="6.87121">
        <ele>1120</ele>
        <time>2011-05-08T09:15:05Z</time>
      </trkpt>
      <trkpt lat="43.85204" lon="6.87123">
        <ele>1120</ele>
        <time>2011-05-08T09:15:13Z</time>
      </trkpt>
      <trkpt lat="43.85208" lon="6.87126">
        <ele>1119</ele>
        <time>2011-05-08T09:15:17Z</time>
      </trkpt>
      <trkpt lat="43.85212" lon="6.87129">
        <ele>1119</ele>
        <time>2011-05-08T09:15:21Z</time>
      </trkpt>
      <trkpt lat="43.85216" lon="6.87135">
        <ele>1120</ele>
        <time>2011-05-08T09:15:26Z</time>
      </trkpt>
      <trkpt lat="43.85219" lon="6.87141">
        <ele>1120</ele>
        <time>2011-05-08T09:15:31Z</time>
      </trkpt>
      <trkpt lat="43.85224" lon="6.87142">
        <ele>1119</ele>
        <time>2011-05-08T09:15:37Z</time>
      </trkpt>
      <trkpt lat="43.85226" lon="6.87148">
        <ele>1118</ele>
        <time>2011-05-08T09:15:41Z</time>
      </trkpt>
      <trkpt lat="43.85227" lon="6.87154">
        <ele>1118</ele>
        <time>2011-05-08T09:15:45Z</time>
      </trkpt>
      <trkpt lat="43.8523" lon="6.8716">
        <ele>1119</ele>
        <time>2011-05-08T09:15:51Z</time>
      </trkpt>
      <trkpt lat="43.8523" lon="6.87167">
        <ele>1121</ele>
        <time>2011-05-08T09:15:56Z</time>
      </trkpt>
      <trkpt lat="43.85229" lon="6.87174">
        <ele>1122</ele>
        <time>2011-05-08T09:15:59Z</time>
      </trkpt>
      <trkpt lat="43.85229" lon="6.87181">
        <ele>1124</ele>
        <time>2011-05-08T09:16:03Z</time>
      </trkpt>
      <trkpt lat="43.8523" lon="6.87187">
        <ele>1126</ele>
        <time>2011-05-08T09:16:08Z</time>
      </trkpt>
      <trkpt lat="43.85231" lon="6.87194">
        <ele>1128</ele>
        <time>2011-05-08T09:16:13Z</time>
      </trkpt>
      <trkpt lat="43.85231" lon="6.872">
        <ele>1130</ele>
        <time>2011-05-08T09:16:31Z</time>
      </trkpt>
      <trkpt lat="43.85233" lon="6.87206">
        <ele>1131</ele>
        <time>2011-05-08T09:16:41Z</time>
      </trkpt>
      <trkpt lat="43.85238" lon="6.87207">
        <ele>1131</ele>
        <time>2011-05-08T09:16:50Z</time>
      </trkpt>
      <trkpt lat="43.85243" lon="6.8721">
        <ele>1132</ele>
        <time>2011-05-08T09:16:55Z</time>
      </trkpt>
      <trkpt lat="43.85247" lon="6.87215">
        <ele>1136</ele>
        <time>2011-05-08T09:17:01Z</time>
      </trkpt>
      <trkpt lat="43.85252" lon="6.87217">
        <ele>1140</ele>
        <time>2011-05-08T09:17:06Z</time>
      </trkpt>
      <trkpt lat="43.85255" lon="6.87222">
        <ele>1140</ele>
        <time>2011-05-08T09:17:09Z</time>
      </trkpt>
      <trkpt lat="43.85259" lon="6.87226">
        <ele>1141</ele>
        <time>2011-05-08T09:17:12Z</time>
      </trkpt>
      <trkpt lat="43.85263" lon="6.87232">
        <ele>1141</ele>
        <time>2011-05-08T09:17:16Z</time>
      </trkpt>
      <trkpt lat="43.85266" lon="6.87237">
        <ele>1139</ele>
        <time>2011-05-08T09:17:19Z</time>
      </trkpt>
      <trkpt lat="43.8527" lon="6.87241">
        <ele>1138</ele>
        <time>2011-05-08T09:17:25Z</time>
      </trkpt>
      <trkpt lat="43.85271" lon="6.87247">
        <ele>1138</ele>
        <time>2011-05-08T09:17:28Z</time>
      </trkpt>
      <trkpt lat="43.85272" lon="6.87255">
        <ele>1137</ele>
        <time>2011-05-08T09:17:32Z</time>
      </trkpt>
      <trkpt lat="43.85273" lon="6.87262">
        <ele>1137</ele>
        <time>2011-05-08T09:17:35Z</time>
      </trkpt>
      <trkpt lat="43.85274" lon="6.8727">
        <ele>1136</ele>
        <time>2011-05-08T09:17:40Z</time>
      </trkpt>
      <trkpt lat="43.85276" lon="6.87277">
        <ele>1136</ele>
        <time>2011-05-08T09:17:44Z</time>
      </trkpt>
      <trkpt lat="43.85279" lon="6.87283">
        <ele>1136</ele>
        <time>2011-05-08T09:17:48Z</time>
      </trkpt>
      <trkpt lat="43.85277" lon="6.87289">
        <ele>1135</ele>
        <time>2011-05-08T09:17:51Z</time>
      </trkpt>
      <trkpt lat="43.85275" lon="6.87298">
        <ele>1136</ele>
        <time>2011-05-08T09:17:54Z</time>
      </trkpt>
      <trkpt lat="43.85279" lon="6.87305">
        <ele>1135</ele>
        <time>2011-05-08T09:17:57Z</time>
      </trkpt>
      <trkpt lat="43.8528" lon="6.87313">
        <ele>1134</ele>
        <time>2011-05-08T09:18:01Z</time>
      </trkpt>
      <trkpt lat="43.8528" lon="6.87319">
        <ele>1134</ele>
        <time>2011-05-08T09:18:05Z</time>
      </trkpt>
      <trkpt lat="43.85276" lon="6.87325">
        <ele>1136</ele>
        <time>2011-05-08T09:18:08Z</time>
      </trkpt>
      <trkpt lat="43.85275" lon="6.87332">
        <ele>1136</ele>
        <time>2011-05-08T09:18:12Z</time>
      </trkpt>
      <trkpt lat="43.85274" lon="6.87338">
        <ele>1136</ele>
        <time>2011-05-08T09:18:15Z</time>
      </trkpt>
      <trkpt lat="43.85274" lon="6.87346">
        <ele>1136</ele>
        <time>2011-05-08T09:18:18Z</time>
      </trkpt>
      <trkpt lat="43.85275" lon="6.87352">
        <ele>1134</ele>
        <time>2011-05-08T09:18:22Z</time>
      </trkpt>
      <trkpt lat="43.85278" lon="6.87358">
        <ele>1134</ele>
        <time>2011-05-08T09:18:27Z</time>
      </trkpt>
      <trkpt lat="43.8528" lon="6.87365">
        <ele>1131</ele>
        <time>2011-05-08T09:18:31Z</time>
      </trkpt>
      <trkpt lat="43.85282" lon="6.87373">
        <ele>1131</ele>
        <time>2011-05-08T09:18:34Z</time>
      </trkpt>
      <trkpt lat="43.85286" lon="6.87379">
        <ele>1130</ele>
        <time>2011-05-08T09:18:38Z</time>
      </trkpt>
      <trkpt lat="43.85287" lon="6.87385">
        <ele>1128</ele>
        <time>2011-05-08T09:18:43Z</time>
      </trkpt>
      <trkpt lat="43.85288" lon="6.87379">
        <ele>1127</ele>
        <time>2011-05-08T09:18:49Z</time>
      </trkpt>
      <trkpt lat="43.85291" lon="6.87385">
        <ele>1126</ele>
        <time>2011-05-08T09:18:56Z</time>
      </trkpt>
      <trkpt lat="43.85295" lon="6.87389">
        <ele>1127</ele>
        <time>2011-05-08T09:18:59Z</time>
      </trkpt>
      <trkpt lat="43.853" lon="6.8739">
        <ele>1126</ele>
        <time>2011-05-08T09:19:03Z</time>
      </trkpt>
      <trkpt lat="43.85303" lon="6.87394">
        <ele>1126</ele>
        <time>2011-05-08T09:19:07Z</time>
      </trkpt>
      <trkpt lat="43.85308" lon="6.87395">
        <ele>1124</ele>
        <time>2011-05-08T09:19:11Z</time>
      </trkpt>
      <trkpt lat="43.8531" lon="6.87401">
        <ele>1124</ele>
        <time>2011-05-08T09:19:15Z</time>
      </trkpt>
      <trkpt lat="43.8531" lon="6.87408">
        <ele>1124</ele>
        <time>2011-05-08T09:19:19Z</time>
      </trkpt>
      <trkpt lat="43.85309" lon="6.87414">
        <ele>1124</ele>
        <time>2011-05-08T09:19:22Z</time>
      </trkpt>
      <trkpt lat="43.85311" lon="6.87422">
        <ele>1125</ele>
        <time>2011-05-08T09:19:27Z</time>
      </trkpt>
      <trkpt lat="43.85314" lon="6.87426">
        <ele>1127</ele>
        <time>2011-05-08T09:19:32Z</time>
      </trkpt>
      <trkpt lat="43.85315" lon="6.87433">
        <ele>1126</ele>
        <time>2011-05-08T09:19:35Z</time>
      </trkpt>
      <trkpt lat="43.85315" lon="6.87442">
        <ele>1128</ele>
        <time>2011-05-08T09:19:39Z</time>
      </trkpt>
      <trkpt lat="43.85319" lon="6.87448">
        <ele>1127</ele>
        <time>2011-05-08T09:19:43Z</time>
      </trkpt>
      <trkpt lat="43.85322" lon="6.87456">
        <ele>1127</ele>
        <time>2011-05-08T09:19:46Z</time>
      </trkpt>
      <trkpt lat="43.85322" lon="6.87463">
        <ele>1127</ele>
        <time>2011-05-08T09:19:49Z</time>
      </trkpt>
      <trkpt lat="43.85322" lon="6.8747">
        <ele>1126</ele>
        <time>2011-05-08T09:19:52Z</time>
      </trkpt>
      <trkpt lat="43.85323" lon="6.87476">
        <ele>1126</ele>
        <time>2011-05-08T09:19:56Z</time>
      </trkpt>
      <trkpt lat="43.85324" lon="6.87485">
        <ele>1127</ele>
        <time>2011-05-08T09:20:00Z</time>
      </trkpt>
      <trkpt lat="43.85325" lon="6.87492">
        <ele>1124</ele>
        <time>2011-05-08T09:20:05Z</time>
      </trkpt>
      <trkpt lat="43.85327" lon="6.875">
        <ele>1124</ele>
        <time>2011-05-08T09:20:10Z</time>
      </trkpt>
      <trkpt lat="43.85328" lon="6.87505">
        <ele>1124</ele>
        <time>2011-05-08T09:20:14Z</time>
      </trkpt>
      <trkpt lat="43.85332" lon="6.8751">
        <ele>1124</ele>
        <time>2011-05-08T09:20:18Z</time>
      </trkpt>
      <trkpt lat="43.85337" lon="6.87512">
        <ele>1124</ele>
        <time>2011-05-08T09:20:22Z</time>
      </trkpt>
      <trkpt lat="43.85342" lon="6.87515">
        <ele>1122</ele>
        <time>2011-05-08T09:20:26Z</time>
      </trkpt>
      <trkpt lat="43.85346" lon="6.87521">
        <ele>1122</ele>
        <time>2011-05-08T09:20:29Z</time>
      </trkpt>
      <trkpt lat="43.8535" lon="6.87524">
        <ele>1122</ele>
        <time>2011-05-08T09:20:33Z</time>
      </trkpt>
      <trkpt lat="43.85354" lon="6.87529">
        <ele>1122</ele>
        <time>2011-05-08T09:20:39Z</time>
      </trkpt>
      <trkpt lat="43.85358" lon="6.87534">
        <ele>1123</ele>
        <time>2011-05-08T09:20:44Z</time>
      </trkpt>
      <trkpt lat="43.85361" lon="6.8754">
        <ele>1124</ele>
        <time>2011-05-08T09:20:47Z</time>
      </trkpt>
      <trkpt lat="43.85365" lon="6.87546">
        <ele>1124</ele>
        <time>2011-05-08T09:20:51Z</time>
      </trkpt>
      <trkpt lat="43.85366" lon="6.87553">
        <ele>1126</ele>
        <time>2011-05-08T09:20:54Z</time>
      </trkpt>
      <trkpt lat="43.85367" lon="6.8756">
        <ele>1124</ele>
        <time>2011-05-08T09:20:59Z</time>
      </trkpt>
      <trkpt lat="43.85369" lon="6.87566">
        <ele>1124</ele>
        <time>2011-05-08T09:21:02Z</time>
      </trkpt>
      <trkpt lat="43.85372" lon="6.87571">
        <ele>1124</ele>
        <time>2011-05-08T09:21:06Z</time>
      </trkpt>
      <trkpt lat="43.85376" lon="6.87575">
        <ele>1123</ele>
        <time>2011-05-08T09:21:10Z</time>
      </trkpt>
      <trkpt lat="43.8538" lon="6.87577">
        <ele>1123</ele>
        <time>2011-05-08T09:21:14Z</time>
      </trkpt>
      <trkpt lat="43.85384" lon="6.87582">
        <ele>1122</ele>
        <time>2011-05-08T09:21:18Z</time>
      </trkpt>
      <trkpt lat="43.85389" lon="6.87581">
        <ele>1119</ele>
        <time>2011-05-08T09:21:23Z</time>
      </trkpt>
      <trkpt lat="43.85392" lon="6.87586">
        <ele>1121</ele>
        <time>2011-05-08T09:21:28Z</time>
      </trkpt>
      <trkpt lat="43.85394" lon="6.87592">
        <ele>1124</ele>
        <time>2011-05-08T09:21:34Z</time>
      </trkpt>
      <trkpt lat="43.85398" lon="6.87599">
        <ele>1130</ele>
        <time>2011-05-08T09:21:39Z</time>
      </trkpt>
      <trkpt lat="43.85402" lon="6.87602">
        <ele>1135</ele>
        <time>2011-05-08T09:21:47Z</time>
      </trkpt>
      <trkpt lat="43.85406" lon="6.87605">
        <ele>1134</ele>
        <time>2011-05-08T09:21:51Z</time>
      </trkpt>
      <trkpt lat="43.8541" lon="6.87609">
        <ele>1132</ele>
        <time>2011-05-08T09:21:55Z</time>
      </trkpt>
      <trkpt lat="43.85411" lon="6.87615">
        <ele>1131</ele>
        <time>2011-05-08T09:21:59Z</time>
      </trkpt>
      <trkpt lat="43.85413" lon="6.87621">
        <ele>1133</ele>
        <time>2011-05-08T09:22:02Z</time>
      </trkpt>
      <trkpt lat="43.85414" lon="6.87628">
        <ele>1133</ele>
        <time>2011-05-08T09:22:07Z</time>
      </trkpt>
      <trkpt lat="43.85417" lon="6.87633">
        <ele>1133</ele>
        <time>2011-05-08T09:22:12Z</time>
      </trkpt>
      <trkpt lat="43.8542" lon="6.87638">
        <ele>1133</ele>
        <time>2011-05-08T09:22:17Z</time>
      </trkpt>
      <trkpt lat="43.85424" lon="6.87643">
        <ele>1133</ele>
        <time>2011-05-08T09:22:22Z</time>
      </trkpt>
      <trkpt lat="43.85426" lon="6.87649">
        <ele>1135</ele>
        <time>2011-05-08T09:22:29Z</time>
      </trkpt>
      <trkpt lat="43.85428" lon="6.87656">
        <ele>1135</ele>
        <time>2011-05-08T09:22:37Z</time>
      </trkpt>
      <trkpt lat="43.85432" lon="6.87661">
        <ele>1136</ele>
        <time>2011-05-08T09:22:44Z</time>
      </trkpt>
      <trkpt lat="43.85432" lon="6.87668">
        <ele>1137</ele>
        <time>2011-05-08T09:22:50Z</time>
      </trkpt>
      <trkpt lat="43.85434" lon="6.87674">
        <ele>1136</ele>
        <time>2011-05-08T09:22:54Z</time>
      </trkpt>
      <trkpt lat="43.85436" lon="6.8768">
        <ele>1138</ele>
        <time>2011-05-08T09:23:00Z</time>
      </trkpt>
      <trkpt lat="43.8544" lon="6.87687">
        <ele>1139</ele>
        <time>2011-05-08T09:23:06Z</time>
      </trkpt>
      <trkpt lat="43.85442" lon="6.87693">
        <ele>1140</ele>
        <time>2011-05-08T09:23:12Z</time>
      </trkpt>
      <trkpt lat="43.85446" lon="6.87698">
        <ele>1142</ele>
        <time>2011-05-08T09:23:19Z</time>
      </trkpt>
      <trkpt lat="43.8545" lon="6.87704">
        <ele>1142</ele>
        <time>2011-05-08T09:23:25Z</time>
      </trkpt>
      <trkpt lat="43.85453" lon="6.8771">
        <ele>1142</ele>
        <time>2011-05-08T09:23:29Z</time>
      </trkpt>
      <trkpt lat="43.85456" lon="6.87716">
        <ele>1141</ele>
        <time>2011-05-08T09:23:34Z</time>
      </trkpt>
      <trkpt lat="43.85458" lon="6.87723">
        <ele>1138</ele>
        <time>2011-05-08T09:23:39Z</time>
      </trkpt>
      <trkpt lat="43.85461" lon="6.87729">
        <ele>1138</ele>
        <time>2011-05-08T09:23:44Z</time>
      </trkpt>
      <trkpt lat="43.85464" lon="6.87735">
        <ele>1138</ele>
        <time>2011-05-08T09:23:50Z</time>
      </trkpt>
      <trkpt lat="43.85465" lon="6.87741">
        <ele>1141</ele>
        <time>2011-05-08T09:23:57Z</time>
      </trkpt>
      <trkpt lat="43.85466" lon="6.87747">
        <ele>1142</ele>
        <time>2011-05-08T09:24:05Z</time>
      </trkpt>
      <trkpt lat="43.85469" lon="6.87753">
        <ele>1142</ele>
        <time>2011-05-08T09:24:10Z</time>
      </trkpt>
      <trkpt lat="43.8547" lon="6.87759">
        <ele>1141</ele>
        <time>2011-05-08T09:24:16Z</time>
      </trkpt>
      <trkpt lat="43.85469" lon="6.87765">
        <ele>1143</ele>
        <time>2011-05-08T09:24:21Z</time>
      </trkpt>
      <trkpt lat="43.85467" lon="6.87772">
        <ele>1145</ele>
        <time>2011-05-08T09:24:26Z</time>
      </trkpt>
      <trkpt lat="43.85467" lon="6.87779">
        <ele>1146</ele>
        <time>2011-05-08T09:24:30Z</time>
      </trkpt>
      <trkpt lat="43.85465" lon="6.87785">
        <ele>1145</ele>
        <time>2011-05-08T09:24:34Z</time>
      </trkpt>
      <trkpt lat="43.85463" lon="6.87792">
        <ele>1147</ele>
        <time>2011-05-08T09:24:38Z</time>
      </trkpt>
      <trkpt lat="43.85466" lon="6.87798">
        <ele>1149</ele>
        <time>2011-05-08T09:24:44Z</time>
      </trkpt>
      <trkpt lat="43.85466" lon="6.87804">
        <ele>1149</ele>
        <time>2011-05-08T09:24:49Z</time>
      </trkpt>
      <trkpt lat="43.85462" lon="6.87811">
        <ele>1150</ele>
        <time>2011-05-08T09:24:53Z</time>
      </trkpt>
      <trkpt lat="43.85458" lon="6.87813">
        <ele>1150</ele>
        <time>2011-05-08T09:24:57Z</time>
      </trkpt>
      <trkpt lat="43.85454" lon="6.87818">
        <ele>1153</ele>
        <time>2011-05-08T09:25:01Z</time>
      </trkpt>
      <trkpt lat="43.85449" lon="6.87821">
        <ele>1156</ele>
        <time>2011-05-08T09:25:05Z</time>
      </trkpt>
      <trkpt lat="43.85447" lon="6.87827">
        <ele>1157</ele>
        <time>2011-05-08T09:25:09Z</time>
      </trkpt>
      <trkpt lat="43.85446" lon="6.87835">
        <ele>1151</ele>
        <time>2011-05-08T09:25:19Z</time>
      </trkpt>
      <trkpt lat="43.85442" lon="6.87839">
        <ele>1154</ele>
        <time>2011-05-08T09:25:25Z</time>
      </trkpt>
      <trkpt lat="43.85442" lon="6.87846">
        <ele>1162</ele>
        <time>2011-05-08T09:26:36Z</time>
      </trkpt>
      <trkpt lat="43.85447" lon="6.87848">
        <ele>1168</ele>
        <time>2011-05-08T09:26:51Z</time>
      </trkpt>
      <trkpt lat="43.85448" lon="6.87855">
        <ele>1166</ele>
        <time>2011-05-08T09:26:57Z</time>
      </trkpt>
      <trkpt lat="43.85448" lon="6.87855">
        <ele>1166</ele>
        <time>2011-05-08T09:26:57Z</time>
      </trkpt>
      <trkpt lat="43.85448" lon="6.87855">
        <ele>1166</ele>
        <time>2011-05-08T09:26:58Z</time>
      </trkpt>
      <trkpt lat="43.85448" lon="6.87861">
        <ele>1165</ele>
        <time>2011-05-08T09:27:03Z</time>
      </trkpt>
      <trkpt lat="43.85447" lon="6.87868">
        <ele>1165</ele>
        <time>2011-05-08T09:27:08Z</time>
      </trkpt>
      <trkpt lat="43.85447" lon="6.87874">
        <ele>1164</ele>
        <time>2011-05-08T09:27:16Z</time>
      </trkpt>
      <trkpt lat="43.85451" lon="6.87878">
        <ele>1164</ele>
        <time>2011-05-08T09:27:20Z</time>
      </trkpt>
      <trkpt lat="43.85452" lon="6.87884">
        <ele>1164</ele>
        <time>2011-05-08T09:27:26Z</time>
      </trkpt>
      <trkpt lat="43.85456" lon="6.87888">
        <ele>1166</ele>
        <time>2011-05-08T09:27:32Z</time>
      </trkpt>
      <trkpt lat="43.85461" lon="6.87893">
        <ele>1167</ele>
        <time>2011-05-08T09:27:37Z</time>
      </trkpt>
      <trkpt lat="43.85465" lon="6.87898">
        <ele>1169</ele>
        <time>2011-05-08T09:27:44Z</time>
      </trkpt>
      <trkpt lat="43.85468" lon="6.87903">
        <ele>1173</ele>
        <time>2011-05-08T09:27:56Z</time>
      </trkpt>
      <trkpt lat="43.85472" lon="6.87906">
        <ele>1176</ele>
        <time>2011-05-08T09:31:05Z</time>
      </trkpt>
      <trkpt lat="43.85476" lon="6.87913">
        <ele>1174</ele>
        <time>2011-05-08T09:31:11Z</time>
      </trkpt>
      <trkpt lat="43.85476" lon="6.87922">
        <ele>1176</ele>
        <time>2011-05-08T09:31:16Z</time>
      </trkpt>
      <trkpt lat="43.85481" lon="6.87929">
        <ele>1177</ele>
        <time>2011-05-08T09:31:25Z</time>
      </trkpt>
      <trkpt lat="43.85483" lon="6.87935">
        <ele>1178</ele>
        <time>2011-05-08T09:31:30Z</time>
      </trkpt>
      <trkpt lat="43.85486" lon="6.8794">
        <ele>1179</ele>
        <time>2011-05-08T09:31:35Z</time>
      </trkpt>
      <trkpt lat="43.85489" lon="6.87947">
        <ele>1180</ele>
        <time>2011-05-08T09:31:40Z</time>
      </trkpt>
      <trkpt lat="43.85492" lon="6.87953">
        <ele>1181</ele>
        <time>2011-05-08T09:31:44Z</time>
      </trkpt>
      <trkpt lat="43.85493" lon="6.87959">
        <ele>1181</ele>
        <time>2011-05-08T09:31:47Z</time>
      </trkpt>
      <trkpt lat="43.85495" lon="6.87965">
        <ele>1181</ele>
        <time>2011-05-08T09:31:51Z</time>
      </trkpt>
      <trkpt lat="43.85496" lon="6.87972">
        <ele>1182</ele>
        <time>2011-05-08T09:31:56Z</time>
      </trkpt>
      <trkpt lat="43.85498" lon="6.87978">
        <ele>1183</ele>
        <time>2011-05-08T09:32:00Z</time>
      </trkpt>
      <trkpt lat="43.855" lon="6.87986">
        <ele>1180</ele>
        <time>2011-05-08T09:32:05Z</time>
      </trkpt>
      <trkpt lat="43.855" lon="6.87992">
        <ele>1182</ele>
        <time>2011-05-08T09:32:09Z</time>
      </trkpt>
      <trkpt lat="43.855" lon="6.87998">
        <ele>1183</ele>
        <time>2011-05-08T09:32:12Z</time>
      </trkpt>
      <trkpt lat="43.855" lon="6.88005">
        <ele>1184</ele>
        <time>2011-05-08T09:32:16Z</time>
      </trkpt>
      <trkpt lat="43.85502" lon="6.88011">
        <ele>1187</ele>
        <time>2011-05-08T09:32:23Z</time>
      </trkpt>
      <trkpt lat="43.85504" lon="6.88017">
        <ele>1188</ele>
        <time>2011-05-08T09:32:29Z</time>
      </trkpt>
      <trkpt lat="43.85504" lon="6.88017">
        <ele>1188</ele>
        <time>2011-05-08T09:32:29Z</time>
      </trkpt>
      <trkpt lat="43.85504" lon="6.88017">
        <ele>1188</ele>
        <time>2011-05-08T09:32:30Z</time>
      </trkpt>
      <trkpt lat="43.85502" lon="6.88024">
        <ele>1190</ele>
        <time>2011-05-08T09:32:34Z</time>
      </trkpt>
      <trkpt lat="43.85504" lon="6.8803">
        <ele>1191</ele>
        <time>2011-05-08T09:32:39Z</time>
      </trkpt>
      <trkpt lat="43.85507" lon="6.88036">
        <ele>1191</ele>
        <time>2011-05-08T09:32:43Z</time>
      </trkpt>
      <trkpt lat="43.85508" lon="6.88043">
        <ele>1196</ele>
        <time>2011-05-08T09:32:59Z</time>
      </trkpt>
      <trkpt lat="43.85511" lon="6.88048">
        <ele>1196</ele>
        <time>2011-05-08T09:33:05Z</time>
      </trkpt>
      <trkpt lat="43.85514" lon="6.88054">
        <ele>1199</ele>
        <time>2011-05-08T09:33:13Z</time>
      </trkpt>
      <trkpt lat="43.85515" lon="6.8806">
        <ele>1199</ele>
        <time>2011-05-08T09:33:17Z</time>
      </trkpt>
      <trkpt lat="43.85517" lon="6.88067">
        <ele>1198</ele>
        <time>2011-05-08T09:33:21Z</time>
      </trkpt>
      <trkpt lat="43.85521" lon="6.88073">
        <ele>1199</ele>
        <time>2011-05-08T09:33:25Z</time>
      </trkpt>
      <trkpt lat="43.85525" lon="6.88074">
        <ele>1200</ele>
        <time>2011-05-08T09:33:32Z</time>
      </trkpt>
      <trkpt lat="43.8553" lon="6.88072">
        <ele>1203</ele>
        <time>2011-05-08T09:33:41Z</time>
      </trkpt>
      <trkpt lat="43.8553" lon="6.88072">
        <ele>1203</ele>
        <time>2011-05-08T09:33:41Z</time>
      </trkpt>
      <trkpt lat="43.8553" lon="6.88072">
        <ele>1204</ele>
        <time>2011-05-08T09:33:43Z</time>
      </trkpt>
      <trkpt lat="43.85534" lon="6.88071">
        <ele>1206</ele>
        <time>2011-05-08T09:33:50Z</time>
      </trkpt>
      <trkpt lat="43.85539" lon="6.88071">
        <ele>1207</ele>
        <time>2011-05-08T09:33:59Z</time>
      </trkpt>
      <trkpt lat="43.85544" lon="6.88068">
        <ele>1205</ele>
        <time>2011-05-08T09:34:07Z</time>
      </trkpt>
      <trkpt lat="43.85549" lon="6.88066">
        <ele>1207</ele>
        <time>2011-05-08T09:34:15Z</time>
      </trkpt>
      <trkpt lat="43.85553" lon="6.88065">
        <ele>1209</ele>
        <time>2011-05-08T09:34:25Z</time>
      </trkpt>
      <trkpt lat="43.85558" lon="6.88064">
        <ele>1213</ele>
        <time>2011-05-08T09:34:32Z</time>
      </trkpt>
      <trkpt lat="43.85562" lon="6.88069">
        <ele>1217</ele>
        <time>2011-05-08T09:34:41Z</time>
      </trkpt>
      <trkpt lat="43.85566" lon="6.88071">
        <ele>1218</ele>
        <time>2011-05-08T09:34:44Z</time>
      </trkpt>
      <trkpt lat="43.85566" lon="6.88071">
        <ele>1218</ele>
        <time>2011-05-08T09:34:44Z</time>
      </trkpt>
      <trkpt lat="43.85566" lon="6.88071">
        <ele>1219</ele>
        <time>2011-05-08T09:34:45Z</time>
      </trkpt>
      <trkpt lat="43.8557" lon="6.88074">
        <ele>1220</ele>
        <time>2011-05-08T09:34:51Z</time>
      </trkpt>
      <trkpt lat="43.85574" lon="6.88078">
        <ele>1221</ele>
        <time>2011-05-08T09:35:00Z</time>
      </trkpt>
      <trkpt lat="43.85578" lon="6.88079">
        <ele>1223</ele>
        <time>2011-05-08T09:35:13Z</time>
      </trkpt>
      <trkpt lat="43.85581" lon="6.88085">
        <ele>1222</ele>
        <time>2011-05-08T09:35:20Z</time>
      </trkpt>
      <trkpt lat="43.85585" lon="6.88091">
        <ele>1221</ele>
        <time>2011-05-08T09:35:25Z</time>
      </trkpt>
      <trkpt lat="43.85588" lon="6.88096">
        <ele>1225</ele>
        <time>2011-05-08T09:35:31Z</time>
      </trkpt>
      <trkpt lat="43.85592" lon="6.881">
        <ele>1226</ele>
        <time>2011-05-08T09:35:37Z</time>
      </trkpt>
      <trkpt lat="43.85595" lon="6.88106">
        <ele>1227</ele>
        <time>2011-05-08T09:35:44Z</time>
      </trkpt>
      <trkpt lat="43.85598" lon="6.8811">
        <ele>1226</ele>
        <time>2011-05-08T09:35:52Z</time>
      </trkpt>
      <trkpt lat="43.85597" lon="6.88117">
        <ele>1227</ele>
        <time>2011-05-08T09:36:47Z</time>
      </trkpt>
      <trkpt lat="43.85601" lon="6.88121">
        <ele>1226</ele>
        <time>2011-05-08T09:38:05Z</time>
      </trkpt>
      <trkpt lat="43.85605" lon="6.88125">
        <ele>1225</ele>
        <time>2011-05-08T09:38:10Z</time>
      </trkpt>
      <trkpt lat="43.85609" lon="6.88128">
        <ele>1224</ele>
        <time>2011-05-08T09:38:15Z</time>
      </trkpt>
      <trkpt lat="43.85613" lon="6.88132">
        <ele>1226</ele>
        <time>2011-05-08T09:38:21Z</time>
      </trkpt>
      <trkpt lat="43.85617" lon="6.88137">
        <ele>1227</ele>
        <time>2011-05-08T09:38:27Z</time>
      </trkpt>
      <trkpt lat="43.8562" lon="6.88143">
        <ele>1227</ele>
        <time>2011-05-08T09:38:32Z</time>
      </trkpt>
      <trkpt lat="43.85625" lon="6.88143">
        <ele>1231</ele>
        <time>2011-05-08T09:38:42Z</time>
      </trkpt>
      <trkpt lat="43.85629" lon="6.8814">
        <ele>1235</ele>
        <time>2011-05-08T09:38:50Z</time>
      </trkpt>
      <trkpt lat="43.85632" lon="6.88145">
        <ele>1236</ele>
        <time>2011-05-08T09:38:54Z</time>
      </trkpt>
      <trkpt lat="43.85634" lon="6.88152">
        <ele>1235</ele>
        <time>2011-05-08T09:38:57Z</time>
      </trkpt>
      <trkpt lat="43.85634" lon="6.88152">
        <ele>1235</ele>
        <time>2011-05-08T09:38:57Z</time>
      </trkpt>
      <trkpt lat="43.85634" lon="6.88152">
        <ele>1236</ele>
        <time>2011-05-08T09:38:58Z</time>
      </trkpt>
      <trkpt lat="43.85637" lon="6.88156">
        <ele>1236</ele>
        <time>2011-05-08T09:39:02Z</time>
      </trkpt>
      <trkpt lat="43.8564" lon="6.88161">
        <ele>1238</ele>
        <time>2011-05-08T09:39:08Z</time>
      </trkpt>
      <trkpt lat="43.85643" lon="6.88165">
        <ele>1239</ele>
        <time>2011-05-08T09:39:15Z</time>
      </trkpt>
      <trkpt lat="43.85648" lon="6.88167">
        <ele>1241</ele>
        <time>2011-05-08T09:39:22Z</time>
      </trkpt>
      <trkpt lat="43.85651" lon="6.88172">
        <ele>1241</ele>
        <time>2011-05-08T09:39:27Z</time>
      </trkpt>
      <trkpt lat="43.85651" lon="6.88172">
        <ele>1241</ele>
        <time>2011-05-08T09:39:27Z</time>
      </trkpt>
      <trkpt lat="43.85651" lon="6.88172">
        <ele>1241</ele>
        <time>2011-05-08T09:39:28Z</time>
      </trkpt>
      <trkpt lat="43.85654" lon="6.88177">
        <ele>1241</ele>
        <time>2011-05-08T09:39:33Z</time>
      </trkpt>
      <trkpt lat="43.85657" lon="6.88182">
        <ele>1242</ele>
        <time>2011-05-08T09:39:38Z</time>
      </trkpt>
      <trkpt lat="43.8566" lon="6.88188">
        <ele>1242</ele>
        <time>2011-05-08T09:39:47Z</time>
      </trkpt>
      <trkpt lat="43.85662" lon="6.88194">
        <ele>1244</ele>
        <time>2011-05-08T09:39:53Z</time>
      </trkpt>
      <trkpt lat="43.85665" lon="6.882">
        <ele>1246</ele>
        <time>2011-05-08T09:39:59Z</time>
      </trkpt>
      <trkpt lat="43.85669" lon="6.88202">
        <ele>1247</ele>
        <time>2011-05-08T09:40:11Z</time>
      </trkpt>
      <trkpt lat="43.85671" lon="6.88208">
        <ele>1249</ele>
        <time>2011-05-08T09:40:16Z</time>
      </trkpt>
      <trkpt lat="43.85674" lon="6.88215">
        <ele>1249</ele>
        <time>2011-05-08T09:40:22Z</time>
      </trkpt>
      <trkpt lat="43.85677" lon="6.88219">
        <ele>1251</ele>
        <time>2011-05-08T09:40:30Z</time>
      </trkpt>
      <trkpt lat="43.8568" lon="6.88223">
        <ele>1252</ele>
        <time>2011-05-08T09:40:49Z</time>
      </trkpt>
      <trkpt lat="43.85685" lon="6.88226">
        <ele>1254</ele>
        <time>2011-05-08T09:40:57Z</time>
      </trkpt>
      <trkpt lat="43.85689" lon="6.88228">
        <ele>1254</ele>
        <time>2011-05-08T09:41:03Z</time>
      </trkpt>
      <trkpt lat="43.85693" lon="6.88232">
        <ele>1255</ele>
        <time>2011-05-08T09:41:12Z</time>
      </trkpt>
      <trkpt lat="43.85696" lon="6.88238">
        <ele>1255</ele>
        <time>2011-05-08T09:41:19Z</time>
      </trkpt>
      <trkpt lat="43.857" lon="6.88238">
        <ele>1256</ele>
        <time>2011-05-08T09:41:28Z</time>
      </trkpt>
      <trkpt lat="43.85702" lon="6.88231">
        <ele>1259</ele>
        <time>2011-05-08T09:41:35Z</time>
      </trkpt>
      <trkpt lat="43.85704" lon="6.88224">
        <ele>1260</ele>
        <time>2011-05-08T09:41:41Z</time>
      </trkpt>
      <trkpt lat="43.85706" lon="6.88218">
        <ele>1261</ele>
        <time>2011-05-08T09:41:48Z</time>
      </trkpt>
      <trkpt lat="43.85708" lon="6.88212">
        <ele>1263</ele>
        <time>2011-05-08T09:41:55Z</time>
      </trkpt>
      <trkpt lat="43.85709" lon="6.88206">
        <ele>1265</ele>
        <time>2011-05-08T09:42:01Z</time>
      </trkpt>
      <trkpt lat="43.8571" lon="6.88199">
        <ele>1267</ele>
        <time>2011-05-08T09:42:08Z</time>
      </trkpt>
      <trkpt lat="43.8571" lon="6.88192">
        <ele>1269</ele>
        <time>2011-05-08T09:42:15Z</time>
      </trkpt>
      <trkpt lat="43.85713" lon="6.88187">
        <ele>1271</ele>
        <time>2011-05-08T09:42:47Z</time>
      </trkpt>
      <trkpt lat="43.85716" lon="6.88192">
        <ele>1272</ele>
        <time>2011-05-08T09:42:54Z</time>
      </trkpt>
      <trkpt lat="43.85718" lon="6.88197">
        <ele>1273</ele>
        <time>2011-05-08T09:43:01Z</time>
      </trkpt>
      <trkpt lat="43.8572" lon="6.88204">
        <ele>1274</ele>
        <time>2011-05-08T09:43:07Z</time>
      </trkpt>
      <trkpt lat="43.85725" lon="6.88203">
        <ele>1275</ele>
        <time>2011-05-08T09:43:17Z</time>
      </trkpt>
      <trkpt lat="43.85729" lon="6.88206">
        <ele>1276</ele>
        <time>2011-05-08T09:43:25Z</time>
      </trkpt>
      <trkpt lat="43.85731" lon="6.88212">
        <ele>1277</ele>
        <time>2011-05-08T09:43:31Z</time>
      </trkpt>
      <trkpt lat="43.85731" lon="6.88218">
        <ele>1277</ele>
        <time>2011-05-08T09:43:35Z</time>
      </trkpt>
      <trkpt lat="43.85732" lon="6.88226">
        <ele>1277</ele>
        <time>2011-05-08T09:43:40Z</time>
      </trkpt>
      <trkpt lat="43.85734" lon="6.88233">
        <ele>1277</ele>
        <time>2011-05-08T09:43:45Z</time>
      </trkpt>
      <trkpt lat="43.85737" lon="6.88237">
        <ele>1280</ele>
        <time>2011-05-08T09:43:57Z</time>
      </trkpt>
      <trkpt lat="43.85739" lon="6.88244">
        <ele>1281</ele>
        <time>2011-05-08T09:44:12Z</time>
      </trkpt>
      <trkpt lat="43.8574" lon="6.88251">
        <ele>1280</ele>
        <time>2011-05-08T09:44:17Z</time>
      </trkpt>
      <trkpt lat="43.85743" lon="6.88257">
        <ele>1281</ele>
        <time>2011-05-08T09:44:22Z</time>
      </trkpt>
      <trkpt lat="43.85745" lon="6.88264">
        <ele>1280</ele>
        <time>2011-05-08T09:44:27Z</time>
      </trkpt>
      <trkpt lat="43.85745" lon="6.88271">
        <ele>1282</ele>
        <time>2011-05-08T09:44:31Z</time>
      </trkpt>
      <trkpt lat="43.85746" lon="6.88278">
        <ele>1283</ele>
        <time>2011-05-08T09:44:35Z</time>
      </trkpt>
      <trkpt lat="43.85749" lon="6.88284">
        <ele>1283</ele>
        <time>2011-05-08T09:44:40Z</time>
      </trkpt>
      <trkpt lat="43.85751" lon="6.8829">
        <ele>1282</ele>
        <time>2011-05-08T09:44:46Z</time>
      </trkpt>
      <trkpt lat="43.85751" lon="6.88297">
        <ele>1280</ele>
        <time>2011-05-08T09:44:50Z</time>
      </trkpt>
      <trkpt lat="43.85752" lon="6.88303">
        <ele>1279</ele>
        <time>2011-05-08T09:44:54Z</time>
      </trkpt>
      <trkpt lat="43.85753" lon="6.8831">
        <ele>1280</ele>
        <time>2011-05-08T09:44:58Z</time>
      </trkpt>
      <trkpt lat="43.85753" lon="6.88316">
        <ele>1279</ele>
        <time>2011-05-08T09:45:02Z</time>
      </trkpt>
      <trkpt lat="43.85757" lon="6.88322">
        <ele>1278</ele>
        <time>2011-05-08T09:45:12Z</time>
      </trkpt>
      <trkpt lat="43.85759" lon="6.88329">
        <ele>1277</ele>
        <time>2011-05-08T09:45:15Z</time>
      </trkpt>
      <trkpt lat="43.8576" lon="6.88337">
        <ele>1278</ele>
        <time>2011-05-08T09:45:19Z</time>
      </trkpt>
      <trkpt lat="43.85762" lon="6.88343">
        <ele>1276</ele>
        <time>2011-05-08T09:45:22Z</time>
      </trkpt>
      <trkpt lat="43.85765" lon="6.8835">
        <ele>1276</ele>
        <time>2011-05-08T09:45:26Z</time>
      </trkpt>
      <trkpt lat="43.85767" lon="6.88356">
        <ele>1278</ele>
        <time>2011-05-08T09:45:30Z</time>
      </trkpt>
      <trkpt lat="43.8577" lon="6.88362">
        <ele>1278</ele>
        <time>2011-05-08T09:45:33Z</time>
      </trkpt>
      <trkpt lat="43.85769" lon="6.88368">
        <ele>1278</ele>
        <time>2011-05-08T09:46:13Z</time>
      </trkpt>
      <trkpt lat="43.85771" lon="6.88376">
        <ele>1274</ele>
        <time>2011-05-08T09:46:26Z</time>
      </trkpt>
      <trkpt lat="43.85775" lon="6.88379">
        <ele>1273</ele>
        <time>2011-05-08T09:46:30Z</time>
      </trkpt>
      <trkpt lat="43.85778" lon="6.88386">
        <ele>1272</ele>
        <time>2011-05-08T09:46:35Z</time>
      </trkpt>
      <trkpt lat="43.85779" lon="6.88393">
        <ele>1271</ele>
        <time>2011-05-08T09:46:39Z</time>
      </trkpt>
      <trkpt lat="43.8578" lon="6.884">
        <ele>1270</ele>
        <time>2011-05-08T09:46:44Z</time>
      </trkpt>
      <trkpt lat="43.85782" lon="6.88406">
        <ele>1271</ele>
        <time>2011-05-08T09:46:48Z</time>
      </trkpt>
      <trkpt lat="43.85783" lon="6.88414">
        <ele>1272</ele>
        <time>2011-05-08T09:46:51Z</time>
      </trkpt>
      <trkpt lat="43.85788" lon="6.88419">
        <ele>1273</ele>
        <time>2011-05-08T09:46:55Z</time>
      </trkpt>
      <trkpt lat="43.85789" lon="6.88426">
        <ele>1272</ele>
        <time>2011-05-08T09:47:04Z</time>
      </trkpt>
      <trkpt lat="43.85789" lon="6.88433">
        <ele>1272</ele>
        <time>2011-05-08T09:47:08Z</time>
      </trkpt>
      <trkpt lat="43.85791" lon="6.88439">
        <ele>1273</ele>
        <time>2011-05-08T09:47:12Z</time>
      </trkpt>
      <trkpt lat="43.85794" lon="6.88446">
        <ele>1272</ele>
        <time>2011-05-08T09:47:17Z</time>
      </trkpt>
      <trkpt lat="43.85796" lon="6.88452">
        <ele>1270</ele>
        <time>2011-05-08T09:47:22Z</time>
      </trkpt>
      <trkpt lat="43.858" lon="6.88456">
        <ele>1268</ele>
        <time>2011-05-08T09:47:27Z</time>
      </trkpt>
      <trkpt lat="43.85803" lon="6.88461">
        <ele>1269</ele>
        <time>2011-05-08T09:47:31Z</time>
      </trkpt>
      <trkpt lat="43.85806" lon="6.88467">
        <ele>1269</ele>
        <time>2011-05-08T09:47:35Z</time>
      </trkpt>
      <trkpt lat="43.85809" lon="6.88474">
        <ele>1268</ele>
        <time>2011-05-08T09:47:40Z</time>
      </trkpt>
      <trkpt lat="43.85811" lon="6.8848">
        <ele>1268</ele>
        <time>2011-05-08T09:47:44Z</time>
      </trkpt>
      <trkpt lat="43.85812" lon="6.88488">
        <ele>1267</ele>
        <time>2011-05-08T09:47:54Z</time>
      </trkpt>
      <trkpt lat="43.85815" lon="6.88494">
        <ele>1267</ele>
        <time>2011-05-08T09:47:58Z</time>
      </trkpt>
      <trkpt lat="43.85816" lon="6.885">
        <ele>1266</ele>
        <time>2011-05-08T09:48:01Z</time>
      </trkpt>
      <trkpt lat="43.85819" lon="6.88505">
        <ele>1266</ele>
        <time>2011-05-08T09:48:04Z</time>
      </trkpt>
      <trkpt lat="43.85823" lon="6.8851">
        <ele>1265</ele>
        <time>2011-05-08T09:48:09Z</time>
      </trkpt>
      <trkpt lat="43.85826" lon="6.88517">
        <ele>1264</ele>
        <time>2011-05-08T09:48:13Z</time>
      </trkpt>
      <trkpt lat="43.85827" lon="6.88524">
        <ele>1261</ele>
        <time>2011-05-08T09:48:29Z</time>
      </trkpt>
      <trkpt lat="43.85827" lon="6.88532">
        <ele>1259</ele>
        <time>2011-05-08T09:48:33Z</time>
      </trkpt>
      <trkpt lat="43.85829" lon="6.88538">
        <ele>1259</ele>
        <time>2011-05-08T09:48:37Z</time>
      </trkpt>
      <trkpt lat="43.85831" lon="6.88544">
        <ele>1257</ele>
        <time>2011-05-08T09:48:42Z</time>
      </trkpt>
      <trkpt lat="43.85833" lon="6.88551">
        <ele>1257</ele>
        <time>2011-05-08T09:48:47Z</time>
      </trkpt>
      <trkpt lat="43.85835" lon="6.88558">
        <ele>1256</ele>
        <time>2011-05-08T09:48:51Z</time>
      </trkpt>
      <trkpt lat="43.85838" lon="6.88564">
        <ele>1257</ele>
        <time>2011-05-08T09:48:55Z</time>
      </trkpt>
      <trkpt lat="43.85842" lon="6.88568">
        <ele>1255</ele>
        <time>2011-05-08T09:49:00Z</time>
      </trkpt>
      <trkpt lat="43.85844" lon="6.88574">
        <ele>1253</ele>
        <time>2011-05-08T09:49:03Z</time>
      </trkpt>
      <trkpt lat="43.85842" lon="6.88581">
        <ele>1253</ele>
        <time>2011-05-08T09:49:06Z</time>
      </trkpt>
      <trkpt lat="43.85845" lon="6.88588">
        <ele>1253</ele>
        <time>2011-05-08T09:49:10Z</time>
      </trkpt>
      <trkpt lat="43.85847" lon="6.88594">
        <ele>1251</ele>
        <time>2011-05-08T09:49:16Z</time>
      </trkpt>
      <trkpt lat="43.85849" lon="6.886">
        <ele>1250</ele>
        <time>2011-05-08T09:49:20Z</time>
      </trkpt>
      <trkpt lat="43.85853" lon="6.88606">
        <ele>1251</ele>
        <time>2011-05-08T09:49:25Z</time>
      </trkpt>
      <trkpt lat="43.85851" lon="6.88613">
        <ele>1250</ele>
        <time>2011-05-08T09:49:30Z</time>
      </trkpt>
      <trkpt lat="43.85851" lon="6.8862">
        <ele>1249</ele>
        <time>2011-05-08T09:49:34Z</time>
      </trkpt>
      <trkpt lat="43.85853" lon="6.88626">
        <ele>1246</ele>
        <time>2011-05-08T09:50:40Z</time>
      </trkpt>
      <trkpt lat="43.85852" lon="6.88633">
        <ele>1246</ele>
        <time>2011-05-08T09:50:44Z</time>
      </trkpt>
      <trkpt lat="43.85852" lon="6.8864">
        <ele>1243</ele>
        <time>2011-05-08T09:50:48Z</time>
      </trkpt>
      <trkpt lat="43.85855" lon="6.88647">
        <ele>1242</ele>
        <time>2011-05-08T09:50:52Z</time>
      </trkpt>
      <trkpt lat="43.85857" lon="6.88653">
        <ele>1239</ele>
        <time>2011-05-08T09:50:57Z</time>
      </trkpt>
      <trkpt lat="43.8586" lon="6.88659">
        <ele>1237</ele>
        <time>2011-05-08T09:51:01Z</time>
      </trkpt>
      <trkpt lat="43.85862" lon="6.88665">
        <ele>1238</ele>
        <time>2011-05-08T09:51:05Z</time>
      </trkpt>
      <trkpt lat="43.85864" lon="6.88672">
        <ele>1238</ele>
        <time>2011-05-08T09:51:09Z</time>
      </trkpt>
      <trkpt lat="43.85868" lon="6.88676">
        <ele>1238</ele>
        <time>2011-05-08T09:51:12Z</time>
      </trkpt>
      <trkpt lat="43.85874" lon="6.88681">
        <ele>1238</ele>
        <time>2011-05-08T09:51:18Z</time>
      </trkpt>
      <trkpt lat="43.85874" lon="6.88681">
        <ele>1238</ele>
        <time>2011-05-08T09:51:18Z</time>
      </trkpt>
      <trkpt lat="43.85874" lon="6.88681">
        <ele>1239</ele>
        <time>2011-05-08T09:51:19Z</time>
      </trkpt>
      <trkpt lat="43.85879" lon="6.88683">
        <ele>1239</ele>
        <time>2011-05-08T09:51:23Z</time>
      </trkpt>
      <trkpt lat="43.85884" lon="6.88686">
        <ele>1238</ele>
        <time>2011-05-08T09:51:29Z</time>
      </trkpt>
      <trkpt lat="43.85886" lon="6.88692">
        <ele>1235</ele>
        <time>2011-05-08T09:51:32Z</time>
      </trkpt>
      <trkpt lat="43.85885" lon="6.88699">
        <ele>1236</ele>
        <time>2011-05-08T09:51:38Z</time>
      </trkpt>
      <trkpt lat="43.85889" lon="6.88705">
        <ele>1234</ele>
        <time>2011-05-08T09:51:43Z</time>
      </trkpt>
      <trkpt lat="43.85891" lon="6.88711">
        <ele>1233</ele>
        <time>2011-05-08T09:51:48Z</time>
      </trkpt>
      <trkpt lat="43.85894" lon="6.88718">
        <ele>1232</ele>
        <time>2011-05-08T09:51:52Z</time>
      </trkpt>
      <trkpt lat="43.85895" lon="6.88725">
        <ele>1229</ele>
        <time>2011-05-08T09:51:56Z</time>
      </trkpt>
      <trkpt lat="43.85898" lon="6.88729">
        <ele>1229</ele>
        <time>2011-05-08T09:51:59Z</time>
      </trkpt>
      <trkpt lat="43.85902" lon="6.88735">
        <ele>1228</ele>
        <time>2011-05-08T09:52:03Z</time>
      </trkpt>
      <trkpt lat="43.85905" lon="6.88742">
        <ele>1228</ele>
        <time>2011-05-08T09:52:07Z</time>
      </trkpt>
      <trkpt lat="43.85905" lon="6.88749">
        <ele>1227</ele>
        <time>2011-05-08T09:52:11Z</time>
      </trkpt>
      <trkpt lat="43.85908" lon="6.88755">
        <ele>1225</ele>
        <time>2011-05-08T09:52:15Z</time>
      </trkpt>
      <trkpt lat="43.8591" lon="6.88761">
        <ele>1224</ele>
        <time>2011-05-08T09:52:19Z</time>
      </trkpt>
      <trkpt lat="43.85912" lon="6.88767">
        <ele>1222</ele>
        <time>2011-05-08T09:52:23Z</time>
      </trkpt>
      <trkpt lat="43.85915" lon="6.88773">
        <ele>1222</ele>
        <time>2011-05-08T09:52:27Z</time>
      </trkpt>
      <trkpt lat="43.85917" lon="6.8878">
        <ele>1220</ele>
        <time>2011-05-08T09:52:31Z</time>
      </trkpt>
      <trkpt lat="43.8592" lon="6.88786">
        <ele>1219</ele>
        <time>2011-05-08T09:52:35Z</time>
      </trkpt>
      <trkpt lat="43.85921" lon="6.88792">
        <ele>1218</ele>
        <time>2011-05-08T09:52:39Z</time>
      </trkpt>
      <trkpt lat="43.85924" lon="6.88799">
        <ele>1218</ele>
        <time>2011-05-08T09:52:43Z</time>
      </trkpt>
      <trkpt lat="43.85926" lon="6.88807">
        <ele>1218</ele>
        <time>2011-05-08T09:52:47Z</time>
      </trkpt>
      <trkpt lat="43.85928" lon="6.88814">
        <ele>1218</ele>
        <time>2011-05-08T09:52:51Z</time>
      </trkpt>
      <trkpt lat="43.85929" lon="6.8882">
        <ele>1215</ele>
        <time>2011-05-08T09:52:55Z</time>
      </trkpt>
      <trkpt lat="43.85933" lon="6.88827">
        <ele>1214</ele>
        <time>2011-05-08T09:53:00Z</time>
      </trkpt>
      <trkpt lat="43.85936" lon="6.88834">
        <ele>1214</ele>
        <time>2011-05-08T09:53:06Z</time>
      </trkpt>
      <trkpt lat="43.85939" lon="6.88841">
        <ele>1212</ele>
        <time>2011-05-08T09:53:10Z</time>
      </trkpt>
      <trkpt lat="43.85942" lon="6.88847">
        <ele>1212</ele>
        <time>2011-05-08T09:53:14Z</time>
      </trkpt>
      <trkpt lat="43.85943" lon="6.88854">
        <ele>1209</ele>
        <time>2011-05-08T09:53:18Z</time>
      </trkpt>
      <trkpt lat="43.85946" lon="6.88859">
        <ele>1209</ele>
        <time>2011-05-08T09:53:22Z</time>
      </trkpt>
      <trkpt lat="43.8595" lon="6.88864">
        <ele>1208</ele>
        <time>2011-05-08T09:53:25Z</time>
      </trkpt>
      <trkpt lat="43.85953" lon="6.88868">
        <ele>1208</ele>
        <time>2011-05-08T09:53:28Z</time>
      </trkpt>
      <trkpt lat="43.85952" lon="6.88876">
        <ele>1203</ele>
        <time>2011-05-08T09:53:33Z</time>
      </trkpt>
      <trkpt lat="43.85954" lon="6.88884">
        <ele>1202</ele>
        <time>2011-05-08T09:53:38Z</time>
      </trkpt>
      <trkpt lat="43.85958" lon="6.88888">
        <ele>1202</ele>
        <time>2011-05-08T09:53:41Z</time>
      </trkpt>
      <trkpt lat="43.8596" lon="6.88894">
        <ele>1201</ele>
        <time>2011-05-08T09:53:44Z</time>
      </trkpt>
      <trkpt lat="43.85963" lon="6.889">
        <ele>1198</ele>
        <time>2011-05-08T09:53:49Z</time>
      </trkpt>
      <trkpt lat="43.85967" lon="6.88904">
        <ele>1194</ele>
        <time>2011-05-08T09:54:00Z</time>
      </trkpt>
      <trkpt lat="43.85971" lon="6.88907">
        <ele>1193</ele>
        <time>2011-05-08T09:54:03Z</time>
      </trkpt>
      <trkpt lat="43.85975" lon="6.88912">
        <ele>1191</ele>
        <time>2011-05-08T09:54:07Z</time>
      </trkpt>
      <trkpt lat="43.85975" lon="6.88919">
        <ele>1188</ele>
        <time>2011-05-08T09:54:13Z</time>
      </trkpt>
      <trkpt lat="43.85978" lon="6.88925">
        <ele>1186</ele>
        <time>2011-05-08T09:54:19Z</time>
      </trkpt>
      <trkpt lat="43.85983" lon="6.88928">
        <ele>1187</ele>
        <time>2011-05-08T09:55:43Z</time>
      </trkpt>
      <trkpt lat="43.85988" lon="6.8893">
        <ele>1186</ele>
        <time>2011-05-08T09:56:52Z</time>
      </trkpt>
      <trkpt lat="43.85992" lon="6.88934">
        <ele>1186</ele>
        <time>2011-05-08T09:56:55Z</time>
      </trkpt>
      <trkpt lat="43.85996" lon="6.88938">
        <ele>1187</ele>
        <time>2011-05-08T09:56:58Z</time>
      </trkpt>
      <trkpt lat="43.86001" lon="6.88941">
        <ele>1186</ele>
        <time>2011-05-08T09:57:02Z</time>
      </trkpt>
      <trkpt lat="43.86004" lon="6.88946">
        <ele>1183</ele>
        <time>2011-05-08T09:57:05Z</time>
      </trkpt>
      <trkpt lat="43.86008" lon="6.8895">
        <ele>1179</ele>
        <time>2011-05-08T09:57:10Z</time>
      </trkpt>
      <trkpt lat="43.86012" lon="6.88955">
        <ele>1179</ele>
        <time>2011-05-08T09:57:14Z</time>
      </trkpt>
      <trkpt lat="43.86016" lon="6.88959">
        <ele>1178</ele>
        <time>2011-05-08T09:57:18Z</time>
      </trkpt>
      <trkpt lat="43.86019" lon="6.88963">
        <ele>1177</ele>
        <time>2011-05-08T09:57:21Z</time>
      </trkpt>
      <trkpt lat="43.86022" lon="6.8897">
        <ele>1176</ele>
        <time>2011-05-08T09:57:25Z</time>
      </trkpt>
      <trkpt lat="43.86026" lon="6.88975">
        <ele>1175</ele>
        <time>2011-05-08T09:57:29Z</time>
      </trkpt>
      <trkpt lat="43.8603" lon="6.8898">
        <ele>1173</ele>
        <time>2011-05-08T09:57:33Z</time>
      </trkpt>
      <trkpt lat="43.86034" lon="6.88983">
        <ele>1172</ele>
        <time>2011-05-08T09:57:38Z</time>
      </trkpt>
      <trkpt lat="43.86038" lon="6.88989">
        <ele>1172</ele>
        <time>2011-05-08T09:57:42Z</time>
      </trkpt>
      <trkpt lat="43.86042" lon="6.88995">
        <ele>1170</ele>
        <time>2011-05-08T09:57:46Z</time>
      </trkpt>
      <trkpt lat="43.86045" lon="6.89001">
        <ele>1170</ele>
        <time>2011-05-08T09:57:50Z</time>
      </trkpt>
      <trkpt lat="43.86048" lon="6.89007">
        <ele>1168</ele>
        <time>2011-05-08T09:57:55Z</time>
      </trkpt>
      <trkpt lat="43.86053" lon="6.89008">
        <ele>1166</ele>
        <time>2011-05-08T09:58:02Z</time>
      </trkpt>
      <trkpt lat="43.86052" lon="6.89016">
        <ele>1164</ele>
        <time>2011-05-08T09:58:08Z</time>
      </trkpt>
      <trkpt lat="43.86054" lon="6.89022">
        <ele>1164</ele>
        <time>2011-05-08T09:58:13Z</time>
      </trkpt>
      <trkpt lat="43.86056" lon="6.89029">
        <ele>1161</ele>
        <time>2011-05-08T09:58:18Z</time>
      </trkpt>
      <trkpt lat="43.8606" lon="6.89036">
        <ele>1161</ele>
        <time>2011-05-08T09:58:21Z</time>
      </trkpt>
      <trkpt lat="43.86062" lon="6.89042">
        <ele>1161</ele>
        <time>2011-05-08T09:58:27Z</time>
      </trkpt>
      <trkpt lat="43.86064" lon="6.89049">
        <ele>1161</ele>
        <time>2011-05-08T09:58:31Z</time>
      </trkpt>
      <trkpt lat="43.86064" lon="6.89055">
        <ele>1159</ele>
        <time>2011-05-08T09:58:35Z</time>
      </trkpt>
      <trkpt lat="43.86063" lon="6.89062">
        <ele>1158</ele>
        <time>2011-05-08T09:58:38Z</time>
      </trkpt>
      <trkpt lat="43.86063" lon="6.8907">
        <ele>1156</ele>
        <time>2011-05-08T09:58:42Z</time>
      </trkpt>
      <trkpt lat="43.86062" lon="6.89077">
        <ele>1155</ele>
        <time>2011-05-08T09:58:46Z</time>
      </trkpt>
      <trkpt lat="43.86062" lon="6.89084">
        <ele>1153</ele>
        <time>2011-05-08T09:58:50Z</time>
      </trkpt>
      <trkpt lat="43.86061" lon="6.89093">
        <ele>1151</ele>
        <time>2011-05-08T09:58:54Z</time>
      </trkpt>
      <trkpt lat="43.8606" lon="6.891">
        <ele>1147</ele>
        <time>2011-05-08T09:58:58Z</time>
      </trkpt>
      <trkpt lat="43.86062" lon="6.89107">
        <ele>1145</ele>
        <time>2011-05-08T09:59:02Z</time>
      </trkpt>
      <trkpt lat="43.86062" lon="6.89114">
        <ele>1143</ele>
        <time>2011-05-08T09:59:05Z</time>
      </trkpt>
      <trkpt lat="43.86062" lon="6.89121">
        <ele>1143</ele>
        <time>2011-05-08T09:59:08Z</time>
      </trkpt>
      <trkpt lat="43.86066" lon="6.89127">
        <ele>1142</ele>
        <time>2011-05-08T09:59:13Z</time>
      </trkpt>
      <trkpt lat="43.86065" lon="6.89134">
        <ele>1140</ele>
        <time>2011-05-08T09:59:18Z</time>
      </trkpt>
      <trkpt lat="43.8607" lon="6.89136">
        <ele>1137</ele>
        <time>2011-05-08T09:59:22Z</time>
      </trkpt>
      <trkpt lat="43.8607" lon="6.89136">
        <ele>1137</ele>
        <time>2011-05-08T09:59:22Z</time>
      </trkpt>
      <trkpt lat="43.8607" lon="6.89136">
        <ele>1136</ele>
        <time>2011-05-08T09:59:28Z</time>
      </trkpt>
      <trkpt lat="43.8607" lon="6.8913">
        <ele>1134</ele>
        <time>2011-05-08T10:02:17Z</time>
      </trkpt>
      <trkpt lat="43.8607" lon="6.8913">
        <ele>1134</ele>
        <time>2011-05-08T10:02:17Z</time>
      </trkpt>
      <trkpt lat="43.8607" lon="6.8913">
        <ele>1134</ele>
        <time>2011-05-08T10:04:36Z</time>
      </trkpt>
      <trkpt lat="43.86075" lon="6.89137">
        <ele>1136</ele>
        <time>2011-05-08T10:04:37Z</time>
      </trkpt>
      <trkpt lat="43.86074" lon="6.89144">
        <ele>1139</ele>
        <time>2011-05-08T10:04:44Z</time>
      </trkpt>
      <trkpt lat="43.86073" lon="6.89152">
        <ele>1139</ele>
        <time>2011-05-08T10:04:52Z</time>
      </trkpt>
      <trkpt lat="43.86071" lon="6.89159">
        <ele>1141</ele>
        <time>2011-05-08T10:04:58Z</time>
      </trkpt>
      <trkpt lat="43.86069" lon="6.89166">
        <ele>1141</ele>
        <time>2011-05-08T10:05:03Z</time>
      </trkpt>
      <trkpt lat="43.8607" lon="6.89173">
        <ele>1140</ele>
        <time>2011-05-08T10:05:08Z</time>
      </trkpt>
      <trkpt lat="43.86069" lon="6.89181">
        <ele>1140</ele>
        <time>2011-05-08T10:05:14Z</time>
      </trkpt>
      <trkpt lat="43.86068" lon="6.89187">
        <ele>1138</ele>
        <time>2011-05-08T10:05:19Z</time>
      </trkpt>
      <trkpt lat="43.86069" lon="6.89195">
        <ele>1137</ele>
        <time>2011-05-08T10:05:25Z</time>
      </trkpt>
      <trkpt lat="43.86068" lon="6.89202">
        <ele>1139</ele>
        <time>2011-05-08T10:05:29Z</time>
      </trkpt>
      <trkpt lat="43.86069" lon="6.89209">
        <ele>1143</ele>
        <time>2011-05-08T10:05:37Z</time>
      </trkpt>
      <trkpt lat="43.86066" lon="6.89216">
        <ele>1144</ele>
        <time>2011-05-08T10:06:07Z</time>
      </trkpt>
      <trkpt lat="43.86068" lon="6.89224">
        <ele>1148</ele>
        <time>2011-05-08T10:06:14Z</time>
      </trkpt>
      <trkpt lat="43.86072" lon="6.89228">
        <ele>1148</ele>
        <time>2011-05-08T10:06:17Z</time>
      </trkpt>
      <trkpt lat="43.86071" lon="6.89234">
        <ele>1148</ele>
        <time>2011-05-08T10:06:20Z</time>
      </trkpt>
      <trkpt lat="43.86069" lon="6.89241">
        <ele>1150</ele>
        <time>2011-05-08T10:06:26Z</time>
      </trkpt>
      <trkpt lat="43.86067" lon="6.89248">
        <ele>1149</ele>
        <time>2011-05-08T10:06:32Z</time>
      </trkpt>
      <trkpt lat="43.86068" lon="6.89254">
        <ele>1152</ele>
        <time>2011-05-08T10:06:39Z</time>
      </trkpt>
      <trkpt lat="43.86067" lon="6.89261">
        <ele>1154</ele>
        <time>2011-05-08T10:06:50Z</time>
      </trkpt>
      <trkpt lat="43.86064" lon="6.89267">
        <ele>1154</ele>
        <time>2011-05-08T10:06:55Z</time>
      </trkpt>
      <trkpt lat="43.86066" lon="6.89275">
        <ele>1159</ele>
        <time>2011-05-08T10:06:59Z</time>
      </trkpt>
      <trkpt lat="43.86064" lon="6.89281">
        <ele>1162</ele>
        <time>2011-05-08T10:07:03Z</time>
      </trkpt>
      <trkpt lat="43.86061" lon="6.89286">
        <ele>1161</ele>
        <time>2011-05-08T10:07:08Z</time>
      </trkpt>
      <trkpt lat="43.8606" lon="6.89293">
        <ele>1161</ele>
        <time>2011-05-08T10:07:12Z</time>
      </trkpt>
      <trkpt lat="43.8606" lon="6.893">
        <ele>1162</ele>
        <time>2011-05-08T10:07:16Z</time>
      </trkpt>
      <trkpt lat="43.8606" lon="6.89307">
        <ele>1161</ele>
        <time>2011-05-08T10:07:21Z</time>
      </trkpt>
      <trkpt lat="43.86058" lon="6.89313">
        <ele>1160</ele>
        <time>2011-05-08T10:07:25Z</time>
      </trkpt>
      <trkpt lat="43.86056" lon="6.8932">
        <ele>1161</ele>
        <time>2011-05-08T10:07:29Z</time>
      </trkpt>
      <trkpt lat="43.86054" lon="6.89326">
        <ele>1160</ele>
        <time>2011-05-08T10:07:34Z</time>
      </trkpt>
      <trkpt lat="43.86053" lon="6.89332">
        <ele>1160</ele>
        <time>2011-05-08T10:07:38Z</time>
      </trkpt>
      <trkpt lat="43.86052" lon="6.89339">
        <ele>1159</ele>
        <time>2011-05-08T10:07:44Z</time>
      </trkpt>
      <trkpt lat="43.86051" lon="6.89346">
        <ele>1162</ele>
        <time>2011-05-08T10:07:49Z</time>
      </trkpt>
      <trkpt lat="43.8605" lon="6.89353">
        <ele>1162</ele>
        <time>2011-05-08T10:07:54Z</time>
      </trkpt>
      <trkpt lat="43.8605" lon="6.89359">
        <ele>1162</ele>
        <time>2011-05-08T10:08:01Z</time>
      </trkpt>
      <trkpt lat="43.86048" lon="6.89366">
        <ele>1164</ele>
        <time>2011-05-08T10:08:07Z</time>
      </trkpt>
      <trkpt lat="43.8605" lon="6.89373">
        <ele>1169</ele>
        <time>2011-05-08T10:08:13Z</time>
      </trkpt>
      <trkpt lat="43.86047" lon="6.89379">
        <ele>1169</ele>
        <time>2011-05-08T10:08:19Z</time>
      </trkpt>
      <trkpt lat="43.86044" lon="6.89384">
        <ele>1168</ele>
        <time>2011-05-08T10:08:28Z</time>
      </trkpt>
      <trkpt lat="43.86044" lon="6.89384">
        <ele>1168</ele>
        <time>2011-05-08T10:08:28Z</time>
      </trkpt>
      <trkpt lat="43.86044" lon="6.89384">
        <ele>1168</ele>
        <time>2011-05-08T10:08:29Z</time>
      </trkpt>
      <trkpt lat="43.86044" lon="6.8939">
        <ele>1169</ele>
        <time>2011-05-08T10:08:35Z</time>
      </trkpt>
      <trkpt lat="43.86042" lon="6.89397">
        <ele>1170</ele>
        <time>2011-05-08T10:08:39Z</time>
      </trkpt>
      <trkpt lat="43.8604" lon="6.89403">
        <ele>1173</ele>
        <time>2011-05-08T10:08:45Z</time>
      </trkpt>
      <trkpt lat="43.86034" lon="6.89404">
        <ele>1173</ele>
        <time>2011-05-08T10:08:52Z</time>
      </trkpt>
      <trkpt lat="43.86031" lon="6.89399">
        <ele>1175</ele>
        <time>2011-05-08T10:08:59Z</time>
      </trkpt>
      <trkpt lat="43.86028" lon="6.89395">
        <ele>1180</ele>
        <time>2011-05-08T10:09:08Z</time>
      </trkpt>
      <trkpt lat="43.86028" lon="6.89395">
        <ele>1180</ele>
        <time>2011-05-08T10:09:08Z</time>
      </trkpt>
      <trkpt lat="43.86028" lon="6.89395">
        <ele>1180</ele>
        <time>2011-05-08T10:09:09Z</time>
      </trkpt>
      <trkpt lat="43.86024" lon="6.89389">
        <ele>1180</ele>
        <time>2011-05-08T10:09:19Z</time>
      </trkpt>
      <trkpt lat="43.86021" lon="6.89393">
        <ele>1182</ele>
        <time>2011-05-08T10:09:32Z</time>
      </trkpt>
      <trkpt lat="43.86021" lon="6.894">
        <ele>1186</ele>
        <time>2011-05-08T10:09:42Z</time>
      </trkpt>
      <trkpt lat="43.86024" lon="6.89406">
        <ele>1191</ele>
        <time>2011-05-08T10:09:51Z</time>
      </trkpt>
      <trkpt lat="43.86021" lon="6.89412">
        <ele>1192</ele>
        <time>2011-05-08T10:10:00Z</time>
      </trkpt>
      <trkpt lat="43.86017" lon="6.89417">
        <ele>1194</ele>
        <time>2011-05-08T10:10:06Z</time>
      </trkpt>
      <trkpt lat="43.86015" lon="6.89423">
        <ele>1195</ele>
        <time>2011-05-08T10:10:17Z</time>
      </trkpt>
      <trkpt lat="43.86013" lon="6.8943">
        <ele>1197</ele>
        <time>2011-05-08T10:10:22Z</time>
      </trkpt>
      <trkpt lat="43.8601" lon="6.89435">
        <ele>1197</ele>
        <time>2011-05-08T10:10:28Z</time>
      </trkpt>
      <trkpt lat="43.86001" lon="6.89446">
        <ele>1195</ele>
        <time>2011-05-08T10:14:17Z</time>
      </trkpt>
      <trkpt lat="43.85997" lon="6.89449">
        <ele>1196</ele>
        <time>2011-05-08T10:14:23Z</time>
      </trkpt>
      <trkpt lat="43.85994" lon="6.89455">
        <ele>1198</ele>
        <time>2011-05-08T10:14:29Z</time>
      </trkpt>
      <trkpt lat="43.85994" lon="6.89455">
        <ele>1198</ele>
        <time>2011-05-08T10:14:29Z</time>
      </trkpt>
      <trkpt lat="43.85994" lon="6.89455">
        <ele>1198</ele>
        <time>2011-05-08T10:14:31Z</time>
      </trkpt>
      <trkpt lat="43.85992" lon="6.89461">
        <ele>1204</ele>
        <time>2011-05-08T10:14:40Z</time>
      </trkpt>
      <trkpt lat="43.85988" lon="6.89467">
        <ele>1205</ele>
        <time>2011-05-08T10:14:44Z</time>
      </trkpt>
      <trkpt lat="43.85984" lon="6.89469">
        <ele>1206</ele>
        <time>2011-05-08T10:14:48Z</time>
      </trkpt>
      <trkpt lat="43.85979" lon="6.89473">
        <ele>1207</ele>
        <time>2011-05-08T10:14:51Z</time>
      </trkpt>
      <trkpt lat="43.85974" lon="6.89476">
        <ele>1207</ele>
        <time>2011-05-08T10:14:54Z</time>
      </trkpt>
      <trkpt lat="43.8597" lon="6.8948">
        <ele>1207</ele>
        <time>2011-05-08T10:14:59Z</time>
      </trkpt>
      <trkpt lat="43.85964" lon="6.89483">
        <ele>1206</ele>
        <time>2011-05-08T10:15:03Z</time>
      </trkpt>
      <trkpt lat="43.8596" lon="6.89486">
        <ele>1206</ele>
        <time>2011-05-08T10:15:06Z</time>
      </trkpt>
      <trkpt lat="43.85955" lon="6.89488">
        <ele>1207</ele>
        <time>2011-05-08T10:15:10Z</time>
      </trkpt>
      <trkpt lat="43.8595" lon="6.89489">
        <ele>1210</ele>
        <time>2011-05-08T10:15:18Z</time>
      </trkpt>
      <trkpt lat="43.85945" lon="6.89491">
        <ele>1210</ele>
        <time>2011-05-08T10:15:23Z</time>
      </trkpt>
      <trkpt lat="43.8594" lon="6.89491">
        <ele>1210</ele>
        <time>2011-05-08T10:15:28Z</time>
      </trkpt>
      <trkpt lat="43.8594" lon="6.89491">
        <ele>1210</ele>
        <time>2011-05-08T10:15:28Z</time>
      </trkpt>
      <trkpt lat="43.8594" lon="6.89491">
        <ele>1210</ele>
        <time>2011-05-08T10:15:29Z</time>
      </trkpt>
      <trkpt lat="43.85936" lon="6.89495">
        <ele>1213</ele>
        <time>2011-05-08T10:15:36Z</time>
      </trkpt>
      <trkpt lat="43.85933" lon="6.89499">
        <ele>1215</ele>
        <time>2011-05-08T10:15:41Z</time>
      </trkpt>
      <trkpt lat="43.85928" lon="6.89502">
        <ele>1216</ele>
        <time>2011-05-08T10:15:49Z</time>
      </trkpt>
      <trkpt lat="43.85924" lon="6.89506">
        <ele>1217</ele>
        <time>2011-05-08T10:15:53Z</time>
      </trkpt>
      <trkpt lat="43.85919" lon="6.8951">
        <ele>1218</ele>
        <time>2011-05-08T10:16:12Z</time>
      </trkpt>
      <trkpt lat="43.85914" lon="6.89511">
        <ele>1218</ele>
        <time>2011-05-08T10:16:16Z</time>
      </trkpt>
      <trkpt lat="43.85909" lon="6.89507">
        <ele>1216</ele>
        <time>2011-05-08T10:16:41Z</time>
      </trkpt>
      <trkpt lat="43.85904" lon="6.89503">
        <ele>1214</ele>
        <time>2011-05-08T10:16:45Z</time>
      </trkpt>
      <trkpt lat="43.859" lon="6.89498">
        <ele>1213</ele>
        <time>2011-05-08T10:16:50Z</time>
      </trkpt>
      <trkpt lat="43.85896" lon="6.89493">
        <ele>1212</ele>
        <time>2011-05-08T10:16:53Z</time>
      </trkpt>
      <trkpt lat="43.85891" lon="6.89488">
        <ele>1210</ele>
        <time>2011-05-08T10:16:57Z</time>
      </trkpt>
      <trkpt lat="43.85887" lon="6.89484">
        <ele>1211</ele>
        <time>2011-05-08T10:17:01Z</time>
      </trkpt>
      <trkpt lat="43.85885" lon="6.89476">
        <ele>1210</ele>
        <time>2011-05-08T10:17:05Z</time>
      </trkpt>
      <trkpt lat="43.85883" lon="6.89471">
        <ele>1209</ele>
        <time>2011-05-08T10:17:10Z</time>
      </trkpt>
      <trkpt lat="43.8588" lon="6.89466">
        <ele>1208</ele>
        <time>2011-05-08T10:17:13Z</time>
      </trkpt>
      <trkpt lat="43.85878" lon="6.89459">
        <ele>1207</ele>
        <time>2011-05-08T10:17:17Z</time>
      </trkpt>
      <trkpt lat="43.85877" lon="6.89453">
        <ele>1206</ele>
        <time>2011-05-08T10:17:20Z</time>
      </trkpt>
      <trkpt lat="43.85872" lon="6.89447">
        <ele>1206</ele>
        <time>2011-05-08T10:17:25Z</time>
      </trkpt>
      <trkpt lat="43.85868" lon="6.89446">
        <ele>1207</ele>
        <time>2011-05-08T10:17:29Z</time>
      </trkpt>
      <trkpt lat="43.85863" lon="6.89445">
        <ele>1204</ele>
        <time>2011-05-08T10:17:32Z</time>
      </trkpt>
      <trkpt lat="43.85858" lon="6.89442">
        <ele>1201</ele>
        <time>2011-05-08T10:17:35Z</time>
      </trkpt>
      <trkpt lat="43.85854" lon="6.89438">
        <ele>1200</ele>
        <time>2011-05-08T10:17:39Z</time>
      </trkpt>
      <trkpt lat="43.85849" lon="6.89435">
        <ele>1198</ele>
        <time>2011-05-08T10:17:43Z</time>
      </trkpt>
      <trkpt lat="43.85845" lon="6.89432">
        <ele>1200</ele>
        <time>2011-05-08T10:17:48Z</time>
      </trkpt>
      <trkpt lat="43.85842" lon="6.89425">
        <ele>1200</ele>
        <time>2011-05-08T10:17:53Z</time>
      </trkpt>
      <trkpt lat="43.8584" lon="6.89419">
        <ele>1200</ele>
        <time>2011-05-08T10:17:56Z</time>
      </trkpt>
      <trkpt lat="43.85837" lon="6.89414">
        <ele>1200</ele>
        <time>2011-05-08T10:18:00Z</time>
      </trkpt>
      <trkpt lat="43.85832" lon="6.89413">
        <ele>1200</ele>
        <time>2011-05-08T10:18:04Z</time>
      </trkpt>
      <trkpt lat="43.85827" lon="6.89413">
        <ele>1197</ele>
        <time>2011-05-08T10:18:08Z</time>
      </trkpt>
      <trkpt lat="43.85823" lon="6.8941">
        <ele>1197</ele>
        <time>2011-05-08T10:18:12Z</time>
      </trkpt>
      <trkpt lat="43.85818" lon="6.8941">
        <ele>1197</ele>
        <time>2011-05-08T10:18:25Z</time>
      </trkpt>
      <trkpt lat="43.85815" lon="6.89415">
        <ele>1196</ele>
        <time>2011-05-08T10:18:34Z</time>
      </trkpt>
      <trkpt lat="43.85812" lon="6.89409">
        <ele>1186</ele>
        <time>2011-05-08T10:18:59Z</time>
      </trkpt>
      <trkpt lat="43.85809" lon="6.89414">
        <ele>1186</ele>
        <time>2011-05-08T10:19:07Z</time>
      </trkpt>
      <trkpt lat="43.85804" lon="6.89415">
        <ele>1186</ele>
        <time>2011-05-08T10:19:12Z</time>
      </trkpt>
      <trkpt lat="43.85804" lon="6.89407">
        <ele>1183</ele>
        <time>2011-05-08T10:19:17Z</time>
      </trkpt>
      <trkpt lat="43.858" lon="6.89402">
        <ele>1181</ele>
        <time>2011-05-08T10:19:23Z</time>
      </trkpt>
      <trkpt lat="43.85797" lon="6.89396">
        <ele>1180</ele>
        <time>2011-05-08T10:19:27Z</time>
      </trkpt>
      <trkpt lat="43.85795" lon="6.89389">
        <ele>1179</ele>
        <time>2011-05-08T10:19:32Z</time>
      </trkpt>
      <trkpt lat="43.85792" lon="6.89384">
        <ele>1179</ele>
        <time>2011-05-08T10:19:37Z</time>
      </trkpt>
      <trkpt lat="43.85789" lon="6.89377">
        <ele>1179</ele>
        <time>2011-05-08T10:19:42Z</time>
      </trkpt>
      <trkpt lat="43.85785" lon="6.89373">
        <ele>1176</ele>
        <time>2011-05-08T10:19:49Z</time>
      </trkpt>
      <trkpt lat="43.85781" lon="6.89368">
        <ele>1175</ele>
        <time>2011-05-08T10:19:55Z</time>
      </trkpt>
      <trkpt lat="43.85777" lon="6.89365">
        <ele>1174</ele>
        <time>2011-05-08T10:19:59Z</time>
      </trkpt>
      <trkpt lat="43.85773" lon="6.8936">
        <ele>1173</ele>
        <time>2011-05-08T10:20:05Z</time>
      </trkpt>
      <trkpt lat="43.85768" lon="6.89356">
        <ele>1173</ele>
        <time>2011-05-08T10:20:10Z</time>
      </trkpt>
      <trkpt lat="43.85765" lon="6.89351">
        <ele>1172</ele>
        <time>2011-05-08T10:20:14Z</time>
      </trkpt>
      <trkpt lat="43.85764" lon="6.89343">
        <ele>1172</ele>
        <time>2011-05-08T10:20:18Z</time>
      </trkpt>
      <trkpt lat="43.8576" lon="6.89337">
        <ele>1171</ele>
        <time>2011-05-08T10:20:23Z</time>
      </trkpt>
      <trkpt lat="43.85757" lon="6.89331">
        <ele>1170</ele>
        <time>2011-05-08T10:20:28Z</time>
      </trkpt>
      <trkpt lat="43.85756" lon="6.89323">
        <ele>1170</ele>
        <time>2011-05-08T10:20:31Z</time>
      </trkpt>
      <trkpt lat="43.85752" lon="6.8932">
        <ele>1169</ele>
        <time>2011-05-08T10:20:36Z</time>
      </trkpt>
      <trkpt lat="43.85751" lon="6.89313">
        <ele>1167</ele>
        <time>2011-05-08T10:20:39Z</time>
      </trkpt>
      <trkpt lat="43.85747" lon="6.89309">
        <ele>1166</ele>
        <time>2011-05-08T10:20:44Z</time>
      </trkpt>
      <trkpt lat="43.85743" lon="6.89306">
        <ele>1163</ele>
        <time>2011-05-08T10:20:48Z</time>
      </trkpt>
      <trkpt lat="43.8574" lon="6.893">
        <ele>1159</ele>
        <time>2011-05-08T10:20:56Z</time>
      </trkpt>
      <trkpt lat="43.85738" lon="6.89294">
        <ele>1158</ele>
        <time>2011-05-08T10:21:01Z</time>
      </trkpt>
      <trkpt lat="43.85734" lon="6.89297">
        <ele>1154</ele>
        <time>2011-05-08T10:21:37Z</time>
      </trkpt>
      <trkpt lat="43.85734" lon="6.89297">
        <ele>1154</ele>
        <time>2011-05-08T10:21:37Z</time>
      </trkpt>
      <trkpt lat="43.85734" lon="6.89297">
        <ele>1154</ele>
        <time>2011-05-08T10:21:38Z</time>
      </trkpt>
      <trkpt lat="43.85729" lon="6.893">
        <ele>1153</ele>
        <time>2011-05-08T10:21:44Z</time>
      </trkpt>
      <trkpt lat="43.85729" lon="6.893">
        <ele>1153</ele>
        <time>2011-05-08T10:21:44Z</time>
      </trkpt>
      <trkpt lat="43.85729" lon="6.893">
        <ele>1153</ele>
        <time>2011-05-08T10:21:45Z</time>
      </trkpt>
      <trkpt lat="43.85726" lon="6.89296">
        <ele>1153</ele>
        <time>2011-05-08T10:21:49Z</time>
      </trkpt>
      <trkpt lat="43.85722" lon="6.89301">
        <ele>1148</ele>
        <time>2011-05-08T10:22:04Z</time>
      </trkpt>
      <trkpt lat="43.85718" lon="6.89303">
        <ele>1146</ele>
        <time>2011-05-08T10:22:16Z</time>
      </trkpt>
      <trkpt lat="43.85718" lon="6.89303">
        <ele>1146</ele>
        <time>2011-05-08T10:22:16Z</time>
      </trkpt>
      <trkpt lat="43.85718" lon="6.89303">
        <ele>1146</ele>
        <time>2011-05-08T10:22:17Z</time>
      </trkpt>
      <trkpt lat="43.85718" lon="6.89309">
        <ele>1146</ele>
        <time>2011-05-08T10:22:28Z</time>
      </trkpt>
      <trkpt lat="43.85716" lon="6.89315">
        <ele>1145</ele>
        <time>2011-05-08T10:22:31Z</time>
      </trkpt>
      <trkpt lat="43.85716" lon="6.89322">
        <ele>1144</ele>
        <time>2011-05-08T10:22:37Z</time>
      </trkpt>
      <trkpt lat="43.85717" lon="6.89329">
        <ele>1142</ele>
        <time>2011-05-08T10:22:41Z</time>
      </trkpt>
      <trkpt lat="43.85716" lon="6.89336">
        <ele>1143</ele>
        <time>2011-05-08T10:22:44Z</time>
      </trkpt>
      <trkpt lat="43.85715" lon="6.89342">
        <ele>1143</ele>
        <time>2011-05-08T10:22:47Z</time>
      </trkpt>
      <trkpt lat="43.85714" lon="6.89349">
        <ele>1143</ele>
        <time>2011-05-08T10:22:51Z</time>
      </trkpt>
      <trkpt lat="43.85716" lon="6.89354">
        <ele>1143</ele>
        <time>2011-05-08T10:22:55Z</time>
      </trkpt>
      <trkpt lat="43.85713" lon="6.8936">
        <ele>1143</ele>
        <time>2011-05-08T10:23:00Z</time>
      </trkpt>
      <trkpt lat="43.8571" lon="6.89366">
        <ele>1139</ele>
        <time>2011-05-08T10:23:05Z</time>
      </trkpt>
      <trkpt lat="43.8571" lon="6.89366">
        <ele>1139</ele>
        <time>2011-05-08T10:23:05Z</time>
      </trkpt>
      <trkpt lat="43.8571" lon="6.89366">
        <ele>1138</ele>
        <time>2011-05-08T10:23:10Z</time>
      </trkpt>
      <trkpt lat="43.85706" lon="6.89371">
        <ele>1136</ele>
        <time>2011-05-08T10:23:17Z</time>
      </trkpt>
      <trkpt lat="43.85702" lon="6.89376">
        <ele>1135</ele>
        <time>2011-05-08T10:23:25Z</time>
      </trkpt>
      <trkpt lat="43.85701" lon="6.89384">
        <ele>1136</ele>
        <time>2011-05-08T10:23:30Z</time>
      </trkpt>
      <trkpt lat="43.857" lon="6.89391">
        <ele>1134</ele>
        <time>2011-05-08T10:23:33Z</time>
      </trkpt>
      <trkpt lat="43.857" lon="6.894">
        <ele>1134</ele>
        <time>2011-05-08T10:23:36Z</time>
      </trkpt>
      <trkpt lat="43.857" lon="6.89407">
        <ele>1133</ele>
        <time>2011-05-08T10:23:40Z</time>
      </trkpt>
      <trkpt lat="43.857" lon="6.89414">
        <ele>1133</ele>
        <time>2011-05-08T10:23:43Z</time>
      </trkpt>
      <trkpt lat="43.85701" lon="6.8942">
        <ele>1129</ele>
        <time>2011-05-08T10:23:46Z</time>
      </trkpt>
      <trkpt lat="43.857" lon="6.89427">
        <ele>1128</ele>
        <time>2011-05-08T10:23:50Z</time>
      </trkpt>
      <trkpt lat="43.857" lon="6.89436">
        <ele>1127</ele>
        <time>2011-05-08T10:23:55Z</time>
      </trkpt>
      <trkpt lat="43.85698" lon="6.89442">
        <ele>1124</ele>
        <time>2011-05-08T10:23:58Z</time>
      </trkpt>
      <trkpt lat="43.85699" lon="6.8945">
        <ele>1121</ele>
        <time>2011-05-08T10:24:03Z</time>
      </trkpt>
      <trkpt lat="43.85698" lon="6.89457">
        <ele>1120</ele>
        <time>2011-05-08T10:24:07Z</time>
      </trkpt>
      <trkpt lat="43.85698" lon="6.89465">
        <ele>1120</ele>
        <time>2011-05-08T10:24:12Z</time>
      </trkpt>
      <trkpt lat="43.85701" lon="6.89471">
        <ele>1120</ele>
        <time>2011-05-08T10:24:16Z</time>
      </trkpt>
      <trkpt lat="43.85701" lon="6.89477">
        <ele>1119</ele>
        <time>2011-05-08T10:24:19Z</time>
      </trkpt>
      <trkpt lat="43.85702" lon="6.89484">
        <ele>1120</ele>
        <time>2011-05-08T10:24:23Z</time>
      </trkpt>
      <trkpt lat="43.85704" lon="6.89492">
        <ele>1119</ele>
        <time>2011-05-08T10:24:37Z</time>
      </trkpt>
      <trkpt lat="43.85701" lon="6.89499">
        <ele>1116</ele>
        <time>2011-05-08T10:24:41Z</time>
      </trkpt>
      <trkpt lat="43.85702" lon="6.89507">
        <ele>1113</ele>
        <time>2011-05-08T10:24:46Z</time>
      </trkpt>
      <trkpt lat="43.85701" lon="6.89513">
        <ele>1112</ele>
        <time>2011-05-08T10:24:48Z</time>
      </trkpt>
      <trkpt lat="43.85698" lon="6.89521">
        <ele>1108</ele>
        <time>2011-05-08T10:24:50Z</time>
      </trkpt>
      <trkpt lat="43.85696" lon="6.89527">
        <ele>1107</ele>
        <time>2011-05-08T10:24:53Z</time>
      </trkpt>
      <trkpt lat="43.85692" lon="6.89531">
        <ele>1105</ele>
        <time>2011-05-08T10:24:57Z</time>
      </trkpt>
      <trkpt lat="43.85692" lon="6.89538">
        <ele>1103</ele>
        <time>2011-05-08T10:25:01Z</time>
      </trkpt>
      <trkpt lat="43.85689" lon="6.89546">
        <ele>1104</ele>
        <time>2011-05-08T10:25:05Z</time>
      </trkpt>
      <trkpt lat="43.85686" lon="6.89554">
        <ele>1103</ele>
        <time>2011-05-08T10:25:16Z</time>
      </trkpt>
      <trkpt lat="43.85683" lon="6.8956">
        <ele>1100</ele>
        <time>2011-05-08T10:25:20Z</time>
      </trkpt>
      <trkpt lat="43.85679" lon="6.89568">
        <ele>1096</ele>
        <time>2011-05-08T10:25:23Z</time>
      </trkpt>
      <trkpt lat="43.85681" lon="6.89574">
        <ele>1092</ele>
        <time>2011-05-08T10:25:27Z</time>
      </trkpt>
      <trkpt lat="43.85683" lon="6.89581">
        <ele>1087</ele>
        <time>2011-05-08T10:25:32Z</time>
      </trkpt>
      <trkpt lat="43.85683" lon="6.89588">
        <ele>1086</ele>
        <time>2011-05-08T10:25:36Z</time>
      </trkpt>
      <trkpt lat="43.85679" lon="6.89594">
        <ele>1086</ele>
        <time>2011-05-08T10:25:40Z</time>
      </trkpt>
      <trkpt lat="43.85674" lon="6.89595">
        <ele>1085</ele>
        <time>2011-05-08T10:25:43Z</time>
      </trkpt>
      <trkpt lat="43.85669" lon="6.89593">
        <ele>1082</ele>
        <time>2011-05-08T10:25:46Z</time>
      </trkpt>
      <trkpt lat="43.85665" lon="6.8959">
        <ele>1079</ele>
        <time>2011-05-08T10:25:50Z</time>
      </trkpt>
      <trkpt lat="43.85662" lon="6.89585">
        <ele>1076</ele>
        <time>2011-05-08T10:25:55Z</time>
      </trkpt>
      <trkpt lat="43.85657" lon="6.89587">
        <ele>1074</ele>
        <time>2011-05-08T10:26:05Z</time>
      </trkpt>
      <trkpt lat="43.85653" lon="6.89582">
        <ele>1073</ele>
        <time>2011-05-08T10:26:10Z</time>
      </trkpt>
      <trkpt lat="43.8565" lon="6.89577">
        <ele>1070</ele>
        <time>2011-05-08T10:26:16Z</time>
      </trkpt>
      <trkpt lat="43.85646" lon="6.89572">
        <ele>1069</ele>
        <time>2011-05-08T10:26:20Z</time>
      </trkpt>
      <trkpt lat="43.85646" lon="6.89572">
        <ele>1069</ele>
        <time>2011-05-08T10:26:20Z</time>
      </trkpt>
      <trkpt lat="43.85646" lon="6.89572">
        <ele>1069</ele>
        <time>2011-05-08T10:26:23Z</time>
      </trkpt>
      <trkpt lat="43.85641" lon="6.8957">
        <ele>1067</ele>
        <time>2011-05-08T10:26:35Z</time>
      </trkpt>
      <trkpt lat="43.85638" lon="6.89564">
        <ele>1063</ele>
        <time>2011-05-08T10:26:39Z</time>
      </trkpt>
      <trkpt lat="43.85634" lon="6.89559">
        <ele>1059</ele>
        <time>2011-05-08T10:26:45Z</time>
      </trkpt>
      <trkpt lat="43.85633" lon="6.89552">
        <ele>1056</ele>
        <time>2011-05-08T10:26:49Z</time>
      </trkpt>
      <trkpt lat="43.85635" lon="6.89546">
        <ele>1050</ele>
        <time>2011-05-08T10:26:57Z</time>
      </trkpt>
      <trkpt lat="43.85631" lon="6.89542">
        <ele>1047</ele>
        <time>2011-05-08T10:27:05Z</time>
      </trkpt>
      <trkpt lat="43.85627" lon="6.89539">
        <ele>1045</ele>
        <time>2011-05-08T10:27:11Z</time>
      </trkpt>
      <trkpt lat="43.85626" lon="6.89532">
        <ele>1043</ele>
        <time>2011-05-08T10:27:15Z</time>
      </trkpt>
      <trkpt lat="43.85622" lon="6.89527">
        <ele>1042</ele>
        <time>2011-05-08T10:27:19Z</time>
      </trkpt>
      <trkpt lat="43.85617" lon="6.89521">
        <ele>1040</ele>
        <time>2011-05-08T10:27:25Z</time>
      </trkpt>
      <trkpt lat="43.85614" lon="6.89514">
        <ele>1040</ele>
        <time>2011-05-08T10:27:31Z</time>
      </trkpt>
      <trkpt lat="43.85609" lon="6.89512">
        <ele>1038</ele>
        <time>2011-05-08T10:27:39Z</time>
      </trkpt>
      <trkpt lat="43.85604" lon="6.89509">
        <ele>1040</ele>
        <time>2011-05-08T10:27:42Z</time>
      </trkpt>
      <trkpt lat="43.85599" lon="6.89505">
        <ele>1038</ele>
        <time>2011-05-08T10:27:46Z</time>
      </trkpt>
      <trkpt lat="43.85595" lon="6.89502">
        <ele>1037</ele>
        <time>2011-05-08T10:27:49Z</time>
      </trkpt>
      <trkpt lat="43.8559" lon="6.89498">
        <ele>1036</ele>
        <time>2011-05-08T10:27:53Z</time>
      </trkpt>
      <trkpt lat="43.85585" lon="6.89496">
        <ele>1035</ele>
        <time>2011-05-08T10:27:57Z</time>
      </trkpt>
      <trkpt lat="43.8558" lon="6.89494">
        <ele>1036</ele>
        <time>2011-05-08T10:28:00Z</time>
      </trkpt>
      <trkpt lat="43.85576" lon="6.8949">
        <ele>1035</ele>
        <time>2011-05-08T10:28:04Z</time>
      </trkpt>
      <trkpt lat="43.85572" lon="6.89488">
        <ele>1033</ele>
        <time>2011-05-08T10:28:09Z</time>
      </trkpt>
      <trkpt lat="43.85566" lon="6.89488">
        <ele>1030</ele>
        <time>2011-05-08T10:28:12Z</time>
      </trkpt>
      <trkpt lat="43.85561" lon="6.89486">
        <ele>1029</ele>
        <time>2011-05-08T10:28:15Z</time>
      </trkpt>
      <trkpt lat="43.85556" lon="6.89485">
        <ele>1028</ele>
        <time>2011-05-08T10:28:19Z</time>
      </trkpt>
      <trkpt lat="43.85551" lon="6.89486">
        <ele>1027</ele>
        <time>2011-05-08T10:28:23Z</time>
      </trkpt>
      <trkpt lat="43.85546" lon="6.89483">
        <ele>1026</ele>
        <time>2011-05-08T10:28:28Z</time>
      </trkpt>
      <trkpt lat="43.85543" lon="6.8948">
        <ele>1023</ele>
        <time>2011-05-08T10:28:33Z</time>
      </trkpt>
      <trkpt lat="43.85538" lon="6.89475">
        <ele>1021</ele>
        <time>2011-05-08T10:28:37Z</time>
      </trkpt>
      <trkpt lat="43.85534" lon="6.89469">
        <ele>1021</ele>
        <time>2011-05-08T10:28:41Z</time>
      </trkpt>
      <trkpt lat="43.85535" lon="6.89461">
        <ele>1021</ele>
        <time>2011-05-08T10:28:44Z</time>
      </trkpt>
      <trkpt lat="43.85531" lon="6.89465">
        <ele>1019</ele>
        <time>2011-05-08T10:28:52Z</time>
      </trkpt>
      <trkpt lat="43.85532" lon="6.89472">
        <ele>1017</ele>
        <time>2011-05-08T10:28:56Z</time>
      </trkpt>
      <trkpt lat="43.85532" lon="6.89481">
        <ele>1017</ele>
        <time>2011-05-08T10:29:00Z</time>
      </trkpt>
      <trkpt lat="43.85534" lon="6.89488">
        <ele>1016</ele>
        <time>2011-05-08T10:29:04Z</time>
      </trkpt>
      <trkpt lat="43.85535" lon="6.89495">
        <ele>1015</ele>
        <time>2011-05-08T10:29:08Z</time>
      </trkpt>
      <trkpt lat="43.85536" lon="6.89502">
        <ele>1015</ele>
        <time>2011-05-08T10:29:12Z</time>
      </trkpt>
      <trkpt lat="43.85538" lon="6.89508">
        <ele>1014</ele>
        <time>2011-05-08T10:29:16Z</time>
      </trkpt>
      <trkpt lat="43.85542" lon="6.89515">
        <ele>1012</ele>
        <time>2011-05-08T10:29:20Z</time>
      </trkpt>
      <trkpt lat="43.85542" lon="6.89515">
        <ele>1012</ele>
        <time>2011-05-08T10:29:20Z</time>
      </trkpt>
      <trkpt lat="43.85542" lon="6.89515">
        <ele>1011</ele>
        <time>2011-05-08T10:29:22Z</time>
      </trkpt>
      <trkpt lat="43.8554" lon="6.89521">
        <ele>1014</ele>
        <time>2011-05-08T10:29:55Z</time>
      </trkpt>
      <trkpt lat="43.85538" lon="6.8953">
        <ele>1013</ele>
        <time>2011-05-08T10:30:00Z</time>
      </trkpt>
      <trkpt lat="43.8554" lon="6.89536">
        <ele>1010</ele>
        <time>2011-05-08T10:30:06Z</time>
      </trkpt>
      <trkpt lat="43.85545" lon="6.89537">
        <ele>1009</ele>
        <time>2011-05-08T10:30:10Z</time>
      </trkpt>
      <trkpt lat="43.85551" lon="6.89538">
        <ele>1009</ele>
        <time>2011-05-08T10:30:15Z</time>
      </trkpt>
      <trkpt lat="43.85559" lon="6.89538">
        <ele>1007</ele>
        <time>2011-05-08T10:30:20Z</time>
      </trkpt>
      <trkpt lat="43.85553" lon="6.89544">
        <ele>1006</ele>
        <time>2011-05-08T10:30:22Z</time>
      </trkpt>
      <trkpt lat="43.85553" lon="6.89551">
        <ele>1005</ele>
        <time>2011-05-08T10:30:28Z</time>
      </trkpt>
      <trkpt lat="43.85556" lon="6.89556">
        <ele>1005</ele>
        <time>2011-05-08T10:30:31Z</time>
      </trkpt>
      <trkpt lat="43.85559" lon="6.89563">
        <ele>1004</ele>
        <time>2011-05-08T10:30:36Z</time>
      </trkpt>
      <trkpt lat="43.8556" lon="6.8957">
        <ele>1003</ele>
        <time>2011-05-08T10:30:38Z</time>
      </trkpt>
      <trkpt lat="43.85561" lon="6.89578">
        <ele>1001</ele>
        <time>2011-05-08T10:30:42Z</time>
      </trkpt>
      <trkpt lat="43.85561" lon="6.89585">
        <ele>1001</ele>
        <time>2011-05-08T10:30:47Z</time>
      </trkpt>
      <trkpt lat="43.85566" lon="6.8959">
        <ele>1000</ele>
        <time>2011-05-08T10:30:52Z</time>
      </trkpt>
      <trkpt lat="43.85567" lon="6.89596">
        <ele>998</ele>
        <time>2011-05-08T10:30:57Z</time>
      </trkpt>
      <trkpt lat="43.8557" lon="6.89601">
        <ele>997</ele>
        <time>2011-05-08T10:31:02Z</time>
      </trkpt>
      <trkpt lat="43.8557" lon="6.89609">
        <ele>994</ele>
        <time>2011-05-08T10:31:07Z</time>
      </trkpt>
      <trkpt lat="43.85572" lon="6.89615">
        <ele>994</ele>
        <time>2011-05-08T10:31:10Z</time>
      </trkpt>
      <trkpt lat="43.85572" lon="6.89622">
        <ele>994</ele>
        <time>2011-05-08T10:31:14Z</time>
      </trkpt>
      <trkpt lat="43.85572" lon="6.89629">
        <ele>993</ele>
        <time>2011-05-08T10:31:18Z</time>
      </trkpt>
      <trkpt lat="43.85573" lon="6.89635">
        <ele>992</ele>
        <time>2011-05-08T10:31:22Z</time>
      </trkpt>
      <trkpt lat="43.85575" lon="6.89642">
        <ele>991</ele>
        <time>2011-05-08T10:31:32Z</time>
      </trkpt>
      <trkpt lat="43.85578" lon="6.89648">
        <ele>989</ele>
        <time>2011-05-08T10:31:37Z</time>
      </trkpt>
      <trkpt lat="43.85581" lon="6.89652">
        <ele>988</ele>
        <time>2011-05-08T10:31:41Z</time>
      </trkpt>
      <trkpt lat="43.85584" lon="6.89659">
        <ele>987</ele>
        <time>2011-05-08T10:31:46Z</time>
      </trkpt>
      <trkpt lat="43.85588" lon="6.89663">
        <ele>986</ele>
        <time>2011-05-08T10:31:50Z</time>
      </trkpt>
      <trkpt lat="43.85592" lon="6.89668">
        <ele>984</ele>
        <time>2011-05-08T10:31:55Z</time>
      </trkpt>
      <trkpt lat="43.85596" lon="6.89673">
        <ele>983</ele>
        <time>2011-05-08T10:31:59Z</time>
      </trkpt>
      <trkpt lat="43.85599" lon="6.89678">
        <ele>981</ele>
        <time>2011-05-08T10:32:05Z</time>
      </trkpt>
      <trkpt lat="43.85603" lon="6.89682">
        <ele>979</ele>
        <time>2011-05-08T10:32:10Z</time>
      </trkpt>
      <trkpt lat="43.85603" lon="6.89682">
        <ele>979</ele>
        <time>2011-05-08T10:32:10Z</time>
      </trkpt>
      <trkpt lat="43.85603" lon="6.89682">
        <ele>979</ele>
        <time>2011-05-08T10:32:15Z</time>
      </trkpt>
      <trkpt lat="43.85599" lon="6.89687">
        <ele>979</ele>
        <time>2011-05-08T10:34:21Z</time>
      </trkpt>
      <trkpt lat="43.85594" lon="6.89688">
        <ele>977</ele>
        <time>2011-05-08T10:34:26Z</time>
      </trkpt>
      <trkpt lat="43.85588" lon="6.89686">
        <ele>975</ele>
        <time>2011-05-08T10:34:30Z</time>
      </trkpt>
      <trkpt lat="43.85586" lon="6.89681">
        <ele>973</ele>
        <time>2011-05-08T10:34:33Z</time>
      </trkpt>
      <trkpt lat="43.85583" lon="6.89675">
        <ele>971</ele>
        <time>2011-05-08T10:34:38Z</time>
      </trkpt>
      <trkpt lat="43.85577" lon="6.89675">
        <ele>971</ele>
        <time>2011-05-08T10:34:43Z</time>
      </trkpt>
      <trkpt lat="43.85572" lon="6.89673">
        <ele>970</ele>
        <time>2011-05-08T10:34:50Z</time>
      </trkpt>
      <trkpt lat="43.85567" lon="6.8967">
        <ele>969</ele>
        <time>2011-05-08T10:35:00Z</time>
      </trkpt>
      <trkpt lat="43.85567" lon="6.8967">
        <ele>969</ele>
        <time>2011-05-08T10:35:00Z</time>
      </trkpt>
      <trkpt lat="43.85567" lon="6.8967">
        <ele>969</ele>
        <time>2011-05-08T10:35:01Z</time>
      </trkpt>
      <trkpt lat="43.85562" lon="6.8967">
        <ele>967</ele>
        <time>2011-05-08T10:35:07Z</time>
      </trkpt>
      <trkpt lat="43.85556" lon="6.89672">
        <ele>966</ele>
        <time>2011-05-08T10:35:11Z</time>
      </trkpt>
      <trkpt lat="43.85553" lon="6.89677">
        <ele>965</ele>
        <time>2011-05-08T10:35:21Z</time>
      </trkpt>
      <trkpt lat="43.85556" lon="6.89683">
        <ele>965</ele>
        <time>2011-05-08T10:35:26Z</time>
      </trkpt>
      <trkpt lat="43.8556" lon="6.89687">
        <ele>964</ele>
        <time>2011-05-08T10:35:29Z</time>
      </trkpt>
      <trkpt lat="43.85565" lon="6.8969">
        <ele>962</ele>
        <time>2011-05-08T10:35:32Z</time>
      </trkpt>
      <trkpt lat="43.85569" lon="6.89691">
        <ele>961</ele>
        <time>2011-05-08T10:35:36Z</time>
      </trkpt>
      <trkpt lat="43.85565" lon="6.89695">
        <ele>958</ele>
        <time>2011-05-08T10:35:40Z</time>
      </trkpt>
      <trkpt lat="43.85563" lon="6.897">
        <ele>957</ele>
        <time>2011-05-08T10:35:44Z</time>
      </trkpt>
      <trkpt lat="43.85566" lon="6.89705">
        <ele>956</ele>
        <time>2011-05-08T10:35:48Z</time>
      </trkpt>
      <trkpt lat="43.85568" lon="6.89713">
        <ele>955</ele>
        <time>2011-05-08T10:35:52Z</time>
      </trkpt>
      <trkpt lat="43.85569" lon="6.8972">
        <ele>953</ele>
        <time>2011-05-08T10:35:56Z</time>
      </trkpt>
      <trkpt lat="43.85574" lon="6.89722">
        <ele>952</ele>
        <time>2011-05-08T10:35:58Z</time>
      </trkpt>
      <trkpt lat="43.85578" lon="6.89726">
        <ele>953</ele>
        <time>2011-05-08T10:36:01Z</time>
      </trkpt>
      <trkpt lat="43.85582" lon="6.8973">
        <ele>952</ele>
        <time>2011-05-08T10:36:04Z</time>
      </trkpt>
      <trkpt lat="43.85584" lon="6.89738">
        <ele>948</ele>
        <time>2011-05-08T10:36:09Z</time>
      </trkpt>
      <trkpt lat="43.85586" lon="6.89744">
        <ele>946</ele>
        <time>2011-05-08T10:36:14Z</time>
      </trkpt>
      <trkpt lat="43.85588" lon="6.89751">
        <ele>944</ele>
        <time>2011-05-08T10:36:19Z</time>
      </trkpt>
      <trkpt lat="43.85591" lon="6.89758">
        <ele>943</ele>
        <time>2011-05-08T10:36:23Z</time>
      </trkpt>
      <trkpt lat="43.85594" lon="6.89765">
        <ele>941</ele>
        <time>2011-05-08T10:36:27Z</time>
      </trkpt>
      <trkpt lat="43.85597" lon="6.89771">
        <ele>939</ele>
        <time>2011-05-08T10:36:31Z</time>
      </trkpt>
      <trkpt lat="43.85592" lon="6.89768">
        <ele>939</ele>
        <time>2011-05-08T10:36:34Z</time>
      </trkpt>
      <trkpt lat="43.85588" lon="6.89765">
        <ele>937</ele>
        <time>2011-05-08T10:36:37Z</time>
      </trkpt>
      <trkpt lat="43.85581" lon="6.89763">
        <ele>935</ele>
        <time>2011-05-08T10:36:41Z</time>
      </trkpt>
      <trkpt lat="43.85575" lon="6.8976">
        <ele>934</ele>
        <time>2011-05-08T10:36:45Z</time>
      </trkpt>
      <trkpt lat="43.85571" lon="6.89756">
        <ele>932</ele>
        <time>2011-05-08T10:36:49Z</time>
      </trkpt>
      <trkpt lat="43.85566" lon="6.89756">
        <ele>931</ele>
        <time>2011-05-08T10:36:52Z</time>
      </trkpt>
      <trkpt lat="43.85561" lon="6.89758">
        <ele>930</ele>
        <time>2011-05-08T10:36:56Z</time>
      </trkpt>
      <trkpt lat="43.85557" lon="6.89762">
        <ele>930</ele>
        <time>2011-05-08T10:36:58Z</time>
      </trkpt>
      <trkpt lat="43.85553" lon="6.89764">
        <ele>930</ele>
        <time>2011-05-08T10:37:00Z</time>
      </trkpt>
      <trkpt lat="43.85547" lon="6.89764">
        <ele>929</ele>
        <time>2011-05-08T10:37:03Z</time>
      </trkpt>
      <trkpt lat="43.85542" lon="6.89763">
        <ele>928</ele>
        <time>2011-05-08T10:37:06Z</time>
      </trkpt>
      <trkpt lat="43.85536" lon="6.89761">
        <ele>927</ele>
        <time>2011-05-08T10:37:09Z</time>
      </trkpt>
      <trkpt lat="43.85531" lon="6.89761">
        <ele>926</ele>
        <time>2011-05-08T10:37:14Z</time>
      </trkpt>
      <trkpt lat="43.85526" lon="6.89758">
        <ele>926</ele>
        <time>2011-05-08T10:37:20Z</time>
      </trkpt>
      <trkpt lat="43.85522" lon="6.8976">
        <ele>925</ele>
        <time>2011-05-08T10:37:24Z</time>
      </trkpt>
      <trkpt lat="43.85528" lon="6.89763">
        <ele>926</ele>
        <time>2011-05-08T10:37:38Z</time>
      </trkpt>
      <trkpt lat="43.85532" lon="6.89766">
        <ele>926</ele>
        <time>2011-05-08T10:37:41Z</time>
      </trkpt>
      <trkpt lat="43.85537" lon="6.89771">
        <ele>925</ele>
        <time>2011-05-08T10:37:44Z</time>
      </trkpt>
      <trkpt lat="43.8554" lon="6.89776">
        <ele>925</ele>
        <time>2011-05-08T10:37:46Z</time>
      </trkpt>
      <trkpt lat="43.8554" lon="6.89783">
        <ele>923</ele>
        <time>2011-05-08T10:37:49Z</time>
      </trkpt>
      <trkpt lat="43.85541" lon="6.8979">
        <ele>921</ele>
        <time>2011-05-08T10:37:52Z</time>
      </trkpt>
      <trkpt lat="43.85544" lon="6.89794">
        <ele>921</ele>
        <time>2011-05-08T10:37:55Z</time>
      </trkpt>
      <trkpt lat="43.85547" lon="6.89798">
        <ele>919</ele>
        <time>2011-05-08T10:37:59Z</time>
      </trkpt>
      <trkpt lat="43.85551" lon="6.89802">
        <ele>917</ele>
        <time>2011-05-08T10:38:02Z</time>
      </trkpt>
      <trkpt lat="43.85555" lon="6.89808">
        <ele>915</ele>
        <time>2011-05-08T10:38:06Z</time>
      </trkpt>
      <trkpt lat="43.85558" lon="6.89814">
        <ele>913</ele>
        <time>2011-05-08T10:38:10Z</time>
      </trkpt>
      <trkpt lat="43.85561" lon="6.8982">
        <ele>911</ele>
        <time>2011-05-08T10:38:14Z</time>
      </trkpt>
      <trkpt lat="43.85565" lon="6.89824">
        <ele>908</ele>
        <time>2011-05-08T10:38:18Z</time>
      </trkpt>
      <trkpt lat="43.85567" lon="6.89831">
        <ele>907</ele>
        <time>2011-05-08T10:38:23Z</time>
      </trkpt>
      <trkpt lat="43.85567" lon="6.89838">
        <ele>904</ele>
        <time>2011-05-08T10:38:28Z</time>
      </trkpt>
      <trkpt lat="43.85568" lon="6.89845">
        <ele>903</ele>
        <time>2011-05-08T10:38:32Z</time>
      </trkpt>
      <trkpt lat="43.85569" lon="6.89852">
        <ele>902</ele>
        <time>2011-05-08T10:38:36Z</time>
      </trkpt>
      <trkpt lat="43.8557" lon="6.89859">
        <ele>901</ele>
        <time>2011-05-08T10:38:39Z</time>
      </trkpt>
      <trkpt lat="43.85574" lon="6.89865">
        <ele>900</ele>
        <time>2011-05-08T10:38:43Z</time>
      </trkpt>
      <trkpt lat="43.85575" lon="6.89872">
        <ele>899</ele>
        <time>2011-05-08T10:38:47Z</time>
      </trkpt>
      <trkpt lat="43.85575" lon="6.89879">
        <ele>899</ele>
        <time>2011-05-08T10:38:51Z</time>
      </trkpt>
      <trkpt lat="43.85577" lon="6.89886">
        <ele>898</ele>
        <time>2011-05-08T10:38:55Z</time>
      </trkpt>
      <trkpt lat="43.85579" lon="6.89892">
        <ele>896</ele>
        <time>2011-05-08T10:38:59Z</time>
      </trkpt>
      <trkpt lat="43.85579" lon="6.89898">
        <ele>895</ele>
        <time>2011-05-08T10:39:02Z</time>
      </trkpt>
      <trkpt lat="43.85581" lon="6.89906">
        <ele>894</ele>
        <time>2011-05-08T10:39:06Z</time>
      </trkpt>
      <trkpt lat="43.85583" lon="6.89913">
        <ele>893</ele>
        <time>2011-05-08T10:39:10Z</time>
      </trkpt>
      <trkpt lat="43.85584" lon="6.89919">
        <ele>892</ele>
        <time>2011-05-08T10:39:14Z</time>
      </trkpt>
      <trkpt lat="43.85586" lon="6.89926">
        <ele>890</ele>
        <time>2011-05-08T10:39:18Z</time>
      </trkpt>
      <trkpt lat="43.85587" lon="6.89933">
        <ele>888</ele>
        <time>2011-05-08T10:39:23Z</time>
      </trkpt>
      <trkpt lat="43.85587" lon="6.8994">
        <ele>886</ele>
        <time>2011-05-08T10:39:27Z</time>
      </trkpt>
      <trkpt lat="43.85588" lon="6.89946">
        <ele>885</ele>
        <time>2011-05-08T10:39:31Z</time>
      </trkpt>
      <trkpt lat="43.8559" lon="6.89953">
        <ele>884</ele>
        <time>2011-05-08T10:39:35Z</time>
      </trkpt>
      <trkpt lat="43.85585" lon="6.89951">
        <ele>881</ele>
        <time>2011-05-08T10:39:41Z</time>
      </trkpt>
      <trkpt lat="43.8558" lon="6.89948">
        <ele>880</ele>
        <time>2011-05-08T10:39:45Z</time>
      </trkpt>
      <trkpt lat="43.85575" lon="6.89946">
        <ele>878</ele>
        <time>2011-05-08T10:39:49Z</time>
      </trkpt>
      <trkpt lat="43.8557" lon="6.89946">
        <ele>878</ele>
        <time>2011-05-08T10:39:52Z</time>
      </trkpt>
      <trkpt lat="43.85565" lon="6.89946">
        <ele>876</ele>
        <time>2011-05-08T10:39:56Z</time>
      </trkpt>
      <trkpt lat="43.85566" lon="6.89953">
        <ele>875</ele>
        <time>2011-05-08T10:40:00Z</time>
      </trkpt>
      <trkpt lat="43.85567" lon="6.89961">
        <ele>873</ele>
        <time>2011-05-08T10:40:04Z</time>
      </trkpt>
      <trkpt lat="43.8557" lon="6.89968">
        <ele>873</ele>
        <time>2011-05-08T10:40:08Z</time>
      </trkpt>
      <trkpt lat="43.85572" lon="6.89975">
        <ele>873</ele>
        <time>2011-05-08T10:40:12Z</time>
      </trkpt>
      <trkpt lat="43.85574" lon="6.89983">
        <ele>872</ele>
        <time>2011-05-08T10:40:16Z</time>
      </trkpt>
      <trkpt lat="43.85576" lon="6.89991">
        <ele>873</ele>
        <time>2011-05-08T10:40:18Z</time>
      </trkpt>
      <trkpt lat="43.8557" lon="6.89989">
        <ele>871</ele>
        <time>2011-05-08T10:40:21Z</time>
      </trkpt>
      <trkpt lat="43.85565" lon="6.89988">
        <ele>870</ele>
        <time>2011-05-08T10:40:25Z</time>
      </trkpt>
      <trkpt lat="43.8556" lon="6.89989">
        <ele>870</ele>
        <time>2011-05-08T10:40:28Z</time>
      </trkpt>
      <trkpt lat="43.85554" lon="6.89991">
        <ele>870</ele>
        <time>2011-05-08T10:40:32Z</time>
      </trkpt>
      <trkpt lat="43.85548" lon="6.89989">
        <ele>867</ele>
        <time>2011-05-08T10:40:36Z</time>
      </trkpt>
      <trkpt lat="43.85552" lon="6.89996">
        <ele>867</ele>
        <time>2011-05-08T10:40:44Z</time>
      </trkpt>
      <trkpt lat="43.85546" lon="6.89999">
        <ele>866</ele>
        <time>2011-05-08T10:40:48Z</time>
      </trkpt>
      <trkpt lat="43.8554" lon="6.89999">
        <ele>864</ele>
        <time>2011-05-08T10:40:51Z</time>
      </trkpt>
      <trkpt lat="43.85536" lon="6.89997">
        <ele>860</ele>
        <time>2011-05-08T10:40:56Z</time>
      </trkpt>
      <trkpt lat="43.85535" lon="6.90004">
        <ele>857</ele>
        <time>2011-05-08T10:41:06Z</time>
      </trkpt>
      <trkpt lat="43.85533" lon="6.9001">
        <ele>857</ele>
        <time>2011-05-08T10:41:09Z</time>
      </trkpt>
      <trkpt lat="43.85528" lon="6.90009">
        <ele>855</ele>
        <time>2011-05-08T10:41:12Z</time>
      </trkpt>
      <trkpt lat="43.85524" lon="6.90014">
        <ele>852</ele>
        <time>2011-05-08T10:41:17Z</time>
      </trkpt>
      <trkpt lat="43.8552" lon="6.90013">
        <ele>850</ele>
        <time>2011-05-08T10:41:21Z</time>
      </trkpt>
      <trkpt lat="43.85514" lon="6.90016">
        <ele>848</ele>
        <time>2011-05-08T10:41:27Z</time>
      </trkpt>
      <trkpt lat="43.85514" lon="6.90016">
        <ele>848</ele>
        <time>2011-05-08T10:41:27Z</time>
      </trkpt>
      <trkpt lat="43.85514" lon="6.90016">
        <ele>847</ele>
        <time>2011-05-08T10:41:28Z</time>
      </trkpt>
      <trkpt lat="43.8551" lon="6.90012">
        <ele>845</ele>
        <time>2011-05-08T10:41:34Z</time>
      </trkpt>
      <trkpt lat="43.8551" lon="6.90019">
        <ele>845</ele>
        <time>2011-05-08T10:41:40Z</time>
      </trkpt>
      <trkpt lat="43.85512" lon="6.90026">
        <ele>844</ele>
        <time>2011-05-08T10:42:47Z</time>
      </trkpt>
      <trkpt lat="43.85512" lon="6.90034">
        <ele>843</ele>
        <time>2011-05-08T10:42:52Z</time>
      </trkpt>
      <trkpt lat="43.85515" lon="6.9004">
        <ele>839</ele>
        <time>2011-05-08T10:43:30Z</time>
      </trkpt>
      <trkpt lat="43.85518" lon="6.90046">
        <ele>839</ele>
        <time>2011-05-08T10:43:46Z</time>
      </trkpt>
      <trkpt lat="43.85521" lon="6.90052">
        <ele>839</ele>
        <time>2011-05-08T10:43:50Z</time>
      </trkpt>
      <trkpt lat="43.85523" lon="6.90058">
        <ele>839</ele>
        <time>2011-05-08T10:43:54Z</time>
      </trkpt>
      <trkpt lat="43.85525" lon="6.90065">
        <ele>838</ele>
        <time>2011-05-08T10:43:59Z</time>
      </trkpt>
      <trkpt lat="43.85527" lon="6.9007">
        <ele>839</ele>
        <time>2011-05-08T10:44:03Z</time>
      </trkpt>
      <trkpt lat="43.85533" lon="6.90068">
        <ele>838</ele>
        <time>2011-05-08T10:44:11Z</time>
      </trkpt>
      <trkpt lat="43.85532" lon="6.90077">
        <ele>838</ele>
        <time>2011-05-08T10:45:29Z</time>
      </trkpt>
      <trkpt lat="43.85534" lon="6.90084">
        <ele>837</ele>
        <time>2011-05-08T10:45:32Z</time>
      </trkpt>
      <trkpt lat="43.85537" lon="6.9009">
        <ele>838</ele>
        <time>2011-05-08T10:45:36Z</time>
      </trkpt>
      <trkpt lat="43.85539" lon="6.90096">
        <ele>838</ele>
        <time>2011-05-08T10:45:40Z</time>
      </trkpt>
      <trkpt lat="43.8554" lon="6.90104">
        <ele>835</ele>
        <time>2011-05-08T10:45:45Z</time>
      </trkpt>
      <trkpt lat="43.85542" lon="6.90111">
        <ele>836</ele>
        <time>2011-05-08T10:45:51Z</time>
      </trkpt>
      <trkpt lat="43.85545" lon="6.90117">
        <ele>834</ele>
        <time>2011-05-08T10:45:56Z</time>
      </trkpt>
      <trkpt lat="43.85545" lon="6.90123">
        <ele>833</ele>
        <time>2011-05-08T10:46:01Z</time>
      </trkpt>
      <trkpt lat="43.8555" lon="6.90128">
        <ele>833</ele>
        <time>2011-05-08T10:46:05Z</time>
      </trkpt>
      <trkpt lat="43.85554" lon="6.90129">
        <ele>834</ele>
        <time>2011-05-08T10:46:11Z</time>
      </trkpt>
      <trkpt lat="43.85559" lon="6.90132">
        <ele>830</ele>
        <time>2011-05-08T10:46:15Z</time>
      </trkpt>
      <trkpt lat="43.85564" lon="6.90132">
        <ele>830</ele>
        <time>2011-05-08T10:46:19Z</time>
      </trkpt>
      <trkpt lat="43.85568" lon="6.90128">
        <ele>830</ele>
        <time>2011-05-08T10:46:27Z</time>
      </trkpt>
      <trkpt lat="43.85573" lon="6.90129">
        <ele>827</ele>
        <time>2011-05-08T10:46:33Z</time>
      </trkpt>
      <trkpt lat="43.85577" lon="6.90133">
        <ele>826</ele>
        <time>2011-05-08T10:46:37Z</time>
      </trkpt>
      <trkpt lat="43.85581" lon="6.90139">
        <ele>825</ele>
        <time>2011-05-08T10:46:41Z</time>
      </trkpt>
      <trkpt lat="43.85584" lon="6.90145">
        <ele>824</ele>
        <time>2011-05-08T10:46:45Z</time>
      </trkpt>
      <trkpt lat="43.85588" lon="6.90151">
        <ele>822</ele>
        <time>2011-05-08T10:46:51Z</time>
      </trkpt>
      <trkpt lat="43.85591" lon="6.90155">
        <ele>823</ele>
        <time>2011-05-08T10:46:55Z</time>
      </trkpt>
      <trkpt lat="43.85595" lon="6.90161">
        <ele>824</ele>
        <time>2011-05-08T10:46:59Z</time>
      </trkpt>
      <trkpt lat="43.85598" lon="6.90167">
        <ele>827</ele>
        <time>2011-05-08T10:47:04Z</time>
      </trkpt>
      <trkpt lat="43.85602" lon="6.90173">
        <ele>825</ele>
        <time>2011-05-08T10:47:09Z</time>
      </trkpt>
      <trkpt lat="43.85605" lon="6.90177">
        <ele>824</ele>
        <time>2011-05-08T10:47:13Z</time>
      </trkpt>
      <trkpt lat="43.85608" lon="6.90184">
        <ele>825</ele>
        <time>2011-05-08T10:47:17Z</time>
      </trkpt>
      <trkpt lat="43.8561" lon="6.9019">
        <ele>825</ele>
        <time>2011-05-08T10:47:24Z</time>
      </trkpt>
      <trkpt lat="43.85606" lon="6.90185">
        <ele>820</ele>
        <time>2011-05-08T10:47:45Z</time>
      </trkpt>
      <trkpt lat="43.85602" lon="6.90181">
        <ele>819</ele>
        <time>2011-05-08T10:47:49Z</time>
      </trkpt>
      <trkpt lat="43.85599" lon="6.90174">
        <ele>820</ele>
        <time>2011-05-08T10:47:56Z</time>
      </trkpt>
      <trkpt lat="43.85598" lon="6.90168">
        <ele>818</ele>
        <time>2011-05-08T10:48:01Z</time>
      </trkpt>
      <trkpt lat="43.85594" lon="6.90163">
        <ele>819</ele>
        <time>2011-05-08T10:48:06Z</time>
      </trkpt>
      <trkpt lat="43.85589" lon="6.9016">
        <ele>821</ele>
        <time>2011-05-08T10:48:10Z</time>
      </trkpt>
      <trkpt lat="43.85585" lon="6.90156">
        <ele>822</ele>
        <time>2011-05-08T10:48:14Z</time>
      </trkpt>
      <trkpt lat="43.85582" lon="6.9015">
        <ele>823</ele>
        <time>2011-05-08T10:48:17Z</time>
      </trkpt>
      <trkpt lat="43.85579" lon="6.90144">
        <ele>825</ele>
        <time>2011-05-08T10:48:20Z</time>
      </trkpt>
      <trkpt lat="43.85575" lon="6.90138">
        <ele>825</ele>
        <time>2011-05-08T10:48:25Z</time>
      </trkpt>
      <trkpt lat="43.85572" lon="6.90134">
        <ele>826</ele>
        <time>2011-05-08T10:48:36Z</time>
      </trkpt>
      <trkpt lat="43.85572" lon="6.90134">
        <ele>826</ele>
        <time>2011-05-08T10:48:36Z</time>
      </trkpt>
      <trkpt lat="43.85572" lon="6.90134">
        <ele>825</ele>
        <time>2011-05-08T10:48:37Z</time>
      </trkpt>
      <trkpt lat="43.85577" lon="6.90137">
        <ele>824</ele>
        <time>2011-05-08T10:48:53Z</time>
      </trkpt>
      <trkpt lat="43.85576" lon="6.90144">
        <ele>822</ele>
        <time>2011-05-08T10:49:03Z</time>
      </trkpt>
      <trkpt lat="43.85576" lon="6.90151">
        <ele>821</ele>
        <time>2011-05-08T10:49:07Z</time>
      </trkpt>
      <trkpt lat="43.85576" lon="6.90151">
        <ele>821</ele>
        <time>2011-05-08T10:49:07Z</time>
      </trkpt>
      <trkpt lat="43.85576" lon="6.90151">
        <ele>818</ele>
        <time>2011-05-08T10:49:14Z</time>
      </trkpt>
      <trkpt lat="43.8558" lon="6.90154">
        <ele>818</ele>
        <time>2011-05-08T10:49:20Z</time>
      </trkpt>
      <trkpt lat="43.85584" lon="6.90158">
        <ele>820</ele>
        <time>2011-05-08T10:49:24Z</time>
      </trkpt>
      <trkpt lat="43.85588" lon="6.90163">
        <ele>820</ele>
        <time>2011-05-08T10:49:29Z</time>
      </trkpt>
      <trkpt lat="43.85593" lon="6.90165">
        <ele>821</ele>
        <time>2011-05-08T10:49:32Z</time>
      </trkpt>
      <trkpt lat="43.85596" lon="6.90171">
        <ele>821</ele>
        <time>2011-05-08T10:49:36Z</time>
      </trkpt>
      <trkpt lat="43.85598" lon="6.90177">
        <ele>820</ele>
        <time>2011-05-08T10:49:42Z</time>
      </trkpt>
      <trkpt lat="43.85598" lon="6.90185">
        <ele>821</ele>
        <time>2011-05-08T10:49:47Z</time>
      </trkpt>
      <trkpt lat="43.85595" lon="6.90191">
        <ele>822</ele>
        <time>2011-05-08T10:49:49Z</time>
      </trkpt>
      <trkpt lat="43.85591" lon="6.90195">
        <ele>822</ele>
        <time>2011-05-08T10:49:51Z</time>
      </trkpt>
      <trkpt lat="43.85596" lon="6.90194">
        <ele>820</ele>
        <time>2011-05-08T10:49:59Z</time>
      </trkpt>
      <trkpt lat="43.85592" lon="6.90199">
        <ele>816</ele>
        <time>2011-05-08T10:50:06Z</time>
      </trkpt>
      <trkpt lat="43.85592" lon="6.90206">
        <ele>815</ele>
        <time>2011-05-08T10:50:10Z</time>
      </trkpt>
      <trkpt lat="43.85589" lon="6.90202">
        <ele>812</ele>
        <time>2011-05-08T10:50:15Z</time>
      </trkpt>
      <trkpt lat="43.85583" lon="6.902">
        <ele>811</ele>
        <time>2011-05-08T10:50:20Z</time>
      </trkpt>
      <trkpt lat="43.85578" lon="6.902">
        <ele>811</ele>
        <time>2011-05-08T10:50:24Z</time>
      </trkpt>
      <trkpt lat="43.85574" lon="6.90203">
        <ele>811</ele>
        <time>2011-05-08T10:50:38Z</time>
      </trkpt>
      <trkpt lat="43.85569" lon="6.90202">
        <ele>810</ele>
        <time>2011-05-08T10:50:41Z</time>
      </trkpt>
      <trkpt lat="43.85565" lon="6.902">
        <ele>810</ele>
        <time>2011-05-08T10:50:44Z</time>
      </trkpt>
      <trkpt lat="43.85561" lon="6.90196">
        <ele>809</ele>
        <time>2011-05-08T10:50:48Z</time>
      </trkpt>
      <trkpt lat="43.85556" lon="6.90194">
        <ele>809</ele>
        <time>2011-05-08T10:50:51Z</time>
      </trkpt>
      <trkpt lat="43.8555" lon="6.90194">
        <ele>809</ele>
        <time>2011-05-08T10:50:55Z</time>
      </trkpt>
      <trkpt lat="43.85546" lon="6.90198">
        <ele>807</ele>
        <time>2011-05-08T10:51:01Z</time>
      </trkpt>
      <trkpt lat="43.8555" lon="6.90202">
        <ele>803</ele>
        <time>2011-05-08T10:51:08Z</time>
      </trkpt>
      <trkpt lat="43.8555" lon="6.90202">
        <ele>803</ele>
        <time>2011-05-08T10:51:08Z</time>
      </trkpt>
      <trkpt lat="43.8555" lon="6.90202">
        <ele>803</ele>
        <time>2011-05-08T10:51:09Z</time>
      </trkpt>
      <trkpt lat="43.85556" lon="6.90204">
        <ele>802</ele>
        <time>2011-05-08T10:51:16Z</time>
      </trkpt>
      <trkpt lat="43.85551" lon="6.90207">
        <ele>802</ele>
        <time>2011-05-08T10:51:22Z</time>
      </trkpt>
      <trkpt lat="43.85545" lon="6.90205">
        <ele>799</ele>
        <time>2011-05-08T10:51:25Z</time>
      </trkpt>
      <trkpt lat="43.8554" lon="6.90201">
        <ele>799</ele>
        <time>2011-05-08T10:51:29Z</time>
      </trkpt>
      <trkpt lat="43.85535" lon="6.90199">
        <ele>798</ele>
        <time>2011-05-08T10:51:32Z</time>
      </trkpt>
      <trkpt lat="43.8553" lon="6.90202">
        <ele>798</ele>
        <time>2011-05-08T10:51:35Z</time>
      </trkpt>
      <trkpt lat="43.85524" lon="6.90204">
        <ele>798</ele>
        <time>2011-05-08T10:51:37Z</time>
      </trkpt>
      <trkpt lat="43.85519" lon="6.90203">
        <ele>796</ele>
        <time>2011-05-08T10:51:41Z</time>
      </trkpt>
      <trkpt lat="43.85514" lon="6.90203">
        <ele>796</ele>
        <time>2011-05-08T10:51:44Z</time>
      </trkpt>
      <trkpt lat="43.85508" lon="6.90201">
        <ele>794</ele>
        <time>2011-05-08T10:51:47Z</time>
      </trkpt>
      <trkpt lat="43.85502" lon="6.902">
        <ele>795</ele>
        <time>2011-05-08T10:51:51Z</time>
      </trkpt>
      <trkpt lat="43.85496" lon="6.90196">
        <ele>795</ele>
        <time>2011-05-08T10:51:55Z</time>
      </trkpt>
      <trkpt lat="43.85492" lon="6.90191">
        <ele>791</ele>
        <time>2011-05-08T10:52:01Z</time>
      </trkpt>
      <trkpt lat="43.85487" lon="6.9019">
        <ele>790</ele>
        <time>2011-05-08T10:52:05Z</time>
      </trkpt>
      <trkpt lat="43.85482" lon="6.90188">
        <ele>790</ele>
        <time>2011-05-08T10:52:08Z</time>
      </trkpt>
      <trkpt lat="43.85477" lon="6.90185">
        <ele>788</ele>
        <time>2011-05-08T10:52:13Z</time>
      </trkpt>
      <trkpt lat="43.8547" lon="6.90184">
        <ele>788</ele>
        <time>2011-05-08T10:52:17Z</time>
      </trkpt>
      <trkpt lat="43.85467" lon="6.90178">
        <ele>789</ele>
        <time>2011-05-08T10:52:21Z</time>
      </trkpt>
      <trkpt lat="43.85459" lon="6.90176">
        <ele>789</ele>
        <time>2011-05-08T10:52:27Z</time>
      </trkpt>
      <trkpt lat="43.85455" lon="6.90174">
        <ele>789</ele>
        <time>2011-05-08T10:52:30Z</time>
      </trkpt>
      <trkpt lat="43.8545" lon="6.90169">
        <ele>788</ele>
        <time>2011-05-08T10:52:34Z</time>
      </trkpt>
      <trkpt lat="43.85448" lon="6.90162">
        <ele>787</ele>
        <time>2011-05-08T10:52:38Z</time>
      </trkpt>
      <trkpt lat="43.85444" lon="6.90159">
        <ele>788</ele>
        <time>2011-05-08T10:52:42Z</time>
      </trkpt>
      <trkpt lat="43.8544" lon="6.9016">
        <ele>789</ele>
        <time>2011-05-08T10:52:46Z</time>
      </trkpt>
      <trkpt lat="43.85434" lon="6.9016">
        <ele>789</ele>
        <time>2011-05-08T10:52:49Z</time>
      </trkpt>
      <trkpt lat="43.8543" lon="6.90155">
        <ele>789</ele>
        <time>2011-05-08T10:52:51Z</time>
      </trkpt>
      <trkpt lat="43.85428" lon="6.9015">
        <ele>787</ele>
        <time>2011-05-08T10:52:55Z</time>
      </trkpt>
      <trkpt lat="43.85425" lon="6.90144">
        <ele>787</ele>
        <time>2011-05-08T10:53:00Z</time>
      </trkpt>
      <trkpt lat="43.85421" lon="6.90138">
        <ele>785</ele>
        <time>2011-05-08T10:53:04Z</time>
      </trkpt>
      <trkpt lat="43.85416" lon="6.90134">
        <ele>785</ele>
        <time>2011-05-08T10:53:09Z</time>
      </trkpt>
      <trkpt lat="43.85411" lon="6.90132">
        <ele>785</ele>
        <time>2011-05-08T10:53:12Z</time>
      </trkpt>
      <trkpt lat="43.85411" lon="6.90125">
        <ele>783</ele>
        <time>2011-05-08T10:53:15Z</time>
      </trkpt>
      <trkpt lat="43.85407" lon="6.9012">
        <ele>781</ele>
        <time>2011-05-08T10:53:19Z</time>
      </trkpt>
      <trkpt lat="43.85403" lon="6.90115">
        <ele>778</ele>
        <time>2011-05-08T10:53:24Z</time>
      </trkpt>
      <trkpt lat="43.854" lon="6.90109">
        <ele>777</ele>
        <time>2011-05-08T10:53:28Z</time>
      </trkpt>
      <trkpt lat="43.85399" lon="6.90102">
        <ele>777</ele>
        <time>2011-05-08T10:53:31Z</time>
      </trkpt>
      <trkpt lat="43.854" lon="6.90095">
        <ele>775</ele>
        <time>2011-05-08T10:53:33Z</time>
      </trkpt>
      <trkpt lat="43.85398" lon="6.90088">
        <ele>775</ele>
        <time>2011-05-08T10:53:36Z</time>
      </trkpt>
      <trkpt lat="43.85395" lon="6.9008">
        <ele>774</ele>
        <time>2011-05-08T10:53:38Z</time>
      </trkpt>
      <trkpt lat="43.85392" lon="6.90074">
        <ele>773</ele>
        <time>2011-05-08T10:53:43Z</time>
      </trkpt>
      <trkpt lat="43.85394" lon="6.90067">
        <ele>772</ele>
        <time>2011-05-08T10:53:48Z</time>
      </trkpt>
      <trkpt lat="43.85392" lon="6.9006">
        <ele>772</ele>
        <time>2011-05-08T10:53:52Z</time>
      </trkpt>
      <trkpt lat="43.85391" lon="6.90054">
        <ele>771</ele>
        <time>2011-05-08T10:53:55Z</time>
      </trkpt>
      <trkpt lat="43.85389" lon="6.90046">
        <ele>770</ele>
        <time>2011-05-08T10:53:59Z</time>
      </trkpt>
      <trkpt lat="43.85389" lon="6.90046">
        <ele>770</ele>
        <time>2011-05-08T10:53:59Z</time>
      </trkpt>
      <trkpt lat="43.85389" lon="6.90046">
        <ele>770</ele>
        <time>2011-05-08T10:54:00Z</time>
      </trkpt>
      <trkpt lat="43.85387" lon="6.90041">
        <ele>769</ele>
        <time>2011-05-08T10:54:03Z</time>
      </trkpt>
      <trkpt lat="43.85383" lon="6.90035">
        <ele>768</ele>
        <time>2011-05-08T10:54:07Z</time>
      </trkpt>
      <trkpt lat="43.85382" lon="6.90029">
        <ele>767</ele>
        <time>2011-05-08T10:54:10Z</time>
      </trkpt>
      <trkpt lat="43.8538" lon="6.90023">
        <ele>767</ele>
        <time>2011-05-08T10:54:14Z</time>
      </trkpt>
      <trkpt lat="43.85377" lon="6.90018">
        <ele>765</ele>
        <time>2011-05-08T10:54:17Z</time>
      </trkpt>
      <trkpt lat="43.85374" lon="6.90013">
        <ele>761</ele>
        <time>2011-05-08T10:54:21Z</time>
      </trkpt>
      <trkpt lat="43.85371" lon="6.90007">
        <ele>760</ele>
        <time>2011-05-08T10:54:24Z</time>
      </trkpt>
      <trkpt lat="43.85368" lon="6.9">
        <ele>759</ele>
        <time>2011-05-08T10:54:28Z</time>
      </trkpt>
      <trkpt lat="43.85363" lon="6.89999">
        <ele>758</ele>
        <time>2011-05-08T10:54:32Z</time>
      </trkpt>
      <trkpt lat="43.85359" lon="6.89996">
        <ele>755</ele>
        <time>2011-05-08T10:54:36Z</time>
      </trkpt>
      <trkpt lat="43.85354" lon="6.89994">
        <ele>753</ele>
        <time>2011-05-08T10:54:39Z</time>
      </trkpt>
      <trkpt lat="43.8535" lon="6.89991">
        <ele>751</ele>
        <time>2011-05-08T10:54:44Z</time>
      </trkpt>
      <trkpt lat="43.85344" lon="6.8999">
        <ele>750</ele>
        <time>2011-05-08T10:54:48Z</time>
      </trkpt>
      <trkpt lat="43.85338" lon="6.89988">
        <ele>748</ele>
        <time>2011-05-08T10:54:53Z</time>
      </trkpt>
      <trkpt lat="43.85334" lon="6.89985">
        <ele>747</ele>
        <time>2011-05-08T10:54:55Z</time>
      </trkpt>
      <trkpt lat="43.8533" lon="6.8998">
        <ele>747</ele>
        <time>2011-05-08T10:54:58Z</time>
      </trkpt>
      <trkpt lat="43.85328" lon="6.89974">
        <ele>745</ele>
        <time>2011-05-08T10:55:03Z</time>
      </trkpt>
      <trkpt lat="43.85322" lon="6.89971">
        <ele>744</ele>
        <time>2011-05-08T10:55:07Z</time>
      </trkpt>
      <trkpt lat="43.85318" lon="6.89968">
        <ele>745</ele>
        <time>2011-05-08T10:55:10Z</time>
      </trkpt>
      <trkpt lat="43.85314" lon="6.89964">
        <ele>746</ele>
        <time>2011-05-08T10:55:13Z</time>
      </trkpt>
      <trkpt lat="43.8531" lon="6.8996">
        <ele>746</ele>
        <time>2011-05-08T10:55:16Z</time>
      </trkpt>
      <trkpt lat="43.85306" lon="6.89955">
        <ele>747</ele>
        <time>2011-05-08T10:55:20Z</time>
      </trkpt>
      <trkpt lat="43.85303" lon="6.89949">
        <ele>746</ele>
        <time>2011-05-08T10:55:24Z</time>
      </trkpt>
      <trkpt lat="43.85301" lon="6.89942">
        <ele>743</ele>
        <time>2011-05-08T10:55:28Z</time>
      </trkpt>
      <trkpt lat="43.85298" lon="6.89937">
        <ele>742</ele>
        <time>2011-05-08T10:55:31Z</time>
      </trkpt>
      <trkpt lat="43.85294" lon="6.89934">
        <ele>742</ele>
        <time>2011-05-08T10:55:34Z</time>
      </trkpt>
      <trkpt lat="43.85288" lon="6.89928">
        <ele>740</ele>
        <time>2011-05-08T10:55:38Z</time>
      </trkpt>
      <trkpt lat="43.85284" lon="6.89925">
        <ele>737</ele>
        <time>2011-05-08T10:55:43Z</time>
      </trkpt>
      <trkpt lat="43.85279" lon="6.89923">
        <ele>737</ele>
        <time>2011-05-08T10:55:47Z</time>
      </trkpt>
      <trkpt lat="43.85274" lon="6.89922">
        <ele>737</ele>
        <time>2011-05-08T10:55:51Z</time>
      </trkpt>
      <trkpt lat="43.85268" lon="6.8992">
        <ele>738</ele>
        <time>2011-05-08T10:55:56Z</time>
      </trkpt>
      <trkpt lat="43.85263" lon="6.89924">
        <ele>738</ele>
        <time>2011-05-08T10:56:00Z</time>
      </trkpt>
      <trkpt lat="43.85258" lon="6.89923">
        <ele>736</ele>
        <time>2011-05-08T10:56:04Z</time>
      </trkpt>
      <trkpt lat="43.85253" lon="6.89923">
        <ele>735</ele>
        <time>2011-05-08T10:56:08Z</time>
      </trkpt>
      <trkpt lat="43.85248" lon="6.89923">
        <ele>735</ele>
        <time>2011-05-08T10:56:12Z</time>
      </trkpt>
      <trkpt lat="43.85241" lon="6.89926">
        <ele>735</ele>
        <time>2011-05-08T10:56:18Z</time>
      </trkpt>
      <trkpt lat="43.85236" lon="6.89928">
        <ele>734</ele>
        <time>2011-05-08T10:56:21Z</time>
      </trkpt>
      <trkpt lat="43.8523" lon="6.89928">
        <ele>734</ele>
        <time>2011-05-08T10:56:24Z</time>
      </trkpt>
      <trkpt lat="43.85224" lon="6.89929">
        <ele>733</ele>
        <time>2011-05-08T10:56:27Z</time>
      </trkpt>
      <trkpt lat="43.85219" lon="6.89926">
        <ele>731</ele>
        <time>2011-05-08T10:56:32Z</time>
      </trkpt>
      <trkpt lat="43.85214" lon="6.89927">
        <ele>728</ele>
        <time>2011-05-08T10:56:38Z</time>
      </trkpt>
      <trkpt lat="43.85208" lon="6.89926">
        <ele>725</ele>
        <time>2011-05-08T10:56:44Z</time>
      </trkpt>
      <trkpt lat="43.85203" lon="6.89922">
        <ele>720</ele>
        <time>2011-05-08T10:57:00Z</time>
      </trkpt>
      <trkpt lat="43.85198" lon="6.8992">
        <ele>719</ele>
        <time>2011-05-08T10:57:06Z</time>
      </trkpt>
      <trkpt lat="43.85195" lon="6.89914">
        <ele>719</ele>
        <time>2011-05-08T10:57:12Z</time>
      </trkpt>
      <trkpt lat="43.85198" lon="6.8991">
        <ele>716</ele>
        <time>2011-05-08T10:58:01Z</time>
      </trkpt>
      <trkpt lat="43.85198" lon="6.8991">
        <ele>716</ele>
        <time>2011-05-08T10:58:01Z</time>
      </trkpt>
      <trkpt lat="43.85198" lon="6.8991">
        <ele>716</ele>
        <time>2011-05-08T10:58:02Z</time>
      </trkpt>
      <trkpt lat="43.85197" lon="6.89916">
        <ele>716</ele>
        <time>2011-05-08T10:58:17Z</time>
      </trkpt>
      <trkpt lat="43.85192" lon="6.89916">
        <ele>713</ele>
        <time>2011-05-08T10:58:22Z</time>
      </trkpt>
      <trkpt lat="43.85195" lon="6.89923">
        <ele>712</ele>
        <time>2011-05-08T10:58:30Z</time>
      </trkpt>
      <trkpt lat="43.8519" lon="6.89926">
        <ele>711</ele>
        <time>2011-05-08T10:58:39Z</time>
      </trkpt>
      <trkpt lat="43.85186" lon="6.8993">
        <ele>710</ele>
        <time>2011-05-08T10:58:44Z</time>
      </trkpt>
      <trkpt lat="43.85181" lon="6.8993">
        <ele>708</ele>
        <time>2011-05-08T10:58:47Z</time>
      </trkpt>
      <trkpt lat="43.85177" lon="6.89933">
        <ele>707</ele>
        <time>2011-05-08T10:58:53Z</time>
      </trkpt>
      <trkpt lat="43.85173" lon="6.8993">
        <ele>706</ele>
        <time>2011-05-08T10:58:56Z</time>
      </trkpt>
      <trkpt lat="43.85169" lon="6.89934">
        <ele>703</ele>
        <time>2011-05-08T10:59:05Z</time>
      </trkpt>
      <trkpt lat="43.85165" lon="6.89931">
        <ele>703</ele>
        <time>2011-05-08T10:59:08Z</time>
      </trkpt>
      <trkpt lat="43.85162" lon="6.89926">
        <ele>702</ele>
        <time>2011-05-08T10:59:13Z</time>
      </trkpt>
      <trkpt lat="43.85157" lon="6.89924">
        <ele>700</ele>
        <time>2011-05-08T10:59:22Z</time>
      </trkpt>
      <trkpt lat="43.85155" lon="6.89918">
        <ele>700</ele>
        <time>2011-05-08T10:59:28Z</time>
      </trkpt>
      <trkpt lat="43.85152" lon="6.89911">
        <ele>699</ele>
        <time>2011-05-08T10:59:32Z</time>
      </trkpt>
      <trkpt lat="43.85153" lon="6.89918">
        <ele>694</ele>
        <time>2011-05-08T10:59:42Z</time>
      </trkpt>
      <trkpt lat="43.85152" lon="6.89924">
        <ele>690</ele>
        <time>2011-05-08T10:59:46Z</time>
      </trkpt>
      <trkpt lat="43.85147" lon="6.89928">
        <ele>689</ele>
        <time>2011-05-08T10:59:51Z</time>
      </trkpt>
      <trkpt lat="43.85143" lon="6.89933">
        <ele>686</ele>
        <time>2011-05-08T10:59:56Z</time>
      </trkpt>
      <trkpt lat="43.85138" lon="6.89935">
        <ele>685</ele>
        <time>2011-05-08T11:00:01Z</time>
      </trkpt>
      <trkpt lat="43.85138" lon="6.89935">
        <ele>685</ele>
        <time>2011-05-08T11:00:01Z</time>
      </trkpt>
      <trkpt lat="43.85138" lon="6.89935">
        <ele>684</ele>
        <time>2011-05-08T11:00:02Z</time>
      </trkpt>
      <trkpt lat="43.85133" lon="6.89939">
        <ele>684</ele>
        <time>2011-05-08T11:00:06Z</time>
      </trkpt>
      <trkpt lat="43.85127" lon="6.89942">
        <ele>683</ele>
        <time>2011-05-08T11:00:11Z</time>
      </trkpt>
      <trkpt lat="43.85126" lon="6.89936">
        <ele>680</ele>
        <time>2011-05-08T11:00:46Z</time>
      </trkpt>
      <trkpt lat="43.85122" lon="6.8994">
        <ele>682</ele>
        <time>2011-05-08T11:00:58Z</time>
      </trkpt>
      <trkpt lat="43.85122" lon="6.8994">
        <ele>682</ele>
        <time>2011-05-08T11:00:58Z</time>
      </trkpt>
      <trkpt lat="43.85122" lon="6.8994">
        <ele>682</ele>
        <time>2011-05-08T11:01:00Z</time>
      </trkpt>
      <trkpt lat="43.85124" lon="6.89934">
        <ele>685</ele>
        <time>2011-05-08T11:01:11Z</time>
      </trkpt>
      <trkpt lat="43.85122" lon="6.89926">
        <ele>686</ele>
        <time>2011-05-08T11:01:18Z</time>
      </trkpt>
      <trkpt lat="43.85126" lon="6.8992">
        <ele>685</ele>
        <time>2011-05-08T11:01:20Z</time>
      </trkpt>
      <trkpt lat="43.85125" lon="6.89914">
        <ele>681</ele>
        <time>2011-05-08T11:01:32Z</time>
      </trkpt>
      <trkpt lat="43.85125" lon="6.89914">
        <ele>681</ele>
        <time>2011-05-08T11:01:32Z</time>
      </trkpt>
      <trkpt lat="43.85125" lon="6.89914">
        <ele>681</ele>
        <time>2011-05-08T11:01:38Z</time>
      </trkpt>
      <trkpt lat="43.85124" lon="6.89908">
        <ele>679</ele>
        <time>2011-05-08T11:01:42Z</time>
      </trkpt>
      <trkpt lat="43.85123" lon="6.899">
        <ele>677</ele>
        <time>2011-05-08T11:01:46Z</time>
      </trkpt>
      <trkpt lat="43.85121" lon="6.89894">
        <ele>673</ele>
        <time>2011-05-08T11:01:51Z</time>
      </trkpt>
      <trkpt lat="43.8512" lon="6.89886">
        <ele>671</ele>
        <time>2011-05-08T11:01:55Z</time>
      </trkpt>
      <trkpt lat="43.85119" lon="6.89878">
        <ele>673</ele>
        <time>2011-05-08T11:01:59Z</time>
      </trkpt>
      <trkpt lat="43.85118" lon="6.89871">
        <ele>671</ele>
        <time>2011-05-08T11:02:03Z</time>
      </trkpt>
      <trkpt lat="43.85118" lon="6.89864">
        <ele>671</ele>
        <time>2011-05-08T11:02:07Z</time>
      </trkpt>
      <trkpt lat="43.85117" lon="6.89856">
        <ele>672</ele>
        <time>2011-05-08T11:02:11Z</time>
      </trkpt>
      <trkpt lat="43.85117" lon="6.89849">
        <ele>671</ele>
        <time>2011-05-08T11:02:15Z</time>
      </trkpt>
      <trkpt lat="43.85111" lon="6.89849">
        <ele>668</ele>
        <time>2011-05-08T11:02:22Z</time>
      </trkpt>
      <trkpt lat="43.85106" lon="6.89849">
        <ele>668</ele>
        <time>2011-05-08T11:02:27Z</time>
      </trkpt>
      <trkpt lat="43.851" lon="6.89849">
        <ele>667</ele>
        <time>2011-05-08T11:02:31Z</time>
      </trkpt>
      <trkpt lat="43.85095" lon="6.89847">
        <ele>667</ele>
        <time>2011-05-08T11:02:34Z</time>
      </trkpt>
      <trkpt lat="43.85091" lon="6.8984">
        <ele>667</ele>
        <time>2011-05-08T11:02:37Z</time>
      </trkpt>
      <trkpt lat="43.85087" lon="6.89835">
        <ele>667</ele>
        <time>2011-05-08T11:02:40Z</time>
      </trkpt>
      <trkpt lat="43.85081" lon="6.89834">
        <ele>666</ele>
        <time>2011-05-08T11:02:52Z</time>
      </trkpt>
      <trkpt lat="43.85076" lon="6.8983">
        <ele>666</ele>
        <time>2011-05-08T11:02:56Z</time>
      </trkpt>
      <trkpt lat="43.8507" lon="6.89829">
        <ele>666</ele>
        <time>2011-05-08T11:03:05Z</time>
      </trkpt>
      <trkpt lat="43.85065" lon="6.89827">
        <ele>665</ele>
        <time>2011-05-08T11:03:13Z</time>
      </trkpt>
      <trkpt lat="43.85061" lon="6.8983">
        <ele>665</ele>
        <time>2011-05-08T11:03:16Z</time>
      </trkpt>
      <trkpt lat="43.85057" lon="6.89833">
        <ele>664</ele>
        <time>2011-05-08T11:03:22Z</time>
      </trkpt>
      <trkpt lat="43.85052" lon="6.89834">
        <ele>664</ele>
        <time>2011-05-08T11:03:25Z</time>
      </trkpt>
      <trkpt lat="43.85045" lon="6.89837">
        <ele>665</ele>
        <time>2011-05-08T11:03:30Z</time>
      </trkpt>
      <trkpt lat="43.8504" lon="6.89835">
        <ele>662</ele>
        <time>2011-05-08T11:03:37Z</time>
      </trkpt>
      <trkpt lat="43.85034" lon="6.89838">
        <ele>661</ele>
        <time>2011-05-08T11:03:40Z</time>
      </trkpt>
      <trkpt lat="43.85028" lon="6.89836">
        <ele>659</ele>
        <time>2011-05-08T11:03:47Z</time>
      </trkpt>
      <trkpt lat="43.85028" lon="6.89836">
        <ele>659</ele>
        <time>2011-05-08T11:03:47Z</time>
      </trkpt>
      <trkpt lat="43.85028" lon="6.89836">
        <ele>659</ele>
        <time>2011-05-08T11:03:48Z</time>
      </trkpt>
      <trkpt lat="43.85023" lon="6.89838">
        <ele>657</ele>
        <time>2011-05-08T11:03:52Z</time>
      </trkpt>
      <trkpt lat="43.85017" lon="6.89835">
        <ele>655</ele>
        <time>2011-05-08T11:03:56Z</time>
      </trkpt>
      <trkpt lat="43.85013" lon="6.89834">
        <ele>653</ele>
        <time>2011-05-08T11:03:59Z</time>
      </trkpt>
      <trkpt lat="43.85007" lon="6.89834">
        <ele>651</ele>
        <time>2011-05-08T11:04:01Z</time>
      </trkpt>
      <trkpt lat="43.85001" lon="6.89829">
        <ele>648</ele>
        <time>2011-05-08T11:04:04Z</time>
      </trkpt>
      <trkpt lat="43.84995" lon="6.89829">
        <ele>646</ele>
        <time>2011-05-08T11:04:08Z</time>
      </trkpt>
      <trkpt lat="43.84994" lon="6.89823">
        <ele>645</ele>
        <time>2011-05-08T11:04:11Z</time>
      </trkpt>
      <trkpt lat="43.84988" lon="6.89818">
        <ele>641</ele>
        <time>2011-05-08T11:04:14Z</time>
      </trkpt>
      <trkpt lat="43.84983" lon="6.89814">
        <ele>640</ele>
        <time>2011-05-08T11:04:19Z</time>
      </trkpt>
      <trkpt lat="43.84979" lon="6.8981">
        <ele>639</ele>
        <time>2011-05-08T11:04:21Z</time>
      </trkpt>
      <trkpt lat="43.84976" lon="6.89806">
        <ele>637</ele>
        <time>2011-05-08T11:04:25Z</time>
      </trkpt>
      <trkpt lat="43.84971" lon="6.89801">
        <ele>635</ele>
        <time>2011-05-08T11:04:29Z</time>
      </trkpt>
      <trkpt lat="43.84966" lon="6.898">
        <ele>634</ele>
        <time>2011-05-08T11:04:32Z</time>
      </trkpt>
      <trkpt lat="43.84961" lon="6.89798">
        <ele>634</ele>
        <time>2011-05-08T11:04:35Z</time>
      </trkpt>
      <trkpt lat="43.84957" lon="6.89793">
        <ele>634</ele>
        <time>2011-05-08T11:04:39Z</time>
      </trkpt>
      <trkpt lat="43.84952" lon="6.89788">
        <ele>632</ele>
        <time>2011-05-08T11:04:42Z</time>
      </trkpt>
      <trkpt lat="43.84949" lon="6.89783">
        <ele>631</ele>
        <time>2011-05-08T11:04:47Z</time>
      </trkpt>
      <trkpt lat="43.84944" lon="6.8978">
        <ele>631</ele>
        <time>2011-05-08T11:04:50Z</time>
      </trkpt>
      <trkpt lat="43.8494" lon="6.89778">
        <ele>629</ele>
        <time>2011-05-08T11:04:52Z</time>
      </trkpt>
      <trkpt lat="43.84934" lon="6.89776">
        <ele>627</ele>
        <time>2011-05-08T11:04:56Z</time>
      </trkpt>
      <trkpt lat="43.84934" lon="6.89769">
        <ele>624</ele>
        <time>2011-05-08T11:05:02Z</time>
      </trkpt>
      <trkpt lat="43.8493" lon="6.89764">
        <ele>624</ele>
        <time>2011-05-08T11:05:07Z</time>
      </trkpt>
      <trkpt lat="43.84926" lon="6.89762">
        <ele>624</ele>
        <time>2011-05-08T11:05:10Z</time>
      </trkpt>
      <trkpt lat="43.8492" lon="6.89759">
        <ele>624</ele>
        <time>2011-05-08T11:05:15Z</time>
      </trkpt>
      <trkpt lat="43.84914" lon="6.89756">
        <ele>625</ele>
        <time>2011-05-08T11:05:18Z</time>
      </trkpt>
      <trkpt lat="43.8491" lon="6.89752">
        <ele>626</ele>
        <time>2011-05-08T11:05:20Z</time>
      </trkpt>
      <trkpt lat="43.84907" lon="6.89747">
        <ele>626</ele>
        <time>2011-05-08T11:05:23Z</time>
      </trkpt>
      <trkpt lat="43.84905" lon="6.8974">
        <ele>626</ele>
        <time>2011-05-08T11:05:28Z</time>
      </trkpt>
      <trkpt lat="43.84902" lon="6.89734">
        <ele>624</ele>
        <time>2011-05-08T11:05:38Z</time>
      </trkpt>
      <trkpt lat="43.84896" lon="6.89733">
        <ele>624</ele>
        <time>2011-05-08T11:05:41Z</time>
      </trkpt>
      <trkpt lat="43.84894" lon="6.89726">
        <ele>626</ele>
        <time>2011-05-08T11:05:53Z</time>
      </trkpt>
      <trkpt lat="43.8489" lon="6.8972">
        <ele>623</ele>
        <time>2011-05-08T11:06:02Z</time>
      </trkpt>
      <trkpt lat="43.84885" lon="6.89715">
        <ele>622</ele>
        <time>2011-05-08T11:06:07Z</time>
      </trkpt>
      <trkpt lat="43.84881" lon="6.89709">
        <ele>621</ele>
        <time>2011-05-08T11:06:11Z</time>
      </trkpt>
      <trkpt lat="43.8488" lon="6.89703">
        <ele>621</ele>
        <time>2011-05-08T11:06:14Z</time>
      </trkpt>
      <trkpt lat="43.84875" lon="6.897">
        <ele>619</ele>
        <time>2011-05-08T11:06:17Z</time>
      </trkpt>
      <trkpt lat="43.84874" lon="6.89692">
        <ele>619</ele>
        <time>2011-05-08T11:06:23Z</time>
      </trkpt>
      <trkpt lat="43.84879" lon="6.89683">
        <ele>620</ele>
        <time>2011-05-08T11:06:27Z</time>
      </trkpt>
      <trkpt lat="43.84882" lon="6.89676">
        <ele>622</ele>
        <time>2011-05-08T11:06:30Z</time>
      </trkpt>
      <trkpt lat="43.84882" lon="6.89668">
        <ele>622</ele>
        <time>2011-05-08T11:06:35Z</time>
      </trkpt>
      <trkpt lat="43.84886" lon="6.89661">
        <ele>622</ele>
        <time>2011-05-08T11:06:37Z</time>
      </trkpt>
      <trkpt lat="43.84889" lon="6.89653">
        <ele>623</ele>
        <time>2011-05-08T11:06:44Z</time>
      </trkpt>
      <trkpt lat="43.84884" lon="6.89648">
        <ele>620</ele>
        <time>2011-05-08T11:06:49Z</time>
      </trkpt>
      <trkpt lat="43.8488" lon="6.89646">
        <ele>621</ele>
        <time>2011-05-08T11:06:52Z</time>
      </trkpt>
      <trkpt lat="43.84874" lon="6.89645">
        <ele>623</ele>
        <time>2011-05-08T11:06:55Z</time>
      </trkpt>
      <trkpt lat="43.84875" lon="6.89637">
        <ele>624</ele>
        <time>2011-05-08T11:07:02Z</time>
      </trkpt>
      <trkpt lat="43.84876" lon="6.8963">
        <ele>624</ele>
        <time>2011-05-08T11:07:05Z</time>
      </trkpt>
      <trkpt lat="43.84876" lon="6.8963">
        <ele>624</ele>
        <time>2011-05-08T11:07:05Z</time>
      </trkpt>
      <trkpt lat="43.84876" lon="6.8963">
        <ele>624</ele>
        <time>2011-05-08T11:07:06Z</time>
      </trkpt>
      <trkpt lat="43.84877" lon="6.89623">
        <ele>625</ele>
        <time>2011-05-08T11:07:09Z</time>
      </trkpt>
      <trkpt lat="43.84878" lon="6.89617">
        <ele>626</ele>
        <time>2011-05-08T11:07:12Z</time>
      </trkpt>
      <trkpt lat="43.84878" lon="6.89611">
        <ele>628</ele>
        <time>2011-05-08T11:07:15Z</time>
      </trkpt>
      <trkpt lat="43.84876" lon="6.89604">
        <ele>628</ele>
        <time>2011-05-08T11:07:20Z</time>
      </trkpt>
      <trkpt lat="43.84874" lon="6.89599">
        <ele>629</ele>
        <time>2011-05-08T11:07:24Z</time>
      </trkpt>
      <trkpt lat="43.84877" lon="6.8959">
        <ele>628</ele>
        <time>2011-05-08T11:07:28Z</time>
      </trkpt>
      <trkpt lat="43.84884" lon="6.89583">
        <ele>628</ele>
        <time>2011-05-08T11:07:31Z</time>
      </trkpt>
      <trkpt lat="43.84888" lon="6.89579">
        <ele>628</ele>
        <time>2011-05-08T11:07:35Z</time>
      </trkpt>
      <trkpt lat="43.84884" lon="6.89573">
        <ele>627</ele>
        <time>2011-05-08T11:07:38Z</time>
      </trkpt>
      <trkpt lat="43.84883" lon="6.89566">
        <ele>627</ele>
        <time>2011-05-08T11:07:45Z</time>
      </trkpt>
      <trkpt lat="43.84883" lon="6.89566">
        <ele>627</ele>
        <time>2011-05-08T11:07:45Z</time>
      </trkpt>
      <trkpt lat="43.84883" lon="6.89566">
        <ele>627</ele>
        <time>2011-05-08T11:07:46Z</time>
      </trkpt>
      <trkpt lat="43.84886" lon="6.89559">
        <ele>627</ele>
        <time>2011-05-08T11:07:51Z</time>
      </trkpt>
      <trkpt lat="43.84883" lon="6.89555">
        <ele>627</ele>
        <time>2011-05-08T11:07:55Z</time>
      </trkpt>
      <trkpt lat="43.84883" lon="6.89546">
        <ele>626</ele>
        <time>2011-05-08T11:07:59Z</time>
      </trkpt>
      <trkpt lat="43.84888" lon="6.8954">
        <ele>626</ele>
        <time>2011-05-08T11:08:02Z</time>
      </trkpt>
      <trkpt lat="43.84886" lon="6.89533">
        <ele>625</ele>
        <time>2011-05-08T11:08:05Z</time>
      </trkpt>
      <trkpt lat="43.84889" lon="6.89525">
        <ele>626</ele>
        <time>2011-05-08T11:08:10Z</time>
      </trkpt>
      <trkpt lat="43.84894" lon="6.89518">
        <ele>627</ele>
        <time>2011-05-08T11:08:13Z</time>
      </trkpt>
      <trkpt lat="43.84897" lon="6.89511">
        <ele>628</ele>
        <time>2011-05-08T11:08:17Z</time>
      </trkpt>
      <trkpt lat="43.84897" lon="6.89504">
        <ele>627</ele>
        <time>2011-05-08T11:08:24Z</time>
      </trkpt>
      <trkpt lat="43.84894" lon="6.89499">
        <ele>627</ele>
        <time>2011-05-08T11:08:29Z</time>
      </trkpt>
      <trkpt lat="43.84884" lon="6.89506">
        <ele>628</ele>
        <time>2011-05-08T11:08:50Z</time>
      </trkpt>
      <trkpt lat="43.84879" lon="6.89507">
        <ele>629</ele>
        <time>2011-05-08T11:08:51Z</time>
      </trkpt>
      <trkpt lat="43.84873" lon="6.89508">
        <ele>629</ele>
        <time>2011-05-08T11:08:55Z</time>
      </trkpt>
      <trkpt lat="43.84867" lon="6.89506">
        <ele>627</ele>
        <time>2011-05-08T11:08:57Z</time>
      </trkpt>
      <trkpt lat="43.8486" lon="6.89502">
        <ele>625</ele>
        <time>2011-05-08T11:08:59Z</time>
      </trkpt>
      <trkpt lat="43.84855" lon="6.89497">
        <ele>623</ele>
        <time>2011-05-08T11:09:01Z</time>
      </trkpt>
      <trkpt lat="43.84852" lon="6.89492">
        <ele>621</ele>
        <time>2011-05-08T11:09:03Z</time>
      </trkpt>
      <trkpt lat="43.84849" lon="6.89486">
        <ele>620</ele>
        <time>2011-05-08T11:09:07Z</time>
      </trkpt>
      <trkpt lat="43.84842" lon="6.8948">
        <ele>617</ele>
        <time>2011-05-08T11:09:11Z</time>
      </trkpt>
      <trkpt lat="43.84837" lon="6.89477">
        <ele>616</ele>
        <time>2011-05-08T11:09:14Z</time>
      </trkpt>
      <trkpt lat="43.84832" lon="6.89473">
        <ele>617</ele>
        <time>2011-05-08T11:09:17Z</time>
      </trkpt>
      <trkpt lat="43.84826" lon="6.89471">
        <ele>619</ele>
        <time>2011-05-08T11:09:21Z</time>
      </trkpt>
      <trkpt lat="43.84822" lon="6.89467">
        <ele>619</ele>
        <time>2011-05-08T11:09:24Z</time>
      </trkpt>
      <trkpt lat="43.84817" lon="6.8946">
        <ele>619</ele>
        <time>2011-05-08T11:09:28Z</time>
      </trkpt>
      <trkpt lat="43.84813" lon="6.89455">
        <ele>618</ele>
        <time>2011-05-08T11:09:31Z</time>
      </trkpt>
      <trkpt lat="43.84812" lon="6.89448">
        <ele>617</ele>
        <time>2011-05-08T11:09:35Z</time>
      </trkpt>
      <trkpt lat="43.84808" lon="6.89442">
        <ele>617</ele>
        <time>2011-05-08T11:09:39Z</time>
      </trkpt>
      <trkpt lat="43.84805" lon="6.89437">
        <ele>617</ele>
        <time>2011-05-08T11:09:43Z</time>
      </trkpt>
      <trkpt lat="43.84804" lon="6.89431">
        <ele>617</ele>
        <time>2011-05-08T11:09:46Z</time>
      </trkpt>
      <trkpt lat="43.84801" lon="6.89424">
        <ele>616</ele>
        <time>2011-05-08T11:09:50Z</time>
      </trkpt>
      <trkpt lat="43.84799" lon="6.89418">
        <ele>615</ele>
        <time>2011-05-08T11:09:53Z</time>
      </trkpt>
      <trkpt lat="43.84799" lon="6.8941">
        <ele>614</ele>
        <time>2011-05-08T11:09:57Z</time>
      </trkpt>
      <trkpt lat="43.84796" lon="6.89404">
        <ele>613</ele>
        <time>2011-05-08T11:10:01Z</time>
      </trkpt>
      <trkpt lat="43.84793" lon="6.89399">
        <ele>613</ele>
        <time>2011-05-08T11:10:04Z</time>
      </trkpt>
      <trkpt lat="43.8479" lon="6.89394">
        <ele>613</ele>
        <time>2011-05-08T11:10:08Z</time>
      </trkpt>
      <trkpt lat="43.84788" lon="6.89388">
        <ele>610</ele>
        <time>2011-05-08T11:10:11Z</time>
      </trkpt>
      <trkpt lat="43.84784" lon="6.89384">
        <ele>609</ele>
        <time>2011-05-08T11:10:15Z</time>
      </trkpt>
      <trkpt lat="43.8478" lon="6.8938">
        <ele>610</ele>
        <time>2011-05-08T11:10:22Z</time>
      </trkpt>
      <trkpt lat="43.84776" lon="6.89375">
        <ele>610</ele>
        <time>2011-05-08T11:10:25Z</time>
      </trkpt>
      <trkpt lat="43.84771" lon="6.89374">
        <ele>611</ele>
        <time>2011-05-08T11:10:28Z</time>
      </trkpt>
      <trkpt lat="43.84776" lon="6.89374">
        <ele>611</ele>
        <time>2011-05-08T11:10:33Z</time>
      </trkpt>
      <trkpt lat="43.84769" lon="6.89371">
        <ele>610</ele>
        <time>2011-05-08T11:10:44Z</time>
      </trkpt>
      <trkpt lat="43.84764" lon="6.89369">
        <ele>609</ele>
        <time>2011-05-08T11:10:46Z</time>
      </trkpt>
      <trkpt lat="43.84759" lon="6.89368">
        <ele>608</ele>
        <time>2011-05-08T11:10:48Z</time>
      </trkpt>
      <trkpt lat="43.84754" lon="6.89365">
        <ele>608</ele>
        <time>2011-05-08T11:10:53Z</time>
      </trkpt>
      <trkpt lat="43.84749" lon="6.89364">
        <ele>607</ele>
        <time>2011-05-08T11:10:56Z</time>
      </trkpt>
      <trkpt lat="43.84742" lon="6.89361">
        <ele>605</ele>
        <time>2011-05-08T11:11:00Z</time>
      </trkpt>
      <trkpt lat="43.84738" lon="6.89357">
        <ele>604</ele>
        <time>2011-05-08T11:11:03Z</time>
      </trkpt>
      <trkpt lat="43.8473" lon="6.89355">
        <ele>602</ele>
        <time>2011-05-08T11:11:09Z</time>
      </trkpt>
      <trkpt lat="43.84723" lon="6.89354">
        <ele>599</ele>
        <time>2011-05-08T11:11:15Z</time>
      </trkpt>
      <trkpt lat="43.84717" lon="6.89362">
        <ele>595</ele>
        <time>2011-05-08T11:11:21Z</time>
      </trkpt>
      <trkpt lat="43.84717" lon="6.89356">
        <ele>593</ele>
        <time>2011-05-08T11:11:24Z</time>
      </trkpt>
      <trkpt lat="43.84712" lon="6.89353">
        <ele>592</ele>
        <time>2011-05-08T11:11:27Z</time>
      </trkpt>
      <trkpt lat="43.84717" lon="6.89354">
        <ele>592</ele>
        <time>2011-05-08T11:11:38Z</time>
      </trkpt>
      <trkpt lat="43.84721" lon="6.89357">
        <ele>593</ele>
        <time>2011-05-08T11:11:44Z</time>
      </trkpt>
      <trkpt lat="43.84718" lon="6.89362">
        <ele>592</ele>
        <time>2011-05-08T11:11:49Z</time>
      </trkpt>
      <trkpt lat="43.84712" lon="6.89362">
        <ele>591</ele>
        <time>2011-05-08T11:11:51Z</time>
      </trkpt>
      <trkpt lat="43.84707" lon="6.8936">
        <ele>588</ele>
        <time>2011-05-08T11:11:54Z</time>
      </trkpt>
      <trkpt lat="43.84701" lon="6.89359">
        <ele>585</ele>
        <time>2011-05-08T11:12:04Z</time>
      </trkpt>
      <trkpt lat="43.84696" lon="6.89358">
        <ele>584</ele>
        <time>2011-05-08T11:12:08Z</time>
      </trkpt>
      <trkpt lat="43.84693" lon="6.89352">
        <ele>582</ele>
        <time>2011-05-08T11:12:13Z</time>
      </trkpt>
      <trkpt lat="43.84698" lon="6.89353">
        <ele>581</ele>
        <time>2011-05-08T11:12:33Z</time>
      </trkpt>
      <trkpt lat="43.84698" lon="6.89353">
        <ele>581</ele>
        <time>2011-05-08T11:12:33Z</time>
      </trkpt>
      <trkpt lat="43.84698" lon="6.89353">
        <ele>581</ele>
        <time>2011-05-08T11:12:37Z</time>
      </trkpt>
      <trkpt lat="43.84703" lon="6.89351">
        <ele>581</ele>
        <time>2011-05-08T11:12:39Z</time>
      </trkpt>
      <trkpt lat="43.84702" lon="6.89344">
        <ele>588</ele>
        <time>2011-05-08T11:12:48Z</time>
      </trkpt>
      <trkpt lat="43.84708" lon="6.89337">
        <ele>588</ele>
        <time>2011-05-08T11:12:50Z</time>
      </trkpt>
      <trkpt lat="43.84712" lon="6.89334">
        <ele>587</ele>
        <time>2011-05-08T11:12:52Z</time>
      </trkpt>
      <trkpt lat="43.84709" lon="6.89328">
        <ele>587</ele>
        <time>2011-05-08T11:13:00Z</time>
      </trkpt>
      <trkpt lat="43.84707" lon="6.89322">
        <ele>587</ele>
        <time>2011-05-08T11:13:02Z</time>
      </trkpt>
      <trkpt lat="43.84708" lon="6.89315">
        <ele>586</ele>
        <time>2011-05-08T11:13:08Z</time>
      </trkpt>
      <trkpt lat="43.84708" lon="6.89315">
        <ele>586</ele>
        <time>2011-05-08T11:13:08Z</time>
      </trkpt>
      <trkpt lat="43.84708" lon="6.89315">
        <ele>586</ele>
        <time>2011-05-08T11:27:42Z</time>
      </trkpt>
      <trkpt lat="43.84712" lon="6.8932">
        <ele>588</ele>
        <time>2011-05-08T11:29:45Z</time>
      </trkpt>
      <trkpt lat="43.84718" lon="6.89318">
        <ele>586</ele>
        <time>2011-05-08T11:29:50Z</time>
      </trkpt>
      <trkpt lat="43.84714" lon="6.89312">
        <ele>586</ele>
        <time>2011-05-08T11:30:10Z</time>
      </trkpt>
      <trkpt lat="43.8471" lon="6.8931">
        <ele>584</ele>
        <time>2011-05-08T11:30:17Z</time>
      </trkpt>
      <trkpt lat="43.84716" lon="6.89309">
        <ele>583</ele>
        <time>2011-05-08T11:30:24Z</time>
      </trkpt>
      <trkpt lat="43.84721" lon="6.89309">
        <ele>583</ele>
        <time>2011-05-08T11:30:27Z</time>
      </trkpt>
      <trkpt lat="43.84721" lon="6.89309">
        <ele>583</ele>
        <time>2011-05-08T11:30:27Z</time>
      </trkpt>
      <trkpt lat="43.84721" lon="6.89309">
        <ele>583</ele>
        <time>2011-05-08T11:30:32Z</time>
      </trkpt>
      <trkpt lat="43.84722" lon="6.89319">
        <ele>584</ele>
        <time>2011-05-08T11:32:20Z</time>
      </trkpt>
      <trkpt lat="43.84716" lon="6.89324">
        <ele>584</ele>
        <time>2011-05-08T11:32:25Z</time>
      </trkpt>
      <trkpt lat="43.84704" lon="6.89318">
        <ele>581</ele>
        <time>2011-05-08T11:39:04Z</time>
      </trkpt>
      <trkpt lat="43.84698" lon="6.89318">
        <ele>582</ele>
        <time>2011-05-08T11:39:07Z</time>
      </trkpt>
      <trkpt lat="43.84706" lon="6.89316">
        <ele>584</ele>
        <time>2011-05-08T11:39:14Z</time>
      </trkpt>
      <trkpt lat="43.84713" lon="6.89314">
        <ele>584</ele>
        <time>2011-05-08T11:39:16Z</time>
      </trkpt>
      <trkpt lat="43.8472" lon="6.89311">
        <ele>583</ele>
        <time>2011-05-08T11:39:19Z</time>
      </trkpt>
      <trkpt lat="43.84725" lon="6.8931">
        <ele>584</ele>
        <time>2011-05-08T11:39:20Z</time>
      </trkpt>
      <trkpt lat="43.84718" lon="6.89309">
        <ele>585</ele>
        <time>2011-05-08T11:39:33Z</time>
      </trkpt>
      <trkpt lat="43.84718" lon="6.89309">
        <ele>585</ele>
        <time>2011-05-08T11:39:33Z</time>
      </trkpt>
      <trkpt lat="43.84718" lon="6.89309">
        <ele>585</ele>
        <time>2011-05-08T11:39:34Z</time>
      </trkpt>
      <trkpt lat="43.84709" lon="6.89307">
        <ele>585</ele>
        <time>2011-05-08T11:39:36Z</time>
      </trkpt>
      <trkpt lat="43.84709" lon="6.89307">
        <ele>585</ele>
        <time>2011-05-08T11:39:36Z</time>
      </trkpt>
      <trkpt lat="43.84709" lon="6.89307">
        <ele>584</ele>
        <time>2011-05-08T11:39:38Z</time>
      </trkpt>
      <trkpt lat="43.847" lon="6.89308">
        <ele>584</ele>
        <time>2011-05-08T11:39:39Z</time>
      </trkpt>
      <trkpt lat="43.84692" lon="6.89308">
        <ele>583</ele>
        <time>2011-05-08T11:39:42Z</time>
      </trkpt>
      <trkpt lat="43.84687" lon="6.89306">
        <ele>583</ele>
        <time>2011-05-08T11:39:51Z</time>
      </trkpt>
      <trkpt lat="43.84682" lon="6.89308">
        <ele>583</ele>
        <time>2011-05-08T11:39:55Z</time>
      </trkpt>
      <trkpt lat="43.84682" lon="6.89308">
        <ele>583</ele>
        <time>2011-05-08T11:39:55Z</time>
      </trkpt>
      <trkpt lat="43.84682" lon="6.89308">
        <ele>583</ele>
        <time>2011-05-08T11:39:56Z</time>
      </trkpt>
      <trkpt lat="43.84688" lon="6.89308">
        <ele>581</ele>
        <time>2011-05-08T11:39:57Z</time>
      </trkpt>
      <trkpt lat="43.84693" lon="6.8931">
        <ele>582</ele>
        <time>2011-05-08T11:39:59Z</time>
      </trkpt>
      <trkpt lat="43.84693" lon="6.8931">
        <ele>582</ele>
        <time>2011-05-08T11:39:59Z</time>
      </trkpt>
      <trkpt lat="43.84693" lon="6.8931">
        <ele>582</ele>
        <time>2011-05-08T11:40:00Z</time>
      </trkpt>
      <trkpt lat="43.84698" lon="6.89313">
        <ele>585</ele>
        <time>2011-05-08T11:40:04Z</time>
      </trkpt>
      <trkpt lat="43.84689" lon="6.89318">
        <ele>586</ele>
        <time>2011-05-08T11:41:06Z</time>
      </trkpt>
      <trkpt lat="43.84693" lon="6.8932">
        <ele>585</ele>
        <time>2011-05-08T11:41:12Z</time>
      </trkpt>
      <trkpt lat="43.84693" lon="6.8932">
        <ele>585</ele>
        <time>2011-05-08T11:41:12Z</time>
      </trkpt>
      <trkpt lat="43.84693" lon="6.8932">
        <ele>585</ele>
        <time>2011-05-08T11:41:13Z</time>
      </trkpt>
      <trkpt lat="43.84701" lon="6.89318">
        <ele>586</ele>
        <time>2011-05-08T11:41:21Z</time>
      </trkpt>
      <trkpt lat="43.84707" lon="6.89316">
        <ele>585</ele>
        <time>2011-05-08T11:41:23Z</time>
      </trkpt>
      <trkpt lat="43.84702" lon="6.89318">
        <ele>586</ele>
        <time>2011-05-08T11:41:34Z</time>
      </trkpt>
      <trkpt lat="43.84705" lon="6.89313">
        <ele>591</ele>
        <time>2011-05-08T11:41:46Z</time>
      </trkpt>
      <trkpt lat="43.84712" lon="6.89313">
        <ele>589</ele>
        <time>2011-05-08T11:41:49Z</time>
      </trkpt>
      <trkpt lat="43.84717" lon="6.89312">
        <ele>589</ele>
        <time>2011-05-08T11:41:55Z</time>
      </trkpt>
      <trkpt lat="43.84717" lon="6.89312">
        <ele>589</ele>
        <time>2011-05-08T11:41:55Z</time>
      </trkpt>
      <trkpt lat="43.84717" lon="6.89312">
        <ele>588</ele>
        <time>2011-05-08T11:42:03Z</time>
      </trkpt>
      <trkpt lat="43.84713" lon="6.89318">
        <ele>591</ele>
        <time>2011-05-08T11:42:08Z</time>
      </trkpt>
      <trkpt lat="43.84708" lon="6.89319">
        <ele>592</ele>
        <time>2011-05-08T11:42:11Z</time>
      </trkpt>
      <trkpt lat="43.84713" lon="6.8932">
        <ele>591</ele>
        <time>2011-05-08T11:42:19Z</time>
      </trkpt>
      <trkpt lat="43.84708" lon="6.89322">
        <ele>592</ele>
        <time>2011-05-08T11:42:25Z</time>
      </trkpt>
      <trkpt lat="43.84704" lon="6.89322">
        <ele>593</ele>
        <time>2011-05-08T11:42:31Z</time>
      </trkpt>
      <trkpt lat="43.84708" lon="6.89325">
        <ele>596</ele>
        <time>2011-05-08T11:42:37Z</time>
      </trkpt>
      <trkpt lat="43.847" lon="6.89321">
        <ele>597</ele>
        <time>2011-05-08T11:42:41Z</time>
      </trkpt>
      <trkpt lat="43.84706" lon="6.89317">
        <ele>591</ele>
        <time>2011-05-08T11:42:50Z</time>
      </trkpt>
      <trkpt lat="43.84711" lon="6.89318">
        <ele>587</ele>
        <time>2011-05-08T11:42:53Z</time>
      </trkpt>
      <trkpt lat="43.84711" lon="6.89318">
        <ele>587</ele>
        <time>2011-05-08T11:42:53Z</time>
      </trkpt>
      <trkpt lat="43.84711" lon="6.89318">
        <ele>587</ele>
        <time>2011-05-08T11:42:54Z</time>
      </trkpt>
      <trkpt lat="43.84706" lon="6.89318">
        <ele>586</ele>
        <time>2011-05-08T11:42:56Z</time>
      </trkpt>
      <trkpt lat="43.84701" lon="6.89316">
        <ele>591</ele>
        <time>2011-05-08T11:43:41Z</time>
      </trkpt>
      <trkpt lat="43.84708" lon="6.89315">
        <ele>591</ele>
        <time>2011-05-08T11:43:46Z</time>
      </trkpt>
      <trkpt lat="43.84704" lon="6.89314">
        <ele>587</ele>
        <time>2011-05-08T11:43:57Z</time>
      </trkpt>
      <trkpt lat="43.84699" lon="6.89315">
        <ele>587</ele>
        <time>2011-05-08T11:43:59Z</time>
      </trkpt>
      <trkpt lat="43.84694" lon="6.89318">
        <ele>586</ele>
        <time>2011-05-08T11:44:05Z</time>
      </trkpt>
      <trkpt lat="43.847" lon="6.89318">
        <ele>584</ele>
        <time>2011-05-08T11:44:09Z</time>
      </trkpt>
      <trkpt lat="43.847" lon="6.89318">
        <ele>584</ele>
        <time>2011-05-08T11:44:09Z</time>
      </trkpt>
      <trkpt lat="43.847" lon="6.89318">
        <ele>584</ele>
        <time>2011-05-08T11:44:10Z</time>
      </trkpt>
      <trkpt lat="43.84705" lon="6.89317">
        <ele>584</ele>
        <time>2011-05-08T11:44:12Z</time>
      </trkpt>
      <trkpt lat="43.84711" lon="6.89321">
        <ele>584</ele>
        <time>2011-05-08T11:44:14Z</time>
      </trkpt>
      <trkpt lat="43.84716" lon="6.89322">
        <ele>583</ele>
        <time>2011-05-08T11:44:19Z</time>
      </trkpt>
      <trkpt lat="43.84711" lon="6.89323">
        <ele>582</ele>
        <time>2011-05-08T11:45:09Z</time>
      </trkpt>
      <trkpt lat="43.84713" lon="6.89314">
        <ele>581</ele>
        <time>2011-05-08T11:45:58Z</time>
      </trkpt>
      <trkpt lat="43.84708" lon="6.89313">
        <ele>581</ele>
        <time>2011-05-08T11:46:01Z</time>
      </trkpt>
      <trkpt lat="43.84714" lon="6.89312">
        <ele>575</ele>
        <time>2011-05-08T11:46:27Z</time>
      </trkpt>
      <trkpt lat="43.8472" lon="6.89311">
        <ele>573</ele>
        <time>2011-05-08T11:46:29Z</time>
      </trkpt>
      <trkpt lat="43.84725" lon="6.89309">
        <ele>569</ele>
        <time>2011-05-08T11:46:33Z</time>
      </trkpt>
      <trkpt lat="43.84729" lon="6.89305">
        <ele>568</ele>
        <time>2011-05-08T11:46:53Z</time>
      </trkpt>
      <trkpt lat="43.84735" lon="6.89304">
        <ele>570</ele>
        <time>2011-05-08T11:46:58Z</time>
      </trkpt>
      <trkpt lat="43.84723" lon="6.89304">
        <ele>573</ele>
        <time>2011-05-08T11:47:06Z</time>
      </trkpt>
      <trkpt lat="43.84718" lon="6.89305">
        <ele>574</ele>
        <time>2011-05-08T11:47:08Z</time>
      </trkpt>
      <trkpt lat="43.84712" lon="6.89308">
        <ele>574</ele>
        <time>2011-05-08T11:47:10Z</time>
      </trkpt>
      <trkpt lat="43.84707" lon="6.8931">
        <ele>575</ele>
        <time>2011-05-08T11:47:12Z</time>
      </trkpt>
      <trkpt lat="43.84707" lon="6.8931">
        <ele>575</ele>
        <time>2011-05-08T11:47:12Z</time>
      </trkpt>
      <trkpt lat="43.84707" lon="6.8931">
        <ele>576</ele>
        <time>2011-05-08T11:47:14Z</time>
      </trkpt>
      <trkpt lat="43.84713" lon="6.8931">
        <ele>575</ele>
        <time>2011-05-08T11:47:16Z</time>
      </trkpt>
      <trkpt lat="43.84717" lon="6.89308">
        <ele>571</ele>
        <time>2011-05-08T11:47:19Z</time>
      </trkpt>
      <trkpt lat="43.84722" lon="6.89307">
        <ele>571</ele>
        <time>2011-05-08T11:47:20Z</time>
      </trkpt>
      <trkpt lat="43.84727" lon="6.89306">
        <ele>570</ele>
        <time>2011-05-08T11:47:27Z</time>
      </trkpt>
      <trkpt lat="43.84721" lon="6.89303">
        <ele>568</ele>
        <time>2011-05-08T11:47:28Z</time>
      </trkpt>
      <trkpt lat="43.84716" lon="6.89303">
        <ele>567</ele>
        <time>2011-05-08T11:47:31Z</time>
      </trkpt>
      <trkpt lat="43.84721" lon="6.89305">
        <ele>569</ele>
        <time>2011-05-08T11:49:01Z</time>
      </trkpt>
      <trkpt lat="43.84721" lon="6.89305">
        <ele>569</ele>
        <time>2011-05-08T11:49:01Z</time>
      </trkpt>
      <trkpt lat="43.84721" lon="6.89305">
        <ele>569</ele>
        <time>2011-05-08T11:49:02Z</time>
      </trkpt>
      <trkpt lat="43.84716" lon="6.89302">
        <ele>569</ele>
        <time>2011-05-08T11:49:28Z</time>
      </trkpt>
      <trkpt lat="43.84708" lon="6.89301">
        <ele>569</ele>
        <time>2011-05-08T11:49:30Z</time>
      </trkpt>
      <trkpt lat="43.84713" lon="6.89306">
        <ele>578</ele>
        <time>2011-05-08T11:49:44Z</time>
      </trkpt>
      <trkpt lat="43.84708" lon="6.89308">
        <ele>579</ele>
        <time>2011-05-08T11:49:50Z</time>
      </trkpt>
      <trkpt lat="43.84704" lon="6.8931">
        <ele>580</ele>
        <time>2011-05-08T11:49:53Z</time>
      </trkpt>
      <trkpt lat="43.84704" lon="6.8931">
        <ele>580</ele>
        <time>2011-05-08T11:49:53Z</time>
      </trkpt>
      <trkpt lat="43.84704" lon="6.8931">
        <ele>580</ele>
        <time>2011-05-08T11:49:54Z</time>
      </trkpt>
      <trkpt lat="43.84708" lon="6.89311">
        <ele>585</ele>
        <time>2011-05-08T11:51:40Z</time>
      </trkpt>
      <trkpt lat="43.84704" lon="6.89315">
        <ele>583</ele>
        <time>2011-05-08T11:51:45Z</time>
      </trkpt>
      <trkpt lat="43.84704" lon="6.89315">
        <ele>583</ele>
        <time>2011-05-08T11:51:45Z</time>
      </trkpt>
      <trkpt lat="43.84704" lon="6.89315">
        <ele>583</ele>
        <time>2011-05-08T11:51:46Z</time>
      </trkpt>
      <trkpt lat="43.84709" lon="6.89318">
        <ele>580</ele>
        <time>2011-05-08T11:51:55Z</time>
      </trkpt>
      <trkpt lat="43.84719" lon="6.89318">
        <ele>579</ele>
        <time>2011-05-08T11:51:56Z</time>
      </trkpt>
      <trkpt lat="43.84717" lon="6.89312">
        <ele>575</ele>
        <time>2011-05-08T11:51:59Z</time>
      </trkpt>
      <trkpt lat="43.84714" lon="6.89305">
        <ele>573</ele>
        <time>2011-05-08T11:52:05Z</time>
      </trkpt>
      <trkpt lat="43.84719" lon="6.89302">
        <ele>573</ele>
        <time>2011-05-08T11:52:10Z</time>
      </trkpt>
      <trkpt lat="43.84725" lon="6.89301">
        <ele>573</ele>
        <time>2011-05-08T11:52:28Z</time>
      </trkpt>
      <trkpt lat="43.8472" lon="6.89301">
        <ele>574</ele>
        <time>2011-05-08T11:53:10Z</time>
      </trkpt>
      <trkpt lat="43.84723" lon="6.89306">
        <ele>572</ele>
        <time>2011-05-08T11:53:15Z</time>
      </trkpt>
      <trkpt lat="43.84715" lon="6.89309">
        <ele>571</ele>
        <time>2011-05-08T11:53:32Z</time>
      </trkpt>
      <trkpt lat="43.84711" lon="6.89311">
        <ele>571</ele>
        <time>2011-05-08T11:53:33Z</time>
      </trkpt>
      <trkpt lat="43.84707" lon="6.89316">
        <ele>571</ele>
        <time>2011-05-08T11:53:38Z</time>
      </trkpt>
      <trkpt lat="43.84713" lon="6.89318">
        <ele>571</ele>
        <time>2011-05-08T11:53:40Z</time>
      </trkpt>
      <trkpt lat="43.84711" lon="6.89307">
        <ele>573</ele>
        <time>2011-05-08T11:53:49Z</time>
      </trkpt>
      <trkpt lat="43.84707" lon="6.89309">
        <ele>574</ele>
        <time>2011-05-08T11:53:50Z</time>
      </trkpt>
      <trkpt lat="43.84704" lon="6.89315">
        <ele>576</ele>
        <time>2011-05-08T11:53:52Z</time>
      </trkpt>
      <trkpt lat="43.84701" lon="6.89321">
        <ele>578</ele>
        <time>2011-05-08T11:53:56Z</time>
      </trkpt>
      <trkpt lat="43.84697" lon="6.89326">
        <ele>580</ele>
        <time>2011-05-08T11:53:58Z</time>
      </trkpt>
      <trkpt lat="43.84691" lon="6.8933">
        <ele>583</ele>
        <time>2011-05-08T11:54:01Z</time>
      </trkpt>
      <trkpt lat="43.84685" lon="6.89327">
        <ele>584</ele>
        <time>2011-05-08T11:54:04Z</time>
      </trkpt>
      <trkpt lat="43.84679" lon="6.89329">
        <ele>586</ele>
        <time>2011-05-08T11:54:08Z</time>
      </trkpt>
      <trkpt lat="43.8468" lon="6.89322">
        <ele>585</ele>
        <time>2011-05-08T11:54:12Z</time>
      </trkpt>
      <trkpt lat="43.84674" lon="6.89318">
        <ele>585</ele>
        <time>2011-05-08T11:54:13Z</time>
      </trkpt>
      <trkpt lat="43.84678" lon="6.89311">
        <ele>586</ele>
        <time>2011-05-08T11:54:15Z</time>
      </trkpt>
      <trkpt lat="43.84672" lon="6.89312">
        <ele>587</ele>
        <time>2011-05-08T11:54:19Z</time>
      </trkpt>
      <trkpt lat="43.84668" lon="6.89313">
        <ele>585</ele>
        <time>2011-05-08T11:54:24Z</time>
      </trkpt>
      <trkpt lat="43.84673" lon="6.89313">
        <ele>586</ele>
        <time>2011-05-08T11:54:35Z</time>
      </trkpt>
      <trkpt lat="43.84669" lon="6.8931">
        <ele>586</ele>
        <time>2011-05-08T11:54:44Z</time>
      </trkpt>
      <trkpt lat="43.84674" lon="6.89307">
        <ele>586</ele>
        <time>2011-05-08T11:54:48Z</time>
      </trkpt>
      <trkpt lat="43.84668" lon="6.89308">
        <ele>587</ele>
        <time>2011-05-08T11:54:56Z</time>
      </trkpt>
      <trkpt lat="43.84668" lon="6.89308">
        <ele>587</ele>
        <time>2011-05-08T11:54:56Z</time>
      </trkpt>
      <trkpt lat="43.84668" lon="6.89308">
        <ele>587</ele>
        <time>2011-05-08T11:55:11Z</time>
      </trkpt>
      <trkpt lat="43.84666" lon="6.89302">
        <ele>587</ele>
        <time>2011-05-08T11:55:29Z</time>
      </trkpt>
      <trkpt lat="43.84663" lon="6.89297">
        <ele>589</ele>
        <time>2011-05-08T11:55:31Z</time>
      </trkpt>
      <trkpt lat="43.84659" lon="6.89292">
        <ele>589</ele>
        <time>2011-05-08T11:55:34Z</time>
      </trkpt>
      <trkpt lat="43.84653" lon="6.89292">
        <ele>593</ele>
        <time>2011-05-08T11:55:37Z</time>
      </trkpt>
      <trkpt lat="43.84647" lon="6.89291">
        <ele>594</ele>
        <time>2011-05-08T11:55:39Z</time>
      </trkpt>
      <trkpt lat="43.84641" lon="6.89291">
        <ele>596</ele>
        <time>2011-05-08T11:55:44Z</time>
      </trkpt>
      <trkpt lat="43.84645" lon="6.89293">
        <ele>599</ele>
        <time>2011-05-08T11:55:48Z</time>
      </trkpt>
      <trkpt lat="43.84654" lon="6.89288">
        <ele>597</ele>
        <time>2011-05-08T11:55:52Z</time>
      </trkpt>
      <trkpt lat="43.84655" lon="6.89266">
        <ele>601</ele>
        <time>2011-05-08T11:56:12Z</time>
      </trkpt>
      <trkpt lat="43.8465" lon="6.89269">
        <ele>598</ele>
        <time>2011-05-08T11:56:15Z</time>
      </trkpt>
      <trkpt lat="43.84654" lon="6.89265">
        <ele>599</ele>
        <time>2011-05-08T11:56:18Z</time>
      </trkpt>
      <trkpt lat="43.84645" lon="6.8926">
        <ele>602</ele>
        <time>2011-05-08T11:56:25Z</time>
      </trkpt>
      <trkpt lat="43.84655" lon="6.8926">
        <ele>603</ele>
        <time>2011-05-08T11:56:27Z</time>
      </trkpt>
      <trkpt lat="43.84648" lon="6.89267">
        <ele>607</ele>
        <time>2011-05-08T11:56:33Z</time>
      </trkpt>
      <trkpt lat="43.84655" lon="6.89268">
        <ele>606</ele>
        <time>2011-05-08T11:56:35Z</time>
      </trkpt>
      <trkpt lat="43.84649" lon="6.89275">
        <ele>609</ele>
        <time>2011-05-08T11:56:39Z</time>
      </trkpt>
      <trkpt lat="43.84644" lon="6.89274">
        <ele>604</ele>
        <time>2011-05-08T11:56:48Z</time>
      </trkpt>
      <trkpt lat="43.8464" lon="6.8927">
        <ele>604</ele>
        <time>2011-05-08T11:56:51Z</time>
      </trkpt>
      <trkpt lat="43.84639" lon="6.89263">
        <ele>601</ele>
        <time>2011-05-08T11:56:55Z</time>
      </trkpt>
      <trkpt lat="43.84637" lon="6.89255">
        <ele>602</ele>
        <time>2011-05-08T11:57:07Z</time>
      </trkpt>
      <trkpt lat="43.84643" lon="6.8926">
        <ele>608</ele>
        <time>2011-05-08T11:57:08Z</time>
      </trkpt>
      <trkpt lat="43.84638" lon="6.89255">
        <ele>610</ele>
        <time>2011-05-08T11:57:10Z</time>
      </trkpt>
      <trkpt lat="43.84638" lon="6.89263">
        <ele>616</ele>
        <time>2011-05-08T11:57:11Z</time>
      </trkpt>
      <trkpt lat="43.84633" lon="6.89268">
        <ele>620</ele>
        <time>2011-05-08T11:57:12Z</time>
      </trkpt>
      <trkpt lat="43.84634" lon="6.89277">
        <ele>628</ele>
        <time>2011-05-08T11:57:14Z</time>
      </trkpt>
      <trkpt lat="43.84639" lon="6.89274">
        <ele>625</ele>
        <time>2011-05-08T11:57:15Z</time>
      </trkpt>
      <trkpt lat="43.84634" lon="6.89271">
        <ele>622</ele>
        <time>2011-05-08T11:57:20Z</time>
      </trkpt>
      <trkpt lat="43.84632" lon="6.89264">
        <ele>620</ele>
        <time>2011-05-08T11:57:23Z</time>
      </trkpt>
      <trkpt lat="43.84632" lon="6.89256">
        <ele>619</ele>
        <time>2011-05-08T11:57:31Z</time>
      </trkpt>
      <trkpt lat="43.84629" lon="6.8925">
        <ele>618</ele>
        <time>2011-05-08T11:57:33Z</time>
      </trkpt>
      <trkpt lat="43.84632" lon="6.89244">
        <ele>619</ele>
        <time>2011-05-08T11:57:38Z</time>
      </trkpt>
      <trkpt lat="43.84625" lon="6.89245">
        <ele>618</ele>
        <time>2011-05-08T11:57:40Z</time>
      </trkpt>
      <trkpt lat="43.84635" lon="6.89246">
        <ele>617</ele>
        <time>2011-05-08T11:57:42Z</time>
      </trkpt>
      <trkpt lat="43.8464" lon="6.89246">
        <ele>618</ele>
        <time>2011-05-08T11:57:44Z</time>
      </trkpt>
      <trkpt lat="43.84643" lon="6.89252">
        <ele>618</ele>
        <time>2011-05-08T11:57:55Z</time>
      </trkpt>
      <trkpt lat="43.84638" lon="6.8925">
        <ele>617</ele>
        <time>2011-05-08T11:58:03Z</time>
      </trkpt>
      <trkpt lat="43.84636" lon="6.89243">
        <ele>615</ele>
        <time>2011-05-08T11:58:05Z</time>
      </trkpt>
      <trkpt lat="43.84632" lon="6.89235">
        <ele>613</ele>
        <time>2011-05-08T11:58:09Z</time>
      </trkpt>
      <trkpt lat="43.84632" lon="6.89228">
        <ele>615</ele>
        <time>2011-05-08T11:58:18Z</time>
      </trkpt>
      <trkpt lat="43.84636" lon="6.89226">
        <ele>615</ele>
        <time>2011-05-08T11:58:20Z</time>
      </trkpt>
      <trkpt lat="43.84636" lon="6.89226">
        <ele>615</ele>
        <time>2011-05-08T11:58:20Z</time>
      </trkpt>
      <trkpt lat="43.84636" lon="6.89226">
        <ele>616</ele>
        <time>2011-05-08T11:58:22Z</time>
      </trkpt>
      <trkpt lat="43.84639" lon="6.8922">
        <ele>619</ele>
        <time>2011-05-08T11:58:32Z</time>
      </trkpt>
      <trkpt lat="43.84633" lon="6.89219">
        <ele>620</ele>
        <time>2011-05-08T11:58:35Z</time>
      </trkpt>
      <trkpt lat="43.8464" lon="6.8922">
        <ele>621</ele>
        <time>2011-05-08T11:58:37Z</time>
      </trkpt>
      <trkpt lat="43.84646" lon="6.89225">
        <ele>624</ele>
        <time>2011-05-08T11:58:41Z</time>
      </trkpt>
      <trkpt lat="43.8464" lon="6.89227">
        <ele>630</ele>
        <time>2011-05-08T11:58:57Z</time>
      </trkpt>
      <trkpt lat="43.84636" lon="6.89224">
        <ele>631</ele>
        <time>2011-05-08T11:59:00Z</time>
      </trkpt>
      <trkpt lat="43.84635" lon="6.89216">
        <ele>631</ele>
        <time>2011-05-08T11:59:03Z</time>
      </trkpt>
      <trkpt lat="43.8463" lon="6.8921">
        <ele>631</ele>
        <time>2011-05-08T11:59:06Z</time>
      </trkpt>
      <trkpt lat="43.84623" lon="6.89206">
        <ele>630</ele>
        <time>2011-05-08T11:59:14Z</time>
      </trkpt>
      <trkpt lat="43.84628" lon="6.89202">
        <ele>630</ele>
        <time>2011-05-08T11:59:16Z</time>
      </trkpt>
      <trkpt lat="43.84626" lon="6.89196">
        <ele>636</ele>
        <time>2011-05-08T11:59:23Z</time>
      </trkpt>
      <trkpt lat="43.84628" lon="6.8919">
        <ele>637</ele>
        <time>2011-05-08T11:59:29Z</time>
      </trkpt>
      <trkpt lat="43.84625" lon="6.89183">
        <ele>637</ele>
        <time>2011-05-08T11:59:38Z</time>
      </trkpt>
      <trkpt lat="43.84628" lon="6.89178">
        <ele>638</ele>
        <time>2011-05-08T11:59:42Z</time>
      </trkpt>
      <trkpt lat="43.84633" lon="6.89175">
        <ele>641</ele>
        <time>2011-05-08T11:59:45Z</time>
      </trkpt>
      <trkpt lat="43.84636" lon="6.89167">
        <ele>641</ele>
        <time>2011-05-08T11:59:51Z</time>
      </trkpt>
      <trkpt lat="43.84642" lon="6.89167">
        <ele>642</ele>
        <time>2011-05-08T11:59:55Z</time>
      </trkpt>
      <trkpt lat="43.84646" lon="6.89169">
        <ele>643</ele>
        <time>2011-05-08T11:59:59Z</time>
      </trkpt>
      <trkpt lat="43.84647" lon="6.89175">
        <ele>645</ele>
        <time>2011-05-08T12:00:10Z</time>
      </trkpt>
      <trkpt lat="43.84642" lon="6.89179">
        <ele>644</ele>
        <time>2011-05-08T12:00:22Z</time>
      </trkpt>
      <trkpt lat="43.84642" lon="6.89179">
        <ele>644</ele>
        <time>2011-05-08T12:00:22Z</time>
      </trkpt>
      <trkpt lat="43.84642" lon="6.89179">
        <ele>644</ele>
        <time>2011-05-08T12:00:23Z</time>
      </trkpt>
      <trkpt lat="43.84638" lon="6.89187">
        <ele>644</ele>
        <time>2011-05-08T12:00:29Z</time>
      </trkpt>
      <trkpt lat="43.84632" lon="6.8919">
        <ele>644</ele>
        <time>2011-05-08T12:00:35Z</time>
      </trkpt>
      <trkpt lat="43.84626" lon="6.89194">
        <ele>644</ele>
        <time>2011-05-08T12:00:40Z</time>
      </trkpt>
      <trkpt lat="43.84619" lon="6.89197">
        <ele>647</ele>
        <time>2011-05-08T12:00:44Z</time>
      </trkpt>
      <trkpt lat="43.84614" lon="6.89198">
        <ele>650</ele>
        <time>2011-05-08T12:00:49Z</time>
      </trkpt>
      <trkpt lat="43.84614" lon="6.89198">
        <ele>650</ele>
        <time>2011-05-08T12:00:49Z</time>
      </trkpt>
      <trkpt lat="43.84614" lon="6.89198">
        <ele>650</ele>
        <time>2011-05-08T12:00:50Z</time>
      </trkpt>
      <trkpt lat="43.84608" lon="6.89195">
        <ele>650</ele>
        <time>2011-05-08T12:00:55Z</time>
      </trkpt>
      <trkpt lat="43.84595" lon="6.89183">
        <ele>649</ele>
        <time>2011-05-08T12:01:10Z</time>
      </trkpt>
      <trkpt lat="43.84588" lon="6.89191">
        <ele>653</ele>
        <time>2011-05-08T12:01:13Z</time>
      </trkpt>
      <trkpt lat="43.84592" lon="6.89196">
        <ele>655</ele>
        <time>2011-05-08T12:01:16Z</time>
      </trkpt>
      <trkpt lat="43.84599" lon="6.89196">
        <ele>655</ele>
        <time>2011-05-08T12:01:17Z</time>
      </trkpt>
      <trkpt lat="43.84595" lon="6.89194">
        <ele>656</ele>
        <time>2011-05-08T12:01:23Z</time>
      </trkpt>
      <trkpt lat="43.84594" lon="6.89187">
        <ele>655</ele>
        <time>2011-05-08T12:01:29Z</time>
      </trkpt>
      <trkpt lat="43.84594" lon="6.8918">
        <ele>658</ele>
        <time>2011-05-08T12:01:40Z</time>
      </trkpt>
      <trkpt lat="43.84594" lon="6.8918">
        <ele>658</ele>
        <time>2011-05-08T12:01:40Z</time>
      </trkpt>
      <trkpt lat="43.84594" lon="6.8918">
        <ele>658</ele>
        <time>2011-05-08T12:01:41Z</time>
      </trkpt>
      <trkpt lat="43.84599" lon="6.89177">
        <ele>658</ele>
        <time>2011-05-08T12:01:42Z</time>
      </trkpt>
      <trkpt lat="43.84601" lon="6.89169">
        <ele>657</ele>
        <time>2011-05-08T12:01:45Z</time>
      </trkpt>
      <trkpt lat="43.84613" lon="6.89163">
        <ele>659</ele>
        <time>2011-05-08T12:01:53Z</time>
      </trkpt>
      <trkpt lat="43.84614" lon="6.89169">
        <ele>660</ele>
        <time>2011-05-08T12:01:55Z</time>
      </trkpt>
      <trkpt lat="43.84607" lon="6.89169">
        <ele>661</ele>
        <time>2011-05-08T12:01:56Z</time>
      </trkpt>
      <trkpt lat="43.84602" lon="6.89169">
        <ele>662</ele>
        <time>2011-05-08T12:02:08Z</time>
      </trkpt>
      <trkpt lat="43.84602" lon="6.89169">
        <ele>662</ele>
        <time>2011-05-08T12:02:08Z</time>
      </trkpt>
      <trkpt lat="43.84602" lon="6.89169">
        <ele>662</ele>
        <time>2011-05-08T12:02:09Z</time>
      </trkpt>
      <trkpt lat="43.84602" lon="6.89161">
        <ele>663</ele>
        <time>2011-05-08T12:02:14Z</time>
      </trkpt>
      <trkpt lat="43.84588" lon="6.89156">
        <ele>669</ele>
        <time>2011-05-08T12:02:15Z</time>
      </trkpt>
      <trkpt lat="43.84596" lon="6.89155">
        <ele>668</ele>
        <time>2011-05-08T12:02:16Z</time>
      </trkpt>
      <trkpt lat="43.84601" lon="6.89159">
        <ele>678</ele>
        <time>2011-05-08T12:02:18Z</time>
      </trkpt>
      <trkpt lat="43.84602" lon="6.89153">
        <ele>677</ele>
        <time>2011-05-08T12:02:27Z</time>
      </trkpt>
      <trkpt lat="43.84606" lon="6.89148">
        <ele>675</ele>
        <time>2011-05-08T12:02:33Z</time>
      </trkpt>
      <trkpt lat="43.84606" lon="6.89156">
        <ele>675</ele>
        <time>2011-05-08T12:02:53Z</time>
      </trkpt>
      <trkpt lat="43.84598" lon="6.89159">
        <ele>677</ele>
        <time>2011-05-08T12:02:56Z</time>
      </trkpt>
      <trkpt lat="43.84579" lon="6.89153">
        <ele>675</ele>
        <time>2011-05-08T12:03:04Z</time>
      </trkpt>
      <trkpt lat="43.84573" lon="6.89154">
        <ele>675</ele>
        <time>2011-05-08T12:03:05Z</time>
      </trkpt>
      <trkpt lat="43.84574" lon="6.89147">
        <ele>675</ele>
        <time>2011-05-08T12:03:06Z</time>
      </trkpt>
      <trkpt lat="43.84579" lon="6.89146">
        <ele>675</ele>
        <time>2011-05-08T12:03:10Z</time>
      </trkpt>
      <trkpt lat="43.84583" lon="6.89142">
        <ele>673</ele>
        <time>2011-05-08T12:03:14Z</time>
      </trkpt>
      <trkpt lat="43.84595" lon="6.89137">
        <ele>675</ele>
        <time>2011-05-08T12:03:19Z</time>
      </trkpt>
      <trkpt lat="43.846" lon="6.89148">
        <ele>676</ele>
        <time>2011-05-08T12:03:20Z</time>
      </trkpt>
      <trkpt lat="43.84592" lon="6.89141">
        <ele>674</ele>
        <time>2011-05-08T12:03:21Z</time>
      </trkpt>
      <trkpt lat="43.84582" lon="6.89145">
        <ele>679</ele>
        <time>2011-05-08T12:03:22Z</time>
      </trkpt>
      <trkpt lat="43.84588" lon="6.89146">
        <ele>681</ele>
        <time>2011-05-08T12:03:27Z</time>
      </trkpt>
      <trkpt lat="43.84586" lon="6.89136">
        <ele>683</ele>
        <time>2011-05-08T12:03:47Z</time>
      </trkpt>
      <trkpt lat="43.84587" lon="6.89125">
        <ele>682</ele>
        <time>2011-05-08T12:03:51Z</time>
      </trkpt>
      <trkpt lat="43.84587" lon="6.89125">
        <ele>682</ele>
        <time>2011-05-08T12:03:51Z</time>
      </trkpt>
      <trkpt lat="43.84587" lon="6.89125">
        <ele>687</ele>
        <time>2011-05-08T12:04:04Z</time>
      </trkpt>
      <trkpt lat="43.8459" lon="6.89121">
        <ele>687</ele>
        <time>2011-05-08T12:04:09Z</time>
      </trkpt>
      <trkpt lat="43.84595" lon="6.89119">
        <ele>687</ele>
        <time>2011-05-08T12:04:13Z</time>
      </trkpt>
      <trkpt lat="43.84601" lon="6.8911">
        <ele>689</ele>
        <time>2011-05-08T12:04:20Z</time>
      </trkpt>
      <trkpt lat="43.84602" lon="6.89102">
        <ele>690</ele>
        <time>2011-05-08T12:04:24Z</time>
      </trkpt>
      <trkpt lat="43.84606" lon="6.89097">
        <ele>689</ele>
        <time>2011-05-08T12:04:31Z</time>
      </trkpt>
      <trkpt lat="43.84604" lon="6.8909">
        <ele>691</ele>
        <time>2011-05-08T12:04:37Z</time>
      </trkpt>
      <trkpt lat="43.84606" lon="6.89082">
        <ele>692</ele>
        <time>2011-05-08T12:04:44Z</time>
      </trkpt>
      <trkpt lat="43.84611" lon="6.89087">
        <ele>691</ele>
        <time>2011-05-08T12:04:47Z</time>
      </trkpt>
      <trkpt lat="43.84606" lon="6.89092">
        <ele>693</ele>
        <time>2011-05-08T12:05:25Z</time>
      </trkpt>
      <trkpt lat="43.84601" lon="6.89094">
        <ele>693</ele>
        <time>2011-05-08T12:05:28Z</time>
      </trkpt>
      <trkpt lat="43.84596" lon="6.89094">
        <ele>693</ele>
        <time>2011-05-08T12:05:33Z</time>
      </trkpt>
      <trkpt lat="43.8459" lon="6.89093">
        <ele>694</ele>
        <time>2011-05-08T12:05:36Z</time>
      </trkpt>
      <trkpt lat="43.84602" lon="6.89102">
        <ele>693</ele>
        <time>2011-05-08T12:05:45Z</time>
      </trkpt>
      <trkpt lat="43.84596" lon="6.89105">
        <ele>693</ele>
        <time>2011-05-08T12:05:47Z</time>
      </trkpt>
      <trkpt lat="43.84591" lon="6.89098">
        <ele>694</ele>
        <time>2011-05-08T12:05:57Z</time>
      </trkpt>
      <trkpt lat="43.84585" lon="6.89098">
        <ele>695</ele>
        <time>2011-05-08T12:05:58Z</time>
      </trkpt>
      <trkpt lat="43.84549" lon="6.89116">
        <ele>695</ele>
        <time>2011-05-08T12:06:09Z</time>
      </trkpt>
      <trkpt lat="43.84545" lon="6.89113">
        <ele>691</ele>
        <time>2011-05-08T12:06:13Z</time>
      </trkpt>
      <trkpt lat="43.84539" lon="6.89109">
        <ele>688</ele>
        <time>2011-05-08T12:06:15Z</time>
      </trkpt>
      <trkpt lat="43.84531" lon="6.89104">
        <ele>683</ele>
        <time>2011-05-08T12:06:27Z</time>
      </trkpt>
      <trkpt lat="43.84526" lon="6.89105">
        <ele>686</ele>
        <time>2011-05-08T12:06:30Z</time>
      </trkpt>
      <trkpt lat="43.84526" lon="6.89105">
        <ele>686</ele>
        <time>2011-05-08T12:06:30Z</time>
      </trkpt>
      <trkpt lat="43.84526" lon="6.89105">
        <ele>686</ele>
        <time>2011-05-08T12:06:31Z</time>
      </trkpt>
      <trkpt lat="43.8453" lon="6.891">
        <ele>687</ele>
        <time>2011-05-08T12:06:33Z</time>
      </trkpt>
      <trkpt lat="43.8452" lon="6.89096">
        <ele>686</ele>
        <time>2011-05-08T12:06:35Z</time>
      </trkpt>
      <trkpt lat="43.84521" lon="6.8909">
        <ele>683</ele>
        <time>2011-05-08T12:06:37Z</time>
      </trkpt>
      <trkpt lat="43.84483" lon="6.89057">
        <ele>693</ele>
        <time>2011-05-08T12:07:44Z</time>
      </trkpt>
      <trkpt lat="43.84494" lon="6.89048">
        <ele>695</ele>
        <time>2011-05-08T12:07:46Z</time>
      </trkpt>
      <trkpt lat="43.84488" lon="6.89048">
        <ele>696</ele>
        <time>2011-05-08T12:07:51Z</time>
      </trkpt>
      <trkpt lat="43.84482" lon="6.89049">
        <ele>701</ele>
        <time>2011-05-08T12:08:06Z</time>
      </trkpt>
      <trkpt lat="43.84482" lon="6.89049">
        <ele>701</ele>
        <time>2011-05-08T12:08:06Z</time>
      </trkpt>
      <trkpt lat="43.84482" lon="6.89049">
        <ele>700</ele>
        <time>2011-05-08T12:08:09Z</time>
      </trkpt>
      <trkpt lat="43.84475" lon="6.89049">
        <ele>701</ele>
        <time>2011-05-08T12:08:12Z</time>
      </trkpt>
      <trkpt lat="43.84469" lon="6.89048">
        <ele>703</ele>
        <time>2011-05-08T12:08:17Z</time>
      </trkpt>
      <trkpt lat="43.84474" lon="6.89045">
        <ele>703</ele>
        <time>2011-05-08T12:08:18Z</time>
      </trkpt>
      <trkpt lat="43.84467" lon="6.89043">
        <ele>705</ele>
        <time>2011-05-08T12:08:21Z</time>
      </trkpt>
      <trkpt lat="43.84465" lon="6.89035">
        <ele>703</ele>
        <time>2011-05-08T12:08:27Z</time>
      </trkpt>
      <trkpt lat="43.84473" lon="6.89027">
        <ele>704</ele>
        <time>2011-05-08T12:08:28Z</time>
      </trkpt>
      <trkpt lat="43.84477" lon="6.89022">
        <ele>704</ele>
        <time>2011-05-08T12:08:31Z</time>
      </trkpt>
      <trkpt lat="43.8447" lon="6.89023">
        <ele>703</ele>
        <time>2011-05-08T12:08:32Z</time>
      </trkpt>
      <trkpt lat="43.84474" lon="6.89021">
        <ele>703</ele>
        <time>2011-05-08T12:08:33Z</time>
      </trkpt>
      <trkpt lat="43.84469" lon="6.89022">
        <ele>703</ele>
        <time>2011-05-08T12:08:34Z</time>
      </trkpt>
      <trkpt lat="43.84462" lon="6.89023">
        <ele>703</ele>
        <time>2011-05-08T12:08:35Z</time>
      </trkpt>
      <trkpt lat="43.84458" lon="6.89031">
        <ele>701</ele>
        <time>2011-05-08T12:08:38Z</time>
      </trkpt>
      <trkpt lat="43.84475" lon="6.8901">
        <ele>696</ele>
        <time>2011-05-08T12:08:47Z</time>
      </trkpt>
      <trkpt lat="43.84473" lon="6.89016">
        <ele>706</ele>
        <time>2011-05-08T12:09:02Z</time>
      </trkpt>
      <trkpt lat="43.84473" lon="6.89016">
        <ele>706</ele>
        <time>2011-05-08T12:09:02Z</time>
      </trkpt>
      <trkpt lat="43.84473" lon="6.89016">
        <ele>706</ele>
        <time>2011-05-08T12:09:03Z</time>
      </trkpt>
      <trkpt lat="43.8447" lon="6.89011">
        <ele>705</ele>
        <time>2011-05-08T12:09:09Z</time>
      </trkpt>
      <trkpt lat="43.84464" lon="6.89011">
        <ele>705</ele>
        <time>2011-05-08T12:09:15Z</time>
      </trkpt>
      <trkpt lat="43.84459" lon="6.89011">
        <ele>705</ele>
        <time>2011-05-08T12:09:16Z</time>
      </trkpt>
      <trkpt lat="43.84452" lon="6.8901">
        <ele>707</ele>
        <time>2011-05-08T12:09:19Z</time>
      </trkpt>
      <trkpt lat="43.84446" lon="6.89009">
        <ele>708</ele>
        <time>2011-05-08T12:09:21Z</time>
      </trkpt>
      <trkpt lat="43.84441" lon="6.89014">
        <ele>707</ele>
        <time>2011-05-08T12:09:23Z</time>
      </trkpt>
      <trkpt lat="43.84433" lon="6.89014">
        <ele>707</ele>
        <time>2011-05-08T12:09:25Z</time>
      </trkpt>
      <trkpt lat="43.84425" lon="6.89012">
        <ele>706</ele>
        <time>2011-05-08T12:09:31Z</time>
      </trkpt>
      <trkpt lat="43.8443" lon="6.89004">
        <ele>706</ele>
        <time>2011-05-08T12:09:32Z</time>
      </trkpt>
      <trkpt lat="43.84433" lon="6.88998">
        <ele>707</ele>
        <time>2011-05-08T12:09:33Z</time>
      </trkpt>
      <trkpt lat="43.84427" lon="6.88994">
        <ele>706</ele>
        <time>2011-05-08T12:09:36Z</time>
      </trkpt>
      <trkpt lat="43.84437" lon="6.88982">
        <ele>706</ele>
        <time>2011-05-08T12:09:40Z</time>
      </trkpt>
      <trkpt lat="43.84443" lon="6.88978">
        <ele>706</ele>
        <time>2011-05-08T12:09:43Z</time>
      </trkpt>
      <trkpt lat="43.84446" lon="6.88972">
        <ele>706</ele>
        <time>2011-05-08T12:09:45Z</time>
      </trkpt>
      <trkpt lat="43.84445" lon="6.88964">
        <ele>705</ele>
        <time>2011-05-08T12:09:49Z</time>
      </trkpt>
      <trkpt lat="43.84442" lon="6.88959">
        <ele>704</ele>
        <time>2011-05-08T12:09:54Z</time>
      </trkpt>
      <trkpt lat="43.84443" lon="6.88952">
        <ele>706</ele>
        <time>2011-05-08T12:09:59Z</time>
      </trkpt>
      <trkpt lat="43.84448" lon="6.88945">
        <ele>707</ele>
        <time>2011-05-08T12:10:01Z</time>
      </trkpt>
      <trkpt lat="43.84443" lon="6.88944">
        <ele>706</ele>
        <time>2011-05-08T12:10:05Z</time>
      </trkpt>
      <trkpt lat="43.8444" lon="6.88939">
        <ele>707</ele>
        <time>2011-05-08T12:10:11Z</time>
      </trkpt>
      <trkpt lat="43.84434" lon="6.88937">
        <ele>708</ele>
        <time>2011-05-08T12:10:16Z</time>
      </trkpt>
      <trkpt lat="43.8443" lon="6.88937">
        <ele>708</ele>
        <time>2011-05-08T12:10:18Z</time>
      </trkpt>
      <trkpt lat="43.84422" lon="6.88937">
        <ele>710</ele>
        <time>2011-05-08T12:10:21Z</time>
      </trkpt>
      <trkpt lat="43.84418" lon="6.88936">
        <ele>711</ele>
        <time>2011-05-08T12:10:23Z</time>
      </trkpt>
      <trkpt lat="43.84414" lon="6.8893">
        <ele>713</ele>
        <time>2011-05-08T12:10:31Z</time>
      </trkpt>
      <trkpt lat="43.8441" lon="6.88928">
        <ele>713</ele>
        <time>2011-05-08T12:10:35Z</time>
      </trkpt>
      <trkpt lat="43.84414" lon="6.88928">
        <ele>716</ele>
        <time>2011-05-08T12:10:41Z</time>
      </trkpt>
      <trkpt lat="43.84411" lon="6.88919">
        <ele>716</ele>
        <time>2011-05-08T12:10:47Z</time>
      </trkpt>
      <trkpt lat="43.84406" lon="6.88918">
        <ele>715</ele>
        <time>2011-05-08T12:10:49Z</time>
      </trkpt>
      <trkpt lat="43.84404" lon="6.88912">
        <ele>715</ele>
        <time>2011-05-08T12:10:57Z</time>
      </trkpt>
      <trkpt lat="43.84404" lon="6.88906">
        <ele>718</ele>
        <time>2011-05-08T12:11:06Z</time>
      </trkpt>
      <trkpt lat="43.84404" lon="6.88899">
        <ele>718</ele>
        <time>2011-05-08T12:11:12Z</time>
      </trkpt>
      <trkpt lat="43.84398" lon="6.88898">
        <ele>717</ele>
        <time>2011-05-08T12:11:18Z</time>
      </trkpt>
      <trkpt lat="43.84395" lon="6.88893">
        <ele>718</ele>
        <time>2011-05-08T12:11:24Z</time>
      </trkpt>
      <trkpt lat="43.84388" lon="6.88893">
        <ele>720</ele>
        <time>2011-05-08T12:11:30Z</time>
      </trkpt>
      <trkpt lat="43.8439" lon="6.88887">
        <ele>721</ele>
        <time>2011-05-08T12:11:32Z</time>
      </trkpt>
      <trkpt lat="43.84386" lon="6.88881">
        <ele>721</ele>
        <time>2011-05-08T12:11:39Z</time>
      </trkpt>
      <trkpt lat="43.84379" lon="6.88876">
        <ele>722</ele>
        <time>2011-05-08T12:11:46Z</time>
      </trkpt>
      <trkpt lat="43.8437" lon="6.88867">
        <ele>728</ele>
        <time>2011-05-08T12:12:04Z</time>
      </trkpt>
      <trkpt lat="43.84365" lon="6.88872">
        <ele>728</ele>
        <time>2011-05-08T12:12:07Z</time>
      </trkpt>
      <trkpt lat="43.8436" lon="6.88875">
        <ele>730</ele>
        <time>2011-05-08T12:12:08Z</time>
      </trkpt>
      <trkpt lat="43.84358" lon="6.88869">
        <ele>734</ele>
        <time>2011-05-08T12:12:19Z</time>
      </trkpt>
      <trkpt lat="43.84353" lon="6.88872">
        <ele>734</ele>
        <time>2011-05-08T12:12:20Z</time>
      </trkpt>
      <trkpt lat="43.84348" lon="6.88871">
        <ele>735</ele>
        <time>2011-05-08T12:12:24Z</time>
      </trkpt>
      <trkpt lat="43.84347" lon="6.88865">
        <ele>733</ele>
        <time>2011-05-08T12:12:29Z</time>
      </trkpt>
      <trkpt lat="43.84343" lon="6.88861">
        <ele>733</ele>
        <time>2011-05-08T12:12:35Z</time>
      </trkpt>
      <trkpt lat="43.84338" lon="6.88859">
        <ele>733</ele>
        <time>2011-05-08T12:12:41Z</time>
      </trkpt>
      <trkpt lat="43.84333" lon="6.88855">
        <ele>734</ele>
        <time>2011-05-08T12:12:46Z</time>
      </trkpt>
      <trkpt lat="43.84326" lon="6.8885">
        <ele>738</ele>
        <time>2011-05-08T12:12:57Z</time>
      </trkpt>
      <trkpt lat="43.84323" lon="6.88844">
        <ele>738</ele>
        <time>2011-05-08T12:13:02Z</time>
      </trkpt>
      <trkpt lat="43.84317" lon="6.8884">
        <ele>734</ele>
        <time>2011-05-08T12:13:13Z</time>
      </trkpt>
      <trkpt lat="43.84317" lon="6.88832">
        <ele>737</ele>
        <time>2011-05-08T12:13:21Z</time>
      </trkpt>
      <trkpt lat="43.84312" lon="6.88829">
        <ele>736</ele>
        <time>2011-05-08T12:13:25Z</time>
      </trkpt>
      <trkpt lat="43.84308" lon="6.88826">
        <ele>736</ele>
        <time>2011-05-08T12:13:32Z</time>
      </trkpt>
      <trkpt lat="43.84308" lon="6.8882">
        <ele>737</ele>
        <time>2011-05-08T12:13:38Z</time>
      </trkpt>
      <trkpt lat="43.84302" lon="6.88819">
        <ele>739</ele>
        <time>2011-05-08T12:13:41Z</time>
      </trkpt>
      <trkpt lat="43.84298" lon="6.88812">
        <ele>741</ele>
        <time>2011-05-08T12:13:48Z</time>
      </trkpt>
      <trkpt lat="43.84302" lon="6.88805">
        <ele>742</ele>
        <time>2011-05-08T12:13:52Z</time>
      </trkpt>
      <trkpt lat="43.84297" lon="6.88805">
        <ele>743</ele>
        <time>2011-05-08T12:13:57Z</time>
      </trkpt>
      <trkpt lat="43.84293" lon="6.88801">
        <ele>745</ele>
        <time>2011-05-08T12:14:01Z</time>
      </trkpt>
      <trkpt lat="43.84296" lon="6.88796">
        <ele>746</ele>
        <time>2011-05-08T12:14:03Z</time>
      </trkpt>
      <trkpt lat="43.84298" lon="6.8879">
        <ele>746</ele>
        <time>2011-05-08T12:14:07Z</time>
      </trkpt>
      <trkpt lat="43.84293" lon="6.88785">
        <ele>745</ele>
        <time>2011-05-08T12:14:11Z</time>
      </trkpt>
      <trkpt lat="43.8429" lon="6.8878">
        <ele>744</ele>
        <time>2011-05-08T12:14:16Z</time>
      </trkpt>
      <trkpt lat="43.84294" lon="6.88774">
        <ele>744</ele>
        <time>2011-05-08T12:14:18Z</time>
      </trkpt>
      <trkpt lat="43.8429" lon="6.88768">
        <ele>744</ele>
        <time>2011-05-08T12:14:23Z</time>
      </trkpt>
      <trkpt lat="43.84291" lon="6.88762">
        <ele>746</ele>
        <time>2011-05-08T12:14:28Z</time>
      </trkpt>
      <trkpt lat="43.84295" lon="6.88757">
        <ele>747</ele>
        <time>2011-05-08T12:14:30Z</time>
      </trkpt>
      <trkpt lat="43.8429" lon="6.88757">
        <ele>748</ele>
        <time>2011-05-08T12:14:33Z</time>
      </trkpt>
      <trkpt lat="43.84284" lon="6.88758">
        <ele>749</ele>
        <time>2011-05-08T12:14:36Z</time>
      </trkpt>
      <trkpt lat="43.84281" lon="6.88753">
        <ele>748</ele>
        <time>2011-05-08T12:14:39Z</time>
      </trkpt>
      <trkpt lat="43.84276" lon="6.8875">
        <ele>749</ele>
        <time>2011-05-08T12:14:43Z</time>
      </trkpt>
      <trkpt lat="43.84271" lon="6.88747">
        <ele>749</ele>
        <time>2011-05-08T12:14:49Z</time>
      </trkpt>
      <trkpt lat="43.84271" lon="6.88741">
        <ele>749</ele>
        <time>2011-05-08T12:14:54Z</time>
      </trkpt>
      <trkpt lat="43.84272" lon="6.88734">
        <ele>749</ele>
        <time>2011-05-08T12:14:58Z</time>
      </trkpt>
      <trkpt lat="43.84271" lon="6.88728">
        <ele>750</ele>
        <time>2011-05-08T12:15:03Z</time>
      </trkpt>
      <trkpt lat="43.84269" lon="6.88721">
        <ele>750</ele>
        <time>2011-05-08T12:15:07Z</time>
      </trkpt>
      <trkpt lat="43.84268" lon="6.88714">
        <ele>750</ele>
        <time>2011-05-08T12:15:11Z</time>
      </trkpt>
      <trkpt lat="43.84263" lon="6.88709">
        <ele>751</ele>
        <time>2011-05-08T12:15:17Z</time>
      </trkpt>
      <trkpt lat="43.84263" lon="6.88709">
        <ele>751</ele>
        <time>2011-05-08T12:15:17Z</time>
      </trkpt>
      <trkpt lat="43.84263" lon="6.88709">
        <ele>751</ele>
        <time>2011-05-08T12:15:18Z</time>
      </trkpt>
      <trkpt lat="43.84258" lon="6.88709">
        <ele>751</ele>
        <time>2011-05-08T12:15:22Z</time>
      </trkpt>
      <trkpt lat="43.84252" lon="6.88706">
        <ele>751</ele>
        <time>2011-05-08T12:15:27Z</time>
      </trkpt>
      <trkpt lat="43.84255" lon="6.887">
        <ele>752</ele>
        <time>2011-05-08T12:15:32Z</time>
      </trkpt>
      <trkpt lat="43.84255" lon="6.887">
        <ele>752</ele>
        <time>2011-05-08T12:15:32Z</time>
      </trkpt>
      <trkpt lat="43.84255" lon="6.887">
        <ele>752</ele>
        <time>2011-05-08T12:15:33Z</time>
      </trkpt>
      <trkpt lat="43.84259" lon="6.88694">
        <ele>755</ele>
        <time>2011-05-08T12:15:38Z</time>
      </trkpt>
      <trkpt lat="43.84252" lon="6.88694">
        <ele>754</ele>
        <time>2011-05-08T12:16:13Z</time>
      </trkpt>
      <trkpt lat="43.84256" lon="6.88691">
        <ele>754</ele>
        <time>2011-05-08T12:16:14Z</time>
      </trkpt>
      <trkpt lat="43.8425" lon="6.88692">
        <ele>753</ele>
        <time>2011-05-08T12:16:16Z</time>
      </trkpt>
      <trkpt lat="43.84247" lon="6.88699">
        <ele>755</ele>
        <time>2011-05-08T12:16:18Z</time>
      </trkpt>
      <trkpt lat="43.84241" lon="6.88704">
        <ele>756</ele>
        <time>2011-05-08T12:16:25Z</time>
      </trkpt>
      <trkpt lat="43.84232" lon="6.88713">
        <ele>757</ele>
        <time>2011-05-08T12:16:27Z</time>
      </trkpt>
      <trkpt lat="43.84228" lon="6.8872">
        <ele>757</ele>
        <time>2011-05-08T12:16:28Z</time>
      </trkpt>
      <trkpt lat="43.84222" lon="6.88724">
        <ele>758</ele>
        <time>2011-05-08T12:16:30Z</time>
      </trkpt>
      <trkpt lat="43.84217" lon="6.8873">
        <ele>758</ele>
        <time>2011-05-08T12:16:31Z</time>
      </trkpt>
      <trkpt lat="43.84237" lon="6.88724">
        <ele>764</ele>
        <time>2011-05-08T12:16:52Z</time>
      </trkpt>
      <trkpt lat="43.84245" lon="6.88717">
        <ele>761</ele>
        <time>2011-05-08T12:16:54Z</time>
      </trkpt>
      <trkpt lat="43.84264" lon="6.887">
        <ele>760</ele>
        <time>2011-05-08T12:16:55Z</time>
      </trkpt>
      <trkpt lat="43.8427" lon="6.88695">
        <ele>760</ele>
        <time>2011-05-08T12:16:57Z</time>
      </trkpt>
      <trkpt lat="43.84274" lon="6.88691">
        <ele>760</ele>
        <time>2011-05-08T12:16:58Z</time>
      </trkpt>
      <trkpt lat="43.84279" lon="6.88688">
        <ele>759</ele>
        <time>2011-05-08T12:17:00Z</time>
      </trkpt>
      <trkpt lat="43.84284" lon="6.88679">
        <ele>760</ele>
        <time>2011-05-08T12:17:06Z</time>
      </trkpt>
      <trkpt lat="43.84288" lon="6.88676">
        <ele>763</ele>
        <time>2011-05-08T12:17:12Z</time>
      </trkpt>
      <trkpt lat="43.84276" lon="6.88682">
        <ele>767</ele>
        <time>2011-05-08T12:17:19Z</time>
      </trkpt>
      <trkpt lat="43.84276" lon="6.88675">
        <ele>766</ele>
        <time>2011-05-08T12:17:32Z</time>
      </trkpt>
      <trkpt lat="43.8427" lon="6.88674">
        <ele>764</ele>
        <time>2011-05-08T12:17:38Z</time>
      </trkpt>
      <trkpt lat="43.84265" lon="6.88677">
        <ele>763</ele>
        <time>2011-05-08T12:17:40Z</time>
      </trkpt>
      <trkpt lat="43.84259" lon="6.88678">
        <ele>763</ele>
        <time>2011-05-08T12:17:41Z</time>
      </trkpt>
      <trkpt lat="43.84264" lon="6.88683">
        <ele>761</ele>
        <time>2011-05-08T12:17:48Z</time>
      </trkpt>
      <trkpt lat="43.84258" lon="6.88684">
        <ele>758</ele>
        <time>2011-05-08T12:17:54Z</time>
      </trkpt>
      <trkpt lat="43.84258" lon="6.88684">
        <ele>758</ele>
        <time>2011-05-08T12:17:54Z</time>
      </trkpt>
      <trkpt lat="43.84258" lon="6.88684">
        <ele>758</ele>
        <time>2011-05-08T12:17:55Z</time>
      </trkpt>
      <trkpt lat="43.84253" lon="6.88682">
        <ele>761</ele>
        <time>2011-05-08T12:18:06Z</time>
      </trkpt>
      <trkpt lat="43.84253" lon="6.88682">
        <ele>761</ele>
        <time>2011-05-08T12:18:06Z</time>
      </trkpt>
      <trkpt lat="43.84253" lon="6.88682">
        <ele>761</ele>
        <time>2011-05-08T12:18:07Z</time>
      </trkpt>
      <trkpt lat="43.84257" lon="6.88677">
        <ele>760</ele>
        <time>2011-05-08T12:18:10Z</time>
      </trkpt>
      <trkpt lat="43.84253" lon="6.88673">
        <ele>762</ele>
        <time>2011-05-08T12:18:14Z</time>
      </trkpt>
      <trkpt lat="43.84248" lon="6.88672">
        <ele>763</ele>
        <time>2011-05-08T12:18:18Z</time>
      </trkpt>
      <trkpt lat="43.84243" lon="6.8867">
        <ele>762</ele>
        <time>2011-05-08T12:18:21Z</time>
      </trkpt>
      <trkpt lat="43.84238" lon="6.88667">
        <ele>761</ele>
        <time>2011-05-08T12:18:27Z</time>
      </trkpt>
      <trkpt lat="43.84234" lon="6.88661">
        <ele>759</ele>
        <time>2011-05-08T12:18:33Z</time>
      </trkpt>
      <trkpt lat="43.8423" lon="6.88656">
        <ele>763</ele>
        <time>2011-05-08T12:18:41Z</time>
      </trkpt>
      <trkpt lat="43.84224" lon="6.88654">
        <ele>763</ele>
        <time>2011-05-08T12:18:48Z</time>
      </trkpt>
      <trkpt lat="43.84219" lon="6.88654">
        <ele>765</ele>
        <time>2011-05-08T12:18:57Z</time>
      </trkpt>
      <trkpt lat="43.84214" lon="6.88657">
        <ele>766</ele>
        <time>2011-05-08T12:18:59Z</time>
      </trkpt>
      <trkpt lat="43.84209" lon="6.88658">
        <ele>766</ele>
        <time>2011-05-08T12:19:09Z</time>
      </trkpt>
      <trkpt lat="43.84202" lon="6.88655">
        <ele>765</ele>
        <time>2011-05-08T12:19:12Z</time>
      </trkpt>
      <trkpt lat="43.84197" lon="6.88657">
        <ele>765</ele>
        <time>2011-05-08T12:19:15Z</time>
      </trkpt>
      <trkpt lat="43.84191" lon="6.88658">
        <ele>766</ele>
        <time>2011-05-08T12:19:19Z</time>
      </trkpt>
      <trkpt lat="43.84186" lon="6.88656">
        <ele>765</ele>
        <time>2011-05-08T12:19:22Z</time>
      </trkpt>
      <trkpt lat="43.84182" lon="6.88659">
        <ele>767</ele>
        <time>2011-05-08T12:19:28Z</time>
      </trkpt>
      <trkpt lat="43.84177" lon="6.88655">
        <ele>769</ele>
        <time>2011-05-08T12:19:33Z</time>
      </trkpt>
      <trkpt lat="43.84174" lon="6.88649">
        <ele>771</ele>
        <time>2011-05-08T12:19:41Z</time>
      </trkpt>
      <trkpt lat="43.84169" lon="6.88648">
        <ele>771</ele>
        <time>2011-05-08T12:19:45Z</time>
      </trkpt>
      <trkpt lat="43.84164" lon="6.88643">
        <ele>772</ele>
        <time>2011-05-08T12:19:49Z</time>
      </trkpt>
      <trkpt lat="43.84159" lon="6.88643">
        <ele>772</ele>
        <time>2011-05-08T12:19:54Z</time>
      </trkpt>
      <trkpt lat="43.84153" lon="6.8864">
        <ele>771</ele>
        <time>2011-05-08T12:19:59Z</time>
      </trkpt>
      <trkpt lat="43.84146" lon="6.88637">
        <ele>771</ele>
        <time>2011-05-08T12:20:02Z</time>
      </trkpt>
      <trkpt lat="43.84145" lon="6.88631">
        <ele>771</ele>
        <time>2011-05-08T12:20:09Z</time>
      </trkpt>
      <trkpt lat="43.84149" lon="6.88626">
        <ele>770</ele>
        <time>2011-05-08T12:20:19Z</time>
      </trkpt>
      <trkpt lat="43.84153" lon="6.8862">
        <ele>770</ele>
        <time>2011-05-08T12:20:20Z</time>
      </trkpt>
      <trkpt lat="43.84152" lon="6.88613">
        <ele>770</ele>
        <time>2011-05-08T12:20:25Z</time>
      </trkpt>
      <trkpt lat="43.84149" lon="6.88607">
        <ele>769</ele>
        <time>2011-05-08T12:20:31Z</time>
      </trkpt>
      <trkpt lat="43.84148" lon="6.88614">
        <ele>770</ele>
        <time>2011-05-08T12:20:38Z</time>
      </trkpt>
      <trkpt lat="43.84143" lon="6.88618">
        <ele>771</ele>
        <time>2011-05-08T12:20:43Z</time>
      </trkpt>
      <trkpt lat="43.84134" lon="6.88626">
        <ele>772</ele>
        <time>2011-05-08T12:20:58Z</time>
      </trkpt>
      <trkpt lat="43.84137" lon="6.8862">
        <ele>772</ele>
        <time>2011-05-08T12:20:59Z</time>
      </trkpt>
      <trkpt lat="43.84132" lon="6.88616">
        <ele>773</ele>
        <time>2011-05-08T12:21:07Z</time>
      </trkpt>
      <trkpt lat="43.84125" lon="6.88632">
        <ele>775</ele>
        <time>2011-05-08T12:21:20Z</time>
      </trkpt>
      <trkpt lat="43.84129" lon="6.8863">
        <ele>770</ele>
        <time>2011-05-08T12:21:22Z</time>
      </trkpt>
      <trkpt lat="43.84116" lon="6.88631">
        <ele>752</ele>
        <time>2011-05-08T12:21:35Z</time>
      </trkpt>
      <trkpt lat="43.84125" lon="6.88627">
        <ele>756</ele>
        <time>2011-05-08T12:21:36Z</time>
      </trkpt>
      <trkpt lat="43.84118" lon="6.88631">
        <ele>764</ele>
        <time>2011-05-08T12:21:45Z</time>
      </trkpt>
      <trkpt lat="43.84112" lon="6.88631">
        <ele>761</ele>
        <time>2011-05-08T12:21:47Z</time>
      </trkpt>
      <trkpt lat="43.84112" lon="6.88631">
        <ele>761</ele>
        <time>2011-05-08T12:21:47Z</time>
      </trkpt>
      <trkpt lat="43.84112" lon="6.88631">
        <ele>761</ele>
        <time>2011-05-08T12:21:48Z</time>
      </trkpt>
      <trkpt lat="43.84117" lon="6.88629">
        <ele>770</ele>
        <time>2011-05-08T12:21:57Z</time>
      </trkpt>
      <trkpt lat="43.84121" lon="6.88624">
        <ele>780</ele>
        <time>2011-05-08T12:22:02Z</time>
      </trkpt>
      <trkpt lat="43.84118" lon="6.88629">
        <ele>777</ele>
        <time>2011-05-08T12:22:48Z</time>
      </trkpt>
      <trkpt lat="43.84122" lon="6.88625">
        <ele>777</ele>
        <time>2011-05-08T12:22:51Z</time>
      </trkpt>
      <trkpt lat="43.84119" lon="6.88618">
        <ele>777</ele>
        <time>2011-05-08T12:22:55Z</time>
      </trkpt>
      <trkpt lat="43.84123" lon="6.88609">
        <ele>776</ele>
        <time>2011-05-08T12:22:58Z</time>
      </trkpt>
      <trkpt lat="43.84125" lon="6.88602">
        <ele>775</ele>
        <time>2011-05-08T12:23:10Z</time>
      </trkpt>
      <trkpt lat="43.8413" lon="6.88596">
        <ele>775</ele>
        <time>2011-05-08T12:23:12Z</time>
      </trkpt>
      <trkpt lat="43.84136" lon="6.88589">
        <ele>775</ele>
        <time>2011-05-08T12:23:14Z</time>
      </trkpt>
      <trkpt lat="43.8414" lon="6.88584">
        <ele>775</ele>
        <time>2011-05-08T12:23:16Z</time>
      </trkpt>
      <trkpt lat="43.84142" lon="6.88577">
        <ele>776</ele>
        <time>2011-05-08T12:23:20Z</time>
      </trkpt>
      <trkpt lat="43.84142" lon="6.88577">
        <ele>776</ele>
        <time>2011-05-08T12:23:20Z</time>
      </trkpt>
      <trkpt lat="43.84142" lon="6.88577">
        <ele>776</ele>
        <time>2011-05-08T12:23:21Z</time>
      </trkpt>
      <trkpt lat="43.84145" lon="6.88571">
        <ele>774</ele>
        <time>2011-05-08T12:23:25Z</time>
      </trkpt>
      <trkpt lat="43.84153" lon="6.88565">
        <ele>778</ele>
        <time>2011-05-08T12:23:31Z</time>
      </trkpt>
      <trkpt lat="43.84147" lon="6.88568">
        <ele>775</ele>
        <time>2011-05-08T12:23:32Z</time>
      </trkpt>
      <trkpt lat="43.84141" lon="6.88571">
        <ele>777</ele>
        <time>2011-05-08T12:23:33Z</time>
      </trkpt>
      <trkpt lat="43.84142" lon="6.88564">
        <ele>776</ele>
        <time>2011-05-08T12:23:34Z</time>
      </trkpt>
      <trkpt lat="43.84147" lon="6.88557">
        <ele>776</ele>
        <time>2011-05-08T12:23:41Z</time>
      </trkpt>
      <trkpt lat="43.84151" lon="6.88548">
        <ele>780</ele>
        <time>2011-05-08T12:23:46Z</time>
      </trkpt>
      <trkpt lat="43.84146" lon="6.88546">
        <ele>780</ele>
        <time>2011-05-08T12:23:49Z</time>
      </trkpt>
      <trkpt lat="43.84156" lon="6.88533">
        <ele>781</ele>
        <time>2011-05-08T12:23:58Z</time>
      </trkpt>
      <trkpt lat="43.8415" lon="6.88527">
        <ele>782</ele>
        <time>2011-05-08T12:24:00Z</time>
      </trkpt>
      <trkpt lat="43.84154" lon="6.88522">
        <ele>783</ele>
        <time>2011-05-08T12:24:10Z</time>
      </trkpt>
      <trkpt lat="43.8416" lon="6.88521">
        <ele>783</ele>
        <time>2011-05-08T12:24:12Z</time>
      </trkpt>
      <trkpt lat="43.84162" lon="6.88514">
        <ele>783</ele>
        <time>2011-05-08T12:24:16Z</time>
      </trkpt>
      <trkpt lat="43.84163" lon="6.88521">
        <ele>782</ele>
        <time>2011-05-08T12:24:18Z</time>
      </trkpt>
      <trkpt lat="43.84167" lon="6.88517">
        <ele>781</ele>
        <time>2011-05-08T12:24:37Z</time>
      </trkpt>
      <trkpt lat="43.84162" lon="6.88518">
        <ele>779</ele>
        <time>2011-05-08T12:24:39Z</time>
      </trkpt>
      <trkpt lat="43.84162" lon="6.88518">
        <ele>779</ele>
        <time>2011-05-08T12:24:39Z</time>
      </trkpt>
      <trkpt lat="43.84162" lon="6.88518">
        <ele>779</ele>
        <time>2011-05-08T12:24:41Z</time>
      </trkpt>
      <trkpt lat="43.84157" lon="6.88517">
        <ele>779</ele>
        <time>2011-05-08T12:24:42Z</time>
      </trkpt>
      <trkpt lat="43.84153" lon="6.88519">
        <ele>779</ele>
        <time>2011-05-08T12:24:44Z</time>
      </trkpt>
      <trkpt lat="43.84146" lon="6.88525">
        <ele>779</ele>
        <time>2011-05-08T12:24:47Z</time>
      </trkpt>
      <trkpt lat="43.84147" lon="6.88517">
        <ele>779</ele>
        <time>2011-05-08T12:24:54Z</time>
      </trkpt>
      <trkpt lat="43.84142" lon="6.88517">
        <ele>779</ele>
        <time>2011-05-08T12:24:57Z</time>
      </trkpt>
      <trkpt lat="43.84137" lon="6.88517">
        <ele>779</ele>
        <time>2011-05-08T12:24:58Z</time>
      </trkpt>
      <trkpt lat="43.84138" lon="6.88511">
        <ele>783</ele>
        <time>2011-05-08T12:25:03Z</time>
      </trkpt>
      <trkpt lat="43.84139" lon="6.88503">
        <ele>782</ele>
        <time>2011-05-08T12:25:08Z</time>
      </trkpt>
      <trkpt lat="43.84138" lon="6.88496">
        <ele>782</ele>
        <time>2011-05-08T12:25:12Z</time>
      </trkpt>
      <trkpt lat="43.84133" lon="6.88494">
        <ele>783</ele>
        <time>2011-05-08T12:25:15Z</time>
      </trkpt>
      <trkpt lat="43.84136" lon="6.88488">
        <ele>783</ele>
        <time>2011-05-08T12:25:20Z</time>
      </trkpt>
      <trkpt lat="43.84138" lon="6.88482">
        <ele>783</ele>
        <time>2011-05-08T12:25:23Z</time>
      </trkpt>
      <trkpt lat="43.84133" lon="6.88477">
        <ele>783</ele>
        <time>2011-05-08T12:25:27Z</time>
      </trkpt>
      <trkpt lat="43.84134" lon="6.8847">
        <ele>783</ele>
        <time>2011-05-08T12:25:30Z</time>
      </trkpt>
      <trkpt lat="43.84132" lon="6.88464">
        <ele>783</ele>
        <time>2011-05-08T12:25:35Z</time>
      </trkpt>
      <trkpt lat="43.84133" lon="6.88458">
        <ele>785</ele>
        <time>2011-05-08T12:25:38Z</time>
      </trkpt>
      <trkpt lat="43.84134" lon="6.88452">
        <ele>784</ele>
        <time>2011-05-08T12:25:41Z</time>
      </trkpt>
      <trkpt lat="43.84137" lon="6.88444">
        <ele>784</ele>
        <time>2011-05-08T12:25:44Z</time>
      </trkpt>
      <trkpt lat="43.84136" lon="6.88437">
        <ele>785</ele>
        <time>2011-05-08T12:25:51Z</time>
      </trkpt>
      <trkpt lat="43.84139" lon="6.88429">
        <ele>786</ele>
        <time>2011-05-08T12:25:53Z</time>
      </trkpt>
      <trkpt lat="43.84141" lon="6.88421">
        <ele>789</ele>
        <time>2011-05-08T12:25:59Z</time>
      </trkpt>
      <trkpt lat="43.84137" lon="6.88417">
        <ele>789</ele>
        <time>2011-05-08T12:26:09Z</time>
      </trkpt>
      <trkpt lat="43.84141" lon="6.88407">
        <ele>789</ele>
        <time>2011-05-08T12:26:13Z</time>
      </trkpt>
      <trkpt lat="43.84143" lon="6.88401">
        <ele>787</ele>
        <time>2011-05-08T12:26:16Z</time>
      </trkpt>
      <trkpt lat="43.84143" lon="6.88401">
        <ele>787</ele>
        <time>2011-05-08T12:26:16Z</time>
      </trkpt>
      <trkpt lat="43.84143" lon="6.88401">
        <ele>788</ele>
        <time>2011-05-08T12:26:23Z</time>
      </trkpt>
      <trkpt lat="43.8415" lon="6.88398">
        <ele>789</ele>
        <time>2011-05-08T12:27:00Z</time>
      </trkpt>
      <trkpt lat="43.84154" lon="6.88391">
        <ele>792</ele>
        <time>2011-05-08T12:27:12Z</time>
      </trkpt>
      <trkpt lat="43.84149" lon="6.88392">
        <ele>794</ele>
        <time>2011-05-08T12:27:20Z</time>
      </trkpt>
      <trkpt lat="43.84144" lon="6.88392">
        <ele>793</ele>
        <time>2011-05-08T12:27:28Z</time>
      </trkpt>
      <trkpt lat="43.84141" lon="6.88386">
        <ele>792</ele>
        <time>2011-05-08T12:27:32Z</time>
      </trkpt>
      <trkpt lat="43.84145" lon="6.88382">
        <ele>795</ele>
        <time>2011-05-08T12:27:39Z</time>
      </trkpt>
      <trkpt lat="43.84145" lon="6.88382">
        <ele>795</ele>
        <time>2011-05-08T12:27:39Z</time>
      </trkpt>
      <trkpt lat="43.84145" lon="6.88382">
        <ele>795</ele>
        <time>2011-05-08T12:27:40Z</time>
      </trkpt>
      <trkpt lat="43.84139" lon="6.88382">
        <ele>793</ele>
        <time>2011-05-08T12:27:44Z</time>
      </trkpt>
      <trkpt lat="43.84141" lon="6.88377">
        <ele>793</ele>
        <time>2011-05-08T12:27:46Z</time>
      </trkpt>
      <trkpt lat="43.8414" lon="6.8837">
        <ele>794</ele>
        <time>2011-05-08T12:27:53Z</time>
      </trkpt>
      <trkpt lat="43.84142" lon="6.88363">
        <ele>794</ele>
        <time>2011-05-08T12:27:59Z</time>
      </trkpt>
      <trkpt lat="43.84139" lon="6.88358">
        <ele>793</ele>
        <time>2011-05-08T12:28:03Z</time>
      </trkpt>
      <trkpt lat="43.84141" lon="6.88351">
        <ele>793</ele>
        <time>2011-05-08T12:28:06Z</time>
      </trkpt>
      <trkpt lat="43.84134" lon="6.8835">
        <ele>795</ele>
        <time>2011-05-08T12:28:11Z</time>
      </trkpt>
      <trkpt lat="43.84129" lon="6.88355">
        <ele>794</ele>
        <time>2011-05-08T12:28:13Z</time>
      </trkpt>
      <trkpt lat="43.84126" lon="6.88361">
        <ele>792</ele>
        <time>2011-05-08T12:28:16Z</time>
      </trkpt>
      <trkpt lat="43.84122" lon="6.88358">
        <ele>790</ele>
        <time>2011-05-08T12:28:20Z</time>
      </trkpt>
      <trkpt lat="43.84118" lon="6.88356">
        <ele>793</ele>
        <time>2011-05-08T12:28:25Z</time>
      </trkpt>
      <trkpt lat="43.84113" lon="6.88354">
        <ele>796</ele>
        <time>2011-05-08T12:28:33Z</time>
      </trkpt>
      <trkpt lat="43.84116" lon="6.88346">
        <ele>795</ele>
        <time>2011-05-08T12:28:35Z</time>
      </trkpt>
      <trkpt lat="43.8412" lon="6.88339">
        <ele>796</ele>
        <time>2011-05-08T12:28:37Z</time>
      </trkpt>
      <trkpt lat="43.84122" lon="6.8833">
        <ele>797</ele>
        <time>2011-05-08T12:28:42Z</time>
      </trkpt>
      <trkpt lat="43.84122" lon="6.88323">
        <ele>796</ele>
        <time>2011-05-08T12:28:51Z</time>
      </trkpt>
      <trkpt lat="43.84117" lon="6.88322">
        <ele>796</ele>
        <time>2011-05-08T12:28:54Z</time>
      </trkpt>
      <trkpt lat="43.84122" lon="6.88317">
        <ele>797</ele>
        <time>2011-05-08T12:28:58Z</time>
      </trkpt>
      <trkpt lat="43.84122" lon="6.88317">
        <ele>797</ele>
        <time>2011-05-08T12:28:58Z</time>
      </trkpt>
      <trkpt lat="43.84122" lon="6.88317">
        <ele>797</ele>
        <time>2011-05-08T12:28:59Z</time>
      </trkpt>
      <trkpt lat="43.84125" lon="6.88311">
        <ele>796</ele>
        <time>2011-05-08T12:29:01Z</time>
      </trkpt>
      <trkpt lat="43.84127" lon="6.88306">
        <ele>797</ele>
        <time>2011-05-08T12:29:03Z</time>
      </trkpt>
      <trkpt lat="43.84126" lon="6.88298">
        <ele>796</ele>
        <time>2011-05-08T12:29:06Z</time>
      </trkpt>
      <trkpt lat="43.84128" lon="6.88292">
        <ele>795</ele>
        <time>2011-05-08T12:29:08Z</time>
      </trkpt>
      <trkpt lat="43.84126" lon="6.88285">
        <ele>794</ele>
        <time>2011-05-08T12:29:13Z</time>
      </trkpt>
      <trkpt lat="43.84125" lon="6.88277">
        <ele>795</ele>
        <time>2011-05-08T12:29:16Z</time>
      </trkpt>
      <trkpt lat="43.84125" lon="6.88271">
        <ele>797</ele>
        <time>2011-05-08T12:29:20Z</time>
      </trkpt>
      <trkpt lat="43.84125" lon="6.88264">
        <ele>798</ele>
        <time>2011-05-08T12:29:28Z</time>
      </trkpt>
      <trkpt lat="43.84128" lon="6.88257">
        <ele>801</ele>
        <time>2011-05-08T12:29:32Z</time>
      </trkpt>
      <trkpt lat="43.84127" lon="6.8825">
        <ele>801</ele>
        <time>2011-05-08T12:29:40Z</time>
      </trkpt>
      <trkpt lat="43.8413" lon="6.88244">
        <ele>801</ele>
        <time>2011-05-08T12:29:44Z</time>
      </trkpt>
      <trkpt lat="43.84125" lon="6.88239">
        <ele>799</ele>
        <time>2011-05-08T12:29:56Z</time>
      </trkpt>
      <trkpt lat="43.8413" lon="6.88233">
        <ele>799</ele>
        <time>2011-05-08T12:29:58Z</time>
      </trkpt>
      <trkpt lat="43.84131" lon="6.88225">
        <ele>798</ele>
        <time>2011-05-08T12:30:04Z</time>
      </trkpt>
      <trkpt lat="43.84132" lon="6.88219">
        <ele>797</ele>
        <time>2011-05-08T12:30:09Z</time>
      </trkpt>
      <trkpt lat="43.84134" lon="6.88211">
        <ele>797</ele>
        <time>2011-05-08T12:30:12Z</time>
      </trkpt>
      <trkpt lat="43.84133" lon="6.88204">
        <ele>797</ele>
        <time>2011-05-08T12:30:15Z</time>
      </trkpt>
      <trkpt lat="43.84134" lon="6.88198">
        <ele>799</ele>
        <time>2011-05-08T12:30:24Z</time>
      </trkpt>
      <trkpt lat="43.84139" lon="6.88191">
        <ele>800</ele>
        <time>2011-05-08T12:30:28Z</time>
      </trkpt>
      <trkpt lat="43.84143" lon="6.88187">
        <ele>800</ele>
        <time>2011-05-08T12:30:30Z</time>
      </trkpt>
      <trkpt lat="43.84138" lon="6.88183">
        <ele>800</ele>
        <time>2011-05-08T12:30:41Z</time>
      </trkpt>
      <trkpt lat="43.8414" lon="6.88177">
        <ele>798</ele>
        <time>2011-05-08T12:30:46Z</time>
      </trkpt>
      <trkpt lat="43.84144" lon="6.88173">
        <ele>799</ele>
        <time>2011-05-08T12:30:48Z</time>
      </trkpt>
      <trkpt lat="43.84139" lon="6.88172">
        <ele>801</ele>
        <time>2011-05-08T12:30:53Z</time>
      </trkpt>
      <trkpt lat="43.84143" lon="6.88174">
        <ele>800</ele>
        <time>2011-05-08T12:31:02Z</time>
      </trkpt>
      <trkpt lat="43.84147" lon="6.8817">
        <ele>800</ele>
        <time>2011-05-08T12:31:06Z</time>
      </trkpt>
      <trkpt lat="43.84147" lon="6.8817">
        <ele>800</ele>
        <time>2011-05-08T12:31:06Z</time>
      </trkpt>
      <trkpt lat="43.84147" lon="6.8817">
        <ele>799</ele>
        <time>2011-05-08T12:31:22Z</time>
      </trkpt>
      <trkpt lat="43.84147" lon="6.88164">
        <ele>801</ele>
        <time>2011-05-08T12:31:34Z</time>
      </trkpt>
      <trkpt lat="43.84148" lon="6.88157">
        <ele>801</ele>
        <time>2011-05-08T12:31:37Z</time>
      </trkpt>
      <trkpt lat="43.84145" lon="6.88153">
        <ele>800</ele>
        <time>2011-05-08T12:31:40Z</time>
      </trkpt>
      <trkpt lat="43.84138" lon="6.88153">
        <ele>800</ele>
        <time>2011-05-08T12:31:43Z</time>
      </trkpt>
      <trkpt lat="43.84134" lon="6.88158">
        <ele>799</ele>
        <time>2011-05-08T12:31:47Z</time>
      </trkpt>
      <trkpt lat="43.84143" lon="6.88145">
        <ele>797</ele>
        <time>2011-05-08T12:31:59Z</time>
      </trkpt>
      <trkpt lat="43.84145" lon="6.88139">
        <ele>796</ele>
        <time>2011-05-08T12:32:00Z</time>
      </trkpt>
      <trkpt lat="43.84136" lon="6.88145">
        <ele>798</ele>
        <time>2011-05-08T12:32:02Z</time>
      </trkpt>
      <trkpt lat="43.84132" lon="6.8815">
        <ele>803</ele>
        <time>2011-05-08T12:32:08Z</time>
      </trkpt>
      <trkpt lat="43.84137" lon="6.88144">
        <ele>804</ele>
        <time>2011-05-08T12:32:19Z</time>
      </trkpt>
      <trkpt lat="43.84152" lon="6.88137">
        <ele>803</ele>
        <time>2011-05-08T12:32:30Z</time>
      </trkpt>
      <trkpt lat="43.84157" lon="6.88134">
        <ele>801</ele>
        <time>2011-05-08T12:32:35Z</time>
      </trkpt>
      <trkpt lat="43.84152" lon="6.88134">
        <ele>800</ele>
        <time>2011-05-08T12:32:41Z</time>
      </trkpt>
      <trkpt lat="43.84149" lon="6.88129">
        <ele>801</ele>
        <time>2011-05-08T12:33:56Z</time>
      </trkpt>
      <trkpt lat="43.84146" lon="6.88123">
        <ele>802</ele>
        <time>2011-05-08T12:33:59Z</time>
      </trkpt>
      <trkpt lat="43.84142" lon="6.88117">
        <ele>804</ele>
        <time>2011-05-08T12:34:02Z</time>
      </trkpt>
      <trkpt lat="43.84141" lon="6.88108">
        <ele>815</ele>
        <time>2011-05-08T12:34:11Z</time>
      </trkpt>
      <trkpt lat="43.84139" lon="6.881">
        <ele>818</ele>
        <time>2011-05-08T12:34:15Z</time>
      </trkpt>
      <trkpt lat="43.84141" lon="6.88093">
        <ele>816</ele>
        <time>2011-05-08T12:34:18Z</time>
      </trkpt>
      <trkpt lat="43.84141" lon="6.88087">
        <ele>816</ele>
        <time>2011-05-08T12:34:24Z</time>
      </trkpt>
      <trkpt lat="43.84139" lon="6.8808">
        <ele>817</ele>
        <time>2011-05-08T12:34:37Z</time>
      </trkpt>
      <trkpt lat="43.84139" lon="6.88074">
        <ele>822</ele>
        <time>2011-05-08T12:34:51Z</time>
      </trkpt>
      <trkpt lat="43.84139" lon="6.88067">
        <ele>821</ele>
        <time>2011-05-08T12:34:56Z</time>
      </trkpt>
      <trkpt lat="43.84137" lon="6.88061">
        <ele>821</ele>
        <time>2011-05-08T12:35:08Z</time>
      </trkpt>
      <trkpt lat="43.84137" lon="6.88054">
        <ele>820</ele>
        <time>2011-05-08T12:35:13Z</time>
      </trkpt>
      <trkpt lat="43.84131" lon="6.88048">
        <ele>820</ele>
        <time>2011-05-08T12:35:20Z</time>
      </trkpt>
      <trkpt lat="43.84125" lon="6.88048">
        <ele>821</ele>
        <time>2011-05-08T12:35:24Z</time>
      </trkpt>
      <trkpt lat="43.84126" lon="6.88042">
        <ele>821</ele>
        <time>2011-05-08T12:35:29Z</time>
      </trkpt>
      <trkpt lat="43.84132" lon="6.88042">
        <ele>824</ele>
        <time>2011-05-08T12:35:37Z</time>
      </trkpt>
      <trkpt lat="43.84128" lon="6.88037">
        <ele>833</ele>
        <time>2011-05-08T12:36:07Z</time>
      </trkpt>
      <trkpt lat="43.84124" lon="6.88034">
        <ele>838</ele>
        <time>2011-05-08T12:36:17Z</time>
      </trkpt>
      <trkpt lat="43.84125" lon="6.88027">
        <ele>838</ele>
        <time>2011-05-08T12:36:25Z</time>
      </trkpt>
      <trkpt lat="43.8412" lon="6.88022">
        <ele>842</ele>
        <time>2011-05-08T12:36:39Z</time>
      </trkpt>
      <trkpt lat="43.84118" lon="6.88016">
        <ele>842</ele>
        <time>2011-05-08T12:36:44Z</time>
      </trkpt>
      <trkpt lat="43.84115" lon="6.88011">
        <ele>844</ele>
        <time>2011-05-08T12:36:57Z</time>
      </trkpt>
      <trkpt lat="43.84114" lon="6.88004">
        <ele>844</ele>
        <time>2011-05-08T12:37:01Z</time>
      </trkpt>
      <trkpt lat="43.84114" lon="6.87998">
        <ele>844</ele>
        <time>2011-05-08T12:37:05Z</time>
      </trkpt>
      <trkpt lat="43.84115" lon="6.87989">
        <ele>843</ele>
        <time>2011-05-08T12:37:11Z</time>
      </trkpt>
      <trkpt lat="43.84119" lon="6.87986">
        <ele>844</ele>
        <time>2011-05-08T12:37:15Z</time>
      </trkpt>
      <trkpt lat="43.84124" lon="6.87985">
        <ele>847</ele>
        <time>2011-05-08T12:37:19Z</time>
      </trkpt>
      <trkpt lat="43.8412" lon="6.8798">
        <ele>845</ele>
        <time>2011-05-08T12:37:35Z</time>
      </trkpt>
      <trkpt lat="43.84127" lon="6.87989">
        <ele>868</ele>
        <time>2011-05-08T12:40:14Z</time>
      </trkpt>
      <trkpt lat="43.84125" lon="6.87983">
        <ele>867</ele>
        <time>2011-05-08T12:40:20Z</time>
      </trkpt>
      <trkpt lat="43.84122" lon="6.87977">
        <ele>868</ele>
        <time>2011-05-08T12:40:28Z</time>
      </trkpt>
      <trkpt lat="43.84118" lon="6.87972">
        <ele>870</ele>
        <time>2011-05-08T12:40:38Z</time>
      </trkpt>
      <trkpt lat="43.84116" lon="6.87966">
        <ele>870</ele>
        <time>2011-05-08T12:40:46Z</time>
      </trkpt>
      <trkpt lat="43.84113" lon="6.87959">
        <ele>870</ele>
        <time>2011-05-08T12:40:51Z</time>
      </trkpt>
      <trkpt lat="43.84112" lon="6.87953">
        <ele>867</ele>
        <time>2011-05-08T12:41:02Z</time>
      </trkpt>
      <trkpt lat="43.84109" lon="6.87946">
        <ele>867</ele>
        <time>2011-05-08T12:41:10Z</time>
      </trkpt>
      <trkpt lat="43.8411" lon="6.8794">
        <ele>868</ele>
        <time>2011-05-08T12:41:15Z</time>
      </trkpt>
      <trkpt lat="43.84105" lon="6.87938">
        <ele>866</ele>
        <time>2011-05-08T12:41:23Z</time>
      </trkpt>
      <trkpt lat="43.84102" lon="6.87933">
        <ele>863</ele>
        <time>2011-05-08T12:41:29Z</time>
      </trkpt>
      <trkpt lat="43.84103" lon="6.87926">
        <ele>863</ele>
        <time>2011-05-08T12:41:35Z</time>
      </trkpt>
      <trkpt lat="43.84106" lon="6.87921">
        <ele>864</ele>
        <time>2011-05-08T12:41:40Z</time>
      </trkpt>
      <trkpt lat="43.8411" lon="6.87918">
        <ele>867</ele>
        <time>2011-05-08T12:41:45Z</time>
      </trkpt>
      <trkpt lat="43.84106" lon="6.87914">
        <ele>870</ele>
        <time>2011-05-08T12:41:54Z</time>
      </trkpt>
      <trkpt lat="43.84106" lon="6.87907">
        <ele>871</ele>
        <time>2011-05-08T12:42:03Z</time>
      </trkpt>
      <trkpt lat="43.84107" lon="6.879">
        <ele>872</ele>
        <time>2011-05-08T12:42:07Z</time>
      </trkpt>
      <trkpt lat="43.84108" lon="6.87893">
        <ele>874</ele>
        <time>2011-05-08T12:42:16Z</time>
      </trkpt>
      <trkpt lat="43.84111" lon="6.87887">
        <ele>876</ele>
        <time>2011-05-08T12:42:23Z</time>
      </trkpt>
      <trkpt lat="43.84111" lon="6.87879">
        <ele>876</ele>
        <time>2011-05-08T12:42:28Z</time>
      </trkpt>
      <trkpt lat="43.84107" lon="6.87875">
        <ele>877</ele>
        <time>2011-05-08T12:42:32Z</time>
      </trkpt>
      <trkpt lat="43.84106" lon="6.87868">
        <ele>881</ele>
        <time>2011-05-08T12:42:41Z</time>
      </trkpt>
      <trkpt lat="43.84106" lon="6.87868">
        <ele>881</ele>
        <time>2011-05-08T12:42:41Z</time>
      </trkpt>
      <trkpt lat="43.84106" lon="6.87868">
        <ele>881</ele>
        <time>2011-05-08T12:42:42Z</time>
      </trkpt>
      <trkpt lat="43.84104" lon="6.87862">
        <ele>882</ele>
        <time>2011-05-08T12:42:46Z</time>
      </trkpt>
      <trkpt lat="43.84102" lon="6.87855">
        <ele>882</ele>
        <time>2011-05-08T12:42:51Z</time>
      </trkpt>
      <trkpt lat="43.84099" lon="6.8785">
        <ele>882</ele>
        <time>2011-05-08T12:42:55Z</time>
      </trkpt>
      <trkpt lat="43.84095" lon="6.87846">
        <ele>882</ele>
        <time>2011-05-08T12:42:59Z</time>
      </trkpt>
      <trkpt lat="43.84091" lon="6.87844">
        <ele>882</ele>
        <time>2011-05-08T12:43:05Z</time>
      </trkpt>
      <trkpt lat="43.84087" lon="6.87841">
        <ele>884</ele>
        <time>2011-05-08T12:43:09Z</time>
      </trkpt>
      <trkpt lat="43.84085" lon="6.87835">
        <ele>885</ele>
        <time>2011-05-08T12:43:13Z</time>
      </trkpt>
      <trkpt lat="43.84083" lon="6.87829">
        <ele>884</ele>
        <time>2011-05-08T12:43:17Z</time>
      </trkpt>
      <trkpt lat="43.84081" lon="6.87823">
        <ele>885</ele>
        <time>2011-05-08T12:43:21Z</time>
      </trkpt>
      <trkpt lat="43.84079" lon="6.87816">
        <ele>885</ele>
        <time>2011-05-08T12:43:25Z</time>
      </trkpt>
      <trkpt lat="43.84075" lon="6.87812">
        <ele>886</ele>
        <time>2011-05-08T12:43:30Z</time>
      </trkpt>
      <trkpt lat="43.84072" lon="6.87807">
        <ele>887</ele>
        <time>2011-05-08T12:43:35Z</time>
      </trkpt>
      <trkpt lat="43.8407" lon="6.878">
        <ele>889</ele>
        <time>2011-05-08T12:43:39Z</time>
      </trkpt>
      <trkpt lat="43.84066" lon="6.87797">
        <ele>890</ele>
        <time>2011-05-08T12:43:43Z</time>
      </trkpt>
      <trkpt lat="43.84062" lon="6.87792">
        <ele>889</ele>
        <time>2011-05-08T12:43:48Z</time>
      </trkpt>
      <trkpt lat="43.84059" lon="6.87786">
        <ele>890</ele>
        <time>2011-05-08T12:43:53Z</time>
      </trkpt>
      <trkpt lat="43.84057" lon="6.8778">
        <ele>889</ele>
        <time>2011-05-08T12:44:00Z</time>
      </trkpt>
      <trkpt lat="43.84058" lon="6.87774">
        <ele>890</ele>
        <time>2011-05-08T12:44:04Z</time>
      </trkpt>
      <trkpt lat="43.84054" lon="6.8777">
        <ele>890</ele>
        <time>2011-05-08T12:44:07Z</time>
      </trkpt>
      <trkpt lat="43.84056" lon="6.87763">
        <ele>889</ele>
        <time>2011-05-08T12:44:12Z</time>
      </trkpt>
      <trkpt lat="43.84052" lon="6.87757">
        <ele>889</ele>
        <time>2011-05-08T12:44:16Z</time>
      </trkpt>
      <trkpt lat="43.84049" lon="6.8775">
        <ele>889</ele>
        <time>2011-05-08T12:44:21Z</time>
      </trkpt>
      <trkpt lat="43.84048" lon="6.87743">
        <ele>890</ele>
        <time>2011-05-08T12:44:32Z</time>
      </trkpt>
      <trkpt lat="43.84044" lon="6.87738">
        <ele>891</ele>
        <time>2011-05-08T12:44:37Z</time>
      </trkpt>
      <trkpt lat="43.8404" lon="6.87733">
        <ele>891</ele>
        <time>2011-05-08T12:44:43Z</time>
      </trkpt>
      <trkpt lat="43.84038" lon="6.87728">
        <ele>890</ele>
        <time>2011-05-08T12:44:49Z</time>
      </trkpt>
      <trkpt lat="43.84034" lon="6.87723">
        <ele>891</ele>
        <time>2011-05-08T12:44:57Z</time>
      </trkpt>
      <trkpt lat="43.84029" lon="6.87717">
        <ele>891</ele>
        <time>2011-05-08T12:45:03Z</time>
      </trkpt>
      <trkpt lat="43.84024" lon="6.87717">
        <ele>891</ele>
        <time>2011-05-08T12:45:11Z</time>
      </trkpt>
      <trkpt lat="43.84024" lon="6.87717">
        <ele>891</ele>
        <time>2011-05-08T12:45:11Z</time>
      </trkpt>
      <trkpt lat="43.84024" lon="6.87717">
        <ele>892</ele>
        <time>2011-05-08T12:45:13Z</time>
      </trkpt>
      <trkpt lat="43.8402" lon="6.87714">
        <ele>892</ele>
        <time>2011-05-08T12:45:18Z</time>
      </trkpt>
      <trkpt lat="43.84015" lon="6.8771">
        <ele>893</ele>
        <time>2011-05-08T12:45:25Z</time>
      </trkpt>
      <trkpt lat="43.84012" lon="6.87703">
        <ele>892</ele>
        <time>2011-05-08T12:45:33Z</time>
      </trkpt>
      <trkpt lat="43.84012" lon="6.87703">
        <ele>892</ele>
        <time>2011-05-08T12:45:33Z</time>
      </trkpt>
      <trkpt lat="43.84012" lon="6.87703">
        <ele>893</ele>
        <time>2011-05-08T12:45:34Z</time>
      </trkpt>
      <trkpt lat="43.84008" lon="6.87697">
        <ele>893</ele>
        <time>2011-05-08T12:45:40Z</time>
      </trkpt>
      <trkpt lat="43.84002" lon="6.87697">
        <ele>894</ele>
        <time>2011-05-08T12:45:46Z</time>
      </trkpt>
      <trkpt lat="43.83998" lon="6.87699">
        <ele>895</ele>
        <time>2011-05-08T12:45:54Z</time>
      </trkpt>
      <trkpt lat="43.83993" lon="6.877">
        <ele>896</ele>
        <time>2011-05-08T12:46:42Z</time>
      </trkpt>
      <trkpt lat="43.83987" lon="6.87701">
        <ele>897</ele>
        <time>2011-05-08T12:46:46Z</time>
      </trkpt>
      <trkpt lat="43.83982" lon="6.87699">
        <ele>900</ele>
        <time>2011-05-08T12:46:58Z</time>
      </trkpt>
      <trkpt lat="43.83977" lon="6.87702">
        <ele>901</ele>
        <time>2011-05-08T12:47:02Z</time>
      </trkpt>
      <trkpt lat="43.83971" lon="6.87701">
        <ele>902</ele>
        <time>2011-05-08T12:47:08Z</time>
      </trkpt>
      <trkpt lat="43.83966" lon="6.87701">
        <ele>902</ele>
        <time>2011-05-08T12:47:12Z</time>
      </trkpt>
      <trkpt lat="43.83961" lon="6.87703">
        <ele>903</ele>
        <time>2011-05-08T12:47:18Z</time>
      </trkpt>
      <trkpt lat="43.83956" lon="6.87702">
        <ele>903</ele>
        <time>2011-05-08T12:47:21Z</time>
      </trkpt>
      <trkpt lat="43.83951" lon="6.87703">
        <ele>903</ele>
        <time>2011-05-08T12:47:25Z</time>
      </trkpt>
      <trkpt lat="43.83946" lon="6.877">
        <ele>903</ele>
        <time>2011-05-08T12:47:29Z</time>
      </trkpt>
      <trkpt lat="43.83941" lon="6.87696">
        <ele>903</ele>
        <time>2011-05-08T12:47:32Z</time>
      </trkpt>
      <trkpt lat="43.83938" lon="6.87691">
        <ele>905</ele>
        <time>2011-05-08T12:47:38Z</time>
      </trkpt>
      <trkpt lat="43.83933" lon="6.87689">
        <ele>908</ele>
        <time>2011-05-08T12:47:43Z</time>
      </trkpt>
      <trkpt lat="43.83927" lon="6.87687">
        <ele>908</ele>
        <time>2011-05-08T12:47:47Z</time>
      </trkpt>
      <trkpt lat="43.83922" lon="6.87685">
        <ele>909</ele>
        <time>2011-05-08T12:47:53Z</time>
      </trkpt>
      <trkpt lat="43.83917" lon="6.87682">
        <ele>911</ele>
        <time>2011-05-08T12:47:57Z</time>
      </trkpt>
      <trkpt lat="43.83912" lon="6.8768">
        <ele>911</ele>
        <time>2011-05-08T12:48:00Z</time>
      </trkpt>
      <trkpt lat="43.83907" lon="6.87679">
        <ele>912</ele>
        <time>2011-05-08T12:48:04Z</time>
      </trkpt>
      <trkpt lat="43.83904" lon="6.87674">
        <ele>913</ele>
        <time>2011-05-08T12:48:08Z</time>
      </trkpt>
      <trkpt lat="43.839" lon="6.87669">
        <ele>914</ele>
        <time>2011-05-08T12:48:12Z</time>
      </trkpt>
      <trkpt lat="43.83896" lon="6.87663">
        <ele>916</ele>
        <time>2011-05-08T12:48:16Z</time>
      </trkpt>
      <trkpt lat="43.83894" lon="6.87657">
        <ele>919</ele>
        <time>2011-05-08T12:48:21Z</time>
      </trkpt>
      <trkpt lat="43.83894" lon="6.87648">
        <ele>921</ele>
        <time>2011-05-08T12:48:25Z</time>
      </trkpt>
      <trkpt lat="43.83895" lon="6.8764">
        <ele>921</ele>
        <time>2011-05-08T12:48:29Z</time>
      </trkpt>
      <trkpt lat="43.83894" lon="6.87633">
        <ele>921</ele>
        <time>2011-05-08T12:48:34Z</time>
      </trkpt>
      <trkpt lat="43.83892" lon="6.87627">
        <ele>920</ele>
        <time>2011-05-08T12:48:40Z</time>
      </trkpt>
      <trkpt lat="43.83898" lon="6.87603">
        <ele>919</ele>
        <time>2011-05-08T12:50:34Z</time>
      </trkpt>
      <trkpt lat="43.839" lon="6.87611">
        <ele>918</ele>
        <time>2011-05-08T12:50:38Z</time>
      </trkpt>
      <trkpt lat="43.83904" lon="6.87615">
        <ele>918</ele>
        <time>2011-05-08T12:50:41Z</time>
      </trkpt>
      <trkpt lat="43.83898" lon="6.8762">
        <ele>918</ele>
        <time>2011-05-08T12:50:46Z</time>
      </trkpt>
      <trkpt lat="43.83894" lon="6.87613">
        <ele>915</ele>
        <time>2011-05-08T12:50:49Z</time>
      </trkpt>
      <trkpt lat="43.83892" lon="6.87606">
        <ele>918</ele>
        <time>2011-05-08T12:50:58Z</time>
      </trkpt>
      <trkpt lat="43.8389" lon="6.87599">
        <ele>919</ele>
        <time>2011-05-08T12:51:01Z</time>
      </trkpt>
      <trkpt lat="43.83886" lon="6.87597">
        <ele>916</ele>
        <time>2011-05-08T12:51:07Z</time>
      </trkpt>
      <trkpt lat="43.83884" lon="6.8759">
        <ele>917</ele>
        <time>2011-05-08T12:51:13Z</time>
      </trkpt>
      <trkpt lat="43.83881" lon="6.87585">
        <ele>913</ele>
        <time>2011-05-08T12:51:21Z</time>
      </trkpt>
      <trkpt lat="43.83878" lon="6.8758">
        <ele>913</ele>
        <time>2011-05-08T12:51:28Z</time>
      </trkpt>
      <trkpt lat="43.83874" lon="6.87575">
        <ele>912</ele>
        <time>2011-05-08T12:51:32Z</time>
      </trkpt>
      <trkpt lat="43.83873" lon="6.87567">
        <ele>911</ele>
        <time>2011-05-08T12:51:36Z</time>
      </trkpt>
      <trkpt lat="43.83874" lon="6.8756">
        <ele>911</ele>
        <time>2011-05-08T12:51:40Z</time>
      </trkpt>
      <trkpt lat="43.83874" lon="6.87552">
        <ele>912</ele>
        <time>2011-05-08T12:51:45Z</time>
      </trkpt>
      <trkpt lat="43.83872" lon="6.87545">
        <ele>912</ele>
        <time>2011-05-08T12:51:48Z</time>
      </trkpt>
      <trkpt lat="43.83872" lon="6.87539">
        <ele>913</ele>
        <time>2011-05-08T12:51:53Z</time>
      </trkpt>
      <trkpt lat="43.83872" lon="6.87539">
        <ele>913</ele>
        <time>2011-05-08T12:51:53Z</time>
      </trkpt>
      <trkpt lat="43.83872" lon="6.87539">
        <ele>913</ele>
        <time>2011-05-08T12:51:54Z</time>
      </trkpt>
      <trkpt lat="43.83875" lon="6.87534">
        <ele>915</ele>
        <time>2011-05-08T12:51:57Z</time>
      </trkpt>
      <trkpt lat="43.8387" lon="6.87529">
        <ele>915</ele>
        <time>2011-05-08T12:52:05Z</time>
      </trkpt>
      <trkpt lat="43.83871" lon="6.87522">
        <ele>916</ele>
        <time>2011-05-08T12:52:10Z</time>
      </trkpt>
      <trkpt lat="43.83872" lon="6.87514">
        <ele>917</ele>
        <time>2011-05-08T12:52:14Z</time>
      </trkpt>
      <trkpt lat="43.83871" lon="6.87508">
        <ele>919</ele>
        <time>2011-05-08T12:52:20Z</time>
      </trkpt>
      <trkpt lat="43.83868" lon="6.87503">
        <ele>917</ele>
        <time>2011-05-08T12:52:25Z</time>
      </trkpt>
      <trkpt lat="43.83867" lon="6.87495">
        <ele>915</ele>
        <time>2011-05-08T12:52:29Z</time>
      </trkpt>
      <trkpt lat="43.83865" lon="6.87489">
        <ele>916</ele>
        <time>2011-05-08T12:52:35Z</time>
      </trkpt>
      <trkpt lat="43.83862" lon="6.87482">
        <ele>916</ele>
        <time>2011-05-08T12:52:39Z</time>
      </trkpt>
      <trkpt lat="43.83862" lon="6.87482">
        <ele>916</ele>
        <time>2011-05-08T12:52:39Z</time>
      </trkpt>
      <trkpt lat="43.83862" lon="6.87482">
        <ele>916</ele>
        <time>2011-05-08T12:52:40Z</time>
      </trkpt>
      <trkpt lat="43.83859" lon="6.87477">
        <ele>916</ele>
        <time>2011-05-08T12:52:44Z</time>
      </trkpt>
      <trkpt lat="43.83854" lon="6.87472">
        <ele>915</ele>
        <time>2011-05-08T12:52:50Z</time>
      </trkpt>
      <trkpt lat="43.8385" lon="6.87471">
        <ele>915</ele>
        <time>2011-05-08T12:52:55Z</time>
      </trkpt>
      <trkpt lat="43.83847" lon="6.87465">
        <ele>914</ele>
        <time>2011-05-08T12:53:00Z</time>
      </trkpt>
      <trkpt lat="43.83849" lon="6.87458">
        <ele>915</ele>
        <time>2011-05-08T12:53:07Z</time>
      </trkpt>
      <trkpt lat="43.83849" lon="6.87458">
        <ele>915</ele>
        <time>2011-05-08T12:53:07Z</time>
      </trkpt>
      <trkpt lat="43.83849" lon="6.87458">
        <ele>915</ele>
        <time>2011-05-08T12:53:08Z</time>
      </trkpt>
      <trkpt lat="43.83852" lon="6.87452">
        <ele>916</ele>
        <time>2011-05-08T12:53:12Z</time>
      </trkpt>
      <trkpt lat="43.8385" lon="6.87445">
        <ele>913</ele>
        <time>2011-05-08T12:53:18Z</time>
      </trkpt>
      <trkpt lat="43.83852" lon="6.87439">
        <ele>913</ele>
        <time>2011-05-08T12:53:20Z</time>
      </trkpt>
      <trkpt lat="43.83854" lon="6.87431">
        <ele>912</ele>
        <time>2011-05-08T12:53:24Z</time>
      </trkpt>
      <trkpt lat="43.83857" lon="6.87425">
        <ele>912</ele>
        <time>2011-05-08T12:53:27Z</time>
      </trkpt>
      <trkpt lat="43.83859" lon="6.87419">
        <ele>913</ele>
        <time>2011-05-08T12:53:31Z</time>
      </trkpt>
      <trkpt lat="43.83858" lon="6.87413">
        <ele>915</ele>
        <time>2011-05-08T12:53:35Z</time>
      </trkpt>
      <trkpt lat="43.8386" lon="6.87404">
        <ele>916</ele>
        <time>2011-05-08T12:53:40Z</time>
      </trkpt>
      <trkpt lat="43.83861" lon="6.87398">
        <ele>916</ele>
        <time>2011-05-08T12:53:46Z</time>
      </trkpt>
      <trkpt lat="43.83861" lon="6.87391">
        <ele>916</ele>
        <time>2011-05-08T12:53:50Z</time>
      </trkpt>
      <trkpt lat="43.8386" lon="6.87384">
        <ele>916</ele>
        <time>2011-05-08T12:53:55Z</time>
      </trkpt>
      <trkpt lat="43.83859" lon="6.87377">
        <ele>915</ele>
        <time>2011-05-08T12:54:02Z</time>
      </trkpt>
      <trkpt lat="43.83857" lon="6.87371">
        <ele>917</ele>
        <time>2011-05-08T12:54:06Z</time>
      </trkpt>
      <trkpt lat="43.83856" lon="6.87363">
        <ele>916</ele>
        <time>2011-05-08T12:54:11Z</time>
      </trkpt>
      <trkpt lat="43.83856" lon="6.87356">
        <ele>916</ele>
        <time>2011-05-08T12:54:15Z</time>
      </trkpt>
      <trkpt lat="43.83856" lon="6.87349">
        <ele>916</ele>
        <time>2011-05-08T12:54:18Z</time>
      </trkpt>
      <trkpt lat="43.83855" lon="6.87341">
        <ele>915</ele>
        <time>2011-05-08T12:54:22Z</time>
      </trkpt>
      <trkpt lat="43.83856" lon="6.87335">
        <ele>915</ele>
        <time>2011-05-08T12:54:27Z</time>
      </trkpt>
      <trkpt lat="43.83856" lon="6.87328">
        <ele>915</ele>
        <time>2011-05-08T12:54:30Z</time>
      </trkpt>
      <trkpt lat="43.83855" lon="6.87321">
        <ele>914</ele>
        <time>2011-05-08T12:54:34Z</time>
      </trkpt>
      <trkpt lat="43.83851" lon="6.87316">
        <ele>913</ele>
        <time>2011-05-08T12:54:41Z</time>
      </trkpt>
      <trkpt lat="43.83848" lon="6.87308">
        <ele>913</ele>
        <time>2011-05-08T12:54:46Z</time>
      </trkpt>
      <trkpt lat="43.83846" lon="6.87302">
        <ele>911</ele>
        <time>2011-05-08T12:54:50Z</time>
      </trkpt>
      <trkpt lat="43.83842" lon="6.87299">
        <ele>910</ele>
        <time>2011-05-08T12:54:53Z</time>
      </trkpt>
      <trkpt lat="43.83838" lon="6.87293">
        <ele>910</ele>
        <time>2011-05-08T12:54:58Z</time>
      </trkpt>
      <trkpt lat="43.83834" lon="6.87289">
        <ele>909</ele>
        <time>2011-05-08T12:55:04Z</time>
      </trkpt>
      <trkpt lat="43.83828" lon="6.87288">
        <ele>909</ele>
        <time>2011-05-08T12:55:07Z</time>
      </trkpt>
      <trkpt lat="43.83828" lon="6.87288">
        <ele>909</ele>
        <time>2011-05-08T12:55:07Z</time>
      </trkpt>
      <trkpt lat="43.83828" lon="6.87288">
        <ele>909</ele>
        <time>2011-05-08T12:55:08Z</time>
      </trkpt>
      <trkpt lat="43.83823" lon="6.87283">
        <ele>908</ele>
        <time>2011-05-08T12:55:14Z</time>
      </trkpt>
      <trkpt lat="43.83819" lon="6.87278">
        <ele>908</ele>
        <time>2011-05-08T12:55:18Z</time>
      </trkpt>
      <trkpt lat="43.83818" lon="6.87271">
        <ele>908</ele>
        <time>2011-05-08T12:55:21Z</time>
      </trkpt>
      <trkpt lat="43.83817" lon="6.87264">
        <ele>908</ele>
        <time>2011-05-08T12:55:25Z</time>
      </trkpt>
      <trkpt lat="43.83815" lon="6.87257">
        <ele>908</ele>
        <time>2011-05-08T12:55:31Z</time>
      </trkpt>
      <trkpt lat="43.83812" lon="6.8725">
        <ele>908</ele>
        <time>2011-05-08T12:55:36Z</time>
      </trkpt>
      <trkpt lat="43.83808" lon="6.87246">
        <ele>908</ele>
        <time>2011-05-08T12:55:40Z</time>
      </trkpt>
      <trkpt lat="43.83805" lon="6.87238">
        <ele>907</ele>
        <time>2011-05-08T12:55:44Z</time>
      </trkpt>
      <trkpt lat="43.83801" lon="6.87233">
        <ele>906</ele>
        <time>2011-05-08T12:55:47Z</time>
      </trkpt>
      <trkpt lat="43.83798" lon="6.87228">
        <ele>905</ele>
        <time>2011-05-08T12:55:50Z</time>
      </trkpt>
      <trkpt lat="43.83795" lon="6.87222">
        <ele>904</ele>
        <time>2011-05-08T12:55:53Z</time>
      </trkpt>
      <trkpt lat="43.83793" lon="6.87217">
        <ele>903</ele>
        <time>2011-05-08T12:55:58Z</time>
      </trkpt>
      <trkpt lat="43.83792" lon="6.8721">
        <ele>904</ele>
        <time>2011-05-08T12:56:01Z</time>
      </trkpt>
      <trkpt lat="43.8379" lon="6.87202">
        <ele>905</ele>
        <time>2011-05-08T12:56:05Z</time>
      </trkpt>
      <trkpt lat="43.83787" lon="6.87196">
        <ele>906</ele>
        <time>2011-05-08T12:56:10Z</time>
      </trkpt>
      <trkpt lat="43.83782" lon="6.87192">
        <ele>906</ele>
        <time>2011-05-08T12:56:16Z</time>
      </trkpt>
      <trkpt lat="43.83777" lon="6.87189">
        <ele>905</ele>
        <time>2011-05-08T12:56:18Z</time>
      </trkpt>
      <trkpt lat="43.83772" lon="6.87185">
        <ele>905</ele>
        <time>2011-05-08T12:56:25Z</time>
      </trkpt>
      <trkpt lat="43.83769" lon="6.8718">
        <ele>905</ele>
        <time>2011-05-08T12:56:27Z</time>
      </trkpt>
      <trkpt lat="43.83764" lon="6.87176">
        <ele>903</ele>
        <time>2011-05-08T12:56:31Z</time>
      </trkpt>
      <trkpt lat="43.8376" lon="6.87173">
        <ele>903</ele>
        <time>2011-05-08T12:56:36Z</time>
      </trkpt>
      <trkpt lat="43.83755" lon="6.87171">
        <ele>903</ele>
        <time>2011-05-08T12:56:41Z</time>
      </trkpt>
      <trkpt lat="43.8375" lon="6.8717">
        <ele>903</ele>
        <time>2011-05-08T12:56:44Z</time>
      </trkpt>
      <trkpt lat="43.83745" lon="6.87169">
        <ele>902</ele>
        <time>2011-05-08T12:56:47Z</time>
      </trkpt>
      <trkpt lat="43.83738" lon="6.87166">
        <ele>902</ele>
        <time>2011-05-08T12:56:52Z</time>
      </trkpt>
      <trkpt lat="43.83736" lon="6.8716">
        <ele>902</ele>
        <time>2011-05-08T12:56:59Z</time>
      </trkpt>
      <trkpt lat="43.83736" lon="6.87152">
        <ele>902</ele>
        <time>2011-05-08T12:57:04Z</time>
      </trkpt>
      <trkpt lat="43.83738" lon="6.87144">
        <ele>902</ele>
        <time>2011-05-08T12:57:10Z</time>
      </trkpt>
      <trkpt lat="43.83739" lon="6.87137">
        <ele>902</ele>
        <time>2011-05-08T12:57:14Z</time>
      </trkpt>
      <trkpt lat="43.83738" lon="6.87129">
        <ele>902</ele>
        <time>2011-05-08T12:57:18Z</time>
      </trkpt>
      <trkpt lat="43.83739" lon="6.87122">
        <ele>902</ele>
        <time>2011-05-08T12:57:21Z</time>
      </trkpt>
      <trkpt lat="43.83736" lon="6.87114">
        <ele>903</ele>
        <time>2011-05-08T12:57:27Z</time>
      </trkpt>
      <trkpt lat="43.83736" lon="6.87107">
        <ele>903</ele>
        <time>2011-05-08T12:57:30Z</time>
      </trkpt>
      <trkpt lat="43.83735" lon="6.871">
        <ele>896</ele>
        <time>2011-05-08T12:57:35Z</time>
      </trkpt>
      <trkpt lat="43.83734" lon="6.87092">
        <ele>893</ele>
        <time>2011-05-08T12:57:39Z</time>
      </trkpt>
      <trkpt lat="43.83734" lon="6.87085">
        <ele>893</ele>
        <time>2011-05-08T12:57:43Z</time>
      </trkpt>
      <trkpt lat="43.83733" lon="6.87077">
        <ele>894</ele>
        <time>2011-05-08T12:57:48Z</time>
      </trkpt>
      <trkpt lat="43.83735" lon="6.8707">
        <ele>894</ele>
        <time>2011-05-08T12:57:51Z</time>
      </trkpt>
      <trkpt lat="43.83734" lon="6.87064">
        <ele>891</ele>
        <time>2011-05-08T12:57:54Z</time>
      </trkpt>
      <trkpt lat="43.8373" lon="6.87057">
        <ele>891</ele>
        <time>2011-05-08T12:57:59Z</time>
      </trkpt>
      <trkpt lat="43.83727" lon="6.87051">
        <ele>890</ele>
        <time>2011-05-08T12:58:03Z</time>
      </trkpt>
      <trkpt lat="43.83726" lon="6.87044">
        <ele>885</ele>
        <time>2011-05-08T12:58:10Z</time>
      </trkpt>
      <trkpt lat="43.83724" lon="6.87036">
        <ele>882</ele>
        <time>2011-05-08T12:58:14Z</time>
      </trkpt>
      <trkpt lat="43.8372" lon="6.8703">
        <ele>881</ele>
        <time>2011-05-08T12:58:17Z</time>
      </trkpt>
      <trkpt lat="43.83717" lon="6.87025">
        <ele>880</ele>
        <time>2011-05-08T12:58:21Z</time>
      </trkpt>
      <trkpt lat="43.83716" lon="6.87018">
        <ele>880</ele>
        <time>2011-05-08T12:58:24Z</time>
      </trkpt>
      <trkpt lat="43.83713" lon="6.87012">
        <ele>878</ele>
        <time>2011-05-08T12:58:27Z</time>
      </trkpt>
      <trkpt lat="43.83708" lon="6.87008">
        <ele>878</ele>
        <time>2011-05-08T12:58:30Z</time>
      </trkpt>
      <trkpt lat="43.83704" lon="6.87006">
        <ele>877</ele>
        <time>2011-05-08T12:58:33Z</time>
      </trkpt>
      <trkpt lat="43.83699" lon="6.87003">
        <ele>879</ele>
        <time>2011-05-08T12:58:37Z</time>
      </trkpt>
      <trkpt lat="43.83697" lon="6.86997">
        <ele>878</ele>
        <time>2011-05-08T12:58:40Z</time>
      </trkpt>
      <trkpt lat="43.83697" lon="6.8699">
        <ele>877</ele>
        <time>2011-05-08T12:58:44Z</time>
      </trkpt>
      <trkpt lat="43.83697" lon="6.86983">
        <ele>878</ele>
        <time>2011-05-08T12:58:46Z</time>
      </trkpt>
      <trkpt lat="43.83694" lon="6.86978">
        <ele>878</ele>
        <time>2011-05-08T12:58:51Z</time>
      </trkpt>
      <trkpt lat="43.83692" lon="6.86971">
        <ele>879</ele>
        <time>2011-05-08T12:58:55Z</time>
      </trkpt>
      <trkpt lat="43.83694" lon="6.86964">
        <ele>881</ele>
        <time>2011-05-08T12:58:59Z</time>
      </trkpt>
      <trkpt lat="43.83694" lon="6.86957">
        <ele>880</ele>
        <time>2011-05-08T12:59:03Z</time>
      </trkpt>
      <trkpt lat="43.83691" lon="6.86951">
        <ele>880</ele>
        <time>2011-05-08T12:59:07Z</time>
      </trkpt>
      <trkpt lat="43.83691" lon="6.86944">
        <ele>882</ele>
        <time>2011-05-08T12:59:11Z</time>
      </trkpt>
      <trkpt lat="43.83692" lon="6.86936">
        <ele>881</ele>
        <time>2011-05-08T12:59:16Z</time>
      </trkpt>
      <trkpt lat="43.8369" lon="6.86929">
        <ele>879</ele>
        <time>2011-05-08T12:59:22Z</time>
      </trkpt>
      <trkpt lat="43.8369" lon="6.86923">
        <ele>879</ele>
        <time>2011-05-08T12:59:25Z</time>
      </trkpt>
      <trkpt lat="43.83689" lon="6.86915">
        <ele>879</ele>
        <time>2011-05-08T12:59:30Z</time>
      </trkpt>
      <trkpt lat="43.83689" lon="6.86908">
        <ele>879</ele>
        <time>2011-05-08T12:59:33Z</time>
      </trkpt>
      <trkpt lat="43.83685" lon="6.86902">
        <ele>878</ele>
        <time>2011-05-08T12:59:37Z</time>
      </trkpt>
      <trkpt lat="43.83684" lon="6.86896">
        <ele>877</ele>
        <time>2011-05-08T12:59:41Z</time>
      </trkpt>
      <trkpt lat="43.83688" lon="6.86891">
        <ele>878</ele>
        <time>2011-05-08T12:59:44Z</time>
      </trkpt>
      <trkpt lat="43.83692" lon="6.86886">
        <ele>878</ele>
        <time>2011-05-08T12:59:47Z</time>
      </trkpt>
      <trkpt lat="43.83694" lon="6.86879">
        <ele>877</ele>
        <time>2011-05-08T12:59:50Z</time>
      </trkpt>
      <trkpt lat="43.83693" lon="6.86872">
        <ele>877</ele>
        <time>2011-05-08T12:59:55Z</time>
      </trkpt>
      <trkpt lat="43.83694" lon="6.86865">
        <ele>876</ele>
        <time>2011-05-08T12:59:59Z</time>
      </trkpt>
      <trkpt lat="43.83693" lon="6.86855">
        <ele>876</ele>
        <time>2011-05-08T13:00:02Z</time>
      </trkpt>
      <trkpt lat="43.83693" lon="6.86846">
        <ele>874</ele>
        <time>2011-05-08T13:00:11Z</time>
      </trkpt>
      <trkpt lat="43.83694" lon="6.86839">
        <ele>874</ele>
        <time>2011-05-08T13:00:14Z</time>
      </trkpt>
      <trkpt lat="43.83694" lon="6.86832">
        <ele>873</ele>
        <time>2011-05-08T13:00:19Z</time>
      </trkpt>
      <trkpt lat="43.83697" lon="6.86826">
        <ele>873</ele>
        <time>2011-05-08T13:00:22Z</time>
      </trkpt>
      <trkpt lat="43.837" lon="6.8682">
        <ele>874</ele>
        <time>2011-05-08T13:00:27Z</time>
      </trkpt>
      <trkpt lat="43.83705" lon="6.86815">
        <ele>872</ele>
        <time>2011-05-08T13:00:30Z</time>
      </trkpt>
      <trkpt lat="43.837" lon="6.86815">
        <ele>870</ele>
        <time>2011-05-08T13:00:41Z</time>
      </trkpt>
      <trkpt lat="43.83706" lon="6.86808">
        <ele>869</ele>
        <time>2011-05-08T13:01:35Z</time>
      </trkpt>
      <trkpt lat="43.83707" lon="6.86802">
        <ele>869</ele>
        <time>2011-05-08T13:01:38Z</time>
      </trkpt>
      <trkpt lat="43.83711" lon="6.86795">
        <ele>868</ele>
        <time>2011-05-08T13:01:44Z</time>
      </trkpt>
      <trkpt lat="43.83716" lon="6.86794">
        <ele>869</ele>
        <time>2011-05-08T13:01:50Z</time>
      </trkpt>
      <trkpt lat="43.83724" lon="6.86786">
        <ele>871</ele>
        <time>2011-05-08T13:02:03Z</time>
      </trkpt>
      <trkpt lat="43.83721" lon="6.86778">
        <ele>865</ele>
        <time>2011-05-08T13:02:04Z</time>
      </trkpt>
      <trkpt lat="43.83721" lon="6.8677">
        <ele>867</ele>
        <time>2011-05-08T13:02:16Z</time>
      </trkpt>
      <trkpt lat="43.83726" lon="6.86767">
        <ele>861</ele>
        <time>2011-05-08T13:02:24Z</time>
      </trkpt>
      <trkpt lat="43.83725" lon="6.86758">
        <ele>857</ele>
        <time>2011-05-08T13:02:27Z</time>
      </trkpt>
      <trkpt lat="43.83724" lon="6.86748">
        <ele>855</ele>
        <time>2011-05-08T13:02:33Z</time>
      </trkpt>
      <trkpt lat="43.83721" lon="6.86743">
        <ele>851</ele>
        <time>2011-05-08T13:02:37Z</time>
      </trkpt>
      <trkpt lat="43.83718" lon="6.86738">
        <ele>849</ele>
        <time>2011-05-08T13:02:42Z</time>
      </trkpt>
      <trkpt lat="43.83713" lon="6.86734">
        <ele>850</ele>
        <time>2011-05-08T13:02:46Z</time>
      </trkpt>
      <trkpt lat="43.83713" lon="6.86727">
        <ele>846</ele>
        <time>2011-05-08T13:02:52Z</time>
      </trkpt>
      <trkpt lat="43.83709" lon="6.86724">
        <ele>843</ele>
        <time>2011-05-08T13:02:58Z</time>
      </trkpt>
      <trkpt lat="43.83704" lon="6.86723">
        <ele>842</ele>
        <time>2011-05-08T13:03:02Z</time>
      </trkpt>
      <trkpt lat="43.83705" lon="6.86714">
        <ele>841</ele>
        <time>2011-05-08T13:03:07Z</time>
      </trkpt>
      <trkpt lat="43.83707" lon="6.86708">
        <ele>842</ele>
        <time>2011-05-08T13:03:09Z</time>
      </trkpt>
      <trkpt lat="43.83711" lon="6.86706">
        <ele>843</ele>
        <time>2011-05-08T13:03:13Z</time>
      </trkpt>
      <trkpt lat="43.83716" lon="6.86701">
        <ele>843</ele>
        <time>2011-05-08T13:03:16Z</time>
      </trkpt>
      <trkpt lat="43.8372" lon="6.86699">
        <ele>843</ele>
        <time>2011-05-08T13:03:19Z</time>
      </trkpt>
      <trkpt lat="43.83718" lon="6.86704">
        <ele>844</ele>
        <time>2011-05-08T13:03:38Z</time>
      </trkpt>
      <trkpt lat="43.83722" lon="6.86707">
        <ele>837</ele>
        <time>2011-05-08T13:03:46Z</time>
      </trkpt>
      <trkpt lat="43.83717" lon="6.86708">
        <ele>833</ele>
        <time>2011-05-08T13:05:00Z</time>
      </trkpt>
      <trkpt lat="43.83714" lon="6.86703">
        <ele>833</ele>
        <time>2011-05-08T13:06:06Z</time>
      </trkpt>
      <trkpt lat="43.83718" lon="6.86698">
        <ele>837</ele>
        <time>2011-05-08T13:06:15Z</time>
      </trkpt>
      <trkpt lat="43.83722" lon="6.86694">
        <ele>835</ele>
        <time>2011-05-08T13:06:38Z</time>
      </trkpt>
      <trkpt lat="43.83732" lon="6.8669">
        <ele>834</ele>
        <time>2011-05-08T13:06:39Z</time>
      </trkpt>
      <trkpt lat="43.83738" lon="6.86681">
        <ele>833</ele>
        <time>2011-05-08T13:06:41Z</time>
      </trkpt>
      <trkpt lat="43.83733" lon="6.86684">
        <ele>829</ele>
        <time>2011-05-08T13:06:44Z</time>
      </trkpt>
      <trkpt lat="43.83728" lon="6.8669">
        <ele>826</ele>
        <time>2011-05-08T13:06:47Z</time>
      </trkpt>
      <trkpt lat="43.83724" lon="6.86695">
        <ele>825</ele>
        <time>2011-05-08T13:06:48Z</time>
      </trkpt>
      <trkpt lat="43.83719" lon="6.86704">
        <ele>818</ele>
        <time>2011-05-08T13:06:52Z</time>
      </trkpt>
      <trkpt lat="43.83719" lon="6.86704">
        <ele>818</ele>
        <time>2011-05-08T13:06:52Z</time>
      </trkpt>
      <trkpt lat="43.83719" lon="6.86704">
        <ele>816</ele>
        <time>2011-05-08T13:06:57Z</time>
      </trkpt>
      <trkpt lat="43.83724" lon="6.8671">
        <ele>807</ele>
        <time>2011-05-08T13:07:34Z</time>
      </trkpt>
      <trkpt lat="43.83726" lon="6.86702">
        <ele>815</ele>
        <time>2011-05-08T13:07:58Z</time>
      </trkpt>
      <trkpt lat="43.83728" lon="6.86696">
        <ele>818</ele>
        <time>2011-05-08T13:08:02Z</time>
      </trkpt>
      <trkpt lat="43.83728" lon="6.86696">
        <ele>818</ele>
        <time>2011-05-08T13:08:02Z</time>
      </trkpt>
      <trkpt lat="43.83728" lon="6.86696">
        <ele>818</ele>
        <time>2011-05-08T13:08:03Z</time>
      </trkpt>
      <trkpt lat="43.8373" lon="6.8669">
        <ele>821</ele>
        <time>2011-05-08T13:08:10Z</time>
      </trkpt>
      <trkpt lat="43.8373" lon="6.86684">
        <ele>824</ele>
        <time>2011-05-08T13:08:18Z</time>
      </trkpt>
      <trkpt lat="43.83732" lon="6.86675">
        <ele>825</ele>
        <time>2011-05-08T13:08:22Z</time>
      </trkpt>
      <trkpt lat="43.83733" lon="6.86668">
        <ele>827</ele>
        <time>2011-05-08T13:08:25Z</time>
      </trkpt>
      <trkpt lat="43.83731" lon="6.86662">
        <ele>827</ele>
        <time>2011-05-08T13:08:28Z</time>
      </trkpt>
      <trkpt lat="43.8373" lon="6.86655">
        <ele>829</ele>
        <time>2011-05-08T13:08:34Z</time>
      </trkpt>
      <trkpt lat="43.83731" lon="6.86648">
        <ele>831</ele>
        <time>2011-05-08T13:08:39Z</time>
      </trkpt>
      <trkpt lat="43.8373" lon="6.8664">
        <ele>832</ele>
        <time>2011-05-08T13:08:46Z</time>
      </trkpt>
      <trkpt lat="43.8373" lon="6.86633">
        <ele>839</ele>
        <time>2011-05-08T13:08:57Z</time>
      </trkpt>
      <trkpt lat="43.83734" lon="6.86628">
        <ele>839</ele>
        <time>2011-05-08T13:09:03Z</time>
      </trkpt>
      <trkpt lat="43.83738" lon="6.86623">
        <ele>839</ele>
        <time>2011-05-08T13:09:05Z</time>
      </trkpt>
      <trkpt lat="43.83741" lon="6.86618">
        <ele>838</ele>
        <time>2011-05-08T13:09:08Z</time>
      </trkpt>
      <trkpt lat="43.83746" lon="6.86614">
        <ele>838</ele>
        <time>2011-05-08T13:09:12Z</time>
      </trkpt>
      <trkpt lat="43.83751" lon="6.8661">
        <ele>839</ele>
        <time>2011-05-08T13:09:15Z</time>
      </trkpt>
      <trkpt lat="43.83755" lon="6.86605">
        <ele>839</ele>
        <time>2011-05-08T13:09:28Z</time>
      </trkpt>
      <trkpt lat="43.83755" lon="6.86605">
        <ele>839</ele>
        <time>2011-05-08T13:09:28Z</time>
      </trkpt>
      <trkpt lat="43.83755" lon="6.86605">
        <ele>839</ele>
        <time>2011-05-08T13:09:29Z</time>
      </trkpt>
      <trkpt lat="43.83756" lon="6.86598">
        <ele>838</ele>
        <time>2011-05-08T13:09:32Z</time>
      </trkpt>
      <trkpt lat="43.83756" lon="6.86598">
        <ele>838</ele>
        <time>2011-05-08T13:09:32Z</time>
      </trkpt>
      <trkpt lat="43.83756" lon="6.86598">
        <ele>839</ele>
        <time>2011-05-08T13:09:34Z</time>
      </trkpt>
      <trkpt lat="43.83755" lon="6.8659">
        <ele>842</ele>
        <time>2011-05-08T13:09:42Z</time>
      </trkpt>
      <trkpt lat="43.83757" lon="6.86583">
        <ele>841</ele>
        <time>2011-05-08T13:09:44Z</time>
      </trkpt>
      <trkpt lat="43.83758" lon="6.86574">
        <ele>840</ele>
        <time>2011-05-08T13:09:48Z</time>
      </trkpt>
      <trkpt lat="43.83757" lon="6.86568">
        <ele>841</ele>
        <time>2011-05-08T13:09:53Z</time>
      </trkpt>
      <trkpt lat="43.83759" lon="6.86561">
        <ele>840</ele>
        <time>2011-05-08T13:09:57Z</time>
      </trkpt>
      <trkpt lat="43.83762" lon="6.86515">
        <ele>840</ele>
        <time>2011-05-08T13:10:16Z</time>
      </trkpt>
      <trkpt lat="43.83766" lon="6.86511">
        <ele>838</ele>
        <time>2011-05-08T13:10:17Z</time>
      </trkpt>
      <trkpt lat="43.83769" lon="6.86506">
        <ele>835</ele>
        <time>2011-05-08T13:10:22Z</time>
      </trkpt>
      <trkpt lat="43.83771" lon="6.865">
        <ele>830</ele>
        <time>2011-05-08T13:10:24Z</time>
      </trkpt>
      <trkpt lat="43.83776" lon="6.86493">
        <ele>832</ele>
        <time>2011-05-08T13:10:27Z</time>
      </trkpt>
      <trkpt lat="43.83785" lon="6.86502">
        <ele>833</ele>
        <time>2011-05-08T13:10:34Z</time>
      </trkpt>
      <trkpt lat="43.83784" lon="6.86484">
        <ele>833</ele>
        <time>2011-05-08T13:10:37Z</time>
      </trkpt>
      <trkpt lat="43.83784" lon="6.86478">
        <ele>834</ele>
        <time>2011-05-08T13:10:38Z</time>
      </trkpt>
      <trkpt lat="43.83784" lon="6.86478">
        <ele>834</ele>
        <time>2011-05-08T13:10:38Z</time>
      </trkpt>
      <trkpt lat="43.83784" lon="6.86478">
        <ele>834</ele>
        <time>2011-05-08T13:10:39Z</time>
      </trkpt>
      <trkpt lat="43.83789" lon="6.86478">
        <ele>833</ele>
        <time>2011-05-08T13:10:41Z</time>
      </trkpt>
      <trkpt lat="43.83789" lon="6.86471">
        <ele>834</ele>
        <time>2011-05-08T13:10:55Z</time>
      </trkpt>
      <trkpt lat="43.83792" lon="6.86465">
        <ele>832</ele>
        <time>2011-05-08T13:10:58Z</time>
      </trkpt>
      <trkpt lat="43.83792" lon="6.86458">
        <ele>833</ele>
        <time>2011-05-08T13:11:02Z</time>
      </trkpt>
      <trkpt lat="43.83803" lon="6.86415">
        <ele>862</ele>
        <time>2011-05-08T13:11:27Z</time>
      </trkpt>
      <trkpt lat="43.83799" lon="6.86409">
        <ele>844</ele>
        <time>2011-05-08T13:11:32Z</time>
      </trkpt>
      <trkpt lat="43.83802" lon="6.86402">
        <ele>836</ele>
        <time>2011-05-08T13:11:36Z</time>
      </trkpt>
      <trkpt lat="43.83803" lon="6.86394">
        <ele>837</ele>
        <time>2011-05-08T13:11:38Z</time>
      </trkpt>
      <trkpt lat="43.83807" lon="6.86386">
        <ele>845</ele>
        <time>2011-05-08T13:11:47Z</time>
      </trkpt>
      <trkpt lat="43.83808" lon="6.86378">
        <ele>847</ele>
        <time>2011-05-08T13:11:53Z</time>
      </trkpt>
      <trkpt lat="43.83811" lon="6.86373">
        <ele>843</ele>
        <time>2011-05-08T13:11:55Z</time>
      </trkpt>
      <trkpt lat="43.83811" lon="6.86373">
        <ele>843</ele>
        <time>2011-05-08T13:11:55Z</time>
      </trkpt>
      <trkpt lat="43.83811" lon="6.86373">
        <ele>843</ele>
        <time>2011-05-08T13:11:56Z</time>
      </trkpt>
      <trkpt lat="43.8381" lon="6.86365">
        <ele>845</ele>
        <time>2011-05-08T13:12:03Z</time>
      </trkpt>
      <trkpt lat="43.83813" lon="6.8636">
        <ele>840</ele>
        <time>2011-05-08T13:12:05Z</time>
      </trkpt>
      <trkpt lat="43.83815" lon="6.86352">
        <ele>838</ele>
        <time>2011-05-08T13:12:09Z</time>
      </trkpt>
      <trkpt lat="43.83817" lon="6.86343">
        <ele>836</ele>
        <time>2011-05-08T13:12:12Z</time>
      </trkpt>
      <trkpt lat="43.83817" lon="6.86343">
        <ele>836</ele>
        <time>2011-05-08T13:12:12Z</time>
      </trkpt>
      <trkpt lat="43.83817" lon="6.86343">
        <ele>835</ele>
        <time>2011-05-08T13:12:13Z</time>
      </trkpt>
      <trkpt lat="43.83817" lon="6.86336">
        <ele>832</ele>
        <time>2011-05-08T13:12:15Z</time>
      </trkpt>
      <trkpt lat="43.83818" lon="6.86329">
        <ele>830</ele>
        <time>2011-05-08T13:12:18Z</time>
      </trkpt>
      <trkpt lat="43.83819" lon="6.86322">
        <ele>830</ele>
        <time>2011-05-08T13:12:22Z</time>
      </trkpt>
      <trkpt lat="43.83819" lon="6.86316">
        <ele>825</ele>
        <time>2011-05-08T13:12:29Z</time>
      </trkpt>
      <trkpt lat="43.83818" lon="6.86306">
        <ele>824</ele>
        <time>2011-05-08T13:12:34Z</time>
      </trkpt>
      <trkpt lat="43.83817" lon="6.86299">
        <ele>821</ele>
        <time>2011-05-08T13:12:39Z</time>
      </trkpt>
      <trkpt lat="43.83818" lon="6.86292">
        <ele>818</ele>
        <time>2011-05-08T13:12:44Z</time>
      </trkpt>
      <trkpt lat="43.83814" lon="6.86286">
        <ele>818</ele>
        <time>2011-05-08T13:12:49Z</time>
      </trkpt>
      <trkpt lat="43.83815" lon="6.86277">
        <ele>821</ele>
        <time>2011-05-08T13:12:56Z</time>
      </trkpt>
      <trkpt lat="43.83817" lon="6.86269">
        <ele>820</ele>
        <time>2011-05-08T13:12:59Z</time>
      </trkpt>
      <trkpt lat="43.83817" lon="6.86261">
        <ele>820</ele>
        <time>2011-05-08T13:13:02Z</time>
      </trkpt>
      <trkpt lat="43.8382" lon="6.86256">
        <ele>820</ele>
        <time>2011-05-08T13:13:05Z</time>
      </trkpt>
      <trkpt lat="43.83823" lon="6.8625">
        <ele>818</ele>
        <time>2011-05-08T13:13:10Z</time>
      </trkpt>
      <trkpt lat="43.83825" lon="6.86244">
        <ele>817</ele>
        <time>2011-05-08T13:13:13Z</time>
      </trkpt>
      <trkpt lat="43.83827" lon="6.86238">
        <ele>817</ele>
        <time>2011-05-08T13:13:20Z</time>
      </trkpt>
      <trkpt lat="43.83829" lon="6.86232">
        <ele>816</ele>
        <time>2011-05-08T13:13:23Z</time>
      </trkpt>
      <trkpt lat="43.8383" lon="6.86225">
        <ele>815</ele>
        <time>2011-05-08T13:13:28Z</time>
      </trkpt>
      <trkpt lat="43.83834" lon="6.8622">
        <ele>813</ele>
        <time>2011-05-08T13:13:30Z</time>
      </trkpt>
      <trkpt lat="43.83836" lon="6.86214">
        <ele>813</ele>
        <time>2011-05-08T13:13:34Z</time>
      </trkpt>
      <trkpt lat="43.8384" lon="6.86207">
        <ele>815</ele>
        <time>2011-05-08T13:13:39Z</time>
      </trkpt>
      <trkpt lat="43.83842" lon="6.862">
        <ele>814</ele>
        <time>2011-05-08T13:13:41Z</time>
      </trkpt>
      <trkpt lat="43.83842" lon="6.86193">
        <ele>813</ele>
        <time>2011-05-08T13:13:47Z</time>
      </trkpt>
      <trkpt lat="43.83843" lon="6.86187">
        <ele>812</ele>
        <time>2011-05-08T13:13:50Z</time>
      </trkpt>
      <trkpt lat="43.83844" lon="6.86181">
        <ele>809</ele>
        <time>2011-05-08T13:13:56Z</time>
      </trkpt>
      <trkpt lat="43.83846" lon="6.86175">
        <ele>809</ele>
        <time>2011-05-08T13:13:59Z</time>
      </trkpt>
      <trkpt lat="43.83849" lon="6.86166">
        <ele>810</ele>
        <time>2011-05-08T13:14:05Z</time>
      </trkpt>
      <trkpt lat="43.83848" lon="6.8616">
        <ele>808</ele>
        <time>2011-05-08T13:14:10Z</time>
      </trkpt>
      <trkpt lat="43.83844" lon="6.86165">
        <ele>811</ele>
        <time>2011-05-08T13:14:15Z</time>
      </trkpt>
      <trkpt lat="43.83845" lon="6.86158">
        <ele>811</ele>
        <time>2011-05-08T13:14:17Z</time>
      </trkpt>
      <trkpt lat="43.83848" lon="6.86153">
        <ele>814</ele>
        <time>2011-05-08T13:14:22Z</time>
      </trkpt>
      <trkpt lat="43.83844" lon="6.86157">
        <ele>813</ele>
        <time>2011-05-08T13:14:33Z</time>
      </trkpt>
      <trkpt lat="43.83848" lon="6.86158">
        <ele>811</ele>
        <time>2011-05-08T13:14:38Z</time>
      </trkpt>
      <trkpt lat="43.83856" lon="6.86157">
        <ele>810</ele>
        <time>2011-05-08T13:14:43Z</time>
      </trkpt>
      <trkpt lat="43.83861" lon="6.86154">
        <ele>809</ele>
        <time>2011-05-08T13:14:45Z</time>
      </trkpt>
      <trkpt lat="43.83865" lon="6.8616">
        <ele>808</ele>
        <time>2011-05-08T13:14:47Z</time>
      </trkpt>
      <trkpt lat="43.83865" lon="6.86167">
        <ele>808</ele>
        <time>2011-05-08T13:14:50Z</time>
      </trkpt>
      <trkpt lat="43.83865" lon="6.86167">
        <ele>808</ele>
        <time>2011-05-08T13:14:50Z</time>
      </trkpt>
      <trkpt lat="43.83865" lon="6.86167">
        <ele>808</ele>
        <time>2011-05-08T13:14:51Z</time>
      </trkpt>
      <trkpt lat="43.83862" lon="6.86159">
        <ele>801</ele>
        <time>2011-05-08T13:14:53Z</time>
      </trkpt>
      <trkpt lat="43.83856" lon="6.86157">
        <ele>797</ele>
        <time>2011-05-08T13:14:57Z</time>
      </trkpt>
      <trkpt lat="43.83851" lon="6.86159">
        <ele>797</ele>
        <time>2011-05-08T13:15:00Z</time>
      </trkpt>
      <trkpt lat="43.8385" lon="6.86151">
        <ele>796</ele>
        <time>2011-05-08T13:15:05Z</time>
      </trkpt>
      <trkpt lat="43.83845" lon="6.8615">
        <ele>797</ele>
        <time>2011-05-08T13:15:09Z</time>
      </trkpt>
      <trkpt lat="43.83845" lon="6.86142">
        <ele>800</ele>
        <time>2011-05-08T13:15:19Z</time>
      </trkpt>
      <trkpt lat="43.83846" lon="6.86134">
        <ele>800</ele>
        <time>2011-05-08T13:15:23Z</time>
      </trkpt>
      <trkpt lat="43.83851" lon="6.86123">
        <ele>799</ele>
        <time>2011-05-08T13:15:28Z</time>
      </trkpt>
      <trkpt lat="43.83853" lon="6.86115">
        <ele>796</ele>
        <time>2011-05-08T13:15:30Z</time>
      </trkpt>
      <trkpt lat="43.83853" lon="6.86108">
        <ele>794</ele>
        <time>2011-05-08T13:15:34Z</time>
      </trkpt>
      <trkpt lat="43.83854" lon="6.86102">
        <ele>791</ele>
        <time>2011-05-08T13:15:38Z</time>
      </trkpt>
      <trkpt lat="43.83856" lon="6.86094">
        <ele>784</ele>
        <time>2011-05-08T13:15:44Z</time>
      </trkpt>
      <trkpt lat="43.83853" lon="6.86089">
        <ele>781</ele>
        <time>2011-05-08T13:15:49Z</time>
      </trkpt>
      <trkpt lat="43.83853" lon="6.86081">
        <ele>778</ele>
        <time>2011-05-08T13:16:03Z</time>
      </trkpt>
      <trkpt lat="43.83852" lon="6.86075">
        <ele>776</ele>
        <time>2011-05-08T13:16:09Z</time>
      </trkpt>
      <trkpt lat="43.8385" lon="6.86069">
        <ele>773</ele>
        <time>2011-05-08T13:16:36Z</time>
      </trkpt>
      <trkpt lat="43.83845" lon="6.86064">
        <ele>771</ele>
        <time>2011-05-08T13:16:42Z</time>
      </trkpt>
      <trkpt lat="43.83845" lon="6.86055">
        <ele>769</ele>
        <time>2011-05-08T13:16:44Z</time>
      </trkpt>
      <trkpt lat="43.83843" lon="6.86048">
        <ele>768</ele>
        <time>2011-05-08T13:16:48Z</time>
      </trkpt>
      <trkpt lat="43.83838" lon="6.86046">
        <ele>768</ele>
        <time>2011-05-08T13:16:52Z</time>
      </trkpt>
      <trkpt lat="43.83833" lon="6.86047">
        <ele>768</ele>
        <time>2011-05-08T13:16:54Z</time>
      </trkpt>
      <trkpt lat="43.83827" lon="6.86045">
        <ele>770</ele>
        <time>2011-05-08T13:17:02Z</time>
      </trkpt>
      <trkpt lat="43.83824" lon="6.8604">
        <ele>769</ele>
        <time>2011-05-08T13:17:07Z</time>
      </trkpt>
      <trkpt lat="43.83824" lon="6.8604">
        <ele>769</ele>
        <time>2011-05-08T13:17:07Z</time>
      </trkpt>
      <trkpt lat="43.83824" lon="6.8604">
        <ele>768</ele>
        <time>2011-05-08T13:17:09Z</time>
      </trkpt>
      <trkpt lat="43.83826" lon="6.86034">
        <ele>766</ele>
        <time>2011-05-08T13:17:22Z</time>
      </trkpt>
      <trkpt lat="43.83831" lon="6.8603">
        <ele>767</ele>
        <time>2011-05-08T13:17:36Z</time>
      </trkpt>
      <trkpt lat="43.83831" lon="6.86023">
        <ele>771</ele>
        <time>2011-05-08T13:17:56Z</time>
      </trkpt>
      <trkpt lat="43.83835" lon="6.86028">
        <ele>772</ele>
        <time>2011-05-08T13:18:02Z</time>
      </trkpt>
      <trkpt lat="43.83839" lon="6.86028">
        <ele>771</ele>
        <time>2011-05-08T13:18:42Z</time>
      </trkpt>
      <trkpt lat="43.83844" lon="6.86023">
        <ele>770</ele>
        <time>2011-05-08T13:18:44Z</time>
      </trkpt>
      <trkpt lat="43.83843" lon="6.86016">
        <ele>769</ele>
        <time>2011-05-08T13:18:50Z</time>
      </trkpt>
      <trkpt lat="43.8384" lon="6.86022">
        <ele>772</ele>
        <time>2011-05-08T13:19:01Z</time>
      </trkpt>
      <trkpt lat="43.83842" lon="6.86015">
        <ele>772</ele>
        <time>2011-05-08T13:19:04Z</time>
      </trkpt>
      <trkpt lat="43.83844" lon="6.86006">
        <ele>770</ele>
        <time>2011-05-08T13:19:11Z</time>
      </trkpt>
      <trkpt lat="43.83845" lon="6.86">
        <ele>772</ele>
        <time>2011-05-08T13:19:18Z</time>
      </trkpt>
      <trkpt lat="43.83845" lon="6.86">
        <ele>772</ele>
        <time>2011-05-08T13:19:18Z</time>
      </trkpt>
      <trkpt lat="43.83845" lon="6.86">
        <ele>773</ele>
        <time>2011-05-08T13:19:19Z</time>
      </trkpt>
      <trkpt lat="43.83847" lon="6.85993">
        <ele>773</ele>
        <time>2011-05-08T13:19:23Z</time>
      </trkpt>
      <trkpt lat="43.83851" lon="6.85987">
        <ele>773</ele>
        <time>2011-05-08T13:19:27Z</time>
      </trkpt>
      <trkpt lat="43.83852" lon="6.8598">
        <ele>775</ele>
        <time>2011-05-08T13:19:31Z</time>
      </trkpt>
      <trkpt lat="43.83856" lon="6.85985">
        <ele>776</ele>
        <time>2011-05-08T13:19:45Z</time>
      </trkpt>
      <trkpt lat="43.8386" lon="6.85989">
        <ele>776</ele>
        <time>2011-05-08T13:20:02Z</time>
      </trkpt>
      <trkpt lat="43.83863" lon="6.85994">
        <ele>776</ele>
        <time>2011-05-08T13:20:05Z</time>
      </trkpt>
      <trkpt lat="43.83867" lon="6.85998">
        <ele>777</ele>
        <time>2011-05-08T13:20:11Z</time>
      </trkpt>
      <trkpt lat="43.8387" lon="6.86002">
        <ele>778</ele>
        <time>2011-05-08T13:20:18Z</time>
      </trkpt>
      <trkpt lat="43.8387" lon="6.86002">
        <ele>778</ele>
        <time>2011-05-08T13:20:18Z</time>
      </trkpt>
      <trkpt lat="43.8387" lon="6.86002">
        <ele>779</ele>
        <time>2011-05-08T13:20:27Z</time>
      </trkpt>
      <trkpt lat="43.83877" lon="6.86002">
        <ele>782</ele>
        <time>2011-05-08T13:20:42Z</time>
      </trkpt>
      <trkpt lat="43.83882" lon="6.86004">
        <ele>784</ele>
        <time>2011-05-08T13:20:45Z</time>
      </trkpt>
      <trkpt lat="43.83884" lon="6.8601">
        <ele>784</ele>
        <time>2011-05-08T13:20:48Z</time>
      </trkpt>
      <trkpt lat="43.83887" lon="6.86016">
        <ele>783</ele>
        <time>2011-05-08T13:20:54Z</time>
      </trkpt>
      <trkpt lat="43.83888" lon="6.86022">
        <ele>784</ele>
        <time>2011-05-08T13:20:59Z</time>
      </trkpt>
      <trkpt lat="43.83886" lon="6.86017">
        <ele>788</ele>
        <time>2011-05-08T13:21:13Z</time>
      </trkpt>
      <trkpt lat="43.83881" lon="6.86017">
        <ele>791</ele>
        <time>2011-05-08T13:21:18Z</time>
      </trkpt>
      <trkpt lat="43.83883" lon="6.86006">
        <ele>788</ele>
        <time>2011-05-08T13:21:22Z</time>
      </trkpt>
      <trkpt lat="43.83884" lon="6.86">
        <ele>788</ele>
        <time>2011-05-08T13:21:27Z</time>
      </trkpt>
      <trkpt lat="43.83888" lon="6.85994">
        <ele>790</ele>
        <time>2011-05-08T13:21:29Z</time>
      </trkpt>
      <trkpt lat="43.83891" lon="6.85987">
        <ele>791</ele>
        <time>2011-05-08T13:21:32Z</time>
      </trkpt>
      <trkpt lat="43.83895" lon="6.85994">
        <ele>790</ele>
        <time>2011-05-08T13:21:35Z</time>
      </trkpt>
      <trkpt lat="43.83898" lon="6.86">
        <ele>792</ele>
        <time>2011-05-08T13:21:39Z</time>
      </trkpt>
      <trkpt lat="43.83903" lon="6.86003">
        <ele>793</ele>
        <time>2011-05-08T13:21:44Z</time>
      </trkpt>
      <trkpt lat="43.839" lon="6.85995">
        <ele>794</ele>
        <time>2011-05-08T13:21:53Z</time>
      </trkpt>
      <trkpt lat="43.83904" lon="6.85998">
        <ele>792</ele>
        <time>2011-05-08T13:22:00Z</time>
      </trkpt>
      <trkpt lat="43.83903" lon="6.86004">
        <ele>792</ele>
        <time>2011-05-08T13:22:03Z</time>
      </trkpt>
      <trkpt lat="43.83905" lon="6.8601">
        <ele>792</ele>
        <time>2011-05-08T13:22:08Z</time>
      </trkpt>
      <trkpt lat="43.83906" lon="6.86016">
        <ele>792</ele>
        <time>2011-05-08T13:22:14Z</time>
      </trkpt>
      <trkpt lat="43.83912" lon="6.86017">
        <ele>794</ele>
        <time>2011-05-08T13:22:22Z</time>
      </trkpt>
      <trkpt lat="43.83912" lon="6.86017">
        <ele>794</ele>
        <time>2011-05-08T13:22:22Z</time>
      </trkpt>
      <trkpt lat="43.83912" lon="6.86017">
        <ele>794</ele>
        <time>2011-05-08T13:22:24Z</time>
      </trkpt>
      <trkpt lat="43.83917" lon="6.86018">
        <ele>796</ele>
        <time>2011-05-08T13:22:28Z</time>
      </trkpt>
      <trkpt lat="43.83917" lon="6.86018">
        <ele>796</ele>
        <time>2011-05-08T13:22:28Z</time>
      </trkpt>
      <trkpt lat="43.83917" lon="6.86018">
        <ele>796</ele>
        <time>2011-05-08T13:22:29Z</time>
      </trkpt>
      <trkpt lat="43.8392" lon="6.86011">
        <ele>799</ele>
        <time>2011-05-08T13:22:41Z</time>
      </trkpt>
      <trkpt lat="43.83919" lon="6.86003">
        <ele>798</ele>
        <time>2011-05-08T13:22:45Z</time>
      </trkpt>
      <trkpt lat="43.83921" lon="6.85997">
        <ele>798</ele>
        <time>2011-05-08T13:22:48Z</time>
      </trkpt>
      <trkpt lat="43.83924" lon="6.85992">
        <ele>800</ele>
        <time>2011-05-08T13:22:55Z</time>
      </trkpt>
      <trkpt lat="43.83929" lon="6.85993">
        <ele>803</ele>
        <time>2011-05-08T13:23:03Z</time>
      </trkpt>
      <trkpt lat="43.83934" lon="6.85992">
        <ele>803</ele>
        <time>2011-05-08T13:23:09Z</time>
      </trkpt>
      <trkpt lat="43.83939" lon="6.85993">
        <ele>804</ele>
        <time>2011-05-08T13:23:12Z</time>
      </trkpt>
      <trkpt lat="43.83944" lon="6.85994">
        <ele>804</ele>
        <time>2011-05-08T13:23:15Z</time>
      </trkpt>
      <trkpt lat="43.83949" lon="6.85995">
        <ele>805</ele>
        <time>2011-05-08T13:23:20Z</time>
      </trkpt>
      <trkpt lat="43.83952" lon="6.85989">
        <ele>808</ele>
        <time>2011-05-08T13:23:31Z</time>
      </trkpt>
      <trkpt lat="43.83952" lon="6.85989">
        <ele>808</ele>
        <time>2011-05-08T13:23:31Z</time>
      </trkpt>
      <trkpt lat="43.83952" lon="6.85989">
        <ele>809</ele>
        <time>2011-05-08T13:23:32Z</time>
      </trkpt>
      <trkpt lat="43.83956" lon="6.85987">
        <ele>809</ele>
        <time>2011-05-08T13:23:40Z</time>
      </trkpt>
      <trkpt lat="43.83952" lon="6.85984">
        <ele>811</ele>
        <time>2011-05-08T13:23:51Z</time>
      </trkpt>
      <trkpt lat="43.83953" lon="6.85976">
        <ele>810</ele>
        <time>2011-05-08T13:23:56Z</time>
      </trkpt>
      <trkpt lat="43.83956" lon="6.85971">
        <ele>810</ele>
        <time>2011-05-08T13:23:58Z</time>
      </trkpt>
      <trkpt lat="43.8396" lon="6.85966">
        <ele>810</ele>
        <time>2011-05-08T13:24:00Z</time>
      </trkpt>
      <trkpt lat="43.83964" lon="6.85969">
        <ele>809</ele>
        <time>2011-05-08T13:24:05Z</time>
      </trkpt>
      <trkpt lat="43.83967" lon="6.85974">
        <ele>810</ele>
        <time>2011-05-08T13:24:11Z</time>
      </trkpt>
      <trkpt lat="43.83971" lon="6.85977">
        <ele>812</ele>
        <time>2011-05-08T13:24:21Z</time>
      </trkpt>
      <trkpt lat="43.83975" lon="6.85982">
        <ele>813</ele>
        <time>2011-05-08T13:24:27Z</time>
      </trkpt>
      <trkpt lat="43.83979" lon="6.85985">
        <ele>814</ele>
        <time>2011-05-08T13:24:33Z</time>
      </trkpt>
      <trkpt lat="43.83983" lon="6.85988">
        <ele>816</ele>
        <time>2011-05-08T13:24:39Z</time>
      </trkpt>
      <trkpt lat="43.83987" lon="6.8599">
        <ele>815</ele>
        <time>2011-05-08T13:24:43Z</time>
      </trkpt>
      <trkpt lat="43.83991" lon="6.85995">
        <ele>815</ele>
        <time>2011-05-08T13:24:52Z</time>
      </trkpt>
      <trkpt lat="43.83996" lon="6.85998">
        <ele>817</ele>
        <time>2011-05-08T13:24:56Z</time>
      </trkpt>
      <trkpt lat="43.84" lon="6.86">
        <ele>819</ele>
        <time>2011-05-08T13:25:01Z</time>
      </trkpt>
      <trkpt lat="43.84003" lon="6.86006">
        <ele>820</ele>
        <time>2011-05-08T13:25:07Z</time>
      </trkpt>
      <trkpt lat="43.84007" lon="6.8601">
        <ele>822</ele>
        <time>2011-05-08T13:25:12Z</time>
      </trkpt>
      <trkpt lat="43.84009" lon="6.86016">
        <ele>823</ele>
        <time>2011-05-08T13:25:18Z</time>
      </trkpt>
      <trkpt lat="43.84013" lon="6.86019">
        <ele>824</ele>
        <time>2011-05-08T13:25:24Z</time>
      </trkpt>
      <trkpt lat="43.84017" lon="6.86023">
        <ele>824</ele>
        <time>2011-05-08T13:25:29Z</time>
      </trkpt>
      <trkpt lat="43.8402" lon="6.86028">
        <ele>824</ele>
        <time>2011-05-08T13:25:35Z</time>
      </trkpt>
      <trkpt lat="43.84024" lon="6.86032">
        <ele>825</ele>
        <time>2011-05-08T13:25:40Z</time>
      </trkpt>
      <trkpt lat="43.84029" lon="6.86033">
        <ele>826</ele>
        <time>2011-05-08T13:25:52Z</time>
      </trkpt>
      <trkpt lat="43.84034" lon="6.86034">
        <ele>829</ele>
        <time>2011-05-08T13:25:57Z</time>
      </trkpt>
      <trkpt lat="43.84039" lon="6.86032">
        <ele>832</ele>
        <time>2011-05-08T13:26:12Z</time>
      </trkpt>
      <trkpt lat="43.84044" lon="6.86031">
        <ele>833</ele>
        <time>2011-05-08T13:26:16Z</time>
      </trkpt>
      <trkpt lat="43.84049" lon="6.8603">
        <ele>834</ele>
        <time>2011-05-08T13:26:20Z</time>
      </trkpt>
      <trkpt lat="43.84053" lon="6.8603">
        <ele>837</ele>
        <time>2011-05-08T13:26:25Z</time>
      </trkpt>
      <trkpt lat="43.84058" lon="6.86034">
        <ele>836</ele>
        <time>2011-05-08T13:26:33Z</time>
      </trkpt>
      <trkpt lat="43.84063" lon="6.86034">
        <ele>835</ele>
        <time>2011-05-08T13:26:37Z</time>
      </trkpt>
      <trkpt lat="43.84067" lon="6.86038">
        <ele>837</ele>
        <time>2011-05-08T13:26:41Z</time>
      </trkpt>
      <trkpt lat="43.84069" lon="6.86044">
        <ele>838</ele>
        <time>2011-05-08T13:26:47Z</time>
      </trkpt>
      <trkpt lat="43.84073" lon="6.86046">
        <ele>839</ele>
        <time>2011-05-08T13:26:52Z</time>
      </trkpt>
      <trkpt lat="43.84076" lon="6.86052">
        <ele>840</ele>
        <time>2011-05-08T13:26:59Z</time>
      </trkpt>
      <trkpt lat="43.84079" lon="6.86058">
        <ele>843</ele>
        <time>2011-05-08T13:27:05Z</time>
      </trkpt>
      <trkpt lat="43.84083" lon="6.8606">
        <ele>842</ele>
        <time>2011-05-08T13:27:13Z</time>
      </trkpt>
      <trkpt lat="43.84087" lon="6.86063">
        <ele>843</ele>
        <time>2011-05-08T13:27:19Z</time>
      </trkpt>
      <trkpt lat="43.84091" lon="6.8607">
        <ele>845</ele>
        <time>2011-05-08T13:27:27Z</time>
      </trkpt>
      <trkpt lat="43.84097" lon="6.8607">
        <ele>846</ele>
        <time>2011-05-08T13:27:35Z</time>
      </trkpt>
      <trkpt lat="43.84097" lon="6.8607">
        <ele>846</ele>
        <time>2011-05-08T13:27:35Z</time>
      </trkpt>
      <trkpt lat="43.84097" lon="6.8607">
        <ele>846</ele>
        <time>2011-05-08T13:27:36Z</time>
      </trkpt>
      <trkpt lat="43.84098" lon="6.86077">
        <ele>849</ele>
        <time>2011-05-08T13:27:42Z</time>
      </trkpt>
      <trkpt lat="43.84103" lon="6.86079">
        <ele>847</ele>
        <time>2011-05-08T13:27:49Z</time>
      </trkpt>
      <trkpt lat="43.84106" lon="6.86084">
        <ele>846</ele>
        <time>2011-05-08T13:27:58Z</time>
      </trkpt>
      <trkpt lat="43.8411" lon="6.86086">
        <ele>845</ele>
        <time>2011-05-08T13:28:02Z</time>
      </trkpt>
      <trkpt lat="43.84115" lon="6.86089">
        <ele>846</ele>
        <time>2011-05-08T13:28:08Z</time>
      </trkpt>
      <trkpt lat="43.84118" lon="6.86095">
        <ele>846</ele>
        <time>2011-05-08T13:28:15Z</time>
      </trkpt>
      <trkpt lat="43.84122" lon="6.86099">
        <ele>846</ele>
        <time>2011-05-08T13:28:19Z</time>
      </trkpt>
      <trkpt lat="43.84126" lon="6.86097">
        <ele>847</ele>
        <time>2011-05-08T13:28:31Z</time>
      </trkpt>
      <trkpt lat="43.84131" lon="6.86094">
        <ele>847</ele>
        <time>2011-05-08T13:28:34Z</time>
      </trkpt>
      <trkpt lat="43.84136" lon="6.86091">
        <ele>848</ele>
        <time>2011-05-08T13:28:39Z</time>
      </trkpt>
      <trkpt lat="43.8414" lon="6.86088">
        <ele>848</ele>
        <time>2011-05-08T13:28:46Z</time>
      </trkpt>
      <trkpt lat="43.84136" lon="6.86083">
        <ele>848</ele>
        <time>2011-05-08T13:28:51Z</time>
      </trkpt>
      <trkpt lat="43.84132" lon="6.86087">
        <ele>851</ele>
        <time>2011-05-08T13:28:56Z</time>
      </trkpt>
      <trkpt lat="43.84136" lon="6.8608">
        <ele>852</ele>
        <time>2011-05-08T13:29:09Z</time>
      </trkpt>
      <trkpt lat="43.84141" lon="6.86078">
        <ele>854</ele>
        <time>2011-05-08T13:29:16Z</time>
      </trkpt>
      <trkpt lat="43.84145" lon="6.86076">
        <ele>855</ele>
        <time>2011-05-08T13:29:23Z</time>
      </trkpt>
      <trkpt lat="43.84145" lon="6.86076">
        <ele>855</ele>
        <time>2011-05-08T13:29:23Z</time>
      </trkpt>
      <trkpt lat="43.84145" lon="6.86076">
        <ele>855</ele>
        <time>2011-05-08T13:29:24Z</time>
      </trkpt>
      <trkpt lat="43.8415" lon="6.86073">
        <ele>856</ele>
        <time>2011-05-08T13:29:34Z</time>
      </trkpt>
      <trkpt lat="43.84155" lon="6.86069">
        <ele>857</ele>
        <time>2011-05-08T13:29:37Z</time>
      </trkpt>
      <trkpt lat="43.8416" lon="6.86069">
        <ele>857</ele>
        <time>2011-05-08T13:29:42Z</time>
      </trkpt>
      <trkpt lat="43.84166" lon="6.86067">
        <ele>860</ele>
        <time>2011-05-08T13:29:56Z</time>
      </trkpt>
      <trkpt lat="43.84171" lon="6.86067">
        <ele>858</ele>
        <time>2011-05-08T13:30:00Z</time>
      </trkpt>
      <trkpt lat="43.84176" lon="6.86066">
        <ele>860</ele>
        <time>2011-05-08T13:30:07Z</time>
      </trkpt>
      <trkpt lat="43.84171" lon="6.86068">
        <ele>864</ele>
        <time>2011-05-08T13:30:12Z</time>
      </trkpt>
      <trkpt lat="43.84166" lon="6.86068">
        <ele>866</ele>
        <time>2011-05-08T13:30:19Z</time>
      </trkpt>
      <trkpt lat="43.84162" lon="6.86064">
        <ele>870</ele>
        <time>2011-05-08T13:30:25Z</time>
      </trkpt>
      <trkpt lat="43.84158" lon="6.86063">
        <ele>871</ele>
        <time>2011-05-08T13:30:31Z</time>
      </trkpt>
      <trkpt lat="43.84153" lon="6.86066">
        <ele>873</ele>
        <time>2011-05-08T13:30:35Z</time>
      </trkpt>
      <trkpt lat="43.84148" lon="6.86063">
        <ele>873</ele>
        <time>2011-05-08T13:30:41Z</time>
      </trkpt>
      <trkpt lat="43.84144" lon="6.86059">
        <ele>873</ele>
        <time>2011-05-08T13:30:47Z</time>
      </trkpt>
      <trkpt lat="43.84144" lon="6.86053">
        <ele>875</ele>
        <time>2011-05-08T13:30:53Z</time>
      </trkpt>
      <trkpt lat="43.84148" lon="6.86049">
        <ele>873</ele>
        <time>2011-05-08T13:31:01Z</time>
      </trkpt>
      <trkpt lat="43.84152" lon="6.86047">
        <ele>873</ele>
        <time>2011-05-08T13:31:04Z</time>
      </trkpt>
      <trkpt lat="43.84157" lon="6.86046">
        <ele>873</ele>
        <time>2011-05-08T13:31:08Z</time>
      </trkpt>
      <trkpt lat="43.84162" lon="6.86044">
        <ele>872</ele>
        <time>2011-05-08T13:31:22Z</time>
      </trkpt>
      <trkpt lat="43.84162" lon="6.86044">
        <ele>872</ele>
        <time>2011-05-08T13:31:22Z</time>
      </trkpt>
      <trkpt lat="43.84162" lon="6.86044">
        <ele>876</ele>
        <time>2011-05-08T13:31:33Z</time>
      </trkpt>
      <trkpt lat="43.84159" lon="6.86048">
        <ele>882</ele>
        <time>2011-05-08T13:32:09Z</time>
      </trkpt>
      <trkpt lat="43.84154" lon="6.86047">
        <ele>881</ele>
        <time>2011-05-08T13:32:13Z</time>
      </trkpt>
      <trkpt lat="43.84148" lon="6.86046">
        <ele>881</ele>
        <time>2011-05-08T13:32:17Z</time>
      </trkpt>
      <trkpt lat="43.84143" lon="6.86045">
        <ele>881</ele>
        <time>2011-05-08T13:32:21Z</time>
      </trkpt>
      <trkpt lat="43.84139" lon="6.86042">
        <ele>883</ele>
        <time>2011-05-08T13:32:27Z</time>
      </trkpt>
      <trkpt lat="43.84143" lon="6.86039">
        <ele>883</ele>
        <time>2011-05-08T13:32:31Z</time>
      </trkpt>
      <trkpt lat="43.84147" lon="6.86035">
        <ele>883</ele>
        <time>2011-05-08T13:32:34Z</time>
      </trkpt>
      <trkpt lat="43.84152" lon="6.86034">
        <ele>883</ele>
        <time>2011-05-08T13:32:41Z</time>
      </trkpt>
      <trkpt lat="43.84157" lon="6.86034">
        <ele>884</ele>
        <time>2011-05-08T13:32:46Z</time>
      </trkpt>
      <trkpt lat="43.84162" lon="6.86034">
        <ele>885</ele>
        <time>2011-05-08T13:32:51Z</time>
      </trkpt>
      <trkpt lat="43.84168" lon="6.86033">
        <ele>885</ele>
        <time>2011-05-08T13:32:55Z</time>
      </trkpt>
      <trkpt lat="43.84173" lon="6.86034">
        <ele>884</ele>
        <time>2011-05-08T13:33:00Z</time>
      </trkpt>
      <trkpt lat="43.84178" lon="6.86033">
        <ele>884</ele>
        <time>2011-05-08T13:33:04Z</time>
      </trkpt>
      <trkpt lat="43.84183" lon="6.86032">
        <ele>884</ele>
        <time>2011-05-08T13:33:11Z</time>
      </trkpt>
      <trkpt lat="43.84188" lon="6.86032">
        <ele>885</ele>
        <time>2011-05-08T13:33:16Z</time>
      </trkpt>
      <trkpt lat="43.84193" lon="6.86031">
        <ele>885</ele>
        <time>2011-05-08T13:33:23Z</time>
      </trkpt>
      <trkpt lat="43.84199" lon="6.86032">
        <ele>885</ele>
        <time>2011-05-08T13:33:27Z</time>
      </trkpt>
      <trkpt lat="43.84204" lon="6.86032">
        <ele>886</ele>
        <time>2011-05-08T13:33:32Z</time>
      </trkpt>
      <trkpt lat="43.84209" lon="6.86032">
        <ele>886</ele>
        <time>2011-05-08T13:33:37Z</time>
      </trkpt>
      <trkpt lat="43.84214" lon="6.86032">
        <ele>887</ele>
        <time>2011-05-08T13:33:44Z</time>
      </trkpt>
      <trkpt lat="43.8422" lon="6.86032">
        <ele>888</ele>
        <time>2011-05-08T13:33:49Z</time>
      </trkpt>
      <trkpt lat="43.84225" lon="6.86032">
        <ele>889</ele>
        <time>2011-05-08T13:33:54Z</time>
      </trkpt>
      <trkpt lat="43.8423" lon="6.86033">
        <ele>889</ele>
        <time>2011-05-08T13:33:59Z</time>
      </trkpt>
      <trkpt lat="43.84235" lon="6.86035">
        <ele>889</ele>
        <time>2011-05-08T13:34:04Z</time>
      </trkpt>
      <trkpt lat="43.8424" lon="6.86036">
        <ele>890</ele>
        <time>2011-05-08T13:34:09Z</time>
      </trkpt>
      <trkpt lat="43.84246" lon="6.86037">
        <ele>891</ele>
        <time>2011-05-08T13:34:14Z</time>
      </trkpt>
      <trkpt lat="43.8425" lon="6.86038">
        <ele>893</ele>
        <time>2011-05-08T13:34:19Z</time>
      </trkpt>
      <trkpt lat="43.84256" lon="6.8604">
        <ele>892</ele>
        <time>2011-05-08T13:34:23Z</time>
      </trkpt>
      <trkpt lat="43.8426" lon="6.86043">
        <ele>892</ele>
        <time>2011-05-08T13:34:27Z</time>
      </trkpt>
      <trkpt lat="43.84263" lon="6.86048">
        <ele>892</ele>
        <time>2011-05-08T13:34:31Z</time>
      </trkpt>
      <trkpt lat="43.84266" lon="6.86054">
        <ele>892</ele>
        <time>2011-05-08T13:34:35Z</time>
      </trkpt>
      <trkpt lat="43.84266" lon="6.86061">
        <ele>891</ele>
        <time>2011-05-08T13:34:38Z</time>
      </trkpt>
      <trkpt lat="43.84266" lon="6.86068">
        <ele>892</ele>
        <time>2011-05-08T13:34:44Z</time>
      </trkpt>
      <trkpt lat="43.84266" lon="6.86075">
        <ele>893</ele>
        <time>2011-05-08T13:34:49Z</time>
      </trkpt>
      <trkpt lat="43.84268" lon="6.86081">
        <ele>893</ele>
        <time>2011-05-08T13:34:54Z</time>
      </trkpt>
      <trkpt lat="43.84265" lon="6.86086">
        <ele>895</ele>
        <time>2011-05-08T13:34:57Z</time>
      </trkpt>
      <trkpt lat="43.84265" lon="6.86094">
        <ele>896</ele>
        <time>2011-05-08T13:35:02Z</time>
      </trkpt>
      <trkpt lat="43.84268" lon="6.861">
        <ele>897</ele>
        <time>2011-05-08T13:35:08Z</time>
      </trkpt>
      <trkpt lat="43.84274" lon="6.86102">
        <ele>898</ele>
        <time>2011-05-08T13:35:12Z</time>
      </trkpt>
      <trkpt lat="43.84278" lon="6.86104">
        <ele>898</ele>
        <time>2011-05-08T13:35:17Z</time>
      </trkpt>
      <trkpt lat="43.84283" lon="6.86108">
        <ele>899</ele>
        <time>2011-05-08T13:35:24Z</time>
      </trkpt>
      <trkpt lat="43.84288" lon="6.86112">
        <ele>899</ele>
        <time>2011-05-08T13:35:28Z</time>
      </trkpt>
      <trkpt lat="43.84292" lon="6.86116">
        <ele>901</ele>
        <time>2011-05-08T13:35:32Z</time>
      </trkpt>
      <trkpt lat="43.84296" lon="6.86123">
        <ele>901</ele>
        <time>2011-05-08T13:35:39Z</time>
      </trkpt>
      <trkpt lat="43.843" lon="6.8612">
        <ele>902</ele>
        <time>2011-05-08T13:35:50Z</time>
      </trkpt>
      <trkpt lat="43.84295" lon="6.86116">
        <ele>905</ele>
        <time>2011-05-08T13:35:58Z</time>
      </trkpt>
      <trkpt lat="43.84297" lon="6.86111">
        <ele>906</ele>
        <time>2011-05-08T13:36:03Z</time>
      </trkpt>
      <trkpt lat="43.84294" lon="6.86106">
        <ele>906</ele>
        <time>2011-05-08T13:36:10Z</time>
      </trkpt>
      <trkpt lat="43.8429" lon="6.86102">
        <ele>908</ele>
        <time>2011-05-08T13:36:20Z</time>
      </trkpt>
      <trkpt lat="43.8429" lon="6.86093">
        <ele>910</ele>
        <time>2011-05-08T13:36:28Z</time>
      </trkpt>
      <trkpt lat="43.84291" lon="6.86085">
        <ele>911</ele>
        <time>2011-05-08T13:36:36Z</time>
      </trkpt>
      <trkpt lat="43.84295" lon="6.86083">
        <ele>911</ele>
        <time>2011-05-08T13:36:44Z</time>
      </trkpt>
      <trkpt lat="43.84301" lon="6.8608">
        <ele>911</ele>
        <time>2011-05-08T13:37:02Z</time>
      </trkpt>
      <trkpt lat="43.84306" lon="6.86079">
        <ele>912</ele>
        <time>2011-05-08T13:37:05Z</time>
      </trkpt>
      <trkpt lat="43.84309" lon="6.86084">
        <ele>912</ele>
        <time>2011-05-08T13:37:14Z</time>
      </trkpt>
      <trkpt lat="43.84314" lon="6.86083">
        <ele>913</ele>
        <time>2011-05-08T13:37:17Z</time>
      </trkpt>
      <trkpt lat="43.84314" lon="6.86083">
        <ele>913</ele>
        <time>2011-05-08T13:37:17Z</time>
      </trkpt>
      <trkpt lat="43.84314" lon="6.86083">
        <ele>913</ele>
        <time>2011-05-08T13:37:19Z</time>
      </trkpt>
      <trkpt lat="43.84318" lon="6.86084">
        <ele>916</ele>
        <time>2011-05-08T13:37:27Z</time>
      </trkpt>
      <trkpt lat="43.84319" lon="6.86077">
        <ele>917</ele>
        <time>2011-05-08T13:37:41Z</time>
      </trkpt>
      <trkpt lat="43.8432" lon="6.86071">
        <ele>919</ele>
        <time>2011-05-08T13:37:51Z</time>
      </trkpt>
      <trkpt lat="43.84324" lon="6.86067">
        <ele>919</ele>
        <time>2011-05-08T13:37:58Z</time>
      </trkpt>
      <trkpt lat="43.84328" lon="6.86063">
        <ele>920</ele>
        <time>2011-05-08T13:38:02Z</time>
      </trkpt>
      <trkpt lat="43.84332" lon="6.86061">
        <ele>922</ele>
        <time>2011-05-08T13:38:13Z</time>
      </trkpt>
      <trkpt lat="43.84337" lon="6.86058">
        <ele>922</ele>
        <time>2011-05-08T13:38:17Z</time>
      </trkpt>
      <trkpt lat="43.84344" lon="6.86059">
        <ele>923</ele>
        <time>2011-05-08T13:38:27Z</time>
      </trkpt>
      <trkpt lat="43.84348" lon="6.86055">
        <ele>923</ele>
        <time>2011-05-08T13:38:33Z</time>
      </trkpt>
      <trkpt lat="43.84353" lon="6.86054">
        <ele>926</ele>
        <time>2011-05-08T13:38:47Z</time>
      </trkpt>
      <trkpt lat="43.84348" lon="6.8605">
        <ele>937</ele>
        <time>2011-05-08T13:39:00Z</time>
      </trkpt>
      <trkpt lat="43.84347" lon="6.86043">
        <ele>938</ele>
        <time>2011-05-08T13:39:08Z</time>
      </trkpt>
      <trkpt lat="43.84352" lon="6.86041">
        <ele>938</ele>
        <time>2011-05-08T13:39:15Z</time>
      </trkpt>
      <trkpt lat="43.84356" lon="6.86044">
        <ele>938</ele>
        <time>2011-05-08T13:39:22Z</time>
      </trkpt>
      <trkpt lat="43.84355" lon="6.86037">
        <ele>938</ele>
        <time>2011-05-08T13:39:33Z</time>
      </trkpt>
      <trkpt lat="43.84355" lon="6.86037">
        <ele>938</ele>
        <time>2011-05-08T13:39:33Z</time>
      </trkpt>
      <trkpt lat="43.84355" lon="6.86037">
        <ele>938</ele>
        <time>2011-05-08T13:39:34Z</time>
      </trkpt>
      <trkpt lat="43.84353" lon="6.86031">
        <ele>937</ele>
        <time>2011-05-08T13:39:40Z</time>
      </trkpt>
      <trkpt lat="43.84353" lon="6.86024">
        <ele>937</ele>
        <time>2011-05-08T13:39:44Z</time>
      </trkpt>
      <trkpt lat="43.84351" lon="6.86018">
        <ele>938</ele>
        <time>2011-05-08T13:39:49Z</time>
      </trkpt>
      <trkpt lat="43.84351" lon="6.86012">
        <ele>937</ele>
        <time>2011-05-08T13:39:53Z</time>
      </trkpt>
      <trkpt lat="43.84354" lon="6.86006">
        <ele>935</ele>
        <time>2011-05-08T13:39:59Z</time>
      </trkpt>
      <trkpt lat="43.84355" lon="6.85998">
        <ele>934</ele>
        <time>2011-05-08T13:40:04Z</time>
      </trkpt>
      <trkpt lat="43.84355" lon="6.85998">
        <ele>934</ele>
        <time>2011-05-08T13:40:04Z</time>
      </trkpt>
      <trkpt lat="43.84355" lon="6.85998">
        <ele>934</ele>
        <time>2011-05-08T13:40:05Z</time>
      </trkpt>
      <trkpt lat="43.8436" lon="6.85999">
        <ele>934</ele>
        <time>2011-05-08T13:40:11Z</time>
      </trkpt>
      <trkpt lat="43.84362" lon="6.86005">
        <ele>937</ele>
        <time>2011-05-08T13:40:20Z</time>
      </trkpt>
      <trkpt lat="43.84362" lon="6.86012">
        <ele>938</ele>
        <time>2011-05-08T13:40:25Z</time>
      </trkpt>
      <trkpt lat="43.8436" lon="6.86019">
        <ele>940</ele>
        <time>2011-05-08T13:40:31Z</time>
      </trkpt>
      <trkpt lat="43.84365" lon="6.86017">
        <ele>939</ele>
        <time>2011-05-08T13:40:47Z</time>
      </trkpt>
      <trkpt lat="43.84368" lon="6.86012">
        <ele>938</ele>
        <time>2011-05-08T13:40:51Z</time>
      </trkpt>
      <trkpt lat="43.84365" lon="6.86006">
        <ele>939</ele>
        <time>2011-05-08T13:41:08Z</time>
      </trkpt>
      <trkpt lat="43.84366" lon="6.85998">
        <ele>939</ele>
        <time>2011-05-08T13:41:12Z</time>
      </trkpt>
      <trkpt lat="43.84365" lon="6.85992">
        <ele>940</ele>
        <time>2011-05-08T13:41:17Z</time>
      </trkpt>
      <trkpt lat="43.84366" lon="6.85985">
        <ele>940</ele>
        <time>2011-05-08T13:41:24Z</time>
      </trkpt>
      <trkpt lat="43.84366" lon="6.85979">
        <ele>940</ele>
        <time>2011-05-08T13:41:28Z</time>
      </trkpt>
    </trkseg>
  </trk>
</gpx>